﻿<?xml version="1.0" encoding="UTF-8"?>
<gpx xmlns="http://www.topografix.com/GPX/1/1" creator="HOLUX ezTour Plus" version="1.1">
<metadata>
<link href="http://www.holux.com"><text>HOLUX Technology, Inc.</text></link>
<time>2012-08-01T18:48:38Z</time></metadata>
<trk>
<name><![CDATA[raw5]]></name>
<trkseg>
<trkpt lat="64.058097839" lon="-19.246486664">
<ele>89.689453</ele>
<time>2012-07-22T11:45:36Z</time>
<speed>0.130000</speed>
<extensions>
<speed>0.1</speed>
<temp>0.00</temp>
<bpm>0</bpm>
<rpm>0.00</rpm>
</extensions>
</trkpt>
<trkpt lat="64.058151245" lon="-19.246315002">
<ele>89.693359</ele>
<time>2012-07-22T11:45:41Z</time>
<speed>0.060000</speed>
<extensions>
<speed>0.1</speed>
<temp>0.00</temp>
<bpm>0</bpm>
<rpm>0.00</rpm>
</extensions>
</trkpt>
<trkpt lat="64.058135986" lon="-19.246295929">
<ele>89.669922</ele>
<time>2012-07-22T11:45:46Z</time>
<speed>0.270000</speed>
<extensions>
<speed>0.3</speed>
<temp>0.00</temp>
<bpm>0</bpm>
<rpm>0.00</rpm>
</extensions>
</trkpt>
<trkpt lat="64.058128357" lon="-19.246192932">
<ele>89.656250</ele>
<time>2012-07-22T11:45:51Z</time>
<speed>0.420000</speed>
<extensions>
<speed>0.4</speed>
<temp>0.00</temp>
<bpm>0</bpm>
<rpm>0.00</rpm>
</extensions>
</trkpt>
<trkpt lat="64.058128357" lon="-19.246164322">
<ele>89.646484</ele>
<time>2012-07-22T11:45:56Z</time>
<speed>0.120000</speed>
<extensions>
<speed>0.1</speed>
<temp>0.00</temp>
<bpm>0</bpm>
<rpm>0.00</rpm>
</extensions>
</trkpt>
<trkpt lat="64.058097839" lon="-19.246219635">
<ele>89.587891</ele>
<time>2012-07-22T11:46:01Z</time>
<speed>0.130000</speed>
<extensions>
<speed>0.1</speed>
<temp>0.00</temp>
<bpm>0</bpm>
<rpm>0.00</rpm>
</extensions>
</trkpt>
<trkpt lat="64.058113098" lon="-19.246311188">
<ele>89.710938</ele>
<time>2012-07-22T11:46:06Z</time>
<speed>0.240000</speed>
<extensions>
<speed>0.2</speed>
<temp>0.00</temp>
<bpm>0</bpm>
<rpm>0.00</rpm>
</extensions>
</trkpt>
<trkpt lat="64.058120728" lon="-19.246303558">
<ele>89.816406</ele>
<time>2012-07-22T11:46:11Z</time>
<speed>0.110000</speed>
<extensions>
<speed>0.1</speed>
<temp>0.00</temp>
<bpm>0</bpm>
<rpm>0.00</rpm>
</extensions>
</trkpt>
<trkpt lat="64.058120728" lon="-19.246297836">
<ele>89.816406</ele>
<time>2012-07-22T11:46:16Z</time>
<speed>0.160000</speed>
<extensions>
<speed>0.2</speed>
<temp>0.00</temp>
<bpm>0</bpm>
<rpm>0.00</rpm>
</extensions>
</trkpt>
<trkpt lat="64.058128357" lon="-19.246284485">
<ele>89.812500</ele>
<time>2012-07-22T11:46:21Z</time>
<speed>0.100000</speed>
<extensions>
<speed>0.1</speed>
<temp>0.00</temp>
<bpm>0</bpm>
<rpm>0.00</rpm>
</extensions>
</trkpt>
<trkpt lat="64.058135986" lon="-19.246332169">
<ele>89.779297</ele>
<time>2012-07-22T11:46:26Z</time>
<speed>0.520000</speed>
<extensions>
<speed>0.5</speed>
<temp>0.00</temp>
<bpm>0</bpm>
<rpm>0.00</rpm>
</extensions>
</trkpt>
<trkpt lat="64.058143616" lon="-19.246322632">
<ele>89.681641</ele>
<time>2012-07-22T11:46:31Z</time>
<speed>0.370000</speed>
<extensions>
<speed>0.4</speed>
<temp>0.00</temp>
<bpm>0</bpm>
<rpm>0.00</rpm>
</extensions>
</trkpt>
<trkpt lat="64.058158875" lon="-19.246383667">
<ele>89.671875</ele>
<time>2012-07-22T11:46:36Z</time>
<speed>0.110000</speed>
<extensions>
<speed>0.1</speed>
<temp>0.00</temp>
<bpm>0</bpm>
<rpm>0.00</rpm>
</extensions>
</trkpt>
<trkpt lat="64.058158875" lon="-19.246410370">
<ele>89.693359</ele>
<time>2012-07-22T11:46:41Z</time>
<speed>0.390000</speed>
<extensions>
<speed>0.4</speed>
<temp>0.00</temp>
<bpm>0</bpm>
<rpm>0.00</rpm>
</extensions>
</trkpt>
<trkpt lat="64.057159424" lon="-19.244079590">
<ele>602.890625</ele>
<time>2012-07-22T11:46:46Z</time>
<speed>0.290000</speed>
<extensions>
<speed>0.3</speed>
<temp>0.00</temp>
<bpm>0</bpm>
<rpm>0.00</rpm>
</extensions>
</trkpt>
<trkpt lat="64.057182312" lon="-19.244005203">
<ele>603.421875</ele>
<time>2012-07-22T11:46:51Z</time>
<speed>0.280000</speed>
<extensions>
<speed>0.3</speed>
<temp>0.00</temp>
<bpm>0</bpm>
<rpm>0.00</rpm>
</extensions>
</trkpt>
<trkpt lat="64.057182312" lon="-19.243970871">
<ele>603.312500</ele>
<time>2012-07-22T11:46:56Z</time>
<speed>0.160000</speed>
<extensions>
<speed>0.2</speed>
<temp>0.00</temp>
<bpm>0</bpm>
<rpm>0.00</rpm>
</extensions>
</trkpt>
<trkpt lat="64.057189941" lon="-19.243955612">
<ele>603.453125</ele>
<time>2012-07-22T11:47:01Z</time>
<speed>0.110000</speed>
<extensions>
<speed>0.1</speed>
<temp>0.00</temp>
<bpm>0</bpm>
<rpm>0.00</rpm>
</extensions>
</trkpt>
<trkpt lat="64.057197571" lon="-19.243957520">
<ele>603.500000</ele>
<time>2012-07-22T11:47:06Z</time>
<speed>0.130000</speed>
<extensions>
<speed>0.1</speed>
<temp>0.00</temp>
<bpm>0</bpm>
<rpm>0.00</rpm>
</extensions>
</trkpt>
<trkpt lat="64.057205200" lon="-19.243959427">
<ele>603.484375</ele>
<time>2012-07-22T11:47:11Z</time>
<speed>0.130000</speed>
<extensions>
<speed>0.1</speed>
<temp>0.00</temp>
<bpm>0</bpm>
<rpm>0.00</rpm>
</extensions>
</trkpt>
<trkpt lat="64.057197571" lon="-19.243947983">
<ele>603.437500</ele>
<time>2012-07-22T11:47:16Z</time>
<speed>0.170000</speed>
<extensions>
<speed>0.2</speed>
<temp>0.00</temp>
<bpm>0</bpm>
<rpm>0.00</rpm>
</extensions>
</trkpt>
<trkpt lat="64.057189941" lon="-19.243934631">
<ele>603.406250</ele>
<time>2012-07-22T11:47:21Z</time>
<speed>0.160000</speed>
<extensions>
<speed>0.2</speed>
<temp>0.00</temp>
<bpm>0</bpm>
<rpm>0.00</rpm>
</extensions>
</trkpt>
<trkpt lat="64.057189941" lon="-19.243921280">
<ele>603.390625</ele>
<time>2012-07-22T11:47:26Z</time>
<speed>0.130000</speed>
<extensions>
<speed>0.1</speed>
<temp>0.00</temp>
<bpm>0</bpm>
<rpm>0.00</rpm>
</extensions>
</trkpt>
<trkpt lat="64.057189941" lon="-19.243907928">
<ele>603.375000</ele>
<time>2012-07-22T11:47:31Z</time>
<speed>0.160000</speed>
<extensions>
<speed>0.2</speed>
<temp>0.00</temp>
<bpm>0</bpm>
<rpm>0.00</rpm>
</extensions>
</trkpt>
<trkpt lat="64.057189941" lon="-19.243890762">
<ele>603.359375</ele>
<time>2012-07-22T11:47:36Z</time>
<speed>0.130000</speed>
<extensions>
<speed>0.1</speed>
<temp>0.00</temp>
<bpm>0</bpm>
<rpm>0.00</rpm>
</extensions>
</trkpt>
<trkpt lat="64.057189941" lon="-19.243881226">
<ele>603.515625</ele>
<time>2012-07-22T11:47:41Z</time>
<speed>0.290000</speed>
<extensions>
<speed>0.3</speed>
<temp>0.00</temp>
<bpm>0</bpm>
<rpm>0.00</rpm>
</extensions>
</trkpt>
<trkpt lat="64.057197571" lon="-19.243883133">
<ele>604.109375</ele>
<time>2012-07-22T11:47:46Z</time>
<speed>0.250000</speed>
<extensions>
<speed>0.2</speed>
<temp>0.00</temp>
<bpm>0</bpm>
<rpm>0.00</rpm>
</extensions>
</trkpt>
<trkpt lat="64.057189941" lon="-19.243883133">
<ele>604.015625</ele>
<time>2012-07-22T11:47:51Z</time>
<speed>0.290000</speed>
<extensions>
<speed>0.3</speed>
<temp>0.00</temp>
<bpm>0</bpm>
<rpm>0.00</rpm>
</extensions>
</trkpt>
<trkpt lat="64.057189941" lon="-19.243858337">
<ele>604.062500</ele>
<time>2012-07-22T11:47:56Z</time>
<speed>0.170000</speed>
<extensions>
<speed>0.2</speed>
<temp>0.00</temp>
<bpm>0</bpm>
<rpm>0.00</rpm>
</extensions>
</trkpt>
<trkpt lat="64.057189941" lon="-19.243850708">
<ele>603.953125</ele>
<time>2012-07-22T11:48:01Z</time>
<speed>0.210000</speed>
<extensions>
<speed>0.2</speed>
<temp>0.00</temp>
<bpm>0</bpm>
<rpm>0.00</rpm>
</extensions>
</trkpt>
<trkpt lat="64.057197571" lon="-19.243854523">
<ele>604.062500</ele>
<time>2012-07-22T11:48:06Z</time>
<speed>0.270000</speed>
<extensions>
<speed>0.3</speed>
<temp>0.00</temp>
<bpm>0</bpm>
<rpm>0.00</rpm>
</extensions>
</trkpt>
<trkpt lat="64.057205200" lon="-19.243810654">
<ele>603.875000</ele>
<time>2012-07-22T11:48:11Z</time>
<speed>0.400000</speed>
<extensions>
<speed>0.4</speed>
<temp>0.00</temp>
<bpm>0</bpm>
<rpm>0.00</rpm>
</extensions>
</trkpt>
<trkpt lat="64.057182312" lon="-19.243782043">
<ele>602.421875</ele>
<time>2012-07-22T11:48:16Z</time>
<speed>0.320000</speed>
<extensions>
<speed>0.3</speed>
<temp>0.00</temp>
<bpm>0</bpm>
<rpm>0.00</rpm>
</extensions>
</trkpt>
<trkpt lat="64.057182312" lon="-19.243820190">
<ele>602.968750</ele>
<time>2012-07-22T11:48:21Z</time>
<speed>0.210000</speed>
<extensions>
<speed>0.2</speed>
<temp>0.00</temp>
<bpm>0</bpm>
<rpm>0.00</rpm>
</extensions>
</trkpt>
<trkpt lat="64.057182312" lon="-19.243803024">
<ele>602.937500</ele>
<time>2012-07-22T11:48:26Z</time>
<speed>0.140000</speed>
<extensions>
<speed>0.1</speed>
<temp>0.00</temp>
<bpm>0</bpm>
<rpm>0.00</rpm>
</extensions>
</trkpt>
<trkpt lat="64.057174683" lon="-19.243789673">
<ele>602.906250</ele>
<time>2012-07-22T11:48:31Z</time>
<speed>0.200000</speed>
<extensions>
<speed>0.2</speed>
<temp>0.00</temp>
<bpm>0</bpm>
<rpm>0.00</rpm>
</extensions>
</trkpt>
<trkpt lat="64.057174683" lon="-19.243772507">
<ele>602.859375</ele>
<time>2012-07-22T11:48:36Z</time>
<speed>0.210000</speed>
<extensions>
<speed>0.2</speed>
<temp>0.00</temp>
<bpm>0</bpm>
<rpm>0.00</rpm>
</extensions>
</trkpt>
<trkpt lat="64.057174683" lon="-19.243747711">
<ele>602.843750</ele>
<time>2012-07-22T11:48:41Z</time>
<speed>0.260000</speed>
<extensions>
<speed>0.3</speed>
<temp>0.00</temp>
<bpm>0</bpm>
<rpm>0.00</rpm>
</extensions>
</trkpt>
<trkpt lat="64.057174683" lon="-19.243776321">
<ele>603.359375</ele>
<time>2012-07-22T11:48:46Z</time>
<speed>0.200000</speed>
<extensions>
<speed>0.2</speed>
<temp>0.00</temp>
<bpm>0</bpm>
<rpm>0.00</rpm>
</extensions>
</trkpt>
<trkpt lat="64.057182312" lon="-19.243778229">
<ele>603.515625</ele>
<time>2012-07-22T11:48:51Z</time>
<speed>0.210000</speed>
<extensions>
<speed>0.2</speed>
<temp>0.00</temp>
<bpm>0</bpm>
<rpm>0.00</rpm>
</extensions>
</trkpt>
<trkpt lat="64.057197571" lon="-19.243795395">
<ele>604.062500</ele>
<time>2012-07-22T11:48:56Z</time>
<speed>0.260000</speed>
<extensions>
<speed>0.3</speed>
<temp>0.00</temp>
<bpm>0</bpm>
<rpm>0.00</rpm>
</extensions>
</trkpt>
<trkpt lat="64.057197571" lon="-19.243797302">
<ele>604.265625</ele>
<time>2012-07-22T11:49:01Z</time>
<speed>0.200000</speed>
<extensions>
<speed>0.2</speed>
<temp>0.00</temp>
<bpm>0</bpm>
<rpm>0.00</rpm>
</extensions>
</trkpt>
<trkpt lat="64.057189941" lon="-19.243782043">
<ele>604.234375</ele>
<time>2012-07-22T11:49:06Z</time>
<speed>0.150000</speed>
<extensions>
<speed>0.2</speed>
<temp>0.00</temp>
<bpm>0</bpm>
<rpm>0.00</rpm>
</extensions>
</trkpt>
<trkpt lat="64.057182312" lon="-19.243768692">
<ele>604.203125</ele>
<time>2012-07-22T11:49:11Z</time>
<speed>0.280000</speed>
<extensions>
<speed>0.3</speed>
<temp>0.00</temp>
<bpm>0</bpm>
<rpm>0.00</rpm>
</extensions>
</trkpt>
<trkpt lat="64.057174683" lon="-19.243812561">
<ele>604.609375</ele>
<time>2012-07-22T11:49:16Z</time>
<speed>0.170000</speed>
<extensions>
<speed>0.2</speed>
<temp>0.00</temp>
<bpm>0</bpm>
<rpm>0.00</rpm>
</extensions>
</trkpt>
<trkpt lat="64.057167053" lon="-19.243814468">
<ele>605.000000</ele>
<time>2012-07-22T11:49:21Z</time>
<speed>0.170000</speed>
<extensions>
<speed>0.2</speed>
<temp>0.00</temp>
<bpm>0</bpm>
<rpm>0.00</rpm>
</extensions>
</trkpt>
<trkpt lat="64.057197571" lon="-19.243785858">
<ele>605.109375</ele>
<time>2012-07-22T11:49:26Z</time>
<speed>0.600000</speed>
<extensions>
<speed>0.6</speed>
<temp>0.00</temp>
<bpm>0</bpm>
<rpm>0.00</rpm>
</extensions>
</trkpt>
<trkpt lat="64.057220459" lon="-19.243783951">
<ele>605.000000</ele>
<time>2012-07-22T11:49:31Z</time>
<speed>0.410000</speed>
<extensions>
<speed>0.4</speed>
<temp>0.00</temp>
<bpm>0</bpm>
<rpm>0.00</rpm>
</extensions>
</trkpt>
<trkpt lat="64.057250977" lon="-19.243766785">
<ele>605.062500</ele>
<time>2012-07-22T11:49:36Z</time>
<speed>0.530000</speed>
<extensions>
<speed>0.5</speed>
<temp>0.00</temp>
<bpm>0</bpm>
<rpm>0.00</rpm>
</extensions>
</trkpt>
<trkpt lat="64.057250977" lon="-19.243783951">
<ele>605.234375</ele>
<time>2012-07-22T11:49:41Z</time>
<speed>0.290000</speed>
<extensions>
<speed>0.3</speed>
<temp>0.00</temp>
<bpm>0</bpm>
<rpm>0.00</rpm>
</extensions>
</trkpt>
<trkpt lat="64.057235718" lon="-19.243816376">
<ele>605.281250</ele>
<time>2012-07-22T11:49:46Z</time>
<speed>0.280000</speed>
<extensions>
<speed>0.3</speed>
<temp>0.00</temp>
<bpm>0</bpm>
<rpm>0.00</rpm>
</extensions>
</trkpt>
<trkpt lat="64.057228088" lon="-19.243808746">
<ele>605.171875</ele>
<time>2012-07-22T11:49:51Z</time>
<speed>0.240000</speed>
<extensions>
<speed>0.2</speed>
<temp>0.00</temp>
<bpm>0</bpm>
<rpm>0.00</rpm>
</extensions>
</trkpt>
<trkpt lat="64.057220459" lon="-19.243799210">
<ele>605.156250</ele>
<time>2012-07-22T11:49:56Z</time>
<speed>0.030000</speed>
<extensions>
<speed>0.0</speed>
<temp>0.00</temp>
<bpm>0</bpm>
<rpm>0.00</rpm>
</extensions>
</trkpt>
<trkpt lat="64.057220459" lon="-19.243801117">
<ele>605.125000</ele>
<time>2012-07-22T11:50:01Z</time>
<speed>0.080000</speed>
<extensions>
<speed>0.1</speed>
<temp>0.00</temp>
<bpm>0</bpm>
<rpm>0.00</rpm>
</extensions>
</trkpt>
<trkpt lat="64.057220459" lon="-19.243801117">
<ele>605.093750</ele>
<time>2012-07-22T11:50:06Z</time>
<speed>0.030000</speed>
<extensions>
<speed>0.0</speed>
<temp>0.00</temp>
<bpm>0</bpm>
<rpm>0.00</rpm>
</extensions>
</trkpt>
<trkpt lat="64.057220459" lon="-19.243803024">
<ele>605.046875</ele>
<time>2012-07-22T11:50:11Z</time>
<speed>0.050000</speed>
<extensions>
<speed>0.1</speed>
<temp>0.00</temp>
<bpm>0</bpm>
<rpm>0.00</rpm>
</extensions>
</trkpt>
<trkpt lat="64.057220459" lon="-19.243804932">
<ele>605.015625</ele>
<time>2012-07-22T11:50:16Z</time>
<speed>0.100000</speed>
<extensions>
<speed>0.1</speed>
<temp>0.00</temp>
<bpm>0</bpm>
<rpm>0.00</rpm>
</extensions>
</trkpt>
<trkpt lat="64.057220459" lon="-19.243803024">
<ele>604.984375</ele>
<time>2012-07-22T11:50:21Z</time>
<speed>0.080000</speed>
<extensions>
<speed>0.1</speed>
<temp>0.00</temp>
<bpm>0</bpm>
<rpm>0.00</rpm>
</extensions>
</trkpt>
<trkpt lat="64.057212830" lon="-19.243801117">
<ele>604.937500</ele>
<time>2012-07-22T11:50:26Z</time>
<speed>0.200000</speed>
<extensions>
<speed>0.2</speed>
<temp>0.00</temp>
<bpm>0</bpm>
<rpm>0.00</rpm>
</extensions>
</trkpt>
<trkpt lat="64.057212830" lon="-19.243789673">
<ele>604.937500</ele>
<time>2012-07-22T11:50:31Z</time>
<speed>0.220000</speed>
<extensions>
<speed>0.2</speed>
<temp>0.00</temp>
<bpm>0</bpm>
<rpm>0.00</rpm>
</extensions>
</trkpt>
<trkpt lat="64.057220459" lon="-19.243776321">
<ele>604.937500</ele>
<time>2012-07-22T11:50:36Z</time>
<speed>0.080000</speed>
<extensions>
<speed>0.1</speed>
<temp>0.00</temp>
<bpm>0</bpm>
<rpm>0.00</rpm>
</extensions>
</trkpt>
<trkpt lat="64.057212830" lon="-19.243762970">
<ele>604.906250</ele>
<time>2012-07-22T11:50:41Z</time>
<speed>0.160000</speed>
<extensions>
<speed>0.2</speed>
<temp>0.00</temp>
<bpm>0</bpm>
<rpm>0.00</rpm>
</extensions>
</trkpt>
<trkpt lat="64.057212830" lon="-19.243745804">
<ele>604.875000</ele>
<time>2012-07-22T11:50:46Z</time>
<speed>0.250000</speed>
<extensions>
<speed>0.2</speed>
<temp>0.00</temp>
<bpm>0</bpm>
<rpm>0.00</rpm>
</extensions>
</trkpt>
<trkpt lat="64.057212830" lon="-19.243721008">
<ele>604.843750</ele>
<time>2012-07-22T11:50:51Z</time>
<speed>0.270000</speed>
<extensions>
<speed>0.3</speed>
<temp>0.00</temp>
<bpm>0</bpm>
<rpm>0.00</rpm>
</extensions>
</trkpt>
<trkpt lat="64.057205200" lon="-19.243700027">
<ele>604.796875</ele>
<time>2012-07-22T11:50:56Z</time>
<speed>0.160000</speed>
<extensions>
<speed>0.2</speed>
<temp>0.00</temp>
<bpm>0</bpm>
<rpm>0.00</rpm>
</extensions>
</trkpt>
<trkpt lat="64.057212830" lon="-19.243730545">
<ele>604.953125</ele>
<time>2012-07-22T11:51:01Z</time>
<speed>0.120000</speed>
<extensions>
<speed>0.1</speed>
<temp>0.00</temp>
<bpm>0</bpm>
<rpm>0.00</rpm>
</extensions>
</trkpt>
<trkpt lat="64.057220459" lon="-19.243722916">
<ele>604.921875</ele>
<time>2012-07-22T11:51:06Z</time>
<speed>0.060000</speed>
<extensions>
<speed>0.1</speed>
<temp>0.00</temp>
<bpm>0</bpm>
<rpm>0.00</rpm>
</extensions>
</trkpt>
<trkpt lat="64.057220459" lon="-19.243730545">
<ele>604.921875</ele>
<time>2012-07-22T11:51:11Z</time>
<speed>0.220000</speed>
<extensions>
<speed>0.2</speed>
<temp>0.00</temp>
<bpm>0</bpm>
<rpm>0.00</rpm>
</extensions>
</trkpt>
<trkpt lat="64.057212830" lon="-19.243749619">
<ele>604.937500</ele>
<time>2012-07-22T11:51:16Z</time>
<speed>0.290000</speed>
<extensions>
<speed>0.3</speed>
<temp>0.00</temp>
<bpm>0</bpm>
<rpm>0.00</rpm>
</extensions>
</trkpt>
<trkpt lat="64.057212830" lon="-19.243782043">
<ele>604.906250</ele>
<time>2012-07-22T11:51:21Z</time>
<speed>0.170000</speed>
<extensions>
<speed>0.2</speed>
<temp>0.00</temp>
<bpm>0</bpm>
<rpm>0.00</rpm>
</extensions>
</trkpt>
<trkpt lat="64.057205200" lon="-19.243801117">
<ele>604.875000</ele>
<time>2012-07-22T11:51:26Z</time>
<speed>0.100000</speed>
<extensions>
<speed>0.1</speed>
<temp>0.00</temp>
<bpm>0</bpm>
<rpm>0.00</rpm>
</extensions>
</trkpt>
<trkpt lat="64.057197571" lon="-19.243818283">
<ele>604.843750</ele>
<time>2012-07-22T11:51:31Z</time>
<speed>0.220000</speed>
<extensions>
<speed>0.2</speed>
<temp>0.00</temp>
<bpm>0</bpm>
<rpm>0.00</rpm>
</extensions>
</trkpt>
<trkpt lat="64.057197571" lon="-19.243833542">
<ele>604.843750</ele>
<time>2012-07-22T11:51:36Z</time>
<speed>0.190000</speed>
<extensions>
<speed>0.2</speed>
<temp>0.00</temp>
<bpm>0</bpm>
<rpm>0.00</rpm>
</extensions>
</trkpt>
<trkpt lat="64.057174683" lon="-19.243886948">
<ele>604.796875</ele>
<time>2012-07-22T11:51:41Z</time>
<speed>0.160000</speed>
<extensions>
<speed>0.2</speed>
<temp>0.00</temp>
<bpm>0</bpm>
<rpm>0.00</rpm>
</extensions>
</trkpt>
<trkpt lat="64.057174683" lon="-19.243921280">
<ele>604.828125</ele>
<time>2012-07-22T11:51:46Z</time>
<speed>0.270000</speed>
<extensions>
<speed>0.3</speed>
<temp>0.00</temp>
<bpm>0</bpm>
<rpm>0.00</rpm>
</extensions>
</trkpt>
<trkpt lat="64.057167053" lon="-19.243906021">
<ele>604.796875</ele>
<time>2012-07-22T11:51:51Z</time>
<speed>0.250000</speed>
<extensions>
<speed>0.2</speed>
<temp>0.00</temp>
<bpm>0</bpm>
<rpm>0.00</rpm>
</extensions>
</trkpt>
<trkpt lat="64.057205200" lon="-19.243848801">
<ele>604.468750</ele>
<time>2012-07-22T11:51:56Z</time>
<speed>0.340000</speed>
<extensions>
<speed>0.3</speed>
<temp>0.00</temp>
<bpm>0</bpm>
<rpm>0.00</rpm>
</extensions>
</trkpt>
<trkpt lat="64.057220459" lon="-19.243852615">
<ele>604.203125</ele>
<time>2012-07-22T11:52:01Z</time>
<speed>0.160000</speed>
<extensions>
<speed>0.2</speed>
<temp>0.00</temp>
<bpm>0</bpm>
<rpm>0.00</rpm>
</extensions>
</trkpt>
<trkpt lat="64.057220459" lon="-19.243844986">
<ele>604.156250</ele>
<time>2012-07-22T11:52:06Z</time>
<speed>0.130000</speed>
<extensions>
<speed>0.1</speed>
<temp>0.00</temp>
<bpm>0</bpm>
<rpm>0.00</rpm>
</extensions>
</trkpt>
<trkpt lat="64.057212830" lon="-19.243837357">
<ele>604.171875</ele>
<time>2012-07-22T11:52:11Z</time>
<speed>0.030000</speed>
<extensions>
<speed>0.0</speed>
<temp>0.00</temp>
<bpm>0</bpm>
<rpm>0.00</rpm>
</extensions>
</trkpt>
<trkpt lat="64.057212830" lon="-19.243841171">
<ele>604.156250</ele>
<time>2012-07-22T11:52:16Z</time>
<speed>0.150000</speed>
<extensions>
<speed>0.2</speed>
<temp>0.00</temp>
<bpm>0</bpm>
<rpm>0.00</rpm>
</extensions>
</trkpt>
<trkpt lat="64.057205200" lon="-19.243825912">
<ele>604.140625</ele>
<time>2012-07-22T11:52:21Z</time>
<speed>0.160000</speed>
<extensions>
<speed>0.2</speed>
<temp>0.00</temp>
<bpm>0</bpm>
<rpm>0.00</rpm>
</extensions>
</trkpt>
<trkpt lat="64.057197571" lon="-19.243814468">
<ele>604.093750</ele>
<time>2012-07-22T11:52:26Z</time>
<speed>0.150000</speed>
<extensions>
<speed>0.2</speed>
<temp>0.00</temp>
<bpm>0</bpm>
<rpm>0.00</rpm>
</extensions>
</trkpt>
<trkpt lat="64.057189941" lon="-19.243803024">
<ele>604.062500</ele>
<time>2012-07-22T11:52:31Z</time>
<speed>0.160000</speed>
<extensions>
<speed>0.2</speed>
<temp>0.00</temp>
<bpm>0</bpm>
<rpm>0.00</rpm>
</extensions>
</trkpt>
<trkpt lat="64.057182312" lon="-19.243791580">
<ele>604.015625</ele>
<time>2012-07-22T11:52:36Z</time>
<speed>0.130000</speed>
<extensions>
<speed>0.1</speed>
<temp>0.00</temp>
<bpm>0</bpm>
<rpm>0.00</rpm>
</extensions>
</trkpt>
<trkpt lat="64.057182312" lon="-19.243785858">
<ele>603.984375</ele>
<time>2012-07-22T11:52:41Z</time>
<speed>0.090000</speed>
<extensions>
<speed>0.1</speed>
<temp>0.00</temp>
<bpm>0</bpm>
<rpm>0.00</rpm>
</extensions>
</trkpt>
<trkpt lat="64.057182312" lon="-19.243778229">
<ele>603.984375</ele>
<time>2012-07-22T11:52:46Z</time>
<speed>0.070000</speed>
<extensions>
<speed>0.1</speed>
<temp>0.00</temp>
<bpm>0</bpm>
<rpm>0.00</rpm>
</extensions>
</trkpt>
<trkpt lat="64.057182312" lon="-19.243787766">
<ele>603.968750</ele>
<time>2012-07-22T11:52:51Z</time>
<speed>0.180000</speed>
<extensions>
<speed>0.2</speed>
<temp>0.00</temp>
<bpm>0</bpm>
<rpm>0.00</rpm>
</extensions>
</trkpt>
<trkpt lat="64.057189941" lon="-19.243799210">
<ele>603.937500</ele>
<time>2012-07-22T11:52:56Z</time>
<speed>0.160000</speed>
<extensions>
<speed>0.2</speed>
<temp>0.00</temp>
<bpm>0</bpm>
<rpm>0.00</rpm>
</extensions>
</trkpt>
<trkpt lat="64.057197571" lon="-19.243789673">
<ele>603.890625</ele>
<time>2012-07-22T11:53:01Z</time>
<speed>0.230000</speed>
<extensions>
<speed>0.2</speed>
<temp>0.00</temp>
<bpm>0</bpm>
<rpm>0.00</rpm>
</extensions>
</trkpt>
<trkpt lat="64.057189941" lon="-19.243785858">
<ele>603.859375</ele>
<time>2012-07-22T11:53:06Z</time>
<speed>0.080000</speed>
<extensions>
<speed>0.1</speed>
<temp>0.00</temp>
<bpm>0</bpm>
<rpm>0.00</rpm>
</extensions>
</trkpt>
<trkpt lat="64.057159424" lon="-19.243772507">
<ele>603.500000</ele>
<time>2012-07-22T11:53:11Z</time>
<speed>0.340000</speed>
<extensions>
<speed>0.3</speed>
<temp>0.00</temp>
<bpm>0</bpm>
<rpm>0.00</rpm>
</extensions>
</trkpt>
<trkpt lat="64.057136536" lon="-19.243864059">
<ele>601.406250</ele>
<time>2012-07-22T11:53:16Z</time>
<speed>0.170000</speed>
<extensions>
<speed>0.2</speed>
<temp>0.00</temp>
<bpm>0</bpm>
<rpm>0.00</rpm>
</extensions>
</trkpt>
<trkpt lat="64.057121277" lon="-19.243923187">
<ele>600.421875</ele>
<time>2012-07-22T11:53:21Z</time>
<speed>0.180000</speed>
<extensions>
<speed>0.2</speed>
<temp>0.00</temp>
<bpm>0</bpm>
<rpm>0.00</rpm>
</extensions>
</trkpt>
<trkpt lat="64.057121277" lon="-19.243930817">
<ele>600.359375</ele>
<time>2012-07-22T11:53:26Z</time>
<speed>0.070000</speed>
<extensions>
<speed>0.1</speed>
<temp>0.00</temp>
<bpm>0</bpm>
<rpm>0.00</rpm>
</extensions>
</trkpt>
<trkpt lat="64.057113647" lon="-19.243934631">
<ele>600.265625</ele>
<time>2012-07-22T11:53:31Z</time>
<speed>0.010000</speed>
<extensions>
<speed>0.0</speed>
<temp>0.00</temp>
<bpm>0</bpm>
<rpm>0.00</rpm>
</extensions>
</trkpt>
<trkpt lat="64.057113647" lon="-19.243930817">
<ele>600.078125</ele>
<time>2012-07-22T11:53:36Z</time>
<speed>0.010000</speed>
<extensions>
<speed>0.0</speed>
<temp>0.00</temp>
<bpm>0</bpm>
<rpm>0.00</rpm>
</extensions>
</trkpt>
<trkpt lat="64.057113647" lon="-19.243928909">
<ele>599.812500</ele>
<time>2012-07-22T11:53:41Z</time>
<speed>0.050000</speed>
<extensions>
<speed>0.1</speed>
<temp>0.00</temp>
<bpm>0</bpm>
<rpm>0.00</rpm>
</extensions>
</trkpt>
<trkpt lat="64.057113647" lon="-19.243930817">
<ele>599.703125</ele>
<time>2012-07-22T11:53:46Z</time>
<speed>0.010000</speed>
<extensions>
<speed>0.0</speed>
<temp>0.00</temp>
<bpm>0</bpm>
<rpm>0.00</rpm>
</extensions>
</trkpt>
<trkpt lat="64.057113647" lon="-19.243928909">
<ele>599.687500</ele>
<time>2012-07-22T11:53:51Z</time>
<speed>0.020000</speed>
<extensions>
<speed>0.0</speed>
<temp>0.00</temp>
<bpm>0</bpm>
<rpm>0.00</rpm>
</extensions>
</trkpt>
<trkpt lat="64.057113647" lon="-19.243928909">
<ele>599.640625</ele>
<time>2012-07-22T11:53:56Z</time>
<speed>0.030000</speed>
<extensions>
<speed>0.0</speed>
<temp>0.00</temp>
<bpm>0</bpm>
<rpm>0.00</rpm>
</extensions>
</trkpt>
<trkpt lat="64.057113647" lon="-19.243927002">
<ele>599.640625</ele>
<time>2012-07-22T11:54:01Z</time>
<speed>0.020000</speed>
<extensions>
<speed>0.0</speed>
<temp>0.00</temp>
<bpm>0</bpm>
<rpm>0.00</rpm>
</extensions>
</trkpt>
<trkpt lat="64.057113647" lon="-19.243927002">
<ele>599.656250</ele>
<time>2012-07-22T11:54:06Z</time>
<speed>0.010000</speed>
<extensions>
<speed>0.0</speed>
<temp>0.00</temp>
<bpm>0</bpm>
<rpm>0.00</rpm>
</extensions>
</trkpt>
<trkpt lat="64.057113647" lon="-19.243925095">
<ele>599.625000</ele>
<time>2012-07-22T11:54:11Z</time>
<speed>0.020000</speed>
<extensions>
<speed>0.0</speed>
<temp>0.00</temp>
<bpm>0</bpm>
<rpm>0.00</rpm>
</extensions>
</trkpt>
<trkpt lat="64.057113647" lon="-19.243925095">
<ele>599.625000</ele>
<time>2012-07-22T11:54:16Z</time>
<speed>0.280000</speed>
<extensions>
<speed>0.3</speed>
<temp>0.00</temp>
<bpm>0</bpm>
<rpm>0.00</rpm>
</extensions>
</trkpt>
<trkpt lat="64.057106018" lon="-19.243896484">
<ele>599.359375</ele>
<time>2012-07-22T11:54:21Z</time>
<speed>0.100000</speed>
<extensions>
<speed>0.1</speed>
<temp>0.00</temp>
<bpm>0</bpm>
<rpm>0.00</rpm>
</extensions>
</trkpt>
<trkpt lat="64.057083130" lon="-19.243822098">
<ele>599.437500</ele>
<time>2012-07-22T11:54:26Z</time>
<speed>0.200000</speed>
<extensions>
<speed>0.2</speed>
<temp>0.00</temp>
<bpm>0</bpm>
<rpm>0.00</rpm>
</extensions>
</trkpt>
<trkpt lat="64.057090759" lon="-19.243808746">
<ele>599.843750</ele>
<time>2012-07-22T11:54:31Z</time>
<extensions>
<speed>0.0</speed>
<temp>0.00</temp>
<bpm>0</bpm>
<rpm>0.00</rpm>
</extensions>
</trkpt>
<trkpt lat="64.057090759" lon="-19.243806839">
<ele>599.812500</ele>
<time>2012-07-22T11:54:36Z</time>
<extensions>
<speed>0.0</speed>
<temp>0.00</temp>
<bpm>0</bpm>
<rpm>0.00</rpm>
</extensions>
</trkpt>
<trkpt lat="64.057090759" lon="-19.243806839">
<ele>599.781250</ele>
<time>2012-07-22T11:54:41Z</time>
<extensions>
<speed>0.0</speed>
<temp>0.00</temp>
<bpm>0</bpm>
<rpm>0.00</rpm>
</extensions>
</trkpt>
<trkpt lat="64.057090759" lon="-19.243806839">
<ele>599.765625</ele>
<time>2012-07-22T11:54:46Z</time>
<extensions>
<speed>0.0</speed>
<temp>0.00</temp>
<bpm>0</bpm>
<rpm>0.00</rpm>
</extensions>
</trkpt>
<trkpt lat="64.057090759" lon="-19.243804932">
<ele>599.765625</ele>
<time>2012-07-22T11:54:51Z</time>
<extensions>
<speed>0.0</speed>
<temp>0.00</temp>
<bpm>0</bpm>
<rpm>0.00</rpm>
</extensions>
</trkpt>
<trkpt lat="64.057090759" lon="-19.243804932">
<ele>599.750000</ele>
<time>2012-07-22T11:54:56Z</time>
<extensions>
<speed>0.0</speed>
<temp>0.00</temp>
<bpm>0</bpm>
<rpm>0.00</rpm>
</extensions>
</trkpt>
<trkpt lat="64.057090759" lon="-19.243803024">
<ele>599.750000</ele>
<time>2012-07-22T11:55:01Z</time>
<extensions>
<speed>0.0</speed>
<temp>0.00</temp>
<bpm>0</bpm>
<rpm>0.00</rpm>
</extensions>
</trkpt>
<trkpt lat="64.057090759" lon="-19.243803024">
<ele>599.734375</ele>
<time>2012-07-22T11:55:06Z</time>
<extensions>
<speed>0.0</speed>
<temp>0.00</temp>
<bpm>0</bpm>
<rpm>0.00</rpm>
</extensions>
</trkpt>
<trkpt lat="64.057090759" lon="-19.243803024">
<ele>599.734375</ele>
<time>2012-07-22T11:55:11Z</time>
<extensions>
<speed>0.0</speed>
<temp>0.00</temp>
<bpm>0</bpm>
<rpm>0.00</rpm>
</extensions>
</trkpt>
<trkpt lat="64.057090759" lon="-19.243801117">
<ele>599.750000</ele>
<time>2012-07-22T11:55:16Z</time>
<extensions>
<speed>0.0</speed>
<temp>0.00</temp>
<bpm>0</bpm>
<rpm>0.00</rpm>
</extensions>
</trkpt>
<trkpt lat="64.057083130" lon="-19.243801117">
<ele>599.734375</ele>
<time>2012-07-22T11:55:21Z</time>
<extensions>
<speed>0.0</speed>
<temp>0.00</temp>
<bpm>0</bpm>
<rpm>0.00</rpm>
</extensions>
</trkpt>
<trkpt lat="64.057083130" lon="-19.243799210">
<ele>599.718750</ele>
<time>2012-07-22T11:55:26Z</time>
<speed>0.010000</speed>
<extensions>
<speed>0.0</speed>
<temp>0.00</temp>
<bpm>0</bpm>
<rpm>0.00</rpm>
</extensions>
</trkpt>
<trkpt lat="64.057083130" lon="-19.243799210">
<ele>599.718750</ele>
<time>2012-07-22T11:55:31Z</time>
<speed>0.020000</speed>
<extensions>
<speed>0.0</speed>
<temp>0.00</temp>
<bpm>0</bpm>
<rpm>0.00</rpm>
</extensions>
</trkpt>
<trkpt lat="64.057083130" lon="-19.243799210">
<ele>599.718750</ele>
<time>2012-07-22T11:55:36Z</time>
<extensions>
<speed>0.0</speed>
<temp>0.00</temp>
<bpm>0</bpm>
<rpm>0.00</rpm>
</extensions>
</trkpt>
<trkpt lat="64.057083130" lon="-19.243797302">
<ele>599.703125</ele>
<time>2012-07-22T11:55:41Z</time>
<extensions>
<speed>0.0</speed>
<temp>0.00</temp>
<bpm>0</bpm>
<rpm>0.00</rpm>
</extensions>
</trkpt>
<trkpt lat="64.057083130" lon="-19.243797302">
<ele>599.703125</ele>
<time>2012-07-22T11:55:46Z</time>
<extensions>
<speed>0.0</speed>
<temp>0.00</temp>
<bpm>0</bpm>
<rpm>0.00</rpm>
</extensions>
</trkpt>
<trkpt lat="64.057083130" lon="-19.243795395">
<ele>599.687500</ele>
<time>2012-07-22T11:55:51Z</time>
<speed>0.010000</speed>
<extensions>
<speed>0.0</speed>
<temp>0.00</temp>
<bpm>0</bpm>
<rpm>0.00</rpm>
</extensions>
</trkpt>
<trkpt lat="64.057083130" lon="-19.243795395">
<ele>599.687500</ele>
<time>2012-07-22T11:55:56Z</time>
<speed>0.020000</speed>
<extensions>
<speed>0.0</speed>
<temp>0.00</temp>
<bpm>0</bpm>
<rpm>0.00</rpm>
</extensions>
</trkpt>
<trkpt lat="64.057083130" lon="-19.243795395">
<ele>599.687500</ele>
<time>2012-07-22T11:56:01Z</time>
<speed>0.010000</speed>
<extensions>
<speed>0.0</speed>
<temp>0.00</temp>
<bpm>0</bpm>
<rpm>0.00</rpm>
</extensions>
</trkpt>
<trkpt lat="64.057083130" lon="-19.243793488">
<ele>599.671875</ele>
<time>2012-07-22T11:56:06Z</time>
<speed>0.090000</speed>
<extensions>
<speed>0.1</speed>
<temp>0.00</temp>
<bpm>0</bpm>
<rpm>0.00</rpm>
</extensions>
</trkpt>
<trkpt lat="64.057083130" lon="-19.243793488">
<ele>599.671875</ele>
<time>2012-07-22T11:56:11Z</time>
<extensions>
<speed>0.0</speed>
<temp>0.00</temp>
<bpm>0</bpm>
<rpm>0.00</rpm>
</extensions>
</trkpt>
<trkpt lat="64.057083130" lon="-19.243793488">
<ele>599.671875</ele>
<time>2012-07-22T11:56:16Z</time>
<extensions>
<speed>0.0</speed>
<temp>0.00</temp>
<bpm>0</bpm>
<rpm>0.00</rpm>
</extensions>
</trkpt>
<trkpt lat="64.057083130" lon="-19.243791580">
<ele>599.671875</ele>
<time>2012-07-22T11:56:21Z</time>
<extensions>
<speed>0.0</speed>
<temp>0.00</temp>
<bpm>0</bpm>
<rpm>0.00</rpm>
</extensions>
</trkpt>
<trkpt lat="64.057083130" lon="-19.243791580">
<ele>599.671875</ele>
<time>2012-07-22T11:56:26Z</time>
<extensions>
<speed>0.0</speed>
<temp>0.00</temp>
<bpm>0</bpm>
<rpm>0.00</rpm>
</extensions>
</trkpt>
<trkpt lat="64.057083130" lon="-19.243791580">
<ele>599.656250</ele>
<time>2012-07-22T11:56:31Z</time>
<extensions>
<speed>0.0</speed>
<temp>0.00</temp>
<bpm>0</bpm>
<rpm>0.00</rpm>
</extensions>
</trkpt>
<trkpt lat="64.057083130" lon="-19.243789673">
<ele>599.656250</ele>
<time>2012-07-22T11:56:36Z</time>
<speed>0.010000</speed>
<extensions>
<speed>0.0</speed>
<temp>0.00</temp>
<bpm>0</bpm>
<rpm>0.00</rpm>
</extensions>
</trkpt>
<trkpt lat="64.057083130" lon="-19.243789673">
<ele>599.656250</ele>
<time>2012-07-22T11:56:41Z</time>
<speed>0.030000</speed>
<extensions>
<speed>0.0</speed>
<temp>0.00</temp>
<bpm>0</bpm>
<rpm>0.00</rpm>
</extensions>
</trkpt>
<trkpt lat="64.057083130" lon="-19.243789673">
<ele>599.656250</ele>
<time>2012-07-22T11:56:46Z</time>
<speed>0.030000</speed>
<extensions>
<speed>0.0</speed>
<temp>0.00</temp>
<bpm>0</bpm>
<rpm>0.00</rpm>
</extensions>
</trkpt>
<trkpt lat="64.057083130" lon="-19.243789673">
<ele>599.640625</ele>
<time>2012-07-22T11:56:51Z</time>
<extensions>
<speed>0.0</speed>
<temp>0.00</temp>
<bpm>0</bpm>
<rpm>0.00</rpm>
</extensions>
</trkpt>
<trkpt lat="64.057083130" lon="-19.243787766">
<ele>599.640625</ele>
<time>2012-07-22T11:56:56Z</time>
<extensions>
<speed>0.0</speed>
<temp>0.00</temp>
<bpm>0</bpm>
<rpm>0.00</rpm>
</extensions>
</trkpt>
<trkpt lat="64.057083130" lon="-19.243787766">
<ele>599.625000</ele>
<time>2012-07-22T11:57:01Z</time>
<extensions>
<speed>0.0</speed>
<temp>0.00</temp>
<bpm>0</bpm>
<rpm>0.00</rpm>
</extensions>
</trkpt>
<trkpt lat="64.057083130" lon="-19.243785858">
<ele>599.625000</ele>
<time>2012-07-22T11:57:06Z</time>
<extensions>
<speed>0.0</speed>
<temp>0.00</temp>
<bpm>0</bpm>
<rpm>0.00</rpm>
</extensions>
</trkpt>
<trkpt lat="64.057083130" lon="-19.243785858">
<ele>599.609375</ele>
<time>2012-07-22T11:57:11Z</time>
<extensions>
<speed>0.0</speed>
<temp>0.00</temp>
<bpm>0</bpm>
<rpm>0.00</rpm>
</extensions>
</trkpt>
<trkpt lat="64.057083130" lon="-19.243785858">
<ele>599.609375</ele>
<time>2012-07-22T11:57:16Z</time>
<extensions>
<speed>0.0</speed>
<temp>0.00</temp>
<bpm>0</bpm>
<rpm>0.00</rpm>
</extensions>
</trkpt>
<trkpt lat="64.057083130" lon="-19.243783951">
<ele>599.609375</ele>
<time>2012-07-22T11:57:21Z</time>
<extensions>
<speed>0.0</speed>
<temp>0.00</temp>
<bpm>0</bpm>
<rpm>0.00</rpm>
</extensions>
</trkpt>
<trkpt lat="64.057083130" lon="-19.243783951">
<ele>599.609375</ele>
<time>2012-07-22T11:57:26Z</time>
<extensions>
<speed>0.0</speed>
<temp>0.00</temp>
<bpm>0</bpm>
<rpm>0.00</rpm>
</extensions>
</trkpt>
<trkpt lat="64.057083130" lon="-19.243783951">
<ele>599.609375</ele>
<time>2012-07-22T11:57:31Z</time>
<extensions>
<speed>0.0</speed>
<temp>0.00</temp>
<bpm>0</bpm>
<rpm>0.00</rpm>
</extensions>
</trkpt>
<trkpt lat="64.057083130" lon="-19.243783951">
<ele>599.609375</ele>
<time>2012-07-22T11:57:36Z</time>
<extensions>
<speed>0.0</speed>
<temp>0.00</temp>
<bpm>0</bpm>
<rpm>0.00</rpm>
</extensions>
</trkpt>
<trkpt lat="64.057083130" lon="-19.243783951">
<ele>599.625000</ele>
<time>2012-07-22T11:57:41Z</time>
<extensions>
<speed>0.0</speed>
<temp>0.00</temp>
<bpm>0</bpm>
<rpm>0.00</rpm>
</extensions>
</trkpt>
<trkpt lat="64.057083130" lon="-19.243782043">
<ele>599.625000</ele>
<time>2012-07-22T11:57:46Z</time>
<speed>0.010000</speed>
<extensions>
<speed>0.0</speed>
<temp>0.00</temp>
<bpm>0</bpm>
<rpm>0.00</rpm>
</extensions>
</trkpt>
<trkpt lat="64.057083130" lon="-19.243782043">
<ele>599.625000</ele>
<time>2012-07-22T11:57:51Z</time>
<extensions>
<speed>0.0</speed>
<temp>0.00</temp>
<bpm>0</bpm>
<rpm>0.00</rpm>
</extensions>
</trkpt>
<trkpt lat="64.057083130" lon="-19.243782043">
<ele>599.625000</ele>
<time>2012-07-22T11:57:56Z</time>
<extensions>
<speed>0.0</speed>
<temp>0.00</temp>
<bpm>0</bpm>
<rpm>0.00</rpm>
</extensions>
</trkpt>
<trkpt lat="64.057083130" lon="-19.243780136">
<ele>599.625000</ele>
<time>2012-07-22T11:58:01Z</time>
<extensions>
<speed>0.0</speed>
<temp>0.00</temp>
<bpm>0</bpm>
<rpm>0.00</rpm>
</extensions>
</trkpt>
<trkpt lat="64.057083130" lon="-19.243780136">
<ele>599.625000</ele>
<time>2012-07-22T11:58:06Z</time>
<extensions>
<speed>0.0</speed>
<temp>0.00</temp>
<bpm>0</bpm>
<rpm>0.00</rpm>
</extensions>
</trkpt>
<trkpt lat="64.057083130" lon="-19.243780136">
<ele>599.625000</ele>
<time>2012-07-22T11:58:11Z</time>
<extensions>
<speed>0.0</speed>
<temp>0.00</temp>
<bpm>0</bpm>
<rpm>0.00</rpm>
</extensions>
</trkpt>
<trkpt lat="64.057083130" lon="-19.243778229">
<ele>599.625000</ele>
<time>2012-07-22T11:58:16Z</time>
<extensions>
<speed>0.0</speed>
<temp>0.00</temp>
<bpm>0</bpm>
<rpm>0.00</rpm>
</extensions>
</trkpt>
<trkpt lat="64.057083130" lon="-19.243778229">
<ele>599.625000</ele>
<time>2012-07-22T11:58:21Z</time>
<extensions>
<speed>0.0</speed>
<temp>0.00</temp>
<bpm>0</bpm>
<rpm>0.00</rpm>
</extensions>
</trkpt>
<trkpt lat="64.057083130" lon="-19.243778229">
<ele>599.625000</ele>
<time>2012-07-22T11:58:26Z</time>
<extensions>
<speed>0.0</speed>
<temp>0.00</temp>
<bpm>0</bpm>
<rpm>0.00</rpm>
</extensions>
</trkpt>
<trkpt lat="64.057083130" lon="-19.243776321">
<ele>599.625000</ele>
<time>2012-07-22T11:58:31Z</time>
<extensions>
<speed>0.0</speed>
<temp>0.00</temp>
<bpm>0</bpm>
<rpm>0.00</rpm>
</extensions>
</trkpt>
<trkpt lat="64.057083130" lon="-19.243776321">
<ele>599.625000</ele>
<time>2012-07-22T11:58:36Z</time>
<extensions>
<speed>0.0</speed>
<temp>0.00</temp>
<bpm>0</bpm>
<rpm>0.00</rpm>
</extensions>
</trkpt>
<trkpt lat="64.057083130" lon="-19.243776321">
<ele>599.609375</ele>
<time>2012-07-22T11:58:41Z</time>
<extensions>
<speed>0.0</speed>
<temp>0.00</temp>
<bpm>0</bpm>
<rpm>0.00</rpm>
</extensions>
</trkpt>
<trkpt lat="64.057083130" lon="-19.243776321">
<ele>599.609375</ele>
<time>2012-07-22T11:58:46Z</time>
<speed>0.010000</speed>
<extensions>
<speed>0.0</speed>
<temp>0.00</temp>
<bpm>0</bpm>
<rpm>0.00</rpm>
</extensions>
</trkpt>
<trkpt lat="64.057083130" lon="-19.243776321">
<ele>599.609375</ele>
<time>2012-07-22T11:58:51Z</time>
<speed>0.010000</speed>
<extensions>
<speed>0.0</speed>
<temp>0.00</temp>
<bpm>0</bpm>
<rpm>0.00</rpm>
</extensions>
</trkpt>
<trkpt lat="64.057083130" lon="-19.243774414">
<ele>599.609375</ele>
<time>2012-07-22T11:58:56Z</time>
<speed>0.010000</speed>
<extensions>
<speed>0.0</speed>
<temp>0.00</temp>
<bpm>0</bpm>
<rpm>0.00</rpm>
</extensions>
</trkpt>
<trkpt lat="64.057083130" lon="-19.243774414">
<ele>599.609375</ele>
<time>2012-07-22T11:59:01Z</time>
<speed>0.010000</speed>
<extensions>
<speed>0.0</speed>
<temp>0.00</temp>
<bpm>0</bpm>
<rpm>0.00</rpm>
</extensions>
</trkpt>
<trkpt lat="64.057083130" lon="-19.243774414">
<ele>599.609375</ele>
<time>2012-07-22T11:59:06Z</time>
<extensions>
<speed>0.0</speed>
<temp>0.00</temp>
<bpm>0</bpm>
<rpm>0.00</rpm>
</extensions>
</trkpt>
<trkpt lat="64.057083130" lon="-19.243774414">
<ele>599.609375</ele>
<time>2012-07-22T11:59:11Z</time>
<extensions>
<speed>0.0</speed>
<temp>0.00</temp>
<bpm>0</bpm>
<rpm>0.00</rpm>
</extensions>
</trkpt>
<trkpt lat="64.057083130" lon="-19.243774414">
<ele>599.500000</ele>
<time>2012-07-22T11:59:16Z</time>
<speed>0.080000</speed>
<extensions>
<speed>0.1</speed>
<temp>0.00</temp>
<bpm>0</bpm>
<rpm>0.00</rpm>
</extensions>
</trkpt>
<trkpt lat="64.057083130" lon="-19.243766785">
<ele>599.406250</ele>
<time>2012-07-22T11:59:21Z</time>
<speed>0.100000</speed>
<extensions>
<speed>0.1</speed>
<temp>0.00</temp>
<bpm>0</bpm>
<rpm>0.00</rpm>
</extensions>
</trkpt>
<trkpt lat="64.057090759" lon="-19.243789673">
<ele>598.968750</ele>
<time>2012-07-22T11:59:26Z</time>
<speed>0.060000</speed>
<extensions>
<speed>0.1</speed>
<temp>0.00</temp>
<bpm>0</bpm>
<rpm>0.00</rpm>
</extensions>
</trkpt>
<trkpt lat="64.057083130" lon="-19.243791580">
<ele>598.843750</ele>
<time>2012-07-22T11:59:31Z</time>
<extensions>
<speed>0.0</speed>
<temp>0.00</temp>
<bpm>0</bpm>
<rpm>0.00</rpm>
</extensions>
</trkpt>
<trkpt lat="64.057083130" lon="-19.243791580">
<ele>598.843750</ele>
<time>2012-07-22T11:59:36Z</time>
<extensions>
<speed>0.0</speed>
<temp>0.00</temp>
<bpm>0</bpm>
<rpm>0.00</rpm>
</extensions>
</trkpt>
<trkpt lat="64.057083130" lon="-19.243791580">
<ele>598.843750</ele>
<time>2012-07-22T11:59:41Z</time>
<speed>0.030000</speed>
<extensions>
<speed>0.0</speed>
<temp>0.00</temp>
<bpm>0</bpm>
<rpm>0.00</rpm>
</extensions>
</trkpt>
<trkpt lat="64.057083130" lon="-19.243795395">
<ele>598.906250</ele>
<time>2012-07-22T11:59:46Z</time>
<speed>0.220000</speed>
<extensions>
<speed>0.2</speed>
<temp>0.00</temp>
<bpm>0</bpm>
<rpm>0.00</rpm>
</extensions>
</trkpt>
<trkpt lat="64.057075500" lon="-19.243814468">
<ele>598.703125</ele>
<time>2012-07-22T11:59:51Z</time>
<speed>0.330000</speed>
<extensions>
<speed>0.3</speed>
<temp>0.00</temp>
<bpm>0</bpm>
<rpm>0.00</rpm>
</extensions>
</trkpt>
<trkpt lat="64.057067871" lon="-19.243822098">
<ele>598.078125</ele>
<time>2012-07-22T11:59:56Z</time>
<speed>0.140000</speed>
<extensions>
<speed>0.1</speed>
<temp>0.00</temp>
<bpm>0</bpm>
<rpm>0.00</rpm>
</extensions>
</trkpt>
<trkpt lat="64.057044983" lon="-19.243833542">
<ele>597.046875</ele>
<time>2012-07-22T12:00:01Z</time>
<speed>0.570000</speed>
<extensions>
<speed>0.6</speed>
<temp>0.00</temp>
<bpm>0</bpm>
<rpm>0.00</rpm>
</extensions>
</trkpt>
<trkpt lat="64.056991577" lon="-19.243867874">
<ele>596.562500</ele>
<time>2012-07-22T12:00:06Z</time>
<speed>1.920000</speed>
<extensions>
<speed>1.9</speed>
<temp>0.00</temp>
<bpm>0</bpm>
<rpm>0.00</rpm>
</extensions>
</trkpt>
<trkpt lat="64.056938171" lon="-19.244071960">
<ele>596.578125</ele>
<time>2012-07-22T12:00:11Z</time>
<speed>2.830000</speed>
<extensions>
<speed>2.8</speed>
<temp>0.00</temp>
<bpm>0</bpm>
<rpm>0.00</rpm>
</extensions>
</trkpt>
<trkpt lat="64.056922913" lon="-19.244350433">
<ele>596.468750</ele>
<time>2012-07-22T12:00:16Z</time>
<speed>3.150000</speed>
<extensions>
<speed>3.2</speed>
<temp>0.00</temp>
<bpm>0</bpm>
<rpm>0.00</rpm>
</extensions>
</trkpt>
<trkpt lat="64.056800842" lon="-19.244613647">
<ele>595.500000</ele>
<time>2012-07-22T12:00:21Z</time>
<speed>3.440000</speed>
<extensions>
<speed>3.4</speed>
<temp>0.00</temp>
<bpm>0</bpm>
<rpm>0.00</rpm>
</extensions>
</trkpt>
<trkpt lat="64.056678772" lon="-19.244550705">
<ele>595.406250</ele>
<time>2012-07-22T12:00:26Z</time>
<speed>2.740000</speed>
<extensions>
<speed>2.7</speed>
<temp>0.00</temp>
<bpm>0</bpm>
<rpm>0.00</rpm>
</extensions>
</trkpt>
<trkpt lat="64.056617737" lon="-19.244318008">
<ele>595.734375</ele>
<time>2012-07-22T12:00:31Z</time>
<speed>2.350000</speed>
<extensions>
<speed>2.4</speed>
<temp>0.00</temp>
<bpm>0</bpm>
<rpm>0.00</rpm>
</extensions>
</trkpt>
<trkpt lat="64.056556702" lon="-19.244132996">
<ele>595.453125</ele>
<time>2012-07-22T12:00:36Z</time>
<speed>2.060000</speed>
<extensions>
<speed>2.1</speed>
<temp>0.00</temp>
<bpm>0</bpm>
<rpm>0.00</rpm>
</extensions>
</trkpt>
<trkpt lat="64.056510925" lon="-19.243967056">
<ele>596.000000</ele>
<time>2012-07-22T12:00:41Z</time>
<speed>2.120000</speed>
<extensions>
<speed>2.1</speed>
<temp>0.00</temp>
<bpm>0</bpm>
<rpm>0.00</rpm>
</extensions>
</trkpt>
<trkpt lat="64.056480408" lon="-19.243780136">
<ele>597.125000</ele>
<time>2012-07-22T12:00:46Z</time>
<speed>2.280000</speed>
<extensions>
<speed>2.3</speed>
<temp>0.00</temp>
<bpm>0</bpm>
<rpm>0.00</rpm>
</extensions>
</trkpt>
<trkpt lat="64.056404114" lon="-19.243541718">
<ele>598.843750</ele>
<time>2012-07-22T12:00:51Z</time>
<speed>2.970000</speed>
<extensions>
<speed>3.0</speed>
<temp>0.00</temp>
<bpm>0</bpm>
<rpm>0.00</rpm>
</extensions>
</trkpt>
<trkpt lat="64.056327820" lon="-19.243282318">
<ele>599.843750</ele>
<time>2012-07-22T12:00:56Z</time>
<speed>3.300000</speed>
<extensions>
<speed>3.3</speed>
<temp>0.00</temp>
<bpm>0</bpm>
<rpm>0.00</rpm>
</extensions>
</trkpt>
<trkpt lat="64.056251526" lon="-19.243038177">
<ele>602.500000</ele>
<time>2012-07-22T12:01:01Z</time>
<speed>3.110000</speed>
<extensions>
<speed>3.1</speed>
<temp>0.00</temp>
<bpm>0</bpm>
<rpm>0.00</rpm>
</extensions>
</trkpt>
<trkpt lat="64.056167603" lon="-19.242851257">
<ele>605.609375</ele>
<time>2012-07-22T12:01:06Z</time>
<speed>3.040000</speed>
<extensions>
<speed>3.0</speed>
<temp>0.00</temp>
<bpm>0</bpm>
<rpm>0.00</rpm>
</extensions>
</trkpt>
<trkpt lat="64.056037903" lon="-19.242704391">
<ele>607.890625</ele>
<time>2012-07-22T12:01:11Z</time>
<speed>2.510000</speed>
<extensions>
<speed>2.5</speed>
<temp>0.00</temp>
<bpm>0</bpm>
<rpm>0.00</rpm>
</extensions>
</trkpt>
<trkpt lat="64.055915833" lon="-19.242626190">
<ele>608.453125</ele>
<time>2012-07-22T12:01:16Z</time>
<speed>3.270000</speed>
<extensions>
<speed>3.3</speed>
<temp>0.00</temp>
<bpm>0</bpm>
<rpm>0.00</rpm>
</extensions>
</trkpt>
<trkpt lat="64.055763245" lon="-19.242519379">
<ele>607.515625</ele>
<time>2012-07-22T12:01:21Z</time>
<speed>3.100000</speed>
<extensions>
<speed>3.1</speed>
<temp>0.00</temp>
<bpm>0</bpm>
<rpm>0.00</rpm>
</extensions>
</trkpt>
<trkpt lat="64.055641174" lon="-19.242441177">
<ele>609.484375</ele>
<time>2012-07-22T12:01:26Z</time>
<speed>3.500000</speed>
<extensions>
<speed>3.5</speed>
<temp>0.00</temp>
<bpm>0</bpm>
<rpm>0.00</rpm>
</extensions>
</trkpt>
<trkpt lat="64.055488586" lon="-19.242349625">
<ele>608.109375</ele>
<time>2012-07-22T12:01:31Z</time>
<speed>3.510000</speed>
<extensions>
<speed>3.5</speed>
<temp>0.00</temp>
<bpm>0</bpm>
<rpm>0.00</rpm>
</extensions>
</trkpt>
<trkpt lat="64.055305481" lon="-19.242290497">
<ele>601.937500</ele>
<time>2012-07-22T12:01:36Z</time>
<speed>3.480000</speed>
<extensions>
<speed>3.5</speed>
<temp>0.00</temp>
<bpm>0</bpm>
<rpm>0.00</rpm>
</extensions>
</trkpt>
<trkpt lat="64.055145264" lon="-19.242229462">
<ele>600.156250</ele>
<time>2012-07-22T12:01:41Z</time>
<speed>3.650000</speed>
<extensions>
<speed>3.7</speed>
<temp>0.00</temp>
<bpm>0</bpm>
<rpm>0.00</rpm>
</extensions>
</trkpt>
<trkpt lat="64.054969788" lon="-19.242147446">
<ele>598.812500</ele>
<time>2012-07-22T12:01:46Z</time>
<speed>3.790000</speed>
<extensions>
<speed>3.8</speed>
<temp>0.00</temp>
<bpm>0</bpm>
<rpm>0.00</rpm>
</extensions>
</trkpt>
<trkpt lat="64.054801941" lon="-19.242071152">
<ele>597.781250</ele>
<time>2012-07-22T12:01:51Z</time>
<speed>4.010000</speed>
<extensions>
<speed>4.0</speed>
<temp>0.00</temp>
<bpm>0</bpm>
<rpm>0.00</rpm>
</extensions>
</trkpt>
<trkpt lat="64.054618835" lon="-19.241989136">
<ele>595.109375</ele>
<time>2012-07-22T12:01:56Z</time>
<speed>3.840000</speed>
<extensions>
<speed>3.8</speed>
<temp>0.00</temp>
<bpm>0</bpm>
<rpm>0.00</rpm>
</extensions>
</trkpt>
<trkpt lat="64.054450989" lon="-19.241922379">
<ele>594.140625</ele>
<time>2012-07-22T12:02:01Z</time>
<speed>3.600000</speed>
<extensions>
<speed>3.6</speed>
<temp>0.00</temp>
<bpm>0</bpm>
<rpm>0.00</rpm>
</extensions>
</trkpt>
<trkpt lat="64.054290771" lon="-19.241874695">
<ele>592.734375</ele>
<time>2012-07-22T12:02:06Z</time>
<speed>3.330000</speed>
<extensions>
<speed>3.3</speed>
<temp>0.00</temp>
<bpm>0</bpm>
<rpm>0.00</rpm>
</extensions>
</trkpt>
<trkpt lat="64.054161072" lon="-19.241819382">
<ele>594.625000</ele>
<time>2012-07-22T12:02:11Z</time>
<speed>3.070000</speed>
<extensions>
<speed>3.1</speed>
<temp>0.00</temp>
<bpm>0</bpm>
<rpm>0.00</rpm>
</extensions>
</trkpt>
<trkpt lat="64.054023743" lon="-19.241853714">
<ele>595.984375</ele>
<time>2012-07-22T12:02:16Z</time>
<speed>2.720000</speed>
<extensions>
<speed>2.7</speed>
<temp>0.00</temp>
<bpm>0</bpm>
<rpm>0.00</rpm>
</extensions>
</trkpt>
<trkpt lat="64.053924561" lon="-19.241863251">
<ele>597.984375</ele>
<time>2012-07-22T12:02:21Z</time>
<speed>2.110000</speed>
<extensions>
<speed>2.1</speed>
<temp>0.00</temp>
<bpm>0</bpm>
<rpm>0.00</rpm>
</extensions>
</trkpt>
<trkpt lat="64.053817749" lon="-19.241830826">
<ele>599.078125</ele>
<time>2012-07-22T12:02:26Z</time>
<speed>2.760000</speed>
<extensions>
<speed>2.8</speed>
<temp>0.00</temp>
<bpm>0</bpm>
<rpm>0.00</rpm>
</extensions>
</trkpt>
<trkpt lat="64.053703308" lon="-19.241739273">
<ele>598.515625</ele>
<time>2012-07-22T12:02:31Z</time>
<speed>2.090000</speed>
<extensions>
<speed>2.1</speed>
<temp>0.00</temp>
<bpm>0</bpm>
<rpm>0.00</rpm>
</extensions>
</trkpt>
<trkpt lat="64.053596497" lon="-19.241615295">
<ele>595.812500</ele>
<time>2012-07-22T12:02:36Z</time>
<speed>2.720000</speed>
<extensions>
<speed>2.7</speed>
<temp>0.00</temp>
<bpm>0</bpm>
<rpm>0.00</rpm>
</extensions>
</trkpt>
<trkpt lat="64.053527832" lon="-19.241487503">
<ele>596.406250</ele>
<time>2012-07-22T12:02:41Z</time>
<speed>1.840000</speed>
<extensions>
<speed>1.8</speed>
<temp>0.00</temp>
<bpm>0</bpm>
<rpm>0.00</rpm>
</extensions>
</trkpt>
<trkpt lat="64.053489685" lon="-19.241340637">
<ele>599.671875</ele>
<time>2012-07-22T12:02:46Z</time>
<speed>1.460000</speed>
<extensions>
<speed>1.5</speed>
<temp>0.00</temp>
<bpm>0</bpm>
<rpm>0.00</rpm>
</extensions>
</trkpt>
<trkpt lat="64.053459167" lon="-19.241218567">
<ele>602.109375</ele>
<time>2012-07-22T12:02:51Z</time>
<speed>0.890000</speed>
<extensions>
<speed>0.9</speed>
<temp>0.00</temp>
<bpm>0</bpm>
<rpm>0.00</rpm>
</extensions>
</trkpt>
<trkpt lat="64.053405762" lon="-19.241100311">
<ele>603.875000</ele>
<time>2012-07-22T12:02:56Z</time>
<speed>1.540000</speed>
<extensions>
<speed>1.5</speed>
<temp>0.00</temp>
<bpm>0</bpm>
<rpm>0.00</rpm>
</extensions>
</trkpt>
<trkpt lat="64.053375244" lon="-19.240953445">
<ele>604.171875</ele>
<time>2012-07-22T12:03:01Z</time>
<speed>1.160000</speed>
<extensions>
<speed>1.2</speed>
<temp>0.00</temp>
<bpm>0</bpm>
<rpm>0.00</rpm>
</extensions>
</trkpt>
<trkpt lat="64.053337097" lon="-19.240867615">
<ele>604.031250</ele>
<time>2012-07-22T12:03:06Z</time>
<speed>1.170000</speed>
<extensions>
<speed>1.2</speed>
<temp>0.00</temp>
<bpm>0</bpm>
<rpm>0.00</rpm>
</extensions>
</trkpt>
<trkpt lat="64.053283691" lon="-19.240751266">
<ele>604.500000</ele>
<time>2012-07-22T12:03:11Z</time>
<speed>1.300000</speed>
<extensions>
<speed>1.3</speed>
<temp>0.00</temp>
<bpm>0</bpm>
<rpm>0.00</rpm>
</extensions>
</trkpt>
<trkpt lat="64.053237915" lon="-19.240653992">
<ele>605.109375</ele>
<time>2012-07-22T12:03:16Z</time>
<speed>1.870000</speed>
<extensions>
<speed>1.9</speed>
<temp>0.00</temp>
<bpm>0</bpm>
<rpm>0.00</rpm>
</extensions>
</trkpt>
<trkpt lat="64.053207397" lon="-19.240493774">
<ele>605.390625</ele>
<time>2012-07-22T12:03:21Z</time>
<speed>1.490000</speed>
<extensions>
<speed>1.5</speed>
<temp>0.00</temp>
<bpm>0</bpm>
<rpm>0.00</rpm>
</extensions>
</trkpt>
<trkpt lat="64.053176880" lon="-19.240512848">
<ele>604.296875</ele>
<time>2012-07-22T12:03:26Z</time>
<extensions>
<speed>0.0</speed>
<temp>0.00</temp>
<bpm>0</bpm>
<rpm>0.00</rpm>
</extensions>
</trkpt>
<trkpt lat="64.053176880" lon="-19.240514755">
<ele>604.437500</ele>
<time>2012-07-22T12:03:31Z</time>
<speed>0.170000</speed>
<extensions>
<speed>0.2</speed>
<temp>0.00</temp>
<bpm>0</bpm>
<rpm>0.00</rpm>
</extensions>
</trkpt>
<trkpt lat="64.053161621" lon="-19.240417480">
<ele>604.421875</ele>
<time>2012-07-22T12:03:36Z</time>
<speed>1.340000</speed>
<extensions>
<speed>1.3</speed>
<temp>0.00</temp>
<bpm>0</bpm>
<rpm>0.00</rpm>
</extensions>
</trkpt>
<trkpt lat="64.053131104" lon="-19.240272522">
<ele>604.812500</ele>
<time>2012-07-22T12:03:41Z</time>
<speed>1.270000</speed>
<extensions>
<speed>1.3</speed>
<temp>0.00</temp>
<bpm>0</bpm>
<rpm>0.00</rpm>
</extensions>
</trkpt>
<trkpt lat="64.053131104" lon="-19.240123749">
<ele>601.906250</ele>
<time>2012-07-22T12:03:46Z</time>
<speed>1.470000</speed>
<extensions>
<speed>1.5</speed>
<temp>0.00</temp>
<bpm>0</bpm>
<rpm>0.00</rpm>
</extensions>
</trkpt>
<trkpt lat="64.053115845" lon="-19.239988327">
<ele>602.187500</ele>
<time>2012-07-22T12:03:51Z</time>
<speed>1.820000</speed>
<extensions>
<speed>1.8</speed>
<temp>0.00</temp>
<bpm>0</bpm>
<rpm>0.00</rpm>
</extensions>
</trkpt>
<trkpt lat="64.053085327" lon="-19.239818573">
<ele>602.421875</ele>
<time>2012-07-22T12:03:56Z</time>
<speed>1.780000</speed>
<extensions>
<speed>1.8</speed>
<temp>0.00</temp>
<bpm>0</bpm>
<rpm>0.00</rpm>
</extensions>
</trkpt>
<trkpt lat="64.053077698" lon="-19.239641190">
<ele>601.859375</ele>
<time>2012-07-22T12:04:01Z</time>
<speed>1.990000</speed>
<extensions>
<speed>2.0</speed>
<temp>0.00</temp>
<bpm>0</bpm>
<rpm>0.00</rpm>
</extensions>
</trkpt>
<trkpt lat="64.053070068" lon="-19.239484787">
<ele>602.281250</ele>
<time>2012-07-22T12:04:06Z</time>
<speed>0.740000</speed>
<extensions>
<speed>0.7</speed>
<temp>0.00</temp>
<bpm>0</bpm>
<rpm>0.00</rpm>
</extensions>
</trkpt>
<trkpt lat="64.053070068" lon="-19.239456177">
<ele>602.187500</ele>
<time>2012-07-22T12:04:11Z</time>
<speed>0.060000</speed>
<extensions>
<speed>0.1</speed>
<temp>0.00</temp>
<bpm>0</bpm>
<rpm>0.00</rpm>
</extensions>
</trkpt>
<trkpt lat="64.053070068" lon="-19.239456177">
<ele>602.218750</ele>
<time>2012-07-22T12:04:16Z</time>
<speed>0.280000</speed>
<extensions>
<speed>0.3</speed>
<temp>0.00</temp>
<bpm>0</bpm>
<rpm>0.00</rpm>
</extensions>
</trkpt>
<trkpt lat="64.053016663" lon="-19.239337921">
<ele>602.640625</ele>
<time>2012-07-22T12:04:21Z</time>
<speed>2.630000</speed>
<extensions>
<speed>2.6</speed>
<temp>0.00</temp>
<bpm>0</bpm>
<rpm>0.00</rpm>
</extensions>
</trkpt>
<trkpt lat="64.052993774" lon="-19.239053726">
<ele>602.781250</ele>
<time>2012-07-22T12:04:26Z</time>
<speed>2.700000</speed>
<extensions>
<speed>2.7</speed>
<temp>0.00</temp>
<bpm>0</bpm>
<rpm>0.00</rpm>
</extensions>
</trkpt>
<trkpt lat="64.052947998" lon="-19.238801956">
<ele>602.109375</ele>
<time>2012-07-22T12:04:31Z</time>
<speed>2.860000</speed>
<extensions>
<speed>2.9</speed>
<temp>0.00</temp>
<bpm>0</bpm>
<rpm>0.00</rpm>
</extensions>
</trkpt>
<trkpt lat="64.052940369" lon="-19.238559723">
<ele>603.109375</ele>
<time>2012-07-22T12:04:36Z</time>
<speed>2.680000</speed>
<extensions>
<speed>2.7</speed>
<temp>0.00</temp>
<bpm>0</bpm>
<rpm>0.00</rpm>
</extensions>
</trkpt>
<trkpt lat="64.052947998" lon="-19.238378525">
<ele>601.937500</ele>
<time>2012-07-22T12:04:41Z</time>
<speed>1.610000</speed>
<extensions>
<speed>1.6</speed>
<temp>0.00</temp>
<bpm>0</bpm>
<rpm>0.00</rpm>
</extensions>
</trkpt>
<trkpt lat="64.052986145" lon="-19.238183975">
<ele>602.125000</ele>
<time>2012-07-22T12:04:46Z</time>
<speed>2.300000</speed>
<extensions>
<speed>2.3</speed>
<temp>0.00</temp>
<bpm>0</bpm>
<rpm>0.00</rpm>
</extensions>
</trkpt>
<trkpt lat="64.053024292" lon="-19.237970352">
<ele>602.171875</ele>
<time>2012-07-22T12:04:51Z</time>
<speed>2.240000</speed>
<extensions>
<speed>2.2</speed>
<temp>0.00</temp>
<bpm>0</bpm>
<rpm>0.00</rpm>
</extensions>
</trkpt>
<trkpt lat="64.053062439" lon="-19.237730026">
<ele>601.390625</ele>
<time>2012-07-22T12:04:56Z</time>
<speed>2.480000</speed>
<extensions>
<speed>2.5</speed>
<temp>0.00</temp>
<bpm>0</bpm>
<rpm>0.00</rpm>
</extensions>
</trkpt>
<trkpt lat="64.053092957" lon="-19.237516403">
<ele>602.031250</ele>
<time>2012-07-22T12:05:01Z</time>
<speed>2.400000</speed>
<extensions>
<speed>2.4</speed>
<temp>0.00</temp>
<bpm>0</bpm>
<rpm>0.00</rpm>
</extensions>
</trkpt>
<trkpt lat="64.053138733" lon="-19.237257004">
<ele>602.296875</ele>
<time>2012-07-22T12:05:06Z</time>
<speed>2.920000</speed>
<extensions>
<speed>2.9</speed>
<temp>0.00</temp>
<bpm>0</bpm>
<rpm>0.00</rpm>
</extensions>
</trkpt>
<trkpt lat="64.053199768" lon="-19.237012863">
<ele>602.828125</ele>
<time>2012-07-22T12:05:11Z</time>
<speed>2.590000</speed>
<extensions>
<speed>2.6</speed>
<temp>0.00</temp>
<bpm>0</bpm>
<rpm>0.00</rpm>
</extensions>
</trkpt>
<trkpt lat="64.053222656" lon="-19.236743927">
<ele>603.484375</ele>
<time>2012-07-22T12:05:16Z</time>
<speed>2.610000</speed>
<extensions>
<speed>2.6</speed>
<temp>0.00</temp>
<bpm>0</bpm>
<rpm>0.00</rpm>
</extensions>
</trkpt>
<trkpt lat="64.053222656" lon="-19.236438751">
<ele>604.265625</ele>
<time>2012-07-22T12:05:21Z</time>
<speed>2.470000</speed>
<extensions>
<speed>2.5</speed>
<temp>0.00</temp>
<bpm>0</bpm>
<rpm>0.00</rpm>
</extensions>
</trkpt>
<trkpt lat="64.053215027" lon="-19.236167908">
<ele>603.906250</ele>
<time>2012-07-22T12:05:26Z</time>
<speed>2.490000</speed>
<extensions>
<speed>2.5</speed>
<temp>0.00</temp>
<bpm>0</bpm>
<rpm>0.00</rpm>
</extensions>
</trkpt>
<trkpt lat="64.053123474" lon="-19.235918045">
<ele>603.750000</ele>
<time>2012-07-22T12:05:31Z</time>
<speed>3.160000</speed>
<extensions>
<speed>3.2</speed>
<temp>0.00</temp>
<bpm>0</bpm>
<rpm>0.00</rpm>
</extensions>
</trkpt>
<trkpt lat="64.053070068" lon="-19.235567093">
<ele>603.968750</ele>
<time>2012-07-22T12:05:36Z</time>
<speed>3.360000</speed>
<extensions>
<speed>3.4</speed>
<temp>0.00</temp>
<bpm>0</bpm>
<rpm>0.00</rpm>
</extensions>
</trkpt>
<trkpt lat="64.053047180" lon="-19.235197067">
<ele>602.843750</ele>
<time>2012-07-22T12:05:41Z</time>
<speed>2.850000</speed>
<extensions>
<speed>2.9</speed>
<temp>0.00</temp>
<bpm>0</bpm>
<rpm>0.00</rpm>
</extensions>
</trkpt>
<trkpt lat="64.053009033" lon="-19.234966278">
<ele>602.937500</ele>
<time>2012-07-22T12:05:46Z</time>
<speed>3.250000</speed>
<extensions>
<speed>3.2</speed>
<temp>0.00</temp>
<bpm>0</bpm>
<rpm>0.00</rpm>
</extensions>
</trkpt>
<trkpt lat="64.052993774" lon="-19.234674454">
<ele>603.062500</ele>
<time>2012-07-22T12:05:51Z</time>
<speed>2.950000</speed>
<extensions>
<speed>2.9</speed>
<temp>0.00</temp>
<bpm>0</bpm>
<rpm>0.00</rpm>
</extensions>
</trkpt>
<trkpt lat="64.052993774" lon="-19.234439850">
<ele>601.734375</ele>
<time>2012-07-22T12:05:56Z</time>
<speed>1.690000</speed>
<extensions>
<speed>1.7</speed>
<temp>0.00</temp>
<bpm>0</bpm>
<rpm>0.00</rpm>
</extensions>
</trkpt>
<trkpt lat="64.053001404" lon="-19.234382629">
<ele>600.421875</ele>
<time>2012-07-22T12:06:01Z</time>
<speed>0.020000</speed>
<extensions>
<speed>0.0</speed>
<temp>0.00</temp>
<bpm>0</bpm>
<rpm>0.00</rpm>
</extensions>
</trkpt>
<trkpt lat="64.053001404" lon="-19.234369278">
<ele>600.437500</ele>
<time>2012-07-22T12:06:06Z</time>
<extensions>
<speed>0.0</speed>
<temp>0.00</temp>
<bpm>0</bpm>
<rpm>0.00</rpm>
</extensions>
</trkpt>
<trkpt lat="64.053001404" lon="-19.234369278">
<ele>600.390625</ele>
<time>2012-07-22T12:06:11Z</time>
<speed>0.280000</speed>
<extensions>
<speed>0.3</speed>
<temp>0.00</temp>
<bpm>0</bpm>
<rpm>0.00</rpm>
</extensions>
</trkpt>
<trkpt lat="64.052986145" lon="-19.234207153">
<ele>599.734375</ele>
<time>2012-07-22T12:06:16Z</time>
<speed>3.460000</speed>
<extensions>
<speed>3.5</speed>
<temp>0.00</temp>
<bpm>0</bpm>
<rpm>0.00</rpm>
</extensions>
</trkpt>
<trkpt lat="64.052978516" lon="-19.233760834">
<ele>600.031250</ele>
<time>2012-07-22T12:06:21Z</time>
<speed>4.590000</speed>
<extensions>
<speed>4.6</speed>
<temp>0.00</temp>
<bpm>0</bpm>
<rpm>0.00</rpm>
</extensions>
</trkpt>
<trkpt lat="64.052986145" lon="-19.233339310">
<ele>600.578125</ele>
<time>2012-07-22T12:06:26Z</time>
<speed>4.140000</speed>
<extensions>
<speed>4.1</speed>
<temp>0.00</temp>
<bpm>0</bpm>
<rpm>0.00</rpm>
</extensions>
</trkpt>
<trkpt lat="64.053001404" lon="-19.233041763">
<ele>600.593750</ele>
<time>2012-07-22T12:06:31Z</time>
<speed>2.130000</speed>
<extensions>
<speed>2.1</speed>
<temp>0.00</temp>
<bpm>0</bpm>
<rpm>0.00</rpm>
</extensions>
</trkpt>
<trkpt lat="64.053016663" lon="-19.232816696">
<ele>600.390625</ele>
<time>2012-07-22T12:06:36Z</time>
<speed>2.490000</speed>
<extensions>
<speed>2.5</speed>
<temp>0.00</temp>
<bpm>0</bpm>
<rpm>0.00</rpm>
</extensions>
</trkpt>
<trkpt lat="64.053016663" lon="-19.232553482">
<ele>600.781250</ele>
<time>2012-07-22T12:06:41Z</time>
<speed>2.550000</speed>
<extensions>
<speed>2.6</speed>
<temp>0.00</temp>
<bpm>0</bpm>
<rpm>0.00</rpm>
</extensions>
</trkpt>
<trkpt lat="64.053009033" lon="-19.232282639">
<ele>600.843750</ele>
<time>2012-07-22T12:06:46Z</time>
<speed>2.170000</speed>
<extensions>
<speed>2.2</speed>
<temp>0.00</temp>
<bpm>0</bpm>
<rpm>0.00</rpm>
</extensions>
</trkpt>
<trkpt lat="64.052986145" lon="-19.232044220">
<ele>599.750000</ele>
<time>2012-07-22T12:06:51Z</time>
<speed>2.470000</speed>
<extensions>
<speed>2.5</speed>
<temp>0.00</temp>
<bpm>0</bpm>
<rpm>0.00</rpm>
</extensions>
</trkpt>
<trkpt lat="64.052986145" lon="-19.231805801">
<ele>598.125000</ele>
<time>2012-07-22T12:06:56Z</time>
<speed>3.170000</speed>
<extensions>
<speed>3.2</speed>
<temp>0.00</temp>
<bpm>0</bpm>
<rpm>0.00</rpm>
</extensions>
</trkpt>
<trkpt lat="64.052978516" lon="-19.231496811">
<ele>598.593750</ele>
<time>2012-07-22T12:07:01Z</time>
<speed>3.150000</speed>
<extensions>
<speed>3.2</speed>
<temp>0.00</temp>
<bpm>0</bpm>
<rpm>0.00</rpm>
</extensions>
</trkpt>
<trkpt lat="64.052963257" lon="-19.231180191">
<ele>599.140625</ele>
<time>2012-07-22T12:07:06Z</time>
<speed>3.140000</speed>
<extensions>
<speed>3.1</speed>
<temp>0.00</temp>
<bpm>0</bpm>
<rpm>0.00</rpm>
</extensions>
</trkpt>
<trkpt lat="64.052932739" lon="-19.230903625">
<ele>597.265625</ele>
<time>2012-07-22T12:07:11Z</time>
<speed>2.940000</speed>
<extensions>
<speed>2.9</speed>
<temp>0.00</temp>
<bpm>0</bpm>
<rpm>0.00</rpm>
</extensions>
</trkpt>
<trkpt lat="64.052886963" lon="-19.230651855">
<ele>597.140625</ele>
<time>2012-07-22T12:07:16Z</time>
<speed>2.780000</speed>
<extensions>
<speed>2.8</speed>
<temp>0.00</temp>
<bpm>0</bpm>
<rpm>0.00</rpm>
</extensions>
</trkpt>
<trkpt lat="64.052841187" lon="-19.230360031">
<ele>598.687500</ele>
<time>2012-07-22T12:07:21Z</time>
<speed>3.070000</speed>
<extensions>
<speed>3.1</speed>
<temp>0.00</temp>
<bpm>0</bpm>
<rpm>0.00</rpm>
</extensions>
</trkpt>
<trkpt lat="64.052780151" lon="-19.230058670">
<ele>598.921875</ele>
<time>2012-07-22T12:07:26Z</time>
<speed>3.040000</speed>
<extensions>
<speed>3.0</speed>
<temp>0.00</temp>
<bpm>0</bpm>
<rpm>0.00</rpm>
</extensions>
</trkpt>
<trkpt lat="64.052703857" lon="-19.229770660">
<ele>598.562500</ele>
<time>2012-07-22T12:07:31Z</time>
<speed>3.730000</speed>
<extensions>
<speed>3.7</speed>
<temp>0.00</temp>
<bpm>0</bpm>
<rpm>0.00</rpm>
</extensions>
</trkpt>
<trkpt lat="64.052642822" lon="-19.229433060">
<ele>598.421875</ele>
<time>2012-07-22T12:07:36Z</time>
<speed>3.810000</speed>
<extensions>
<speed>3.8</speed>
<temp>0.00</temp>
<bpm>0</bpm>
<rpm>0.00</rpm>
</extensions>
</trkpt>
<trkpt lat="64.052574158" lon="-19.229082108">
<ele>599.296875</ele>
<time>2012-07-22T12:07:41Z</time>
<speed>3.790000</speed>
<extensions>
<speed>3.8</speed>
<temp>0.00</temp>
<bpm>0</bpm>
<rpm>0.00</rpm>
</extensions>
</trkpt>
<trkpt lat="64.052490234" lon="-19.228746414">
<ele>599.156250</ele>
<time>2012-07-22T12:07:46Z</time>
<speed>3.790000</speed>
<extensions>
<speed>3.8</speed>
<temp>0.00</temp>
<bpm>0</bpm>
<rpm>0.00</rpm>
</extensions>
</trkpt>
<trkpt lat="64.052398682" lon="-19.228425980">
<ele>598.843750</ele>
<time>2012-07-22T12:07:51Z</time>
<speed>3.560000</speed>
<extensions>
<speed>3.6</speed>
<temp>0.00</temp>
<bpm>0</bpm>
<rpm>0.00</rpm>
</extensions>
</trkpt>
<trkpt lat="64.052299500" lon="-19.228118896">
<ele>598.531250</ele>
<time>2012-07-22T12:07:56Z</time>
<speed>3.480000</speed>
<extensions>
<speed>3.5</speed>
<temp>0.00</temp>
<bpm>0</bpm>
<rpm>0.00</rpm>
</extensions>
</trkpt>
<trkpt lat="64.052207947" lon="-19.227848053">
<ele>598.437500</ele>
<time>2012-07-22T12:08:01Z</time>
<speed>3.220000</speed>
<extensions>
<speed>3.2</speed>
<temp>0.00</temp>
<bpm>0</bpm>
<rpm>0.00</rpm>
</extensions>
</trkpt>
<trkpt lat="64.052101135" lon="-19.227607727">
<ele>597.468750</ele>
<time>2012-07-22T12:08:06Z</time>
<speed>3.470000</speed>
<extensions>
<speed>3.5</speed>
<temp>0.00</temp>
<bpm>0</bpm>
<rpm>0.00</rpm>
</extensions>
</trkpt>
<trkpt lat="64.051994324" lon="-19.227373123">
<ele>598.265625</ele>
<time>2012-07-22T12:08:11Z</time>
<speed>3.300000</speed>
<extensions>
<speed>3.3</speed>
<temp>0.00</temp>
<bpm>0</bpm>
<rpm>0.00</rpm>
</extensions>
</trkpt>
<trkpt lat="64.051879883" lon="-19.227167130">
<ele>599.500000</ele>
<time>2012-07-22T12:08:16Z</time>
<speed>3.790000</speed>
<extensions>
<speed>3.8</speed>
<temp>0.00</temp>
<bpm>0</bpm>
<rpm>0.00</rpm>
</extensions>
</trkpt>
<trkpt lat="64.051734924" lon="-19.226949692">
<ele>599.421875</ele>
<time>2012-07-22T12:08:21Z</time>
<speed>3.950000</speed>
<extensions>
<speed>4.0</speed>
<temp>0.00</temp>
<bpm>0</bpm>
<rpm>0.00</rpm>
</extensions>
</trkpt>
<trkpt lat="64.051597595" lon="-19.226743698">
<ele>599.468750</ele>
<time>2012-07-22T12:08:26Z</time>
<speed>3.850000</speed>
<extensions>
<speed>3.8</speed>
<temp>0.00</temp>
<bpm>0</bpm>
<rpm>0.00</rpm>
</extensions>
</trkpt>
<trkpt lat="64.051460266" lon="-19.226549149">
<ele>600.281250</ele>
<time>2012-07-22T12:08:31Z</time>
<speed>3.480000</speed>
<extensions>
<speed>3.5</speed>
<temp>0.00</temp>
<bpm>0</bpm>
<rpm>0.00</rpm>
</extensions>
</trkpt>
<trkpt lat="64.051330566" lon="-19.226371765">
<ele>599.656250</ele>
<time>2012-07-22T12:08:36Z</time>
<speed>3.360000</speed>
<extensions>
<speed>3.4</speed>
<temp>0.00</temp>
<bpm>0</bpm>
<rpm>0.00</rpm>
</extensions>
</trkpt>
<trkpt lat="64.051193237" lon="-19.226213455">
<ele>600.000000</ele>
<time>2012-07-22T12:08:41Z</time>
<speed>3.360000</speed>
<extensions>
<speed>3.4</speed>
<temp>0.00</temp>
<bpm>0</bpm>
<rpm>0.00</rpm>
</extensions>
</trkpt>
<trkpt lat="64.051071167" lon="-19.226020813">
<ele>601.484375</ele>
<time>2012-07-22T12:08:46Z</time>
<speed>3.150000</speed>
<extensions>
<speed>3.2</speed>
<temp>0.00</temp>
<bpm>0</bpm>
<rpm>0.00</rpm>
</extensions>
</trkpt>
<trkpt lat="64.050949097" lon="-19.225830078">
<ele>602.437500</ele>
<time>2012-07-22T12:08:51Z</time>
<speed>3.380000</speed>
<extensions>
<speed>3.4</speed>
<temp>0.00</temp>
<bpm>0</bpm>
<rpm>0.00</rpm>
</extensions>
</trkpt>
<trkpt lat="64.050849915" lon="-19.225627899">
<ele>602.953125</ele>
<time>2012-07-22T12:08:56Z</time>
<speed>2.880000</speed>
<extensions>
<speed>2.9</speed>
<temp>0.00</temp>
<bpm>0</bpm>
<rpm>0.00</rpm>
</extensions>
</trkpt>
<trkpt lat="64.050758362" lon="-19.225395203">
<ele>601.453125</ele>
<time>2012-07-22T12:09:01Z</time>
<speed>3.130000</speed>
<extensions>
<speed>3.1</speed>
<temp>0.00</temp>
<bpm>0</bpm>
<rpm>0.00</rpm>
</extensions>
</trkpt>
<trkpt lat="64.050666809" lon="-19.225118637">
<ele>599.203125</ele>
<time>2012-07-22T12:09:06Z</time>
<speed>3.370000</speed>
<extensions>
<speed>3.4</speed>
<temp>0.00</temp>
<bpm>0</bpm>
<rpm>0.00</rpm>
</extensions>
</trkpt>
<trkpt lat="64.050590515" lon="-19.224822998">
<ele>596.937500</ele>
<time>2012-07-22T12:09:11Z</time>
<speed>3.210000</speed>
<extensions>
<speed>3.2</speed>
<temp>0.00</temp>
<bpm>0</bpm>
<rpm>0.00</rpm>
</extensions>
</trkpt>
<trkpt lat="64.050514221" lon="-19.224542618">
<ele>595.953125</ele>
<time>2012-07-22T12:09:16Z</time>
<speed>3.180000</speed>
<extensions>
<speed>3.2</speed>
<temp>0.00</temp>
<bpm>0</bpm>
<rpm>0.00</rpm>
</extensions>
</trkpt>
<trkpt lat="64.050476074" lon="-19.224264145">
<ele>595.468750</ele>
<time>2012-07-22T12:09:21Z</time>
<speed>2.560000</speed>
<extensions>
<speed>2.6</speed>
<temp>0.00</temp>
<bpm>0</bpm>
<rpm>0.00</rpm>
</extensions>
</trkpt>
<trkpt lat="64.050445557" lon="-19.223920822">
<ele>604.843750</ele>
<time>2012-07-22T12:09:26Z</time>
<speed>3.510000</speed>
<extensions>
<speed>3.5</speed>
<temp>0.00</temp>
<bpm>0</bpm>
<rpm>0.00</rpm>
</extensions>
</trkpt>
<trkpt lat="64.050430298" lon="-19.223628998">
<ele>601.421875</ele>
<time>2012-07-22T12:09:31Z</time>
<speed>2.720000</speed>
<extensions>
<speed>2.7</speed>
<temp>0.00</temp>
<bpm>0</bpm>
<rpm>0.00</rpm>
</extensions>
</trkpt>
<trkpt lat="64.050415039" lon="-19.223464966">
<ele>598.265625</ele>
<time>2012-07-22T12:09:36Z</time>
<speed>0.700000</speed>
<extensions>
<speed>0.7</speed>
<temp>0.00</temp>
<bpm>0</bpm>
<rpm>0.00</rpm>
</extensions>
</trkpt>
<trkpt lat="64.050415039" lon="-19.223461151">
<ele>598.187500</ele>
<time>2012-07-22T12:09:41Z</time>
<speed>0.110000</speed>
<extensions>
<speed>0.1</speed>
<temp>0.00</temp>
<bpm>0</bpm>
<rpm>0.00</rpm>
</extensions>
</trkpt>
<trkpt lat="64.050415039" lon="-19.223451614">
<ele>598.203125</ele>
<time>2012-07-22T12:09:46Z</time>
<speed>0.110000</speed>
<extensions>
<speed>0.1</speed>
<temp>0.00</temp>
<bpm>0</bpm>
<rpm>0.00</rpm>
</extensions>
</trkpt>
<trkpt lat="64.050415039" lon="-19.223447800">
<ele>598.281250</ele>
<time>2012-07-22T12:09:51Z</time>
<speed>0.100000</speed>
<extensions>
<speed>0.1</speed>
<temp>0.00</temp>
<bpm>0</bpm>
<rpm>0.00</rpm>
</extensions>
</trkpt>
<trkpt lat="64.050407410" lon="-19.223457336">
<ele>598.046875</ele>
<time>2012-07-22T12:09:56Z</time>
<speed>0.060000</speed>
<extensions>
<speed>0.1</speed>
<temp>0.00</temp>
<bpm>0</bpm>
<rpm>0.00</rpm>
</extensions>
</trkpt>
<trkpt lat="64.050407410" lon="-19.223457336">
<ele>597.953125</ele>
<time>2012-07-22T12:10:01Z</time>
<speed>0.040000</speed>
<extensions>
<speed>0.0</speed>
<temp>0.00</temp>
<bpm>0</bpm>
<rpm>0.00</rpm>
</extensions>
</trkpt>
<trkpt lat="64.050407410" lon="-19.223453522">
<ele>597.859375</ele>
<time>2012-07-22T12:10:06Z</time>
<speed>0.780000</speed>
<extensions>
<speed>0.8</speed>
<temp>0.00</temp>
<bpm>0</bpm>
<rpm>0.00</rpm>
</extensions>
</trkpt>
<trkpt lat="64.050430298" lon="-19.223423004">
<ele>598.718750</ele>
<time>2012-07-22T12:10:11Z</time>
<speed>0.240000</speed>
<extensions>
<speed>0.2</speed>
<temp>0.00</temp>
<bpm>0</bpm>
<rpm>0.00</rpm>
</extensions>
</trkpt>
<trkpt lat="64.050437927" lon="-19.223409653">
<ele>598.453125</ele>
<time>2012-07-22T12:10:16Z</time>
<speed>0.220000</speed>
<extensions>
<speed>0.2</speed>
<temp>0.00</temp>
<bpm>0</bpm>
<rpm>0.00</rpm>
</extensions>
</trkpt>
<trkpt lat="64.050430298" lon="-19.223400116">
<ele>598.296875</ele>
<time>2012-07-22T12:10:21Z</time>
<speed>0.140000</speed>
<extensions>
<speed>0.1</speed>
<temp>0.00</temp>
<bpm>0</bpm>
<rpm>0.00</rpm>
</extensions>
</trkpt>
<trkpt lat="64.050437927" lon="-19.223407745">
<ele>597.718750</ele>
<time>2012-07-22T12:10:26Z</time>
<speed>0.020000</speed>
<extensions>
<speed>0.0</speed>
<temp>0.00</temp>
<bpm>0</bpm>
<rpm>0.00</rpm>
</extensions>
</trkpt>
<trkpt lat="64.050437927" lon="-19.223400116">
<ele>597.968750</ele>
<time>2012-07-22T12:10:31Z</time>
<speed>0.030000</speed>
<extensions>
<speed>0.0</speed>
<temp>0.00</temp>
<bpm>0</bpm>
<rpm>0.00</rpm>
</extensions>
</trkpt>
<trkpt lat="64.050437927" lon="-19.223398209">
<ele>598.187500</ele>
<time>2012-07-22T12:10:36Z</time>
<speed>0.010000</speed>
<extensions>
<speed>0.0</speed>
<temp>0.00</temp>
<bpm>0</bpm>
<rpm>0.00</rpm>
</extensions>
</trkpt>
<trkpt lat="64.050437927" lon="-19.223400116">
<ele>598.187500</ele>
<time>2012-07-22T12:10:41Z</time>
<extensions>
<speed>0.0</speed>
<temp>0.00</temp>
<bpm>0</bpm>
<rpm>0.00</rpm>
</extensions>
</trkpt>
<trkpt lat="64.050437927" lon="-19.223400116">
<ele>598.171875</ele>
<time>2012-07-22T12:10:46Z</time>
<speed>0.030000</speed>
<extensions>
<speed>0.0</speed>
<temp>0.00</temp>
<bpm>0</bpm>
<rpm>0.00</rpm>
</extensions>
</trkpt>
<trkpt lat="64.050437927" lon="-19.223400116">
<ele>598.156250</ele>
<time>2012-07-22T12:10:51Z</time>
<speed>0.010000</speed>
<extensions>
<speed>0.0</speed>
<temp>0.00</temp>
<bpm>0</bpm>
<rpm>0.00</rpm>
</extensions>
</trkpt>
<trkpt lat="64.050437927" lon="-19.223400116">
<ele>598.156250</ele>
<time>2012-07-22T12:10:56Z</time>
<speed>0.720000</speed>
<extensions>
<speed>0.7</speed>
<temp>0.00</temp>
<bpm>0</bpm>
<rpm>0.00</rpm>
</extensions>
</trkpt>
<trkpt lat="64.050399780" lon="-19.223417282">
<ele>597.734375</ele>
<time>2012-07-22T12:11:01Z</time>
<speed>0.970000</speed>
<extensions>
<speed>1.0</speed>
<temp>0.00</temp>
<bpm>0</bpm>
<rpm>0.00</rpm>
</extensions>
</trkpt>
<trkpt lat="64.050315857" lon="-19.223440170">
<ele>596.875000</ele>
<time>2012-07-22T12:11:06Z</time>
<speed>1.420000</speed>
<extensions>
<speed>1.4</speed>
<temp>0.00</temp>
<bpm>0</bpm>
<rpm>0.00</rpm>
</extensions>
</trkpt>
<trkpt lat="64.050224304" lon="-19.223512650">
<ele>597.265625</ele>
<time>2012-07-22T12:11:11Z</time>
<speed>2.760000</speed>
<extensions>
<speed>2.8</speed>
<temp>0.00</temp>
<bpm>0</bpm>
<rpm>0.00</rpm>
</extensions>
</trkpt>
<trkpt lat="64.050117493" lon="-19.223611832">
<ele>597.281250</ele>
<time>2012-07-22T12:11:16Z</time>
<speed>1.660000</speed>
<extensions>
<speed>1.7</speed>
<temp>0.00</temp>
<bpm>0</bpm>
<rpm>0.00</rpm>
</extensions>
</trkpt>
<trkpt lat="64.050102234" lon="-19.223617554">
<ele>597.406250</ele>
<time>2012-07-22T12:11:21Z</time>
<speed>0.060000</speed>
<extensions>
<speed>0.1</speed>
<temp>0.00</temp>
<bpm>0</bpm>
<rpm>0.00</rpm>
</extensions>
</trkpt>
<trkpt lat="64.050102234" lon="-19.223615646">
<ele>597.500000</ele>
<time>2012-07-22T12:11:26Z</time>
<speed>0.010000</speed>
<extensions>
<speed>0.0</speed>
<temp>0.00</temp>
<bpm>0</bpm>
<rpm>0.00</rpm>
</extensions>
</trkpt>
<trkpt lat="64.050102234" lon="-19.223613739">
<ele>597.515625</ele>
<time>2012-07-22T12:11:31Z</time>
<speed>0.050000</speed>
<extensions>
<speed>0.1</speed>
<temp>0.00</temp>
<bpm>0</bpm>
<rpm>0.00</rpm>
</extensions>
</trkpt>
<trkpt lat="64.050109863" lon="-19.223606110">
<ele>597.687500</ele>
<time>2012-07-22T12:11:36Z</time>
<speed>0.300000</speed>
<extensions>
<speed>0.3</speed>
<temp>0.00</temp>
<bpm>0</bpm>
<rpm>0.00</rpm>
</extensions>
</trkpt>
<trkpt lat="64.050125122" lon="-19.223604202">
<ele>597.343750</ele>
<time>2012-07-22T12:11:41Z</time>
<speed>0.140000</speed>
<extensions>
<speed>0.1</speed>
<temp>0.00</temp>
<bpm>0</bpm>
<rpm>0.00</rpm>
</extensions>
</trkpt>
<trkpt lat="64.050125122" lon="-19.223602295">
<ele>596.843750</ele>
<time>2012-07-22T12:11:46Z</time>
<speed>0.090000</speed>
<extensions>
<speed>0.1</speed>
<temp>0.00</temp>
<bpm>0</bpm>
<rpm>0.00</rpm>
</extensions>
</trkpt>
<trkpt lat="64.050125122" lon="-19.223604202">
<ele>596.734375</ele>
<time>2012-07-22T12:11:51Z</time>
<speed>0.020000</speed>
<extensions>
<speed>0.0</speed>
<temp>0.00</temp>
<bpm>0</bpm>
<rpm>0.00</rpm>
</extensions>
</trkpt>
<trkpt lat="64.050125122" lon="-19.223604202">
<ele>596.734375</ele>
<time>2012-07-22T12:11:56Z</time>
<speed>0.030000</speed>
<extensions>
<speed>0.0</speed>
<temp>0.00</temp>
<bpm>0</bpm>
<rpm>0.00</rpm>
</extensions>
</trkpt>
<trkpt lat="64.050125122" lon="-19.223611832">
<ele>596.781250</ele>
<time>2012-07-22T12:12:01Z</time>
<speed>0.130000</speed>
<extensions>
<speed>0.1</speed>
<temp>0.00</temp>
<bpm>0</bpm>
<rpm>0.00</rpm>
</extensions>
</trkpt>
<trkpt lat="64.050125122" lon="-19.223611832">
<ele>596.812500</ele>
<time>2012-07-22T12:12:06Z</time>
<speed>0.020000</speed>
<extensions>
<speed>0.0</speed>
<temp>0.00</temp>
<bpm>0</bpm>
<rpm>0.00</rpm>
</extensions>
</trkpt>
<trkpt lat="64.050125122" lon="-19.223609924">
<ele>596.812500</ele>
<time>2012-07-22T12:12:11Z</time>
<speed>0.010000</speed>
<extensions>
<speed>0.0</speed>
<temp>0.00</temp>
<bpm>0</bpm>
<rpm>0.00</rpm>
</extensions>
</trkpt>
<trkpt lat="64.050125122" lon="-19.223609924">
<ele>596.812500</ele>
<time>2012-07-22T12:12:16Z</time>
<extensions>
<speed>0.0</speed>
<temp>0.00</temp>
<bpm>0</bpm>
<rpm>0.00</rpm>
</extensions>
</trkpt>
<trkpt lat="64.050125122" lon="-19.223609924">
<ele>596.812500</ele>
<time>2012-07-22T12:12:21Z</time>
<extensions>
<speed>0.0</speed>
<temp>0.00</temp>
<bpm>0</bpm>
<rpm>0.00</rpm>
</extensions>
</trkpt>
<trkpt lat="64.050125122" lon="-19.223609924">
<ele>596.796875</ele>
<time>2012-07-22T12:12:26Z</time>
<speed>0.040000</speed>
<extensions>
<speed>0.0</speed>
<temp>0.00</temp>
<bpm>0</bpm>
<rpm>0.00</rpm>
</extensions>
</trkpt>
<trkpt lat="64.050125122" lon="-19.223623276">
<ele>596.765625</ele>
<time>2012-07-22T12:12:31Z</time>
<speed>0.270000</speed>
<extensions>
<speed>0.3</speed>
<temp>0.00</temp>
<bpm>0</bpm>
<rpm>0.00</rpm>
</extensions>
</trkpt>
<trkpt lat="64.050109863" lon="-19.223598480">
<ele>595.718750</ele>
<time>2012-07-22T12:12:36Z</time>
<speed>0.110000</speed>
<extensions>
<speed>0.1</speed>
<temp>0.00</temp>
<bpm>0</bpm>
<rpm>0.00</rpm>
</extensions>
</trkpt>
<trkpt lat="64.050071716" lon="-19.223602295">
<ele>596.187500</ele>
<time>2012-07-22T12:12:41Z</time>
<speed>1.640000</speed>
<extensions>
<speed>1.6</speed>
<temp>0.00</temp>
<bpm>0</bpm>
<rpm>0.00</rpm>
</extensions>
</trkpt>
<trkpt lat="64.049980164" lon="-19.223611832">
<ele>596.640625</ele>
<time>2012-07-22T12:12:46Z</time>
<speed>1.760000</speed>
<extensions>
<speed>1.8</speed>
<temp>0.00</temp>
<bpm>0</bpm>
<rpm>0.00</rpm>
</extensions>
</trkpt>
<trkpt lat="64.049926758" lon="-19.223577499">
<ele>597.312500</ele>
<time>2012-07-22T12:12:51Z</time>
<speed>1.270000</speed>
<extensions>
<speed>1.3</speed>
<temp>0.00</temp>
<bpm>0</bpm>
<rpm>0.00</rpm>
</extensions>
</trkpt>
<trkpt lat="64.049858093" lon="-19.223613739">
<ele>597.312500</ele>
<time>2012-07-22T12:12:56Z</time>
<speed>1.570000</speed>
<extensions>
<speed>1.6</speed>
<temp>0.00</temp>
<bpm>0</bpm>
<rpm>0.00</rpm>
</extensions>
</trkpt>
<trkpt lat="64.049774170" lon="-19.223619461">
<ele>597.406250</ele>
<time>2012-07-22T12:13:01Z</time>
<speed>1.840000</speed>
<extensions>
<speed>1.8</speed>
<temp>0.00</temp>
<bpm>0</bpm>
<rpm>0.00</rpm>
</extensions>
</trkpt>
<trkpt lat="64.049697876" lon="-19.223594666">
<ele>597.984375</ele>
<time>2012-07-22T12:13:06Z</time>
<speed>1.880000</speed>
<extensions>
<speed>1.9</speed>
<temp>0.00</temp>
<bpm>0</bpm>
<rpm>0.00</rpm>
</extensions>
</trkpt>
<trkpt lat="64.049613953" lon="-19.223573685">
<ele>598.640625</ele>
<time>2012-07-22T12:13:11Z</time>
<speed>2.340000</speed>
<extensions>
<speed>2.3</speed>
<temp>0.00</temp>
<bpm>0</bpm>
<rpm>0.00</rpm>
</extensions>
</trkpt>
<trkpt lat="64.049507141" lon="-19.223518372">
<ele>598.671875</ele>
<time>2012-07-22T12:13:16Z</time>
<speed>2.220000</speed>
<extensions>
<speed>2.2</speed>
<temp>0.00</temp>
<bpm>0</bpm>
<rpm>0.00</rpm>
</extensions>
</trkpt>
<trkpt lat="64.049407959" lon="-19.223423004">
<ele>599.109375</ele>
<time>2012-07-22T12:13:21Z</time>
<speed>2.270000</speed>
<extensions>
<speed>2.3</speed>
<temp>0.00</temp>
<bpm>0</bpm>
<rpm>0.00</rpm>
</extensions>
</trkpt>
<trkpt lat="64.049293518" lon="-19.223358154">
<ele>599.625000</ele>
<time>2012-07-22T12:13:26Z</time>
<speed>2.430000</speed>
<extensions>
<speed>2.4</speed>
<temp>0.00</temp>
<bpm>0</bpm>
<rpm>0.00</rpm>
</extensions>
</trkpt>
<trkpt lat="64.049194336" lon="-19.223308563">
<ele>601.046875</ele>
<time>2012-07-22T12:13:31Z</time>
<speed>2.480000</speed>
<extensions>
<speed>2.5</speed>
<temp>0.00</temp>
<bpm>0</bpm>
<rpm>0.00</rpm>
</extensions>
</trkpt>
<trkpt lat="64.049087524" lon="-19.223251343">
<ele>601.328125</ele>
<time>2012-07-22T12:13:36Z</time>
<speed>2.490000</speed>
<extensions>
<speed>2.5</speed>
<temp>0.00</temp>
<bpm>0</bpm>
<rpm>0.00</rpm>
</extensions>
</trkpt>
<trkpt lat="64.048980713" lon="-19.223213196">
<ele>602.031250</ele>
<time>2012-07-22T12:13:41Z</time>
<speed>2.720000</speed>
<extensions>
<speed>2.7</speed>
<temp>0.00</temp>
<bpm>0</bpm>
<rpm>0.00</rpm>
</extensions>
</trkpt>
<trkpt lat="64.048866272" lon="-19.223178864">
<ele>602.234375</ele>
<time>2012-07-22T12:13:46Z</time>
<speed>2.560000</speed>
<extensions>
<speed>2.6</speed>
<temp>0.00</temp>
<bpm>0</bpm>
<rpm>0.00</rpm>
</extensions>
</trkpt>
<trkpt lat="64.048751831" lon="-19.223131180">
<ele>602.453125</ele>
<time>2012-07-22T12:13:51Z</time>
<speed>2.890000</speed>
<extensions>
<speed>2.9</speed>
<temp>0.00</temp>
<bpm>0</bpm>
<rpm>0.00</rpm>
</extensions>
</trkpt>
<trkpt lat="64.048629761" lon="-19.223079681">
<ele>601.281250</ele>
<time>2012-07-22T12:13:56Z</time>
<speed>2.690000</speed>
<extensions>
<speed>2.7</speed>
<temp>0.00</temp>
<bpm>0</bpm>
<rpm>0.00</rpm>
</extensions>
</trkpt>
<trkpt lat="64.048530579" lon="-19.223041534">
<ele>602.375000</ele>
<time>2012-07-22T12:14:01Z</time>
<speed>2.480000</speed>
<extensions>
<speed>2.5</speed>
<temp>0.00</temp>
<bpm>0</bpm>
<rpm>0.00</rpm>
</extensions>
</trkpt>
<trkpt lat="64.048431396" lon="-19.222988129">
<ele>603.015625</ele>
<time>2012-07-22T12:14:06Z</time>
<speed>2.450000</speed>
<extensions>
<speed>2.4</speed>
<temp>0.00</temp>
<bpm>0</bpm>
<rpm>0.00</rpm>
</extensions>
</trkpt>
<trkpt lat="64.048316956" lon="-19.222929001">
<ele>602.640625</ele>
<time>2012-07-22T12:14:11Z</time>
<speed>2.770000</speed>
<extensions>
<speed>2.8</speed>
<temp>0.00</temp>
<bpm>0</bpm>
<rpm>0.00</rpm>
</extensions>
</trkpt>
<trkpt lat="64.048187256" lon="-19.222879410">
<ele>602.125000</ele>
<time>2012-07-22T12:14:16Z</time>
<speed>2.830000</speed>
<extensions>
<speed>2.8</speed>
<temp>0.00</temp>
<bpm>0</bpm>
<rpm>0.00</rpm>
</extensions>
</trkpt>
<trkpt lat="64.048065186" lon="-19.222829819">
<ele>601.625000</ele>
<time>2012-07-22T12:14:21Z</time>
<speed>2.740000</speed>
<extensions>
<speed>2.7</speed>
<temp>0.00</temp>
<bpm>0</bpm>
<rpm>0.00</rpm>
</extensions>
</trkpt>
<trkpt lat="64.047950745" lon="-19.222772598">
<ele>601.453125</ele>
<time>2012-07-22T12:14:26Z</time>
<speed>2.570000</speed>
<extensions>
<speed>2.6</speed>
<temp>0.00</temp>
<bpm>0</bpm>
<rpm>0.00</rpm>
</extensions>
</trkpt>
<trkpt lat="64.047843933" lon="-19.222667694">
<ele>601.671875</ele>
<time>2012-07-22T12:14:31Z</time>
<speed>2.550000</speed>
<extensions>
<speed>2.6</speed>
<temp>0.00</temp>
<bpm>0</bpm>
<rpm>0.00</rpm>
</extensions>
</trkpt>
<trkpt lat="64.047737122" lon="-19.222511292">
<ele>601.062500</ele>
<time>2012-07-22T12:14:36Z</time>
<speed>2.580000</speed>
<extensions>
<speed>2.6</speed>
<temp>0.00</temp>
<bpm>0</bpm>
<rpm>0.00</rpm>
</extensions>
</trkpt>
<trkpt lat="64.047668457" lon="-19.222312927">
<ele>601.109375</ele>
<time>2012-07-22T12:14:41Z</time>
<speed>2.400000</speed>
<extensions>
<speed>2.4</speed>
<temp>0.00</temp>
<bpm>0</bpm>
<rpm>0.00</rpm>
</extensions>
</trkpt>
<trkpt lat="64.047599792" lon="-19.222126007">
<ele>602.578125</ele>
<time>2012-07-22T12:14:46Z</time>
<speed>2.200000</speed>
<extensions>
<speed>2.2</speed>
<temp>0.00</temp>
<bpm>0</bpm>
<rpm>0.00</rpm>
</extensions>
</trkpt>
<trkpt lat="64.047538757" lon="-19.221939087">
<ele>599.218750</ele>
<time>2012-07-22T12:14:51Z</time>
<speed>2.440000</speed>
<extensions>
<speed>2.4</speed>
<temp>0.00</temp>
<bpm>0</bpm>
<rpm>0.00</rpm>
</extensions>
</trkpt>
<trkpt lat="64.047454834" lon="-19.221704483">
<ele>598.265625</ele>
<time>2012-07-22T12:14:56Z</time>
<speed>3.020000</speed>
<extensions>
<speed>3.0</speed>
<temp>0.00</temp>
<bpm>0</bpm>
<rpm>0.00</rpm>
</extensions>
</trkpt>
<trkpt lat="64.047363281" lon="-19.221496582">
<ele>597.921875</ele>
<time>2012-07-22T12:15:01Z</time>
<speed>3.080000</speed>
<extensions>
<speed>3.1</speed>
<temp>0.00</temp>
<bpm>0</bpm>
<rpm>0.00</rpm>
</extensions>
</trkpt>
<trkpt lat="64.047256470" lon="-19.221302032">
<ele>596.906250</ele>
<time>2012-07-22T12:15:06Z</time>
<speed>2.990000</speed>
<extensions>
<speed>3.0</speed>
<temp>0.00</temp>
<bpm>0</bpm>
<rpm>0.00</rpm>
</extensions>
</trkpt>
<trkpt lat="64.047157288" lon="-19.221143723">
<ele>598.578125</ele>
<time>2012-07-22T12:15:11Z</time>
<speed>2.770000</speed>
<extensions>
<speed>2.8</speed>
<temp>0.00</temp>
<bpm>0</bpm>
<rpm>0.00</rpm>
</extensions>
</trkpt>
<trkpt lat="64.047050476" lon="-19.221031189">
<ele>598.015625</ele>
<time>2012-07-22T12:15:16Z</time>
<speed>2.660000</speed>
<extensions>
<speed>2.7</speed>
<temp>0.00</temp>
<bpm>0</bpm>
<rpm>0.00</rpm>
</extensions>
</trkpt>
<trkpt lat="64.046951294" lon="-19.220954895">
<ele>597.968750</ele>
<time>2012-07-22T12:15:21Z</time>
<speed>2.540000</speed>
<extensions>
<speed>2.5</speed>
<temp>0.00</temp>
<bpm>0</bpm>
<rpm>0.00</rpm>
</extensions>
</trkpt>
<trkpt lat="64.046844482" lon="-19.220865250">
<ele>598.906250</ele>
<time>2012-07-22T12:15:26Z</time>
<speed>2.760000</speed>
<extensions>
<speed>2.8</speed>
<temp>0.00</temp>
<bpm>0</bpm>
<rpm>0.00</rpm>
</extensions>
</trkpt>
<trkpt lat="64.046714783" lon="-19.220794678">
<ele>599.578125</ele>
<time>2012-07-22T12:15:31Z</time>
<speed>2.990000</speed>
<extensions>
<speed>3.0</speed>
<temp>0.00</temp>
<bpm>0</bpm>
<rpm>0.00</rpm>
</extensions>
</trkpt>
<trkpt lat="64.046592712" lon="-19.220710754">
<ele>599.843750</ele>
<time>2012-07-22T12:15:36Z</time>
<speed>2.820000</speed>
<extensions>
<speed>2.8</speed>
<temp>0.00</temp>
<bpm>0</bpm>
<rpm>0.00</rpm>
</extensions>
</trkpt>
<trkpt lat="64.046455383" lon="-19.220596313">
<ele>599.812500</ele>
<time>2012-07-22T12:15:41Z</time>
<speed>3.100000</speed>
<extensions>
<speed>3.1</speed>
<temp>0.00</temp>
<bpm>0</bpm>
<rpm>0.00</rpm>
</extensions>
</trkpt>
<trkpt lat="64.046318054" lon="-19.220451355">
<ele>599.421875</ele>
<time>2012-07-22T12:15:46Z</time>
<speed>3.310000</speed>
<extensions>
<speed>3.3</speed>
<temp>0.00</temp>
<bpm>0</bpm>
<rpm>0.00</rpm>
</extensions>
</trkpt>
<trkpt lat="64.046195984" lon="-19.220333099">
<ele>599.953125</ele>
<time>2012-07-22T12:15:51Z</time>
<speed>3.240000</speed>
<extensions>
<speed>3.2</speed>
<temp>0.00</temp>
<bpm>0</bpm>
<rpm>0.00</rpm>
</extensions>
</trkpt>
<trkpt lat="64.046089172" lon="-19.220159531">
<ele>600.875000</ele>
<time>2012-07-22T12:15:56Z</time>
<speed>2.650000</speed>
<extensions>
<speed>2.6</speed>
<temp>0.00</temp>
<bpm>0</bpm>
<rpm>0.00</rpm>
</extensions>
</trkpt>
<trkpt lat="64.046005249" lon="-19.219978333">
<ele>601.734375</ele>
<time>2012-07-22T12:16:01Z</time>
<speed>2.760000</speed>
<extensions>
<speed>2.8</speed>
<temp>0.00</temp>
<bpm>0</bpm>
<rpm>0.00</rpm>
</extensions>
</trkpt>
<trkpt lat="64.045906067" lon="-19.219823837">
<ele>602.218750</ele>
<time>2012-07-22T12:16:06Z</time>
<speed>2.580000</speed>
<extensions>
<speed>2.6</speed>
<temp>0.00</temp>
<bpm>0</bpm>
<rpm>0.00</rpm>
</extensions>
</trkpt>
<trkpt lat="64.045799255" lon="-19.219686508">
<ele>603.187500</ele>
<time>2012-07-22T12:16:11Z</time>
<speed>2.490000</speed>
<extensions>
<speed>2.5</speed>
<temp>0.00</temp>
<bpm>0</bpm>
<rpm>0.00</rpm>
</extensions>
</trkpt>
<trkpt lat="64.045684814" lon="-19.219577789">
<ele>606.765625</ele>
<time>2012-07-22T12:16:16Z</time>
<speed>2.610000</speed>
<extensions>
<speed>2.6</speed>
<temp>0.00</temp>
<bpm>0</bpm>
<rpm>0.00</rpm>
</extensions>
</trkpt>
<trkpt lat="64.045570374" lon="-19.219488144">
<ele>607.265625</ele>
<time>2012-07-22T12:16:21Z</time>
<speed>2.640000</speed>
<extensions>
<speed>2.6</speed>
<temp>0.00</temp>
<bpm>0</bpm>
<rpm>0.00</rpm>
</extensions>
</trkpt>
<trkpt lat="64.045455933" lon="-19.219430923">
<ele>607.546875</ele>
<time>2012-07-22T12:16:26Z</time>
<speed>2.630000</speed>
<extensions>
<speed>2.6</speed>
<temp>0.00</temp>
<bpm>0</bpm>
<rpm>0.00</rpm>
</extensions>
</trkpt>
<trkpt lat="64.045349121" lon="-19.219293594">
<ele>607.843750</ele>
<time>2012-07-22T12:16:31Z</time>
<speed>2.790000</speed>
<extensions>
<speed>2.8</speed>
<temp>0.00</temp>
<bpm>0</bpm>
<rpm>0.00</rpm>
</extensions>
</trkpt>
<trkpt lat="64.045257568" lon="-19.219120026">
<ele>608.640625</ele>
<time>2012-07-22T12:16:36Z</time>
<speed>2.640000</speed>
<extensions>
<speed>2.6</speed>
<temp>0.00</temp>
<bpm>0</bpm>
<rpm>0.00</rpm>
</extensions>
</trkpt>
<trkpt lat="64.045143127" lon="-19.219005585">
<ele>607.671875</ele>
<time>2012-07-22T12:16:41Z</time>
<speed>2.590000</speed>
<extensions>
<speed>2.6</speed>
<temp>0.00</temp>
<bpm>0</bpm>
<rpm>0.00</rpm>
</extensions>
</trkpt>
<trkpt lat="64.045036316" lon="-19.219051361">
<ele>607.421875</ele>
<time>2012-07-22T12:16:46Z</time>
<speed>2.460000</speed>
<extensions>
<speed>2.5</speed>
<temp>0.00</temp>
<bpm>0</bpm>
<rpm>0.00</rpm>
</extensions>
</trkpt>
<trkpt lat="64.044937134" lon="-19.219135284">
<ele>607.546875</ele>
<time>2012-07-22T12:16:51Z</time>
<speed>2.380000</speed>
<extensions>
<speed>2.4</speed>
<temp>0.00</temp>
<bpm>0</bpm>
<rpm>0.00</rpm>
</extensions>
</trkpt>
<trkpt lat="64.044822693" lon="-19.219219208">
<ele>606.687500</ele>
<time>2012-07-22T12:16:56Z</time>
<speed>2.740000</speed>
<extensions>
<speed>2.7</speed>
<temp>0.00</temp>
<bpm>0</bpm>
<rpm>0.00</rpm>
</extensions>
</trkpt>
<trkpt lat="64.044692993" lon="-19.219329834">
<ele>605.968750</ele>
<time>2012-07-22T12:17:01Z</time>
<speed>3.940000</speed>
<extensions>
<speed>3.9</speed>
<temp>0.00</temp>
<bpm>0</bpm>
<rpm>0.00</rpm>
</extensions>
</trkpt>
<trkpt lat="64.044509888" lon="-19.219486237">
<ele>605.046875</ele>
<time>2012-07-22T12:17:06Z</time>
<speed>4.120000</speed>
<extensions>
<speed>4.1</speed>
<temp>0.00</temp>
<bpm>0</bpm>
<rpm>0.00</rpm>
</extensions>
</trkpt>
<trkpt lat="64.044342041" lon="-19.219585419">
<ele>605.203125</ele>
<time>2012-07-22T12:17:11Z</time>
<speed>3.090000</speed>
<extensions>
<speed>3.1</speed>
<temp>0.00</temp>
<bpm>0</bpm>
<rpm>0.00</rpm>
</extensions>
</trkpt>
<trkpt lat="64.044204712" lon="-19.219682693">
<ele>606.125000</ele>
<time>2012-07-22T12:17:16Z</time>
<speed>3.270000</speed>
<extensions>
<speed>3.3</speed>
<temp>0.00</temp>
<bpm>0</bpm>
<rpm>0.00</rpm>
</extensions>
</trkpt>
<trkpt lat="64.044067383" lon="-19.219781876">
<ele>607.015625</ele>
<time>2012-07-22T12:17:21Z</time>
<speed>3.320000</speed>
<extensions>
<speed>3.3</speed>
<temp>0.00</temp>
<bpm>0</bpm>
<rpm>0.00</rpm>
</extensions>
</trkpt>
<trkpt lat="64.043914795" lon="-19.219877243">
<ele>606.703125</ele>
<time>2012-07-22T12:17:26Z</time>
<speed>3.430000</speed>
<extensions>
<speed>3.4</speed>
<temp>0.00</temp>
<bpm>0</bpm>
<rpm>0.00</rpm>
</extensions>
</trkpt>
<trkpt lat="64.043769836" lon="-19.219968796">
<ele>607.187500</ele>
<time>2012-07-22T12:17:31Z</time>
<speed>3.490000</speed>
<extensions>
<speed>3.5</speed>
<temp>0.00</temp>
<bpm>0</bpm>
<rpm>0.00</rpm>
</extensions>
</trkpt>
<trkpt lat="64.043617249" lon="-19.220062256">
<ele>607.500000</ele>
<time>2012-07-22T12:17:36Z</time>
<speed>3.370000</speed>
<extensions>
<speed>3.4</speed>
<temp>0.00</temp>
<bpm>0</bpm>
<rpm>0.00</rpm>
</extensions>
</trkpt>
<trkpt lat="64.043464661" lon="-19.220149994">
<ele>607.109375</ele>
<time>2012-07-22T12:17:41Z</time>
<speed>3.450000</speed>
<extensions>
<speed>3.5</speed>
<temp>0.00</temp>
<bpm>0</bpm>
<rpm>0.00</rpm>
</extensions>
</trkpt>
<trkpt lat="64.043312073" lon="-19.220233917">
<ele>607.109375</ele>
<time>2012-07-22T12:17:46Z</time>
<speed>3.510000</speed>
<extensions>
<speed>3.5</speed>
<temp>0.00</temp>
<bpm>0</bpm>
<rpm>0.00</rpm>
</extensions>
</trkpt>
<trkpt lat="64.043159485" lon="-19.220314026">
<ele>607.109375</ele>
<time>2012-07-22T12:17:51Z</time>
<speed>3.270000</speed>
<extensions>
<speed>3.3</speed>
<temp>0.00</temp>
<bpm>0</bpm>
<rpm>0.00</rpm>
</extensions>
</trkpt>
<trkpt lat="64.043014526" lon="-19.220390320">
<ele>606.812500</ele>
<time>2012-07-22T12:17:56Z</time>
<speed>3.230000</speed>
<extensions>
<speed>3.2</speed>
<temp>0.00</temp>
<bpm>0</bpm>
<rpm>0.00</rpm>
</extensions>
</trkpt>
<trkpt lat="64.042884827" lon="-19.220487595">
<ele>607.046875</ele>
<time>2012-07-22T12:18:01Z</time>
<speed>3.220000</speed>
<extensions>
<speed>3.2</speed>
<temp>0.00</temp>
<bpm>0</bpm>
<rpm>0.00</rpm>
</extensions>
</trkpt>
<trkpt lat="64.042747498" lon="-19.220567703">
<ele>607.109375</ele>
<time>2012-07-22T12:18:06Z</time>
<speed>3.020000</speed>
<extensions>
<speed>3.0</speed>
<temp>0.00</temp>
<bpm>0</bpm>
<rpm>0.00</rpm>
</extensions>
</trkpt>
<trkpt lat="64.042640686" lon="-19.220653534">
<ele>606.640625</ele>
<time>2012-07-22T12:18:11Z</time>
<speed>2.430000</speed>
<extensions>
<speed>2.4</speed>
<temp>0.00</temp>
<bpm>0</bpm>
<rpm>0.00</rpm>
</extensions>
</trkpt>
<trkpt lat="64.042510986" lon="-19.220731735">
<ele>606.406250</ele>
<time>2012-07-22T12:18:16Z</time>
<speed>3.120000</speed>
<extensions>
<speed>3.1</speed>
<temp>0.00</temp>
<bpm>0</bpm>
<rpm>0.00</rpm>
</extensions>
</trkpt>
<trkpt lat="64.042373657" lon="-19.220825195">
<ele>606.109375</ele>
<time>2012-07-22T12:18:21Z</time>
<speed>3.120000</speed>
<extensions>
<speed>3.1</speed>
<temp>0.00</temp>
<bpm>0</bpm>
<rpm>0.00</rpm>
</extensions>
</trkpt>
<trkpt lat="64.042243958" lon="-19.220918655">
<ele>606.562500</ele>
<time>2012-07-22T12:18:26Z</time>
<speed>3.130000</speed>
<extensions>
<speed>3.1</speed>
<temp>0.00</temp>
<bpm>0</bpm>
<rpm>0.00</rpm>
</extensions>
</trkpt>
<trkpt lat="64.042114258" lon="-19.221019745">
<ele>606.343750</ele>
<time>2012-07-22T12:18:31Z</time>
<speed>3.040000</speed>
<extensions>
<speed>3.0</speed>
<temp>0.00</temp>
<bpm>0</bpm>
<rpm>0.00</rpm>
</extensions>
</trkpt>
<trkpt lat="64.041976929" lon="-19.221120834">
<ele>606.078125</ele>
<time>2012-07-22T12:18:36Z</time>
<speed>3.040000</speed>
<extensions>
<speed>3.0</speed>
<temp>0.00</temp>
<bpm>0</bpm>
<rpm>0.00</rpm>
</extensions>
</trkpt>
<trkpt lat="64.041854858" lon="-19.221233368">
<ele>605.359375</ele>
<time>2012-07-22T12:18:41Z</time>
<speed>2.940000</speed>
<extensions>
<speed>2.9</speed>
<temp>0.00</temp>
<bpm>0</bpm>
<rpm>0.00</rpm>
</extensions>
</trkpt>
<trkpt lat="64.041725159" lon="-19.221343994">
<ele>604.937500</ele>
<time>2012-07-22T12:18:46Z</time>
<speed>3.080000</speed>
<extensions>
<speed>3.1</speed>
<temp>0.00</temp>
<bpm>0</bpm>
<rpm>0.00</rpm>
</extensions>
</trkpt>
<trkpt lat="64.041595459" lon="-19.221448898">
<ele>604.671875</ele>
<time>2012-07-22T12:18:51Z</time>
<speed>3.290000</speed>
<extensions>
<speed>3.3</speed>
<temp>0.00</temp>
<bpm>0</bpm>
<rpm>0.00</rpm>
</extensions>
</trkpt>
<trkpt lat="64.041458130" lon="-19.221555710">
<ele>604.312500</ele>
<time>2012-07-22T12:18:56Z</time>
<speed>3.360000</speed>
<extensions>
<speed>3.4</speed>
<temp>0.00</temp>
<bpm>0</bpm>
<rpm>0.00</rpm>
</extensions>
</trkpt>
<trkpt lat="64.041313171" lon="-19.221673965">
<ele>603.656250</ele>
<time>2012-07-22T12:19:01Z</time>
<speed>3.340000</speed>
<extensions>
<speed>3.3</speed>
<temp>0.00</temp>
<bpm>0</bpm>
<rpm>0.00</rpm>
</extensions>
</trkpt>
<trkpt lat="64.041175842" lon="-19.221803665">
<ele>602.828125</ele>
<time>2012-07-22T12:19:06Z</time>
<speed>3.220000</speed>
<extensions>
<speed>3.2</speed>
<temp>0.00</temp>
<bpm>0</bpm>
<rpm>0.00</rpm>
</extensions>
</trkpt>
<trkpt lat="64.041038513" lon="-19.221920013">
<ele>602.062500</ele>
<time>2012-07-22T12:19:11Z</time>
<speed>3.230000</speed>
<extensions>
<speed>3.2</speed>
<temp>0.00</temp>
<bpm>0</bpm>
<rpm>0.00</rpm>
</extensions>
</trkpt>
<trkpt lat="64.040901184" lon="-19.222038269">
<ele>601.234375</ele>
<time>2012-07-22T12:19:16Z</time>
<speed>3.230000</speed>
<extensions>
<speed>3.2</speed>
<temp>0.00</temp>
<bpm>0</bpm>
<rpm>0.00</rpm>
</extensions>
</trkpt>
<trkpt lat="64.040748596" lon="-19.222160339">
<ele>600.875000</ele>
<time>2012-07-22T12:19:21Z</time>
<speed>3.480000</speed>
<extensions>
<speed>3.5</speed>
<temp>0.00</temp>
<bpm>0</bpm>
<rpm>0.00</rpm>
</extensions>
</trkpt>
<trkpt lat="64.040611267" lon="-19.222270966">
<ele>600.312500</ele>
<time>2012-07-22T12:19:26Z</time>
<speed>3.240000</speed>
<extensions>
<speed>3.2</speed>
<temp>0.00</temp>
<bpm>0</bpm>
<rpm>0.00</rpm>
</extensions>
</trkpt>
<trkpt lat="64.040473938" lon="-19.222383499">
<ele>599.906250</ele>
<time>2012-07-22T12:19:31Z</time>
<speed>3.210000</speed>
<extensions>
<speed>3.2</speed>
<temp>0.00</temp>
<bpm>0</bpm>
<rpm>0.00</rpm>
</extensions>
</trkpt>
<trkpt lat="64.040328979" lon="-19.222486496">
<ele>600.234375</ele>
<time>2012-07-22T12:19:36Z</time>
<speed>3.220000</speed>
<extensions>
<speed>3.2</speed>
<temp>0.00</temp>
<bpm>0</bpm>
<rpm>0.00</rpm>
</extensions>
</trkpt>
<trkpt lat="64.040191650" lon="-19.222618103">
<ele>599.953125</ele>
<time>2012-07-22T12:19:41Z</time>
<speed>3.270000</speed>
<extensions>
<speed>3.3</speed>
<temp>0.00</temp>
<bpm>0</bpm>
<rpm>0.00</rpm>
</extensions>
</trkpt>
<trkpt lat="64.040046692" lon="-19.222772598">
<ele>599.171875</ele>
<time>2012-07-22T12:19:46Z</time>
<speed>3.360000</speed>
<extensions>
<speed>3.4</speed>
<temp>0.00</temp>
<bpm>0</bpm>
<rpm>0.00</rpm>
</extensions>
</trkpt>
<trkpt lat="64.039916992" lon="-19.222930908">
<ele>598.359375</ele>
<time>2012-07-22T12:19:51Z</time>
<speed>3.120000</speed>
<extensions>
<speed>3.1</speed>
<temp>0.00</temp>
<bpm>0</bpm>
<rpm>0.00</rpm>
</extensions>
</trkpt>
<trkpt lat="64.039794922" lon="-19.223091125">
<ele>598.562500</ele>
<time>2012-07-22T12:19:56Z</time>
<speed>3.360000</speed>
<extensions>
<speed>3.4</speed>
<temp>0.00</temp>
<bpm>0</bpm>
<rpm>0.00</rpm>
</extensions>
</trkpt>
<trkpt lat="64.039657593" lon="-19.223215103">
<ele>598.046875</ele>
<time>2012-07-22T12:20:01Z</time>
<speed>3.040000</speed>
<extensions>
<speed>3.0</speed>
<temp>0.00</temp>
<bpm>0</bpm>
<rpm>0.00</rpm>
</extensions>
</trkpt>
<trkpt lat="64.039527893" lon="-19.223340988">
<ele>597.562500</ele>
<time>2012-07-22T12:20:06Z</time>
<speed>3.190000</speed>
<extensions>
<speed>3.2</speed>
<temp>0.00</temp>
<bpm>0</bpm>
<rpm>0.00</rpm>
</extensions>
</trkpt>
<trkpt lat="64.039382935" lon="-19.223463058">
<ele>597.218750</ele>
<time>2012-07-22T12:20:11Z</time>
<speed>2.990000</speed>
<extensions>
<speed>3.0</speed>
<temp>0.00</temp>
<bpm>0</bpm>
<rpm>0.00</rpm>
</extensions>
</trkpt>
<trkpt lat="64.039276123" lon="-19.223571777">
<ele>597.296875</ele>
<time>2012-07-22T12:20:16Z</time>
<speed>3.090000</speed>
<extensions>
<speed>3.1</speed>
<temp>0.00</temp>
<bpm>0</bpm>
<rpm>0.00</rpm>
</extensions>
</trkpt>
<trkpt lat="64.039146423" lon="-19.223667145">
<ele>596.796875</ele>
<time>2012-07-22T12:20:21Z</time>
<speed>2.990000</speed>
<extensions>
<speed>3.0</speed>
<temp>0.00</temp>
<bpm>0</bpm>
<rpm>0.00</rpm>
</extensions>
</trkpt>
<trkpt lat="64.039016724" lon="-19.223726273">
<ele>596.359375</ele>
<time>2012-07-22T12:20:26Z</time>
<speed>2.750000</speed>
<extensions>
<speed>2.7</speed>
<temp>0.00</temp>
<bpm>0</bpm>
<rpm>0.00</rpm>
</extensions>
</trkpt>
<trkpt lat="64.038894653" lon="-19.223764420">
<ele>595.953125</ele>
<time>2012-07-22T12:20:31Z</time>
<speed>2.700000</speed>
<extensions>
<speed>2.7</speed>
<temp>0.00</temp>
<bpm>0</bpm>
<rpm>0.00</rpm>
</extensions>
</trkpt>
<trkpt lat="64.038780212" lon="-19.223735809">
<ele>596.218750</ele>
<time>2012-07-22T12:20:36Z</time>
<speed>2.480000</speed>
<extensions>
<speed>2.5</speed>
<temp>0.00</temp>
<bpm>0</bpm>
<rpm>0.00</rpm>
</extensions>
</trkpt>
<trkpt lat="64.038673401" lon="-19.223691940">
<ele>596.390625</ele>
<time>2012-07-22T12:20:41Z</time>
<speed>2.460000</speed>
<extensions>
<speed>2.5</speed>
<temp>0.00</temp>
<bpm>0</bpm>
<rpm>0.00</rpm>
</extensions>
</trkpt>
<trkpt lat="64.038558960" lon="-19.223625183">
<ele>596.218750</ele>
<time>2012-07-22T12:20:46Z</time>
<speed>2.710000</speed>
<extensions>
<speed>2.7</speed>
<temp>0.00</temp>
<bpm>0</bpm>
<rpm>0.00</rpm>
</extensions>
</trkpt>
<trkpt lat="64.038436890" lon="-19.223573685">
<ele>596.406250</ele>
<time>2012-07-22T12:20:51Z</time>
<speed>2.470000</speed>
<extensions>
<speed>2.5</speed>
<temp>0.00</temp>
<bpm>0</bpm>
<rpm>0.00</rpm>
</extensions>
</trkpt>
<trkpt lat="64.038330078" lon="-19.223506927">
<ele>596.703125</ele>
<time>2012-07-22T12:20:56Z</time>
<speed>2.520000</speed>
<extensions>
<speed>2.5</speed>
<temp>0.00</temp>
<bpm>0</bpm>
<rpm>0.00</rpm>
</extensions>
</trkpt>
<trkpt lat="64.038223267" lon="-19.223432541">
<ele>597.125000</ele>
<time>2012-07-22T12:21:01Z</time>
<speed>2.710000</speed>
<extensions>
<speed>2.7</speed>
<temp>0.00</temp>
<bpm>0</bpm>
<rpm>0.00</rpm>
</extensions>
</trkpt>
<trkpt lat="64.038108826" lon="-19.223327637">
<ele>598.187500</ele>
<time>2012-07-22T12:21:06Z</time>
<speed>2.140000</speed>
<extensions>
<speed>2.1</speed>
<temp>0.00</temp>
<bpm>0</bpm>
<rpm>0.00</rpm>
</extensions>
</trkpt>
<trkpt lat="64.037986755" lon="-19.223224640">
<ele>597.609375</ele>
<time>2012-07-22T12:21:11Z</time>
<speed>2.920000</speed>
<extensions>
<speed>2.9</speed>
<temp>0.00</temp>
<bpm>0</bpm>
<rpm>0.00</rpm>
</extensions>
</trkpt>
<trkpt lat="64.037864685" lon="-19.223140717">
<ele>598.328125</ele>
<time>2012-07-22T12:21:16Z</time>
<speed>2.620000</speed>
<extensions>
<speed>2.6</speed>
<temp>0.00</temp>
<bpm>0</bpm>
<rpm>0.00</rpm>
</extensions>
</trkpt>
<trkpt lat="64.037742615" lon="-19.223064423">
<ele>595.468750</ele>
<time>2012-07-22T12:21:21Z</time>
<speed>3.180000</speed>
<extensions>
<speed>3.2</speed>
<temp>0.00</temp>
<bpm>0</bpm>
<rpm>0.00</rpm>
</extensions>
</trkpt>
<trkpt lat="64.037628174" lon="-19.222995758">
<ele>595.578125</ele>
<time>2012-07-22T12:21:26Z</time>
<speed>2.130000</speed>
<extensions>
<speed>2.1</speed>
<temp>0.00</temp>
<bpm>0</bpm>
<rpm>0.00</rpm>
</extensions>
</trkpt>
<trkpt lat="64.037521362" lon="-19.222921371">
<ele>594.656250</ele>
<time>2012-07-22T12:21:31Z</time>
<speed>2.470000</speed>
<extensions>
<speed>2.5</speed>
<temp>0.00</temp>
<bpm>0</bpm>
<rpm>0.00</rpm>
</extensions>
</trkpt>
<trkpt lat="64.037422180" lon="-19.222869873">
<ele>594.921875</ele>
<time>2012-07-22T12:21:36Z</time>
<speed>2.380000</speed>
<extensions>
<speed>2.4</speed>
<temp>0.00</temp>
<bpm>0</bpm>
<rpm>0.00</rpm>
</extensions>
</trkpt>
<trkpt lat="64.037322998" lon="-19.222801208">
<ele>595.890625</ele>
<time>2012-07-22T12:21:41Z</time>
<speed>2.490000</speed>
<extensions>
<speed>2.5</speed>
<temp>0.00</temp>
<bpm>0</bpm>
<rpm>0.00</rpm>
</extensions>
</trkpt>
<trkpt lat="64.037223816" lon="-19.222724915">
<ele>597.843750</ele>
<time>2012-07-22T12:21:46Z</time>
<speed>2.460000</speed>
<extensions>
<speed>2.5</speed>
<temp>0.00</temp>
<bpm>0</bpm>
<rpm>0.00</rpm>
</extensions>
</trkpt>
<trkpt lat="64.037117004" lon="-19.222673416">
<ele>597.562500</ele>
<time>2012-07-22T12:21:51Z</time>
<speed>2.640000</speed>
<extensions>
<speed>2.6</speed>
<temp>0.00</temp>
<bpm>0</bpm>
<rpm>0.00</rpm>
</extensions>
</trkpt>
<trkpt lat="64.036994934" lon="-19.222606659">
<ele>597.140625</ele>
<time>2012-07-22T12:21:56Z</time>
<speed>2.580000</speed>
<extensions>
<speed>2.6</speed>
<temp>0.00</temp>
<bpm>0</bpm>
<rpm>0.00</rpm>
</extensions>
</trkpt>
<trkpt lat="64.036895752" lon="-19.222541809">
<ele>596.515625</ele>
<time>2012-07-22T12:22:01Z</time>
<speed>2.220000</speed>
<extensions>
<speed>2.2</speed>
<temp>0.00</temp>
<bpm>0</bpm>
<rpm>0.00</rpm>
</extensions>
</trkpt>
<trkpt lat="64.036788940" lon="-19.222465515">
<ele>595.468750</ele>
<time>2012-07-22T12:22:06Z</time>
<speed>2.480000</speed>
<extensions>
<speed>2.5</speed>
<temp>0.00</temp>
<bpm>0</bpm>
<rpm>0.00</rpm>
</extensions>
</trkpt>
<trkpt lat="64.036689758" lon="-19.222362518">
<ele>595.531250</ele>
<time>2012-07-22T12:22:11Z</time>
<speed>2.430000</speed>
<extensions>
<speed>2.4</speed>
<temp>0.00</temp>
<bpm>0</bpm>
<rpm>0.00</rpm>
</extensions>
</trkpt>
<trkpt lat="64.036582947" lon="-19.222286224">
<ele>595.843750</ele>
<time>2012-07-22T12:22:16Z</time>
<speed>2.500000</speed>
<extensions>
<speed>2.5</speed>
<temp>0.00</temp>
<bpm>0</bpm>
<rpm>0.00</rpm>
</extensions>
</trkpt>
<trkpt lat="64.036483765" lon="-19.222217560">
<ele>596.375000</ele>
<time>2012-07-22T12:22:21Z</time>
<speed>2.460000</speed>
<extensions>
<speed>2.5</speed>
<temp>0.00</temp>
<bpm>0</bpm>
<rpm>0.00</rpm>
</extensions>
</trkpt>
<trkpt lat="64.036384583" lon="-19.222110748">
<ele>596.843750</ele>
<time>2012-07-22T12:22:26Z</time>
<speed>2.430000</speed>
<extensions>
<speed>2.4</speed>
<temp>0.00</temp>
<bpm>0</bpm>
<rpm>0.00</rpm>
</extensions>
</trkpt>
<trkpt lat="64.036277771" lon="-19.222038269">
<ele>597.093750</ele>
<time>2012-07-22T12:22:31Z</time>
<speed>2.550000</speed>
<extensions>
<speed>2.6</speed>
<temp>0.00</temp>
<bpm>0</bpm>
<rpm>0.00</rpm>
</extensions>
</trkpt>
<trkpt lat="64.036170959" lon="-19.221958160">
<ele>597.812500</ele>
<time>2012-07-22T12:22:36Z</time>
<speed>2.690000</speed>
<extensions>
<speed>2.7</speed>
<temp>0.00</temp>
<bpm>0</bpm>
<rpm>0.00</rpm>
</extensions>
</trkpt>
<trkpt lat="64.036056519" lon="-19.221860886">
<ele>598.750000</ele>
<time>2012-07-22T12:22:41Z</time>
<speed>2.600000</speed>
<extensions>
<speed>2.6</speed>
<temp>0.00</temp>
<bpm>0</bpm>
<rpm>0.00</rpm>
</extensions>
</trkpt>
<trkpt lat="64.035942078" lon="-19.221765518">
<ele>597.406250</ele>
<time>2012-07-22T12:22:46Z</time>
<speed>2.670000</speed>
<extensions>
<speed>2.7</speed>
<temp>0.00</temp>
<bpm>0</bpm>
<rpm>0.00</rpm>
</extensions>
</trkpt>
<trkpt lat="64.035842896" lon="-19.221683502">
<ele>596.953125</ele>
<time>2012-07-22T12:22:51Z</time>
<speed>2.320000</speed>
<extensions>
<speed>2.3</speed>
<temp>0.00</temp>
<bpm>0</bpm>
<rpm>0.00</rpm>
</extensions>
</trkpt>
<trkpt lat="64.035743713" lon="-19.221599579">
<ele>596.187500</ele>
<time>2012-07-22T12:22:56Z</time>
<speed>2.360000</speed>
<extensions>
<speed>2.4</speed>
<temp>0.00</temp>
<bpm>0</bpm>
<rpm>0.00</rpm>
</extensions>
</trkpt>
<trkpt lat="64.035644531" lon="-19.221523285">
<ele>597.109375</ele>
<time>2012-07-22T12:23:01Z</time>
<speed>2.490000</speed>
<extensions>
<speed>2.5</speed>
<temp>0.00</temp>
<bpm>0</bpm>
<rpm>0.00</rpm>
</extensions>
</trkpt>
<trkpt lat="64.035545349" lon="-19.221445084">
<ele>598.093750</ele>
<time>2012-07-22T12:23:06Z</time>
<speed>2.210000</speed>
<extensions>
<speed>2.2</speed>
<temp>0.00</temp>
<bpm>0</bpm>
<rpm>0.00</rpm>
</extensions>
</trkpt>
<trkpt lat="64.035430908" lon="-19.221370697">
<ele>598.031250</ele>
<time>2012-07-22T12:23:11Z</time>
<speed>2.690000</speed>
<extensions>
<speed>2.7</speed>
<temp>0.00</temp>
<bpm>0</bpm>
<rpm>0.00</rpm>
</extensions>
</trkpt>
<trkpt lat="64.035316467" lon="-19.221277237">
<ele>597.828125</ele>
<time>2012-07-22T12:23:16Z</time>
<speed>2.810000</speed>
<extensions>
<speed>2.8</speed>
<temp>0.00</temp>
<bpm>0</bpm>
<rpm>0.00</rpm>
</extensions>
</trkpt>
<trkpt lat="64.035194397" lon="-19.221202850">
<ele>596.890625</ele>
<time>2012-07-22T12:23:21Z</time>
<speed>2.730000</speed>
<extensions>
<speed>2.7</speed>
<temp>0.00</temp>
<bpm>0</bpm>
<rpm>0.00</rpm>
</extensions>
</trkpt>
<trkpt lat="64.035064697" lon="-19.221113205">
<ele>596.140625</ele>
<time>2012-07-22T12:23:26Z</time>
<speed>2.860000</speed>
<extensions>
<speed>2.9</speed>
<temp>0.00</temp>
<bpm>0</bpm>
<rpm>0.00</rpm>
</extensions>
</trkpt>
<trkpt lat="64.034950256" lon="-19.221006393">
<ele>597.109375</ele>
<time>2012-07-22T12:23:31Z</time>
<speed>2.800000</speed>
<extensions>
<speed>2.8</speed>
<temp>0.00</temp>
<bpm>0</bpm>
<rpm>0.00</rpm>
</extensions>
</trkpt>
<trkpt lat="64.034828186" lon="-19.220920563">
<ele>596.859375</ele>
<time>2012-07-22T12:23:36Z</time>
<speed>2.860000</speed>
<extensions>
<speed>2.9</speed>
<temp>0.00</temp>
<bpm>0</bpm>
<rpm>0.00</rpm>
</extensions>
</trkpt>
<trkpt lat="64.034713745" lon="-19.220817566">
<ele>596.265625</ele>
<time>2012-07-22T12:23:41Z</time>
<speed>3.030000</speed>
<extensions>
<speed>3.0</speed>
<temp>0.00</temp>
<bpm>0</bpm>
<rpm>0.00</rpm>
</extensions>
</trkpt>
<trkpt lat="64.034591675" lon="-19.220712662">
<ele>597.015625</ele>
<time>2012-07-22T12:23:46Z</time>
<speed>2.560000</speed>
<extensions>
<speed>2.6</speed>
<temp>0.00</temp>
<bpm>0</bpm>
<rpm>0.00</rpm>
</extensions>
</trkpt>
<trkpt lat="64.034515381" lon="-19.220649719">
<ele>597.125000</ele>
<time>2012-07-22T12:23:51Z</time>
<speed>1.880000</speed>
<extensions>
<speed>1.9</speed>
<temp>0.00</temp>
<bpm>0</bpm>
<rpm>0.00</rpm>
</extensions>
</trkpt>
<trkpt lat="64.034423828" lon="-19.220556259">
<ele>597.250000</ele>
<time>2012-07-22T12:23:56Z</time>
<speed>2.390000</speed>
<extensions>
<speed>2.4</speed>
<temp>0.00</temp>
<bpm>0</bpm>
<rpm>0.00</rpm>
</extensions>
</trkpt>
<trkpt lat="64.034317017" lon="-19.220483780">
<ele>597.343750</ele>
<time>2012-07-22T12:24:01Z</time>
<speed>2.790000</speed>
<extensions>
<speed>2.8</speed>
<temp>0.00</temp>
<bpm>0</bpm>
<rpm>0.00</rpm>
</extensions>
</trkpt>
<trkpt lat="64.034194946" lon="-19.220411301">
<ele>597.921875</ele>
<time>2012-07-22T12:24:06Z</time>
<speed>2.800000</speed>
<extensions>
<speed>2.8</speed>
<temp>0.00</temp>
<bpm>0</bpm>
<rpm>0.00</rpm>
</extensions>
</trkpt>
<trkpt lat="64.034080505" lon="-19.220321655">
<ele>598.343750</ele>
<time>2012-07-22T12:24:11Z</time>
<speed>2.230000</speed>
<extensions>
<speed>2.2</speed>
<temp>0.00</temp>
<bpm>0</bpm>
<rpm>0.00</rpm>
</extensions>
</trkpt>
<trkpt lat="64.033981323" lon="-19.220211029">
<ele>598.984375</ele>
<time>2012-07-22T12:24:16Z</time>
<speed>2.500000</speed>
<extensions>
<speed>2.5</speed>
<temp>0.00</temp>
<bpm>0</bpm>
<rpm>0.00</rpm>
</extensions>
</trkpt>
<trkpt lat="64.033882141" lon="-19.220111847">
<ele>598.968750</ele>
<time>2012-07-22T12:24:21Z</time>
<speed>2.560000</speed>
<extensions>
<speed>2.6</speed>
<temp>0.00</temp>
<bpm>0</bpm>
<rpm>0.00</rpm>
</extensions>
</trkpt>
<trkpt lat="64.033775330" lon="-19.220018387">
<ele>597.484375</ele>
<time>2012-07-22T12:24:26Z</time>
<speed>2.480000</speed>
<extensions>
<speed>2.5</speed>
<temp>0.00</temp>
<bpm>0</bpm>
<rpm>0.00</rpm>
</extensions>
</trkpt>
<trkpt lat="64.033683777" lon="-19.219934464">
<ele>597.390625</ele>
<time>2012-07-22T12:24:31Z</time>
<speed>2.180000</speed>
<extensions>
<speed>2.2</speed>
<temp>0.00</temp>
<bpm>0</bpm>
<rpm>0.00</rpm>
</extensions>
</trkpt>
<trkpt lat="64.033576965" lon="-19.219844818">
<ele>597.421875</ele>
<time>2012-07-22T12:24:36Z</time>
<speed>2.200000</speed>
<extensions>
<speed>2.2</speed>
<temp>0.00</temp>
<bpm>0</bpm>
<rpm>0.00</rpm>
</extensions>
</trkpt>
<trkpt lat="64.033485413" lon="-19.219758987">
<ele>597.765625</ele>
<time>2012-07-22T12:24:41Z</time>
<speed>2.190000</speed>
<extensions>
<speed>2.2</speed>
<temp>0.00</temp>
<bpm>0</bpm>
<rpm>0.00</rpm>
</extensions>
</trkpt>
<trkpt lat="64.033401489" lon="-19.219692230">
<ele>597.156250</ele>
<time>2012-07-22T12:24:46Z</time>
<speed>1.850000</speed>
<extensions>
<speed>1.8</speed>
<temp>0.00</temp>
<bpm>0</bpm>
<rpm>0.00</rpm>
</extensions>
</trkpt>
<trkpt lat="64.033332825" lon="-19.219627380">
<ele>596.625000</ele>
<time>2012-07-22T12:24:51Z</time>
<speed>1.680000</speed>
<extensions>
<speed>1.7</speed>
<temp>0.00</temp>
<bpm>0</bpm>
<rpm>0.00</rpm>
</extensions>
</trkpt>
<trkpt lat="64.033256531" lon="-19.219587326">
<ele>595.843750</ele>
<time>2012-07-22T12:24:56Z</time>
<speed>1.860000</speed>
<extensions>
<speed>1.9</speed>
<temp>0.00</temp>
<bpm>0</bpm>
<rpm>0.00</rpm>
</extensions>
</trkpt>
<trkpt lat="64.033172607" lon="-19.219535828">
<ele>594.390625</ele>
<time>2012-07-22T12:25:01Z</time>
<speed>1.820000</speed>
<extensions>
<speed>1.8</speed>
<temp>0.00</temp>
<bpm>0</bpm>
<rpm>0.00</rpm>
</extensions>
</trkpt>
<trkpt lat="64.033111572" lon="-19.219427109">
<ele>594.968750</ele>
<time>2012-07-22T12:25:06Z</time>
<speed>2.040000</speed>
<extensions>
<speed>2.0</speed>
<temp>0.00</temp>
<bpm>0</bpm>
<rpm>0.00</rpm>
</extensions>
</trkpt>
<trkpt lat="64.033035278" lon="-19.219316483">
<ele>594.453125</ele>
<time>2012-07-22T12:25:11Z</time>
<speed>2.300000</speed>
<extensions>
<speed>2.3</speed>
<temp>0.00</temp>
<bpm>0</bpm>
<rpm>0.00</rpm>
</extensions>
</trkpt>
<trkpt lat="64.032966614" lon="-19.219186783">
<ele>594.671875</ele>
<time>2012-07-22T12:25:16Z</time>
<speed>2.150000</speed>
<extensions>
<speed>2.1</speed>
<temp>0.00</temp>
<bpm>0</bpm>
<rpm>0.00</rpm>
</extensions>
</trkpt>
<trkpt lat="64.032928467" lon="-19.219017029">
<ele>592.515625</ele>
<time>2012-07-22T12:25:21Z</time>
<speed>2.110000</speed>
<extensions>
<speed>2.1</speed>
<temp>0.00</temp>
<bpm>0</bpm>
<rpm>0.00</rpm>
</extensions>
</trkpt>
<trkpt lat="64.032905579" lon="-19.218772888">
<ele>593.656250</ele>
<time>2012-07-22T12:25:26Z</time>
<speed>2.700000</speed>
<extensions>
<speed>2.7</speed>
<temp>0.00</temp>
<bpm>0</bpm>
<rpm>0.00</rpm>
</extensions>
</trkpt>
<trkpt lat="64.032867432" lon="-19.218540192">
<ele>593.328125</ele>
<time>2012-07-22T12:25:31Z</time>
<speed>2.630000</speed>
<extensions>
<speed>2.6</speed>
<temp>0.00</temp>
<bpm>0</bpm>
<rpm>0.00</rpm>
</extensions>
</trkpt>
<trkpt lat="64.032829285" lon="-19.218315125">
<ele>593.250000</ele>
<time>2012-07-22T12:25:36Z</time>
<speed>2.660000</speed>
<extensions>
<speed>2.7</speed>
<temp>0.00</temp>
<bpm>0</bpm>
<rpm>0.00</rpm>
</extensions>
</trkpt>
<trkpt lat="64.032775879" lon="-19.218053818">
<ele>592.984375</ele>
<time>2012-07-22T12:25:41Z</time>
<speed>2.540000</speed>
<extensions>
<speed>2.5</speed>
<temp>0.00</temp>
<bpm>0</bpm>
<rpm>0.00</rpm>
</extensions>
</trkpt>
<trkpt lat="64.032714844" lon="-19.217823029">
<ele>592.781250</ele>
<time>2012-07-22T12:25:46Z</time>
<speed>2.660000</speed>
<extensions>
<speed>2.7</speed>
<temp>0.00</temp>
<bpm>0</bpm>
<rpm>0.00</rpm>
</extensions>
</trkpt>
<trkpt lat="64.032638550" lon="-19.217605591">
<ele>591.984375</ele>
<time>2012-07-22T12:25:51Z</time>
<speed>2.550000</speed>
<extensions>
<speed>2.6</speed>
<temp>0.00</temp>
<bpm>0</bpm>
<rpm>0.00</rpm>
</extensions>
</trkpt>
<trkpt lat="64.032585144" lon="-19.217395782">
<ele>594.500000</ele>
<time>2012-07-22T12:25:56Z</time>
<speed>2.150000</speed>
<extensions>
<speed>2.1</speed>
<temp>0.00</temp>
<bpm>0</bpm>
<rpm>0.00</rpm>
</extensions>
</trkpt>
<trkpt lat="64.032531738" lon="-19.217206955">
<ele>599.406250</ele>
<time>2012-07-22T12:26:01Z</time>
<speed>2.270000</speed>
<extensions>
<speed>2.3</speed>
<temp>0.00</temp>
<bpm>0</bpm>
<rpm>0.00</rpm>
</extensions>
</trkpt>
<trkpt lat="64.032485962" lon="-19.216987610">
<ele>603.015625</ele>
<time>2012-07-22T12:26:06Z</time>
<speed>2.530000</speed>
<extensions>
<speed>2.5</speed>
<temp>0.00</temp>
<bpm>0</bpm>
<rpm>0.00</rpm>
</extensions>
</trkpt>
<trkpt lat="64.032424927" lon="-19.216804504">
<ele>603.437500</ele>
<time>2012-07-22T12:26:11Z</time>
<speed>2.150000</speed>
<extensions>
<speed>2.1</speed>
<temp>0.00</temp>
<bpm>0</bpm>
<rpm>0.00</rpm>
</extensions>
</trkpt>
<trkpt lat="64.032371521" lon="-19.216613770">
<ele>601.281250</ele>
<time>2012-07-22T12:26:16Z</time>
<speed>2.260000</speed>
<extensions>
<speed>2.3</speed>
<temp>0.00</temp>
<bpm>0</bpm>
<rpm>0.00</rpm>
</extensions>
</trkpt>
<trkpt lat="64.032310486" lon="-19.216424942">
<ele>600.843750</ele>
<time>2012-07-22T12:26:21Z</time>
<speed>2.430000</speed>
<extensions>
<speed>2.4</speed>
<temp>0.00</temp>
<bpm>0</bpm>
<rpm>0.00</rpm>
</extensions>
</trkpt>
<trkpt lat="64.032249451" lon="-19.216226578">
<ele>603.000000</ele>
<time>2012-07-22T12:26:26Z</time>
<speed>2.230000</speed>
<extensions>
<speed>2.2</speed>
<temp>0.00</temp>
<bpm>0</bpm>
<rpm>0.00</rpm>
</extensions>
</trkpt>
<trkpt lat="64.032196045" lon="-19.216047287">
<ele>603.093750</ele>
<time>2012-07-22T12:26:31Z</time>
<speed>2.020000</speed>
<extensions>
<speed>2.0</speed>
<temp>0.00</temp>
<bpm>0</bpm>
<rpm>0.00</rpm>
</extensions>
</trkpt>
<trkpt lat="64.032142639" lon="-19.215864182">
<ele>602.546875</ele>
<time>2012-07-22T12:26:36Z</time>
<speed>2.340000</speed>
<extensions>
<speed>2.3</speed>
<temp>0.00</temp>
<bpm>0</bpm>
<rpm>0.00</rpm>
</extensions>
</trkpt>
<trkpt lat="64.032081604" lon="-19.215677261">
<ele>601.468750</ele>
<time>2012-07-22T12:26:41Z</time>
<speed>2.330000</speed>
<extensions>
<speed>2.3</speed>
<temp>0.00</temp>
<bpm>0</bpm>
<rpm>0.00</rpm>
</extensions>
</trkpt>
<trkpt lat="64.032028198" lon="-19.215467453">
<ele>600.984375</ele>
<time>2012-07-22T12:26:46Z</time>
<speed>2.270000</speed>
<extensions>
<speed>2.3</speed>
<temp>0.00</temp>
<bpm>0</bpm>
<rpm>0.00</rpm>
</extensions>
</trkpt>
<trkpt lat="64.031967163" lon="-19.215269089">
<ele>601.718750</ele>
<time>2012-07-22T12:26:51Z</time>
<speed>2.690000</speed>
<extensions>
<speed>2.7</speed>
<temp>0.00</temp>
<bpm>0</bpm>
<rpm>0.00</rpm>
</extensions>
</trkpt>
<trkpt lat="64.031921387" lon="-19.215049744">
<ele>603.281250</ele>
<time>2012-07-22T12:26:56Z</time>
<speed>2.390000</speed>
<extensions>
<speed>2.4</speed>
<temp>0.00</temp>
<bpm>0</bpm>
<rpm>0.00</rpm>
</extensions>
</trkpt>
<trkpt lat="64.031860352" lon="-19.214876175">
<ele>602.390625</ele>
<time>2012-07-22T12:27:01Z</time>
<speed>2.010000</speed>
<extensions>
<speed>2.0</speed>
<temp>0.00</temp>
<bpm>0</bpm>
<rpm>0.00</rpm>
</extensions>
</trkpt>
<trkpt lat="64.031806946" lon="-19.214712143">
<ele>601.890625</ele>
<time>2012-07-22T12:27:06Z</time>
<speed>2.140000</speed>
<extensions>
<speed>2.1</speed>
<temp>0.00</temp>
<bpm>0</bpm>
<rpm>0.00</rpm>
</extensions>
</trkpt>
<trkpt lat="64.031753540" lon="-19.214529037">
<ele>600.984375</ele>
<time>2012-07-22T12:27:11Z</time>
<speed>2.230000</speed>
<extensions>
<speed>2.2</speed>
<temp>0.00</temp>
<bpm>0</bpm>
<rpm>0.00</rpm>
</extensions>
</trkpt>
<trkpt lat="64.031700134" lon="-19.214338303">
<ele>600.828125</ele>
<time>2012-07-22T12:27:16Z</time>
<speed>2.140000</speed>
<extensions>
<speed>2.1</speed>
<temp>0.00</temp>
<bpm>0</bpm>
<rpm>0.00</rpm>
</extensions>
</trkpt>
<trkpt lat="64.031646729" lon="-19.214151382">
<ele>601.453125</ele>
<time>2012-07-22T12:27:21Z</time>
<speed>2.220000</speed>
<extensions>
<speed>2.2</speed>
<temp>0.00</temp>
<bpm>0</bpm>
<rpm>0.00</rpm>
</extensions>
</trkpt>
<trkpt lat="64.031600952" lon="-19.213979721">
<ele>601.203125</ele>
<time>2012-07-22T12:27:26Z</time>
<speed>1.940000</speed>
<extensions>
<speed>1.9</speed>
<temp>0.00</temp>
<bpm>0</bpm>
<rpm>0.00</rpm>
</extensions>
</trkpt>
<trkpt lat="64.031547546" lon="-19.213792801">
<ele>601.546875</ele>
<time>2012-07-22T12:27:31Z</time>
<speed>2.880000</speed>
<extensions>
<speed>2.9</speed>
<temp>0.00</temp>
<bpm>0</bpm>
<rpm>0.00</rpm>
</extensions>
</trkpt>
<trkpt lat="64.031501770" lon="-19.213605881">
<ele>600.687500</ele>
<time>2012-07-22T12:27:36Z</time>
<speed>1.880000</speed>
<extensions>
<speed>1.9</speed>
<temp>0.00</temp>
<bpm>0</bpm>
<rpm>0.00</rpm>
</extensions>
</trkpt>
<trkpt lat="64.031463623" lon="-19.213432312">
<ele>597.546875</ele>
<time>2012-07-22T12:27:41Z</time>
<speed>1.740000</speed>
<extensions>
<speed>1.7</speed>
<temp>0.00</temp>
<bpm>0</bpm>
<rpm>0.00</rpm>
</extensions>
</trkpt>
<trkpt lat="64.031417847" lon="-19.213258743">
<ele>596.828125</ele>
<time>2012-07-22T12:27:46Z</time>
<speed>2.350000</speed>
<extensions>
<speed>2.4</speed>
<temp>0.00</temp>
<bpm>0</bpm>
<rpm>0.00</rpm>
</extensions>
</trkpt>
<trkpt lat="64.031364441" lon="-19.213069916">
<ele>597.546875</ele>
<time>2012-07-22T12:27:51Z</time>
<speed>2.280000</speed>
<extensions>
<speed>2.3</speed>
<temp>0.00</temp>
<bpm>0</bpm>
<rpm>0.00</rpm>
</extensions>
</trkpt>
<trkpt lat="64.031311035" lon="-19.212854385">
<ele>598.234375</ele>
<time>2012-07-22T12:27:56Z</time>
<speed>2.620000</speed>
<extensions>
<speed>2.6</speed>
<temp>0.00</temp>
<bpm>0</bpm>
<rpm>0.00</rpm>
</extensions>
</trkpt>
<trkpt lat="64.031250000" lon="-19.212604523">
<ele>597.062500</ele>
<time>2012-07-22T12:28:01Z</time>
<speed>2.730000</speed>
<extensions>
<speed>2.7</speed>
<temp>0.00</temp>
<bpm>0</bpm>
<rpm>0.00</rpm>
</extensions>
</trkpt>
<trkpt lat="64.031188965" lon="-19.212375641">
<ele>596.953125</ele>
<time>2012-07-22T12:28:06Z</time>
<speed>2.610000</speed>
<extensions>
<speed>2.6</speed>
<temp>0.00</temp>
<bpm>0</bpm>
<rpm>0.00</rpm>
</extensions>
</trkpt>
<trkpt lat="64.031143188" lon="-19.212135315">
<ele>597.140625</ele>
<time>2012-07-22T12:28:11Z</time>
<speed>2.660000</speed>
<extensions>
<speed>2.7</speed>
<temp>0.00</temp>
<bpm>0</bpm>
<rpm>0.00</rpm>
</extensions>
</trkpt>
<trkpt lat="64.031089783" lon="-19.211866379">
<ele>597.531250</ele>
<time>2012-07-22T12:28:16Z</time>
<speed>3.000000</speed>
<extensions>
<speed>3.0</speed>
<temp>0.00</temp>
<bpm>0</bpm>
<rpm>0.00</rpm>
</extensions>
</trkpt>
<trkpt lat="64.031028748" lon="-19.211584091">
<ele>596.109375</ele>
<time>2012-07-22T12:28:21Z</time>
<speed>3.210000</speed>
<extensions>
<speed>3.2</speed>
<temp>0.00</temp>
<bpm>0</bpm>
<rpm>0.00</rpm>
</extensions>
</trkpt>
<trkpt lat="64.030982971" lon="-19.211292267">
<ele>596.140625</ele>
<time>2012-07-22T12:28:26Z</time>
<speed>2.900000</speed>
<extensions>
<speed>2.9</speed>
<temp>0.00</temp>
<bpm>0</bpm>
<rpm>0.00</rpm>
</extensions>
</trkpt>
<trkpt lat="64.030937195" lon="-19.211017609">
<ele>595.328125</ele>
<time>2012-07-22T12:28:31Z</time>
<speed>2.670000</speed>
<extensions>
<speed>2.7</speed>
<temp>0.00</temp>
<bpm>0</bpm>
<rpm>0.00</rpm>
</extensions>
</trkpt>
<trkpt lat="64.030899048" lon="-19.210802078">
<ele>595.843750</ele>
<time>2012-07-22T12:28:36Z</time>
<speed>2.430000</speed>
<extensions>
<speed>2.4</speed>
<temp>0.00</temp>
<bpm>0</bpm>
<rpm>0.00</rpm>
</extensions>
</trkpt>
<trkpt lat="64.030853271" lon="-19.210578918">
<ele>596.031250</ele>
<time>2012-07-22T12:28:41Z</time>
<speed>2.410000</speed>
<extensions>
<speed>2.4</speed>
<temp>0.00</temp>
<bpm>0</bpm>
<rpm>0.00</rpm>
</extensions>
</trkpt>
<trkpt lat="64.030807495" lon="-19.210330963">
<ele>595.937500</ele>
<time>2012-07-22T12:28:46Z</time>
<speed>2.380000</speed>
<extensions>
<speed>2.4</speed>
<temp>0.00</temp>
<bpm>0</bpm>
<rpm>0.00</rpm>
</extensions>
</trkpt>
<trkpt lat="64.030769348" lon="-19.210075378">
<ele>596.000000</ele>
<time>2012-07-22T12:28:51Z</time>
<speed>2.440000</speed>
<extensions>
<speed>2.4</speed>
<temp>0.00</temp>
<bpm>0</bpm>
<rpm>0.00</rpm>
</extensions>
</trkpt>
<trkpt lat="64.030738831" lon="-19.209815979">
<ele>596.781250</ele>
<time>2012-07-22T12:28:56Z</time>
<speed>2.560000</speed>
<extensions>
<speed>2.6</speed>
<temp>0.00</temp>
<bpm>0</bpm>
<rpm>0.00</rpm>
</extensions>
</trkpt>
<trkpt lat="64.030708313" lon="-19.209560394">
<ele>597.765625</ele>
<time>2012-07-22T12:29:01Z</time>
<speed>2.610000</speed>
<extensions>
<speed>2.6</speed>
<temp>0.00</temp>
<bpm>0</bpm>
<rpm>0.00</rpm>
</extensions>
</trkpt>
<trkpt lat="64.030670166" lon="-19.209297180">
<ele>599.359375</ele>
<time>2012-07-22T12:29:06Z</time>
<speed>2.740000</speed>
<extensions>
<speed>2.7</speed>
<temp>0.00</temp>
<bpm>0</bpm>
<rpm>0.00</rpm>
</extensions>
</trkpt>
<trkpt lat="64.030632019" lon="-19.209024429">
<ele>600.062500</ele>
<time>2012-07-22T12:29:11Z</time>
<speed>2.690000</speed>
<extensions>
<speed>2.7</speed>
<temp>0.00</temp>
<bpm>0</bpm>
<rpm>0.00</rpm>
</extensions>
</trkpt>
<trkpt lat="64.030593872" lon="-19.208770752">
<ele>600.421875</ele>
<time>2012-07-22T12:29:16Z</time>
<speed>2.540000</speed>
<extensions>
<speed>2.5</speed>
<temp>0.00</temp>
<bpm>0</bpm>
<rpm>0.00</rpm>
</extensions>
</trkpt>
<trkpt lat="64.030563354" lon="-19.208496094">
<ele>601.187500</ele>
<time>2012-07-22T12:29:21Z</time>
<speed>2.790000</speed>
<extensions>
<speed>2.8</speed>
<temp>0.00</temp>
<bpm>0</bpm>
<rpm>0.00</rpm>
</extensions>
</trkpt>
<trkpt lat="64.030532837" lon="-19.208208084">
<ele>601.484375</ele>
<time>2012-07-22T12:29:26Z</time>
<speed>2.760000</speed>
<extensions>
<speed>2.8</speed>
<temp>0.00</temp>
<bpm>0</bpm>
<rpm>0.00</rpm>
</extensions>
</trkpt>
<trkpt lat="64.030517578" lon="-19.207912445">
<ele>601.671875</ele>
<time>2012-07-22T12:29:31Z</time>
<speed>2.980000</speed>
<extensions>
<speed>3.0</speed>
<temp>0.00</temp>
<bpm>0</bpm>
<rpm>0.00</rpm>
</extensions>
</trkpt>
<trkpt lat="64.030494690" lon="-19.207620621">
<ele>602.843750</ele>
<time>2012-07-22T12:29:36Z</time>
<speed>2.830000</speed>
<extensions>
<speed>2.8</speed>
<temp>0.00</temp>
<bpm>0</bpm>
<rpm>0.00</rpm>
</extensions>
</trkpt>
<trkpt lat="64.030456543" lon="-19.207363129">
<ele>602.031250</ele>
<time>2012-07-22T12:29:41Z</time>
<speed>2.600000</speed>
<extensions>
<speed>2.6</speed>
<temp>0.00</temp>
<bpm>0</bpm>
<rpm>0.00</rpm>
</extensions>
</trkpt>
<trkpt lat="64.030418396" lon="-19.207098007">
<ele>600.750000</ele>
<time>2012-07-22T12:29:46Z</time>
<speed>3.060000</speed>
<extensions>
<speed>3.1</speed>
<temp>0.00</temp>
<bpm>0</bpm>
<rpm>0.00</rpm>
</extensions>
</trkpt>
<trkpt lat="64.030380249" lon="-19.206808090">
<ele>601.078125</ele>
<time>2012-07-22T12:29:51Z</time>
<speed>3.290000</speed>
<extensions>
<speed>3.3</speed>
<temp>0.00</temp>
<bpm>0</bpm>
<rpm>0.00</rpm>
</extensions>
</trkpt>
<trkpt lat="64.030334473" lon="-19.206495285">
<ele>601.234375</ele>
<time>2012-07-22T12:29:56Z</time>
<speed>3.140000</speed>
<extensions>
<speed>3.1</speed>
<temp>0.00</temp>
<bpm>0</bpm>
<rpm>0.00</rpm>
</extensions>
</trkpt>
<trkpt lat="64.030288696" lon="-19.206209183">
<ele>601.984375</ele>
<time>2012-07-22T12:30:01Z</time>
<speed>3.130000</speed>
<extensions>
<speed>3.1</speed>
<temp>0.00</temp>
<bpm>0</bpm>
<rpm>0.00</rpm>
</extensions>
</trkpt>
<trkpt lat="64.030235291" lon="-19.205879211">
<ele>602.828125</ele>
<time>2012-07-22T12:30:06Z</time>
<speed>3.050000</speed>
<extensions>
<speed>3.0</speed>
<temp>0.00</temp>
<bpm>0</bpm>
<rpm>0.00</rpm>
</extensions>
</trkpt>
<trkpt lat="64.030189514" lon="-19.205604553">
<ele>603.875000</ele>
<time>2012-07-22T12:30:11Z</time>
<speed>2.980000</speed>
<extensions>
<speed>3.0</speed>
<temp>0.00</temp>
<bpm>0</bpm>
<rpm>0.00</rpm>
</extensions>
</trkpt>
<trkpt lat="64.030143738" lon="-19.205308914">
<ele>604.609375</ele>
<time>2012-07-22T12:30:16Z</time>
<speed>3.240000</speed>
<extensions>
<speed>3.2</speed>
<temp>0.00</temp>
<bpm>0</bpm>
<rpm>0.00</rpm>
</extensions>
</trkpt>
<trkpt lat="64.030105591" lon="-19.204982758">
<ele>605.375000</ele>
<time>2012-07-22T12:30:21Z</time>
<speed>3.170000</speed>
<extensions>
<speed>3.2</speed>
<temp>0.00</temp>
<bpm>0</bpm>
<rpm>0.00</rpm>
</extensions>
</trkpt>
<trkpt lat="64.030075073" lon="-19.204685211">
<ele>606.140625</ele>
<time>2012-07-22T12:30:26Z</time>
<speed>2.710000</speed>
<extensions>
<speed>2.7</speed>
<temp>0.00</temp>
<bpm>0</bpm>
<rpm>0.00</rpm>
</extensions>
</trkpt>
<trkpt lat="64.030052185" lon="-19.204420090">
<ele>606.953125</ele>
<time>2012-07-22T12:30:31Z</time>
<speed>2.590000</speed>
<extensions>
<speed>2.6</speed>
<temp>0.00</temp>
<bpm>0</bpm>
<rpm>0.00</rpm>
</extensions>
</trkpt>
<trkpt lat="64.030036926" lon="-19.204137802">
<ele>606.859375</ele>
<time>2012-07-22T12:30:36Z</time>
<speed>2.890000</speed>
<extensions>
<speed>2.9</speed>
<temp>0.00</temp>
<bpm>0</bpm>
<rpm>0.00</rpm>
</extensions>
</trkpt>
<trkpt lat="64.030021667" lon="-19.203813553">
<ele>607.375000</ele>
<time>2012-07-22T12:30:41Z</time>
<speed>3.030000</speed>
<extensions>
<speed>3.0</speed>
<temp>0.00</temp>
<bpm>0</bpm>
<rpm>0.00</rpm>
</extensions>
</trkpt>
<trkpt lat="64.030006409" lon="-19.203506470">
<ele>607.453125</ele>
<time>2012-07-22T12:30:46Z</time>
<speed>2.950000</speed>
<extensions>
<speed>2.9</speed>
<temp>0.00</temp>
<bpm>0</bpm>
<rpm>0.00</rpm>
</extensions>
</trkpt>
<trkpt lat="64.029983521" lon="-19.203222275">
<ele>607.781250</ele>
<time>2012-07-22T12:30:51Z</time>
<speed>2.680000</speed>
<extensions>
<speed>2.7</speed>
<temp>0.00</temp>
<bpm>0</bpm>
<rpm>0.00</rpm>
</extensions>
</trkpt>
<trkpt lat="64.029983521" lon="-19.202999115">
<ele>608.734375</ele>
<time>2012-07-22T12:30:56Z</time>
<speed>1.980000</speed>
<extensions>
<speed>2.0</speed>
<temp>0.00</temp>
<bpm>0</bpm>
<rpm>0.00</rpm>
</extensions>
</trkpt>
<trkpt lat="64.029968262" lon="-19.202783585">
<ele>608.828125</ele>
<time>2012-07-22T12:31:01Z</time>
<speed>2.460000</speed>
<extensions>
<speed>2.5</speed>
<temp>0.00</temp>
<bpm>0</bpm>
<rpm>0.00</rpm>
</extensions>
</trkpt>
<trkpt lat="64.029937744" lon="-19.202520370">
<ele>609.140625</ele>
<time>2012-07-22T12:31:06Z</time>
<speed>2.620000</speed>
<extensions>
<speed>2.6</speed>
<temp>0.00</temp>
<bpm>0</bpm>
<rpm>0.00</rpm>
</extensions>
</trkpt>
<trkpt lat="64.029914856" lon="-19.202243805">
<ele>609.687500</ele>
<time>2012-07-22T12:31:11Z</time>
<speed>2.420000</speed>
<extensions>
<speed>2.4</speed>
<temp>0.00</temp>
<bpm>0</bpm>
<rpm>0.00</rpm>
</extensions>
</trkpt>
<trkpt lat="64.029869080" lon="-19.202005386">
<ele>609.906250</ele>
<time>2012-07-22T12:31:16Z</time>
<speed>2.650000</speed>
<extensions>
<speed>2.6</speed>
<temp>0.00</temp>
<bpm>0</bpm>
<rpm>0.00</rpm>
</extensions>
</trkpt>
<trkpt lat="64.029838562" lon="-19.201761246">
<ele>609.890625</ele>
<time>2012-07-22T12:31:21Z</time>
<speed>2.570000</speed>
<extensions>
<speed>2.6</speed>
<temp>0.00</temp>
<bpm>0</bpm>
<rpm>0.00</rpm>
</extensions>
</trkpt>
<trkpt lat="64.029792786" lon="-19.201511383">
<ele>609.984375</ele>
<time>2012-07-22T12:31:26Z</time>
<speed>2.840000</speed>
<extensions>
<speed>2.8</speed>
<temp>0.00</temp>
<bpm>0</bpm>
<rpm>0.00</rpm>
</extensions>
</trkpt>
<trkpt lat="64.029747009" lon="-19.201253891">
<ele>609.484375</ele>
<time>2012-07-22T12:31:31Z</time>
<speed>2.740000</speed>
<extensions>
<speed>2.7</speed>
<temp>0.00</temp>
<bpm>0</bpm>
<rpm>0.00</rpm>
</extensions>
</trkpt>
<trkpt lat="64.029693604" lon="-19.200990677">
<ele>609.078125</ele>
<time>2012-07-22T12:31:36Z</time>
<speed>2.600000</speed>
<extensions>
<speed>2.6</speed>
<temp>0.00</temp>
<bpm>0</bpm>
<rpm>0.00</rpm>
</extensions>
</trkpt>
<trkpt lat="64.029647827" lon="-19.200748444">
<ele>608.921875</ele>
<time>2012-07-22T12:31:41Z</time>
<speed>2.610000</speed>
<extensions>
<speed>2.6</speed>
<temp>0.00</temp>
<bpm>0</bpm>
<rpm>0.00</rpm>
</extensions>
</trkpt>
<trkpt lat="64.029586792" lon="-19.200479507">
<ele>609.046875</ele>
<time>2012-07-22T12:31:46Z</time>
<speed>2.830000</speed>
<extensions>
<speed>2.8</speed>
<temp>0.00</temp>
<bpm>0</bpm>
<rpm>0.00</rpm>
</extensions>
</trkpt>
<trkpt lat="64.029518127" lon="-19.200227737">
<ele>608.984375</ele>
<time>2012-07-22T12:31:51Z</time>
<speed>2.820000</speed>
<extensions>
<speed>2.8</speed>
<temp>0.00</temp>
<bpm>0</bpm>
<rpm>0.00</rpm>
</extensions>
</trkpt>
<trkpt lat="64.029441833" lon="-19.199985504">
<ele>608.156250</ele>
<time>2012-07-22T12:31:56Z</time>
<speed>2.750000</speed>
<extensions>
<speed>2.7</speed>
<temp>0.00</temp>
<bpm>0</bpm>
<rpm>0.00</rpm>
</extensions>
</trkpt>
<trkpt lat="64.029380798" lon="-19.199752808">
<ele>608.562500</ele>
<time>2012-07-22T12:32:01Z</time>
<speed>2.680000</speed>
<extensions>
<speed>2.7</speed>
<temp>0.00</temp>
<bpm>0</bpm>
<rpm>0.00</rpm>
</extensions>
</trkpt>
<trkpt lat="64.029304504" lon="-19.199510574">
<ele>609.359375</ele>
<time>2012-07-22T12:32:06Z</time>
<speed>2.860000</speed>
<extensions>
<speed>2.9</speed>
<temp>0.00</temp>
<bpm>0</bpm>
<rpm>0.00</rpm>
</extensions>
</trkpt>
<trkpt lat="64.029228210" lon="-19.199268341">
<ele>610.062500</ele>
<time>2012-07-22T12:32:11Z</time>
<speed>2.840000</speed>
<extensions>
<speed>2.8</speed>
<temp>0.00</temp>
<bpm>0</bpm>
<rpm>0.00</rpm>
</extensions>
</trkpt>
<trkpt lat="64.029159546" lon="-19.199052811">
<ele>610.500000</ele>
<time>2012-07-22T12:32:16Z</time>
<speed>2.030000</speed>
<extensions>
<speed>2.0</speed>
<temp>0.00</temp>
<bpm>0</bpm>
<rpm>0.00</rpm>
</extensions>
</trkpt>
<trkpt lat="64.029121399" lon="-19.198869705">
<ele>611.031250</ele>
<time>2012-07-22T12:32:21Z</time>
<speed>1.820000</speed>
<extensions>
<speed>1.8</speed>
<temp>0.00</temp>
<bpm>0</bpm>
<rpm>0.00</rpm>
</extensions>
</trkpt>
<trkpt lat="64.029060364" lon="-19.198703766">
<ele>610.953125</ele>
<time>2012-07-22T12:32:26Z</time>
<speed>2.640000</speed>
<extensions>
<speed>2.6</speed>
<temp>0.00</temp>
<bpm>0</bpm>
<rpm>0.00</rpm>
</extensions>
</trkpt>
<trkpt lat="64.028999329" lon="-19.198461533">
<ele>610.625000</ele>
<time>2012-07-22T12:32:31Z</time>
<speed>2.720000</speed>
<extensions>
<speed>2.7</speed>
<temp>0.00</temp>
<bpm>0</bpm>
<rpm>0.00</rpm>
</extensions>
</trkpt>
<trkpt lat="64.028938293" lon="-19.198251724">
<ele>610.765625</ele>
<time>2012-07-22T12:32:36Z</time>
<speed>2.390000</speed>
<extensions>
<speed>2.4</speed>
<temp>0.00</temp>
<bpm>0</bpm>
<rpm>0.00</rpm>
</extensions>
</trkpt>
<trkpt lat="64.028877258" lon="-19.198040009">
<ele>610.343750</ele>
<time>2012-07-22T12:32:41Z</time>
<speed>2.430000</speed>
<extensions>
<speed>2.4</speed>
<temp>0.00</temp>
<bpm>0</bpm>
<rpm>0.00</rpm>
</extensions>
</trkpt>
<trkpt lat="64.028816223" lon="-19.197807312">
<ele>609.578125</ele>
<time>2012-07-22T12:32:46Z</time>
<speed>2.590000</speed>
<extensions>
<speed>2.6</speed>
<temp>0.00</temp>
<bpm>0</bpm>
<rpm>0.00</rpm>
</extensions>
</trkpt>
<trkpt lat="64.028770447" lon="-19.197576523">
<ele>609.015625</ele>
<time>2012-07-22T12:32:51Z</time>
<speed>2.590000</speed>
<extensions>
<speed>2.6</speed>
<temp>0.00</temp>
<bpm>0</bpm>
<rpm>0.00</rpm>
</extensions>
</trkpt>
<trkpt lat="64.028701782" lon="-19.197359085">
<ele>608.812500</ele>
<time>2012-07-22T12:32:56Z</time>
<speed>2.660000</speed>
<extensions>
<speed>2.7</speed>
<temp>0.00</temp>
<bpm>0</bpm>
<rpm>0.00</rpm>
</extensions>
</trkpt>
<trkpt lat="64.028640747" lon="-19.197114944">
<ele>609.671875</ele>
<time>2012-07-22T12:33:01Z</time>
<speed>2.790000</speed>
<extensions>
<speed>2.8</speed>
<temp>0.00</temp>
<bpm>0</bpm>
<rpm>0.00</rpm>
</extensions>
</trkpt>
<trkpt lat="64.028572083" lon="-19.196884155">
<ele>609.437500</ele>
<time>2012-07-22T12:33:06Z</time>
<speed>2.620000</speed>
<extensions>
<speed>2.6</speed>
<temp>0.00</temp>
<bpm>0</bpm>
<rpm>0.00</rpm>
</extensions>
</trkpt>
<trkpt lat="64.028518677" lon="-19.196649551">
<ele>608.984375</ele>
<time>2012-07-22T12:33:11Z</time>
<speed>2.900000</speed>
<extensions>
<speed>2.9</speed>
<temp>0.00</temp>
<bpm>0</bpm>
<rpm>0.00</rpm>
</extensions>
</trkpt>
<trkpt lat="64.028450012" lon="-19.196399689">
<ele>609.125000</ele>
<time>2012-07-22T12:33:16Z</time>
<speed>2.730000</speed>
<extensions>
<speed>2.7</speed>
<temp>0.00</temp>
<bpm>0</bpm>
<rpm>0.00</rpm>
</extensions>
</trkpt>
<trkpt lat="64.028388977" lon="-19.196159363">
<ele>609.218750</ele>
<time>2012-07-22T12:33:21Z</time>
<speed>2.800000</speed>
<extensions>
<speed>2.8</speed>
<temp>0.00</temp>
<bpm>0</bpm>
<rpm>0.00</rpm>
</extensions>
</trkpt>
<trkpt lat="64.028343201" lon="-19.195922852">
<ele>609.343750</ele>
<time>2012-07-22T12:33:26Z</time>
<speed>2.230000</speed>
<extensions>
<speed>2.2</speed>
<temp>0.00</temp>
<bpm>0</bpm>
<rpm>0.00</rpm>
</extensions>
</trkpt>
<trkpt lat="64.028282166" lon="-19.195701599">
<ele>609.046875</ele>
<time>2012-07-22T12:33:31Z</time>
<speed>2.620000</speed>
<extensions>
<speed>2.6</speed>
<temp>0.00</temp>
<bpm>0</bpm>
<rpm>0.00</rpm>
</extensions>
</trkpt>
<trkpt lat="64.028228760" lon="-19.195442200">
<ele>607.843750</ele>
<time>2012-07-22T12:33:36Z</time>
<speed>2.930000</speed>
<extensions>
<speed>2.9</speed>
<temp>0.00</temp>
<bpm>0</bpm>
<rpm>0.00</rpm>
</extensions>
</trkpt>
<trkpt lat="64.028160095" lon="-19.195194244">
<ele>608.125000</ele>
<time>2012-07-22T12:33:41Z</time>
<speed>2.740000</speed>
<extensions>
<speed>2.7</speed>
<temp>0.00</temp>
<bpm>0</bpm>
<rpm>0.00</rpm>
</extensions>
</trkpt>
<trkpt lat="64.028099060" lon="-19.194921494">
<ele>607.312500</ele>
<time>2012-07-22T12:33:46Z</time>
<speed>2.810000</speed>
<extensions>
<speed>2.8</speed>
<temp>0.00</temp>
<bpm>0</bpm>
<rpm>0.00</rpm>
</extensions>
</trkpt>
<trkpt lat="64.028038025" lon="-19.194681168">
<ele>606.750000</ele>
<time>2012-07-22T12:33:51Z</time>
<speed>2.710000</speed>
<extensions>
<speed>2.7</speed>
<temp>0.00</temp>
<bpm>0</bpm>
<rpm>0.00</rpm>
</extensions>
</trkpt>
<trkpt lat="64.027984619" lon="-19.194431305">
<ele>604.781250</ele>
<time>2012-07-22T12:33:56Z</time>
<speed>2.950000</speed>
<extensions>
<speed>2.9</speed>
<temp>0.00</temp>
<bpm>0</bpm>
<rpm>0.00</rpm>
</extensions>
</trkpt>
<trkpt lat="64.027915955" lon="-19.194173813">
<ele>603.875000</ele>
<time>2012-07-22T12:34:01Z</time>
<speed>2.670000</speed>
<extensions>
<speed>2.7</speed>
<temp>0.00</temp>
<bpm>0</bpm>
<rpm>0.00</rpm>
</extensions>
</trkpt>
<trkpt lat="64.027847290" lon="-19.193929672">
<ele>603.250000</ele>
<time>2012-07-22T12:34:06Z</time>
<speed>2.880000</speed>
<extensions>
<speed>2.9</speed>
<temp>0.00</temp>
<bpm>0</bpm>
<rpm>0.00</rpm>
</extensions>
</trkpt>
<trkpt lat="64.027793884" lon="-19.193685532">
<ele>601.890625</ele>
<time>2012-07-22T12:34:11Z</time>
<speed>2.490000</speed>
<extensions>
<speed>2.5</speed>
<temp>0.00</temp>
<bpm>0</bpm>
<rpm>0.00</rpm>
</extensions>
</trkpt>
<trkpt lat="64.027740479" lon="-19.193496704">
<ele>601.968750</ele>
<time>2012-07-22T12:34:16Z</time>
<speed>2.290000</speed>
<extensions>
<speed>2.3</speed>
<temp>0.00</temp>
<bpm>0</bpm>
<rpm>0.00</rpm>
</extensions>
</trkpt>
<trkpt lat="64.027687073" lon="-19.193292618">
<ele>602.500000</ele>
<time>2012-07-22T12:34:21Z</time>
<speed>2.530000</speed>
<extensions>
<speed>2.5</speed>
<temp>0.00</temp>
<bpm>0</bpm>
<rpm>0.00</rpm>
</extensions>
</trkpt>
<trkpt lat="64.027626038" lon="-19.193094254">
<ele>601.875000</ele>
<time>2012-07-22T12:34:26Z</time>
<speed>2.430000</speed>
<extensions>
<speed>2.4</speed>
<temp>0.00</temp>
<bpm>0</bpm>
<rpm>0.00</rpm>
</extensions>
</trkpt>
<trkpt lat="64.027572632" lon="-19.192886353">
<ele>600.234375</ele>
<time>2012-07-22T12:34:31Z</time>
<speed>2.400000</speed>
<extensions>
<speed>2.4</speed>
<temp>0.00</temp>
<bpm>0</bpm>
<rpm>0.00</rpm>
</extensions>
</trkpt>
<trkpt lat="64.027526855" lon="-19.192674637">
<ele>598.796875</ele>
<time>2012-07-22T12:34:36Z</time>
<speed>2.250000</speed>
<extensions>
<speed>2.3</speed>
<temp>0.00</temp>
<bpm>0</bpm>
<rpm>0.00</rpm>
</extensions>
</trkpt>
<trkpt lat="64.027473450" lon="-19.192472458">
<ele>597.984375</ele>
<time>2012-07-22T12:34:41Z</time>
<speed>2.440000</speed>
<extensions>
<speed>2.4</speed>
<temp>0.00</temp>
<bpm>0</bpm>
<rpm>0.00</rpm>
</extensions>
</trkpt>
<trkpt lat="64.027420044" lon="-19.192234039">
<ele>596.468750</ele>
<time>2012-07-22T12:34:46Z</time>
<speed>2.420000</speed>
<extensions>
<speed>2.4</speed>
<temp>0.00</temp>
<bpm>0</bpm>
<rpm>0.00</rpm>
</extensions>
</trkpt>
<trkpt lat="64.027366638" lon="-19.192003250">
<ele>596.328125</ele>
<time>2012-07-22T12:34:51Z</time>
<speed>2.120000</speed>
<extensions>
<speed>2.1</speed>
<temp>0.00</temp>
<bpm>0</bpm>
<rpm>0.00</rpm>
</extensions>
</trkpt>
<trkpt lat="64.027313232" lon="-19.191801071">
<ele>597.671875</ele>
<time>2012-07-22T12:34:56Z</time>
<speed>2.380000</speed>
<extensions>
<speed>2.4</speed>
<temp>0.00</temp>
<bpm>0</bpm>
<rpm>0.00</rpm>
</extensions>
</trkpt>
<trkpt lat="64.027267456" lon="-19.191593170">
<ele>597.265625</ele>
<time>2012-07-22T12:35:01Z</time>
<speed>2.520000</speed>
<extensions>
<speed>2.5</speed>
<temp>0.00</temp>
<bpm>0</bpm>
<rpm>0.00</rpm>
</extensions>
</trkpt>
<trkpt lat="64.027206421" lon="-19.191394806">
<ele>598.484375</ele>
<time>2012-07-22T12:35:06Z</time>
<speed>2.450000</speed>
<extensions>
<speed>2.4</speed>
<temp>0.00</temp>
<bpm>0</bpm>
<rpm>0.00</rpm>
</extensions>
</trkpt>
<trkpt lat="64.027153015" lon="-19.191169739">
<ele>598.843750</ele>
<time>2012-07-22T12:35:11Z</time>
<speed>2.440000</speed>
<extensions>
<speed>2.4</speed>
<temp>0.00</temp>
<bpm>0</bpm>
<rpm>0.00</rpm>
</extensions>
</trkpt>
<trkpt lat="64.027114868" lon="-19.190977097">
<ele>598.312500</ele>
<time>2012-07-22T12:35:16Z</time>
<speed>1.530000</speed>
<extensions>
<speed>1.5</speed>
<temp>0.00</temp>
<bpm>0</bpm>
<rpm>0.00</rpm>
</extensions>
</trkpt>
<trkpt lat="64.027061462" lon="-19.190818787">
<ele>598.187500</ele>
<time>2012-07-22T12:35:21Z</time>
<speed>1.990000</speed>
<extensions>
<speed>2.0</speed>
<temp>0.00</temp>
<bpm>0</bpm>
<rpm>0.00</rpm>
</extensions>
</trkpt>
<trkpt lat="64.027008057" lon="-19.190629959">
<ele>598.281250</ele>
<time>2012-07-22T12:35:26Z</time>
<speed>2.340000</speed>
<extensions>
<speed>2.3</speed>
<temp>0.00</temp>
<bpm>0</bpm>
<rpm>0.00</rpm>
</extensions>
</trkpt>
<trkpt lat="64.026977539" lon="-19.190408707">
<ele>598.328125</ele>
<time>2012-07-22T12:35:31Z</time>
<speed>2.270000</speed>
<extensions>
<speed>2.3</speed>
<temp>0.00</temp>
<bpm>0</bpm>
<rpm>0.00</rpm>
</extensions>
</trkpt>
<trkpt lat="64.026947021" lon="-19.190176010">
<ele>597.796875</ele>
<time>2012-07-22T12:35:36Z</time>
<speed>2.330000</speed>
<extensions>
<speed>2.3</speed>
<temp>0.00</temp>
<bpm>0</bpm>
<rpm>0.00</rpm>
</extensions>
</trkpt>
<trkpt lat="64.026916504" lon="-19.189935684">
<ele>597.781250</ele>
<time>2012-07-22T12:35:41Z</time>
<speed>2.430000</speed>
<extensions>
<speed>2.4</speed>
<temp>0.00</temp>
<bpm>0</bpm>
<rpm>0.00</rpm>
</extensions>
</trkpt>
<trkpt lat="64.026885986" lon="-19.189689636">
<ele>597.031250</ele>
<time>2012-07-22T12:35:46Z</time>
<speed>2.370000</speed>
<extensions>
<speed>2.4</speed>
<temp>0.00</temp>
<bpm>0</bpm>
<rpm>0.00</rpm>
</extensions>
</trkpt>
<trkpt lat="64.026863098" lon="-19.189481735">
<ele>596.390625</ele>
<time>2012-07-22T12:35:51Z</time>
<speed>2.220000</speed>
<extensions>
<speed>2.2</speed>
<temp>0.00</temp>
<bpm>0</bpm>
<rpm>0.00</rpm>
</extensions>
</trkpt>
<trkpt lat="64.026824951" lon="-19.189256668">
<ele>597.031250</ele>
<time>2012-07-22T12:35:56Z</time>
<speed>2.350000</speed>
<extensions>
<speed>2.4</speed>
<temp>0.00</temp>
<bpm>0</bpm>
<rpm>0.00</rpm>
</extensions>
</trkpt>
<trkpt lat="64.026779175" lon="-19.189062119">
<ele>597.218750</ele>
<time>2012-07-22T12:36:01Z</time>
<speed>2.250000</speed>
<extensions>
<speed>2.3</speed>
<temp>0.00</temp>
<bpm>0</bpm>
<rpm>0.00</rpm>
</extensions>
</trkpt>
<trkpt lat="64.026756287" lon="-19.188871384">
<ele>596.781250</ele>
<time>2012-07-22T12:36:06Z</time>
<speed>2.180000</speed>
<extensions>
<speed>2.2</speed>
<temp>0.00</temp>
<bpm>0</bpm>
<rpm>0.00</rpm>
</extensions>
</trkpt>
<trkpt lat="64.026718140" lon="-19.188684464">
<ele>596.265625</ele>
<time>2012-07-22T12:36:11Z</time>
<speed>2.260000</speed>
<extensions>
<speed>2.3</speed>
<temp>0.00</temp>
<bpm>0</bpm>
<rpm>0.00</rpm>
</extensions>
</trkpt>
<trkpt lat="64.026687622" lon="-19.188470840">
<ele>598.671875</ele>
<time>2012-07-22T12:36:16Z</time>
<speed>2.350000</speed>
<extensions>
<speed>2.4</speed>
<temp>0.00</temp>
<bpm>0</bpm>
<rpm>0.00</rpm>
</extensions>
</trkpt>
<trkpt lat="64.026649475" lon="-19.188241959">
<ele>599.265625</ele>
<time>2012-07-22T12:36:21Z</time>
<speed>2.360000</speed>
<extensions>
<speed>2.4</speed>
<temp>0.00</temp>
<bpm>0</bpm>
<rpm>0.00</rpm>
</extensions>
</trkpt>
<trkpt lat="64.026611328" lon="-19.188022614">
<ele>600.203125</ele>
<time>2012-07-22T12:36:26Z</time>
<speed>2.500000</speed>
<extensions>
<speed>2.5</speed>
<temp>0.00</temp>
<bpm>0</bpm>
<rpm>0.00</rpm>
</extensions>
</trkpt>
<trkpt lat="64.026573181" lon="-19.187820435">
<ele>601.093750</ele>
<time>2012-07-22T12:36:31Z</time>
<speed>2.120000</speed>
<extensions>
<speed>2.1</speed>
<temp>0.00</temp>
<bpm>0</bpm>
<rpm>0.00</rpm>
</extensions>
</trkpt>
<trkpt lat="64.026535034" lon="-19.187612534">
<ele>602.375000</ele>
<time>2012-07-22T12:36:36Z</time>
<speed>2.410000</speed>
<extensions>
<speed>2.4</speed>
<temp>0.00</temp>
<bpm>0</bpm>
<rpm>0.00</rpm>
</extensions>
</trkpt>
<trkpt lat="64.026496887" lon="-19.187374115">
<ele>602.968750</ele>
<time>2012-07-22T12:36:41Z</time>
<speed>2.510000</speed>
<extensions>
<speed>2.5</speed>
<temp>0.00</temp>
<bpm>0</bpm>
<rpm>0.00</rpm>
</extensions>
</trkpt>
<trkpt lat="64.026458740" lon="-19.187129974">
<ele>603.406250</ele>
<time>2012-07-22T12:36:46Z</time>
<speed>2.650000</speed>
<extensions>
<speed>2.6</speed>
<temp>0.00</temp>
<bpm>0</bpm>
<rpm>0.00</rpm>
</extensions>
</trkpt>
<trkpt lat="64.026443481" lon="-19.186885834">
<ele>603.859375</ele>
<time>2012-07-22T12:36:51Z</time>
<speed>2.400000</speed>
<extensions>
<speed>2.4</speed>
<temp>0.00</temp>
<bpm>0</bpm>
<rpm>0.00</rpm>
</extensions>
</trkpt>
<trkpt lat="64.026397705" lon="-19.186649323">
<ele>604.531250</ele>
<time>2012-07-22T12:36:56Z</time>
<speed>2.440000</speed>
<extensions>
<speed>2.4</speed>
<temp>0.00</temp>
<bpm>0</bpm>
<rpm>0.00</rpm>
</extensions>
</trkpt>
<trkpt lat="64.026367188" lon="-19.186412811">
<ele>606.437500</ele>
<time>2012-07-22T12:37:01Z</time>
<speed>2.410000</speed>
<extensions>
<speed>2.4</speed>
<temp>0.00</temp>
<bpm>0</bpm>
<rpm>0.00</rpm>
</extensions>
</trkpt>
<trkpt lat="64.026336670" lon="-19.186178207">
<ele>607.468750</ele>
<time>2012-07-22T12:37:06Z</time>
<speed>2.410000</speed>
<extensions>
<speed>2.4</speed>
<temp>0.00</temp>
<bpm>0</bpm>
<rpm>0.00</rpm>
</extensions>
</trkpt>
<trkpt lat="64.026306152" lon="-19.185932159">
<ele>608.296875</ele>
<time>2012-07-22T12:37:11Z</time>
<speed>2.560000</speed>
<extensions>
<speed>2.6</speed>
<temp>0.00</temp>
<bpm>0</bpm>
<rpm>0.00</rpm>
</extensions>
</trkpt>
<trkpt lat="64.026275635" lon="-19.185701370">
<ele>609.390625</ele>
<time>2012-07-22T12:37:16Z</time>
<speed>2.550000</speed>
<extensions>
<speed>2.6</speed>
<temp>0.00</temp>
<bpm>0</bpm>
<rpm>0.00</rpm>
</extensions>
</trkpt>
<trkpt lat="64.026237488" lon="-19.185461044">
<ele>610.531250</ele>
<time>2012-07-22T12:37:21Z</time>
<speed>2.010000</speed>
<extensions>
<speed>2.0</speed>
<temp>0.00</temp>
<bpm>0</bpm>
<rpm>0.00</rpm>
</extensions>
</trkpt>
<trkpt lat="64.026199341" lon="-19.185258865">
<ele>611.328125</ele>
<time>2012-07-22T12:37:26Z</time>
<speed>2.110000</speed>
<extensions>
<speed>2.1</speed>
<temp>0.00</temp>
<bpm>0</bpm>
<rpm>0.00</rpm>
</extensions>
</trkpt>
<trkpt lat="64.026168823" lon="-19.185060501">
<ele>611.156250</ele>
<time>2012-07-22T12:37:31Z</time>
<speed>2.130000</speed>
<extensions>
<speed>2.1</speed>
<temp>0.00</temp>
<bpm>0</bpm>
<rpm>0.00</rpm>
</extensions>
</trkpt>
<trkpt lat="64.026145935" lon="-19.184846878">
<ele>610.625000</ele>
<time>2012-07-22T12:37:36Z</time>
<speed>2.250000</speed>
<extensions>
<speed>2.3</speed>
<temp>0.00</temp>
<bpm>0</bpm>
<rpm>0.00</rpm>
</extensions>
</trkpt>
<trkpt lat="64.026123047" lon="-19.184604645">
<ele>610.093750</ele>
<time>2012-07-22T12:37:41Z</time>
<speed>2.420000</speed>
<extensions>
<speed>2.4</speed>
<temp>0.00</temp>
<bpm>0</bpm>
<rpm>0.00</rpm>
</extensions>
</trkpt>
<trkpt lat="64.026115417" lon="-19.184358597">
<ele>610.500000</ele>
<time>2012-07-22T12:37:46Z</time>
<speed>2.190000</speed>
<extensions>
<speed>2.2</speed>
<temp>0.00</temp>
<bpm>0</bpm>
<rpm>0.00</rpm>
</extensions>
</trkpt>
<trkpt lat="64.026130676" lon="-19.184114456">
<ele>610.484375</ele>
<time>2012-07-22T12:37:51Z</time>
<speed>2.290000</speed>
<extensions>
<speed>2.3</speed>
<temp>0.00</temp>
<bpm>0</bpm>
<rpm>0.00</rpm>
</extensions>
</trkpt>
<trkpt lat="64.026153564" lon="-19.183870316">
<ele>610.937500</ele>
<time>2012-07-22T12:37:56Z</time>
<speed>2.370000</speed>
<extensions>
<speed>2.4</speed>
<temp>0.00</temp>
<bpm>0</bpm>
<rpm>0.00</rpm>
</extensions>
</trkpt>
<trkpt lat="64.026199341" lon="-19.183599472">
<ele>611.281250</ele>
<time>2012-07-22T12:38:01Z</time>
<speed>2.540000</speed>
<extensions>
<speed>2.5</speed>
<temp>0.00</temp>
<bpm>0</bpm>
<rpm>0.00</rpm>
</extensions>
</trkpt>
<trkpt lat="64.026214600" lon="-19.183423996">
<ele>611.093750</ele>
<time>2012-07-22T12:38:06Z</time>
<speed>2.020000</speed>
<extensions>
<speed>2.0</speed>
<temp>0.00</temp>
<bpm>0</bpm>
<rpm>0.00</rpm>
</extensions>
</trkpt>
<trkpt lat="64.026260376" lon="-19.183219910">
<ele>610.859375</ele>
<time>2012-07-22T12:38:11Z</time>
<speed>2.180000</speed>
<extensions>
<speed>2.2</speed>
<temp>0.00</temp>
<bpm>0</bpm>
<rpm>0.00</rpm>
</extensions>
</trkpt>
<trkpt lat="64.026290894" lon="-19.182979584">
<ele>611.328125</ele>
<time>2012-07-22T12:38:16Z</time>
<speed>2.560000</speed>
<extensions>
<speed>2.6</speed>
<temp>0.00</temp>
<bpm>0</bpm>
<rpm>0.00</rpm>
</extensions>
</trkpt>
<trkpt lat="64.026313782" lon="-19.182741165">
<ele>610.828125</ele>
<time>2012-07-22T12:38:21Z</time>
<speed>2.660000</speed>
<extensions>
<speed>2.7</speed>
<temp>0.00</temp>
<bpm>0</bpm>
<rpm>0.00</rpm>
</extensions>
</trkpt>
<trkpt lat="64.026344299" lon="-19.182460785">
<ele>611.390625</ele>
<time>2012-07-22T12:38:26Z</time>
<speed>2.550000</speed>
<extensions>
<speed>2.6</speed>
<temp>0.00</temp>
<bpm>0</bpm>
<rpm>0.00</rpm>
</extensions>
</trkpt>
<trkpt lat="64.026374817" lon="-19.182212830">
<ele>610.953125</ele>
<time>2012-07-22T12:38:31Z</time>
<speed>2.850000</speed>
<extensions>
<speed>2.9</speed>
<temp>0.00</temp>
<bpm>0</bpm>
<rpm>0.00</rpm>
</extensions>
</trkpt>
<trkpt lat="64.026405334" lon="-19.181947708">
<ele>611.875000</ele>
<time>2012-07-22T12:38:36Z</time>
<speed>2.690000</speed>
<extensions>
<speed>2.7</speed>
<temp>0.00</temp>
<bpm>0</bpm>
<rpm>0.00</rpm>
</extensions>
</trkpt>
<trkpt lat="64.026435852" lon="-19.181776047">
<ele>612.734375</ele>
<time>2012-07-22T12:38:41Z</time>
<speed>1.500000</speed>
<extensions>
<speed>1.5</speed>
<temp>0.00</temp>
<bpm>0</bpm>
<rpm>0.00</rpm>
</extensions>
</trkpt>
<trkpt lat="64.026451111" lon="-19.181684494">
<ele>612.812500</ele>
<time>2012-07-22T12:38:46Z</time>
<speed>0.020000</speed>
<extensions>
<speed>0.0</speed>
<temp>0.00</temp>
<bpm>0</bpm>
<rpm>0.00</rpm>
</extensions>
</trkpt>
<trkpt lat="64.026443481" lon="-19.181657791">
<ele>612.218750</ele>
<time>2012-07-22T12:38:51Z</time>
<speed>0.030000</speed>
<extensions>
<speed>0.0</speed>
<temp>0.00</temp>
<bpm>0</bpm>
<rpm>0.00</rpm>
</extensions>
</trkpt>
<trkpt lat="64.026458740" lon="-19.181575775">
<ele>613.218750</ele>
<time>2012-07-22T12:38:56Z</time>
<speed>2.190000</speed>
<extensions>
<speed>2.2</speed>
<temp>0.00</temp>
<bpm>0</bpm>
<rpm>0.00</rpm>
</extensions>
</trkpt>
<trkpt lat="64.026496887" lon="-19.181304932">
<ele>613.765625</ele>
<time>2012-07-22T12:39:01Z</time>
<speed>3.150000</speed>
<extensions>
<speed>3.2</speed>
<temp>0.00</temp>
<bpm>0</bpm>
<rpm>0.00</rpm>
</extensions>
</trkpt>
<trkpt lat="64.026542664" lon="-19.181009293">
<ele>613.421875</ele>
<time>2012-07-22T12:39:06Z</time>
<speed>3.250000</speed>
<extensions>
<speed>3.2</speed>
<temp>0.00</temp>
<bpm>0</bpm>
<rpm>0.00</rpm>
</extensions>
</trkpt>
<trkpt lat="64.026580811" lon="-19.180660248">
<ele>614.171875</ele>
<time>2012-07-22T12:39:11Z</time>
<speed>3.420000</speed>
<extensions>
<speed>3.4</speed>
<temp>0.00</temp>
<bpm>0</bpm>
<rpm>0.00</rpm>
</extensions>
</trkpt>
<trkpt lat="64.026626587" lon="-19.180261612">
<ele>618.390625</ele>
<time>2012-07-22T12:39:16Z</time>
<speed>3.190000</speed>
<extensions>
<speed>3.2</speed>
<temp>0.00</temp>
<bpm>0</bpm>
<rpm>0.00</rpm>
</extensions>
</trkpt>
<trkpt lat="64.026672363" lon="-19.179954529">
<ele>618.156250</ele>
<time>2012-07-22T12:39:21Z</time>
<speed>3.100000</speed>
<extensions>
<speed>3.1</speed>
<temp>0.00</temp>
<bpm>0</bpm>
<rpm>0.00</rpm>
</extensions>
</trkpt>
<trkpt lat="64.026725769" lon="-19.179660797">
<ele>618.406250</ele>
<time>2012-07-22T12:39:26Z</time>
<speed>3.080000</speed>
<extensions>
<speed>3.1</speed>
<temp>0.00</temp>
<bpm>0</bpm>
<rpm>0.00</rpm>
</extensions>
</trkpt>
<trkpt lat="64.026763916" lon="-19.179405212">
<ele>618.093750</ele>
<time>2012-07-22T12:39:31Z</time>
<speed>2.900000</speed>
<extensions>
<speed>2.9</speed>
<temp>0.00</temp>
<bpm>0</bpm>
<rpm>0.00</rpm>
</extensions>
</trkpt>
<trkpt lat="64.026809692" lon="-19.179130554">
<ele>618.203125</ele>
<time>2012-07-22T12:39:36Z</time>
<speed>2.880000</speed>
<extensions>
<speed>2.9</speed>
<temp>0.00</temp>
<bpm>0</bpm>
<rpm>0.00</rpm>
</extensions>
</trkpt>
<trkpt lat="64.026855469" lon="-19.178852081">
<ele>618.656250</ele>
<time>2012-07-22T12:39:41Z</time>
<speed>2.970000</speed>
<extensions>
<speed>3.0</speed>
<temp>0.00</temp>
<bpm>0</bpm>
<rpm>0.00</rpm>
</extensions>
</trkpt>
<trkpt lat="64.026901245" lon="-19.178569794">
<ele>618.937500</ele>
<time>2012-07-22T12:39:46Z</time>
<speed>3.130000</speed>
<extensions>
<speed>3.1</speed>
<temp>0.00</temp>
<bpm>0</bpm>
<rpm>0.00</rpm>
</extensions>
</trkpt>
<trkpt lat="64.026947021" lon="-19.178274155">
<ele>619.375000</ele>
<time>2012-07-22T12:39:51Z</time>
<speed>2.920000</speed>
<extensions>
<speed>2.9</speed>
<temp>0.00</temp>
<bpm>0</bpm>
<rpm>0.00</rpm>
</extensions>
</trkpt>
<trkpt lat="64.026969910" lon="-19.178022385">
<ele>618.953125</ele>
<time>2012-07-22T12:39:56Z</time>
<speed>2.920000</speed>
<extensions>
<speed>2.9</speed>
<temp>0.00</temp>
<bpm>0</bpm>
<rpm>0.00</rpm>
</extensions>
</trkpt>
<trkpt lat="64.027008057" lon="-19.177722931">
<ele>618.640625</ele>
<time>2012-07-22T12:40:01Z</time>
<speed>3.460000</speed>
<extensions>
<speed>3.5</speed>
<temp>0.00</temp>
<bpm>0</bpm>
<rpm>0.00</rpm>
</extensions>
</trkpt>
<trkpt lat="64.027038574" lon="-19.177394867">
<ele>618.640625</ele>
<time>2012-07-22T12:40:06Z</time>
<speed>3.320000</speed>
<extensions>
<speed>3.3</speed>
<temp>0.00</temp>
<bpm>0</bpm>
<rpm>0.00</rpm>
</extensions>
</trkpt>
<trkpt lat="64.027069092" lon="-19.177082062">
<ele>618.500000</ele>
<time>2012-07-22T12:40:11Z</time>
<speed>3.280000</speed>
<extensions>
<speed>3.3</speed>
<temp>0.00</temp>
<bpm>0</bpm>
<rpm>0.00</rpm>
</extensions>
</trkpt>
<trkpt lat="64.027091980" lon="-19.176755905">
<ele>618.437500</ele>
<time>2012-07-22T12:40:16Z</time>
<speed>3.200000</speed>
<extensions>
<speed>3.2</speed>
<temp>0.00</temp>
<bpm>0</bpm>
<rpm>0.00</rpm>
</extensions>
</trkpt>
<trkpt lat="64.027107239" lon="-19.176416397">
<ele>617.140625</ele>
<time>2012-07-22T12:40:21Z</time>
<speed>3.430000</speed>
<extensions>
<speed>3.4</speed>
<temp>0.00</temp>
<bpm>0</bpm>
<rpm>0.00</rpm>
</extensions>
</trkpt>
<trkpt lat="64.027114868" lon="-19.176080704">
<ele>616.125000</ele>
<time>2012-07-22T12:40:26Z</time>
<speed>2.540000</speed>
<extensions>
<speed>2.5</speed>
<temp>0.00</temp>
<bpm>0</bpm>
<rpm>0.00</rpm>
</extensions>
</trkpt>
<trkpt lat="64.027137756" lon="-19.175830841">
<ele>616.937500</ele>
<time>2012-07-22T12:40:31Z</time>
<speed>2.720000</speed>
<extensions>
<speed>2.7</speed>
<temp>0.00</temp>
<bpm>0</bpm>
<rpm>0.00</rpm>
</extensions>
</trkpt>
<trkpt lat="64.027153015" lon="-19.175540924">
<ele>617.250000</ele>
<time>2012-07-22T12:40:36Z</time>
<speed>3.000000</speed>
<extensions>
<speed>3.0</speed>
<temp>0.00</temp>
<bpm>0</bpm>
<rpm>0.00</rpm>
</extensions>
</trkpt>
<trkpt lat="64.027175903" lon="-19.175251007">
<ele>615.343750</ele>
<time>2012-07-22T12:40:41Z</time>
<speed>3.030000</speed>
<extensions>
<speed>3.0</speed>
<temp>0.00</temp>
<bpm>0</bpm>
<rpm>0.00</rpm>
</extensions>
</trkpt>
<trkpt lat="64.027198792" lon="-19.174936295">
<ele>614.343750</ele>
<time>2012-07-22T12:40:46Z</time>
<speed>3.060000</speed>
<extensions>
<speed>3.1</speed>
<temp>0.00</temp>
<bpm>0</bpm>
<rpm>0.00</rpm>
</extensions>
</trkpt>
<trkpt lat="64.027214050" lon="-19.174617767">
<ele>614.328125</ele>
<time>2012-07-22T12:40:51Z</time>
<speed>3.150000</speed>
<extensions>
<speed>3.2</speed>
<temp>0.00</temp>
<bpm>0</bpm>
<rpm>0.00</rpm>
</extensions>
</trkpt>
<trkpt lat="64.027236938" lon="-19.174320221">
<ele>613.343750</ele>
<time>2012-07-22T12:40:56Z</time>
<speed>3.030000</speed>
<extensions>
<speed>3.0</speed>
<temp>0.00</temp>
<bpm>0</bpm>
<rpm>0.00</rpm>
</extensions>
</trkpt>
<trkpt lat="64.027259827" lon="-19.174011230">
<ele>612.640625</ele>
<time>2012-07-22T12:41:01Z</time>
<speed>3.050000</speed>
<extensions>
<speed>3.0</speed>
<temp>0.00</temp>
<bpm>0</bpm>
<rpm>0.00</rpm>
</extensions>
</trkpt>
<trkpt lat="64.027275085" lon="-19.173656464">
<ele>611.109375</ele>
<time>2012-07-22T12:41:06Z</time>
<speed>3.160000</speed>
<extensions>
<speed>3.2</speed>
<temp>0.00</temp>
<bpm>0</bpm>
<rpm>0.00</rpm>
</extensions>
</trkpt>
<trkpt lat="64.027275085" lon="-19.173313141">
<ele>612.062500</ele>
<time>2012-07-22T12:41:11Z</time>
<speed>3.310000</speed>
<extensions>
<speed>3.3</speed>
<temp>0.00</temp>
<bpm>0</bpm>
<rpm>0.00</rpm>
</extensions>
</trkpt>
<trkpt lat="64.027267456" lon="-19.172967911">
<ele>610.671875</ele>
<time>2012-07-22T12:41:16Z</time>
<speed>3.160000</speed>
<extensions>
<speed>3.2</speed>
<temp>0.00</temp>
<bpm>0</bpm>
<rpm>0.00</rpm>
</extensions>
</trkpt>
<trkpt lat="64.027252197" lon="-19.172651291">
<ele>609.812500</ele>
<time>2012-07-22T12:41:21Z</time>
<speed>2.670000</speed>
<extensions>
<speed>2.7</speed>
<temp>0.00</temp>
<bpm>0</bpm>
<rpm>0.00</rpm>
</extensions>
</trkpt>
<trkpt lat="64.027236938" lon="-19.172428131">
<ele>611.937500</ele>
<time>2012-07-22T12:41:26Z</time>
<speed>2.580000</speed>
<extensions>
<speed>2.6</speed>
<temp>0.00</temp>
<bpm>0</bpm>
<rpm>0.00</rpm>
</extensions>
</trkpt>
<trkpt lat="64.027206421" lon="-19.172132492">
<ele>612.609375</ele>
<time>2012-07-22T12:41:31Z</time>
<speed>3.050000</speed>
<extensions>
<speed>3.0</speed>
<temp>0.00</temp>
<bpm>0</bpm>
<rpm>0.00</rpm>
</extensions>
</trkpt>
<trkpt lat="64.027191162" lon="-19.171808243">
<ele>613.078125</ele>
<time>2012-07-22T12:41:36Z</time>
<speed>3.310000</speed>
<extensions>
<speed>3.3</speed>
<temp>0.00</temp>
<bpm>0</bpm>
<rpm>0.00</rpm>
</extensions>
</trkpt>
<trkpt lat="64.027175903" lon="-19.171485901">
<ele>613.500000</ele>
<time>2012-07-22T12:41:41Z</time>
<speed>3.190000</speed>
<extensions>
<speed>3.2</speed>
<temp>0.00</temp>
<bpm>0</bpm>
<rpm>0.00</rpm>
</extensions>
</trkpt>
<trkpt lat="64.027153015" lon="-19.171175003">
<ele>612.531250</ele>
<time>2012-07-22T12:41:46Z</time>
<speed>2.920000</speed>
<extensions>
<speed>2.9</speed>
<temp>0.00</temp>
<bpm>0</bpm>
<rpm>0.00</rpm>
</extensions>
</trkpt>
<trkpt lat="64.027145386" lon="-19.170869827">
<ele>613.031250</ele>
<time>2012-07-22T12:41:51Z</time>
<speed>2.870000</speed>
<extensions>
<speed>2.9</speed>
<temp>0.00</temp>
<bpm>0</bpm>
<rpm>0.00</rpm>
</extensions>
</trkpt>
<trkpt lat="64.027122498" lon="-19.170545578">
<ele>612.796875</ele>
<time>2012-07-22T12:41:56Z</time>
<speed>3.080000</speed>
<extensions>
<speed>3.1</speed>
<temp>0.00</temp>
<bpm>0</bpm>
<rpm>0.00</rpm>
</extensions>
</trkpt>
<trkpt lat="64.027114868" lon="-19.170221329">
<ele>612.968750</ele>
<time>2012-07-22T12:42:01Z</time>
<speed>3.010000</speed>
<extensions>
<speed>3.0</speed>
<temp>0.00</temp>
<bpm>0</bpm>
<rpm>0.00</rpm>
</extensions>
</trkpt>
<trkpt lat="64.027069092" lon="-19.169961929">
<ele>613.406250</ele>
<time>2012-07-22T12:42:06Z</time>
<speed>2.770000</speed>
<extensions>
<speed>2.8</speed>
<temp>0.00</temp>
<bpm>0</bpm>
<rpm>0.00</rpm>
</extensions>
</trkpt>
<trkpt lat="64.027015686" lon="-19.169683456">
<ele>614.156250</ele>
<time>2012-07-22T12:42:11Z</time>
<speed>2.900000</speed>
<extensions>
<speed>2.9</speed>
<temp>0.00</temp>
<bpm>0</bpm>
<rpm>0.00</rpm>
</extensions>
</trkpt>
<trkpt lat="64.026962280" lon="-19.169431686">
<ele>613.406250</ele>
<time>2012-07-22T12:42:16Z</time>
<speed>2.890000</speed>
<extensions>
<speed>2.9</speed>
<temp>0.00</temp>
<bpm>0</bpm>
<rpm>0.00</rpm>
</extensions>
</trkpt>
<trkpt lat="64.026916504" lon="-19.169151306">
<ele>611.437500</ele>
<time>2012-07-22T12:42:21Z</time>
<speed>2.830000</speed>
<extensions>
<speed>2.8</speed>
<temp>0.00</temp>
<bpm>0</bpm>
<rpm>0.00</rpm>
</extensions>
</trkpt>
<trkpt lat="64.026870728" lon="-19.168907166">
<ele>609.921875</ele>
<time>2012-07-22T12:42:26Z</time>
<speed>2.690000</speed>
<extensions>
<speed>2.7</speed>
<temp>0.00</temp>
<bpm>0</bpm>
<rpm>0.00</rpm>
</extensions>
</trkpt>
<trkpt lat="64.026824951" lon="-19.168626785">
<ele>608.906250</ele>
<time>2012-07-22T12:42:31Z</time>
<speed>2.470000</speed>
<extensions>
<speed>2.5</speed>
<temp>0.00</temp>
<bpm>0</bpm>
<rpm>0.00</rpm>
</extensions>
</trkpt>
<trkpt lat="64.026779175" lon="-19.168317795">
<ele>608.593750</ele>
<time>2012-07-22T12:42:36Z</time>
<speed>2.880000</speed>
<extensions>
<speed>2.9</speed>
<temp>0.00</temp>
<bpm>0</bpm>
<rpm>0.00</rpm>
</extensions>
</trkpt>
<trkpt lat="64.026733398" lon="-19.168100357">
<ele>607.750000</ele>
<time>2012-07-22T12:42:41Z</time>
<speed>2.600000</speed>
<extensions>
<speed>2.6</speed>
<temp>0.00</temp>
<bpm>0</bpm>
<rpm>0.00</rpm>
</extensions>
</trkpt>
<trkpt lat="64.026695251" lon="-19.167879105">
<ele>608.390625</ele>
<time>2012-07-22T12:42:46Z</time>
<speed>2.660000</speed>
<extensions>
<speed>2.7</speed>
<temp>0.00</temp>
<bpm>0</bpm>
<rpm>0.00</rpm>
</extensions>
</trkpt>
<trkpt lat="64.026657104" lon="-19.167572021">
<ele>607.890625</ele>
<time>2012-07-22T12:42:51Z</time>
<speed>2.530000</speed>
<extensions>
<speed>2.5</speed>
<temp>0.00</temp>
<bpm>0</bpm>
<rpm>0.00</rpm>
</extensions>
</trkpt>
<trkpt lat="64.026626587" lon="-19.167335510">
<ele>608.437500</ele>
<time>2012-07-22T12:42:56Z</time>
<speed>2.490000</speed>
<extensions>
<speed>2.5</speed>
<temp>0.00</temp>
<bpm>0</bpm>
<rpm>0.00</rpm>
</extensions>
</trkpt>
<trkpt lat="64.026588440" lon="-19.167116165">
<ele>607.562500</ele>
<time>2012-07-22T12:43:01Z</time>
<speed>2.440000</speed>
<extensions>
<speed>2.4</speed>
<temp>0.00</temp>
<bpm>0</bpm>
<rpm>0.00</rpm>
</extensions>
</trkpt>
<trkpt lat="64.026542664" lon="-19.166898727">
<ele>606.640625</ele>
<time>2012-07-22T12:43:06Z</time>
<speed>2.580000</speed>
<extensions>
<speed>2.6</speed>
<temp>0.00</temp>
<bpm>0</bpm>
<rpm>0.00</rpm>
</extensions>
</trkpt>
<trkpt lat="64.026504517" lon="-19.166669846">
<ele>606.765625</ele>
<time>2012-07-22T12:43:11Z</time>
<speed>2.320000</speed>
<extensions>
<speed>2.3</speed>
<temp>0.00</temp>
<bpm>0</bpm>
<rpm>0.00</rpm>
</extensions>
</trkpt>
<trkpt lat="64.026458740" lon="-19.166463852">
<ele>603.437500</ele>
<time>2012-07-22T12:43:16Z</time>
<speed>2.170000</speed>
<extensions>
<speed>2.2</speed>
<temp>0.00</temp>
<bpm>0</bpm>
<rpm>0.00</rpm>
</extensions>
</trkpt>
<trkpt lat="64.026412964" lon="-19.166242599">
<ele>602.734375</ele>
<time>2012-07-22T12:43:21Z</time>
<speed>1.920000</speed>
<extensions>
<speed>1.9</speed>
<temp>0.00</temp>
<bpm>0</bpm>
<rpm>0.00</rpm>
</extensions>
</trkpt>
<trkpt lat="64.026390076" lon="-19.166088104">
<ele>606.578125</ele>
<time>2012-07-22T12:43:26Z</time>
<speed>1.710000</speed>
<extensions>
<speed>1.7</speed>
<temp>0.00</temp>
<bpm>0</bpm>
<rpm>0.00</rpm>
</extensions>
</trkpt>
<trkpt lat="64.026374817" lon="-19.165937424">
<ele>606.437500</ele>
<time>2012-07-22T12:43:31Z</time>
<speed>1.790000</speed>
<extensions>
<speed>1.8</speed>
<temp>0.00</temp>
<bpm>0</bpm>
<rpm>0.00</rpm>
</extensions>
</trkpt>
<trkpt lat="64.026336670" lon="-19.165784836">
<ele>603.734375</ele>
<time>2012-07-22T12:43:36Z</time>
<speed>1.860000</speed>
<extensions>
<speed>1.9</speed>
<temp>0.00</temp>
<bpm>0</bpm>
<rpm>0.00</rpm>
</extensions>
</trkpt>
<trkpt lat="64.026298523" lon="-19.165605545">
<ele>604.750000</ele>
<time>2012-07-22T12:43:41Z</time>
<speed>1.580000</speed>
<extensions>
<speed>1.6</speed>
<temp>0.00</temp>
<bpm>0</bpm>
<rpm>0.00</rpm>
</extensions>
</trkpt>
<trkpt lat="64.026275635" lon="-19.165409088">
<ele>604.046875</ele>
<time>2012-07-22T12:43:46Z</time>
<speed>1.860000</speed>
<extensions>
<speed>1.9</speed>
<temp>0.00</temp>
<bpm>0</bpm>
<rpm>0.00</rpm>
</extensions>
</trkpt>
<trkpt lat="64.026245117" lon="-19.165201187">
<ele>605.109375</ele>
<time>2012-07-22T12:43:51Z</time>
<speed>1.540000</speed>
<extensions>
<speed>1.5</speed>
<temp>0.00</temp>
<bpm>0</bpm>
<rpm>0.00</rpm>
</extensions>
</trkpt>
<trkpt lat="64.026237488" lon="-19.165060043">
<ele>606.343750</ele>
<time>2012-07-22T12:43:56Z</time>
<speed>1.850000</speed>
<extensions>
<speed>1.8</speed>
<temp>0.00</temp>
<bpm>0</bpm>
<rpm>0.00</rpm>
</extensions>
</trkpt>
<trkpt lat="64.026222229" lon="-19.164909363">
<ele>605.828125</ele>
<time>2012-07-22T12:44:01Z</time>
<speed>1.530000</speed>
<extensions>
<speed>1.5</speed>
<temp>0.00</temp>
<bpm>0</bpm>
<rpm>0.00</rpm>
</extensions>
</trkpt>
<trkpt lat="64.026214600" lon="-19.164766312">
<ele>606.531250</ele>
<time>2012-07-22T12:44:06Z</time>
<speed>1.660000</speed>
<extensions>
<speed>1.7</speed>
<temp>0.00</temp>
<bpm>0</bpm>
<rpm>0.00</rpm>
</extensions>
</trkpt>
<trkpt lat="64.026206970" lon="-19.164613724">
<ele>607.156250</ele>
<time>2012-07-22T12:44:11Z</time>
<speed>1.560000</speed>
<extensions>
<speed>1.6</speed>
<temp>0.00</temp>
<bpm>0</bpm>
<rpm>0.00</rpm>
</extensions>
</trkpt>
<trkpt lat="64.026206970" lon="-19.164453506">
<ele>609.406250</ele>
<time>2012-07-22T12:44:16Z</time>
<speed>1.690000</speed>
<extensions>
<speed>1.7</speed>
<temp>0.00</temp>
<bpm>0</bpm>
<rpm>0.00</rpm>
</extensions>
</trkpt>
<trkpt lat="64.026229858" lon="-19.164316177">
<ele>611.671875</ele>
<time>2012-07-22T12:44:21Z</time>
<speed>1.390000</speed>
<extensions>
<speed>1.4</speed>
<temp>0.00</temp>
<bpm>0</bpm>
<rpm>0.00</rpm>
</extensions>
</trkpt>
<trkpt lat="64.026260376" lon="-19.164146423">
<ele>614.015625</ele>
<time>2012-07-22T12:44:26Z</time>
<speed>1.710000</speed>
<extensions>
<speed>1.7</speed>
<temp>0.00</temp>
<bpm>0</bpm>
<rpm>0.00</rpm>
</extensions>
</trkpt>
<trkpt lat="64.026283264" lon="-19.163972855">
<ele>616.593750</ele>
<time>2012-07-22T12:44:31Z</time>
<speed>1.680000</speed>
<extensions>
<speed>1.7</speed>
<temp>0.00</temp>
<bpm>0</bpm>
<rpm>0.00</rpm>
</extensions>
</trkpt>
<trkpt lat="64.026298523" lon="-19.163866043">
<ele>617.062500</ele>
<time>2012-07-22T12:44:36Z</time>
<speed>1.410000</speed>
<extensions>
<speed>1.4</speed>
<temp>0.00</temp>
<bpm>0</bpm>
<rpm>0.00</rpm>
</extensions>
</trkpt>
<trkpt lat="64.026306152" lon="-19.163753510">
<ele>619.328125</ele>
<time>2012-07-22T12:44:41Z</time>
<speed>0.290000</speed>
<extensions>
<speed>0.3</speed>
<temp>0.00</temp>
<bpm>0</bpm>
<rpm>0.00</rpm>
</extensions>
</trkpt>
<trkpt lat="64.026306152" lon="-19.163692474">
<ele>619.703125</ele>
<time>2012-07-22T12:44:46Z</time>
<speed>1.040000</speed>
<extensions>
<speed>1.0</speed>
<temp>0.00</temp>
<bpm>0</bpm>
<rpm>0.00</rpm>
</extensions>
</trkpt>
<trkpt lat="64.026329041" lon="-19.163604736">
<ele>620.437500</ele>
<time>2012-07-22T12:44:51Z</time>
<speed>0.830000</speed>
<extensions>
<speed>0.8</speed>
<temp>0.00</temp>
<bpm>0</bpm>
<rpm>0.00</rpm>
</extensions>
</trkpt>
<trkpt lat="64.026336670" lon="-19.163507462">
<ele>620.921875</ele>
<time>2012-07-22T12:44:56Z</time>
<speed>0.900000</speed>
<extensions>
<speed>0.9</speed>
<temp>0.00</temp>
<bpm>0</bpm>
<rpm>0.00</rpm>
</extensions>
</trkpt>
<trkpt lat="64.026336670" lon="-19.163427353">
<ele>620.578125</ele>
<time>2012-07-22T12:45:01Z</time>
<speed>0.770000</speed>
<extensions>
<speed>0.8</speed>
<temp>0.00</temp>
<bpm>0</bpm>
<rpm>0.00</rpm>
</extensions>
</trkpt>
<trkpt lat="64.026344299" lon="-19.163352966">
<ele>619.515625</ele>
<time>2012-07-22T12:45:06Z</time>
<speed>0.750000</speed>
<extensions>
<speed>0.8</speed>
<temp>0.00</temp>
<bpm>0</bpm>
<rpm>0.00</rpm>
</extensions>
</trkpt>
<trkpt lat="64.026344299" lon="-19.163293839">
<ele>618.640625</ele>
<time>2012-07-22T12:45:11Z</time>
<speed>0.940000</speed>
<extensions>
<speed>0.9</speed>
<temp>0.00</temp>
<bpm>0</bpm>
<rpm>0.00</rpm>
</extensions>
</trkpt>
<trkpt lat="64.026336670" lon="-19.163209915">
<ele>618.781250</ele>
<time>2012-07-22T12:45:16Z</time>
<speed>0.860000</speed>
<extensions>
<speed>0.9</speed>
<temp>0.00</temp>
<bpm>0</bpm>
<rpm>0.00</rpm>
</extensions>
</trkpt>
<trkpt lat="64.026336670" lon="-19.163116455">
<ele>619.000000</ele>
<time>2012-07-22T12:45:21Z</time>
<speed>0.730000</speed>
<extensions>
<speed>0.7</speed>
<temp>0.00</temp>
<bpm>0</bpm>
<rpm>0.00</rpm>
</extensions>
</trkpt>
<trkpt lat="64.026321411" lon="-19.163000107">
<ele>619.250000</ele>
<time>2012-07-22T12:45:26Z</time>
<speed>0.880000</speed>
<extensions>
<speed>0.9</speed>
<temp>0.00</temp>
<bpm>0</bpm>
<rpm>0.00</rpm>
</extensions>
</trkpt>
<trkpt lat="64.026321411" lon="-19.162897110">
<ele>619.531250</ele>
<time>2012-07-22T12:45:31Z</time>
<speed>0.650000</speed>
<extensions>
<speed>0.6</speed>
<temp>0.00</temp>
<bpm>0</bpm>
<rpm>0.00</rpm>
</extensions>
</trkpt>
<trkpt lat="64.026313782" lon="-19.162805557">
<ele>620.156250</ele>
<time>2012-07-22T12:45:36Z</time>
<speed>0.730000</speed>
<extensions>
<speed>0.7</speed>
<temp>0.00</temp>
<bpm>0</bpm>
<rpm>0.00</rpm>
</extensions>
</trkpt>
<trkpt lat="64.026306152" lon="-19.162714005">
<ele>621.562500</ele>
<time>2012-07-22T12:45:41Z</time>
<speed>0.750000</speed>
<extensions>
<speed>0.8</speed>
<temp>0.00</temp>
<bpm>0</bpm>
<rpm>0.00</rpm>
</extensions>
</trkpt>
<trkpt lat="64.026298523" lon="-19.162605286">
<ele>623.265625</ele>
<time>2012-07-22T12:45:46Z</time>
<speed>0.860000</speed>
<extensions>
<speed>0.9</speed>
<temp>0.00</temp>
<bpm>0</bpm>
<rpm>0.00</rpm>
</extensions>
</trkpt>
<trkpt lat="64.026313782" lon="-19.162496567">
<ele>623.656250</ele>
<time>2012-07-22T12:45:51Z</time>
<speed>0.880000</speed>
<extensions>
<speed>0.9</speed>
<temp>0.00</temp>
<bpm>0</bpm>
<rpm>0.00</rpm>
</extensions>
</trkpt>
<trkpt lat="64.026298523" lon="-19.162376404">
<ele>624.687500</ele>
<time>2012-07-22T12:45:56Z</time>
<speed>1.030000</speed>
<extensions>
<speed>1.0</speed>
<temp>0.00</temp>
<bpm>0</bpm>
<rpm>0.00</rpm>
</extensions>
</trkpt>
<trkpt lat="64.026306152" lon="-19.162267685">
<ele>625.890625</ele>
<time>2012-07-22T12:46:01Z</time>
<speed>0.970000</speed>
<extensions>
<speed>1.0</speed>
<temp>0.00</temp>
<bpm>0</bpm>
<rpm>0.00</rpm>
</extensions>
</trkpt>
<trkpt lat="64.026298523" lon="-19.162136078">
<ele>626.671875</ele>
<time>2012-07-22T12:46:06Z</time>
<speed>1.000000</speed>
<extensions>
<speed>1.0</speed>
<temp>0.00</temp>
<bpm>0</bpm>
<rpm>0.00</rpm>
</extensions>
</trkpt>
<trkpt lat="64.026290894" lon="-19.162040710">
<ele>626.875000</ele>
<time>2012-07-22T12:46:11Z</time>
<speed>0.960000</speed>
<extensions>
<speed>1.0</speed>
<temp>0.00</temp>
<bpm>0</bpm>
<rpm>0.00</rpm>
</extensions>
</trkpt>
<trkpt lat="64.026275635" lon="-19.161956787">
<ele>626.375000</ele>
<time>2012-07-22T12:46:16Z</time>
<speed>1.210000</speed>
<extensions>
<speed>1.2</speed>
<temp>0.00</temp>
<bpm>0</bpm>
<rpm>0.00</rpm>
</extensions>
</trkpt>
<trkpt lat="64.026237488" lon="-19.161911011">
<ele>629.250000</ele>
<time>2012-07-22T12:46:21Z</time>
<speed>1.270000</speed>
<extensions>
<speed>1.3</speed>
<temp>0.00</temp>
<bpm>0</bpm>
<rpm>0.00</rpm>
</extensions>
</trkpt>
<trkpt lat="64.026206970" lon="-19.161853790">
<ele>628.750000</ele>
<time>2012-07-22T12:46:26Z</time>
<speed>1.310000</speed>
<extensions>
<speed>1.3</speed>
<temp>0.00</temp>
<bpm>0</bpm>
<rpm>0.00</rpm>
</extensions>
</trkpt>
<trkpt lat="64.026206970" lon="-19.161794662">
<ele>626.500000</ele>
<time>2012-07-22T12:46:31Z</time>
<speed>0.090000</speed>
<extensions>
<speed>0.1</speed>
<temp>0.00</temp>
<bpm>0</bpm>
<rpm>0.00</rpm>
</extensions>
</trkpt>
<trkpt lat="64.026199341" lon="-19.161798477">
<ele>626.093750</ele>
<time>2012-07-22T12:46:36Z</time>
<speed>1.050000</speed>
<extensions>
<speed>1.0</speed>
<temp>0.00</temp>
<bpm>0</bpm>
<rpm>0.00</rpm>
</extensions>
</trkpt>
<trkpt lat="64.026145935" lon="-19.161588669">
<ele>624.171875</ele>
<time>2012-07-22T12:46:41Z</time>
<speed>2.920000</speed>
<extensions>
<speed>2.9</speed>
<temp>0.00</temp>
<bpm>0</bpm>
<rpm>0.00</rpm>
</extensions>
</trkpt>
<trkpt lat="64.026069641" lon="-19.161350250">
<ele>623.406250</ele>
<time>2012-07-22T12:46:46Z</time>
<speed>2.640000</speed>
<extensions>
<speed>2.6</speed>
<temp>0.00</temp>
<bpm>0</bpm>
<rpm>0.00</rpm>
</extensions>
</trkpt>
<trkpt lat="64.026008606" lon="-19.161117554">
<ele>622.906250</ele>
<time>2012-07-22T12:46:51Z</time>
<speed>2.610000</speed>
<extensions>
<speed>2.6</speed>
<temp>0.00</temp>
<bpm>0</bpm>
<rpm>0.00</rpm>
</extensions>
</trkpt>
<trkpt lat="64.025978088" lon="-19.160943985">
<ele>622.468750</ele>
<time>2012-07-22T12:46:56Z</time>
<speed>1.690000</speed>
<extensions>
<speed>1.7</speed>
<temp>0.00</temp>
<bpm>0</bpm>
<rpm>0.00</rpm>
</extensions>
</trkpt>
<trkpt lat="64.025962830" lon="-19.160747528">
<ele>623.234375</ele>
<time>2012-07-22T12:47:01Z</time>
<speed>2.390000</speed>
<extensions>
<speed>2.4</speed>
<temp>0.00</temp>
<bpm>0</bpm>
<rpm>0.00</rpm>
</extensions>
</trkpt>
<trkpt lat="64.025978088" lon="-19.160495758">
<ele>624.531250</ele>
<time>2012-07-22T12:47:06Z</time>
<speed>2.590000</speed>
<extensions>
<speed>2.6</speed>
<temp>0.00</temp>
<bpm>0</bpm>
<rpm>0.00</rpm>
</extensions>
</trkpt>
<trkpt lat="64.025962830" lon="-19.160207748">
<ele>624.359375</ele>
<time>2012-07-22T12:47:11Z</time>
<speed>2.550000</speed>
<extensions>
<speed>2.6</speed>
<temp>0.00</temp>
<bpm>0</bpm>
<rpm>0.00</rpm>
</extensions>
</trkpt>
<trkpt lat="64.025932312" lon="-19.160020828">
<ele>623.453125</ele>
<time>2012-07-22T12:47:16Z</time>
<speed>1.790000</speed>
<extensions>
<speed>1.8</speed>
<temp>0.00</temp>
<bpm>0</bpm>
<rpm>0.00</rpm>
</extensions>
</trkpt>
<trkpt lat="64.025978088" lon="-19.159780502">
<ele>624.312500</ele>
<time>2012-07-22T12:47:21Z</time>
<speed>2.620000</speed>
<extensions>
<speed>2.6</speed>
<temp>0.00</temp>
<bpm>0</bpm>
<rpm>0.00</rpm>
</extensions>
</trkpt>
<trkpt lat="64.026039124" lon="-19.159511566">
<ele>625.218750</ele>
<time>2012-07-22T12:47:26Z</time>
<speed>2.530000</speed>
<extensions>
<speed>2.5</speed>
<temp>0.00</temp>
<bpm>0</bpm>
<rpm>0.00</rpm>
</extensions>
</trkpt>
<trkpt lat="64.026100159" lon="-19.159330368">
<ele>624.734375</ele>
<time>2012-07-22T12:47:31Z</time>
<speed>1.900000</speed>
<extensions>
<speed>1.9</speed>
<temp>0.00</temp>
<bpm>0</bpm>
<rpm>0.00</rpm>
</extensions>
</trkpt>
<trkpt lat="64.026115417" lon="-19.159254074">
<ele>628.671875</ele>
<time>2012-07-22T12:47:36Z</time>
<speed>0.040000</speed>
<extensions>
<speed>0.0</speed>
<temp>0.00</temp>
<bpm>0</bpm>
<rpm>0.00</rpm>
</extensions>
</trkpt>
<trkpt lat="64.026123047" lon="-19.159254074">
<ele>628.953125</ele>
<time>2012-07-22T12:47:41Z</time>
<speed>0.080000</speed>
<extensions>
<speed>0.1</speed>
<temp>0.00</temp>
<bpm>0</bpm>
<rpm>0.00</rpm>
</extensions>
</trkpt>
<trkpt lat="64.026123047" lon="-19.159252167">
<ele>629.078125</ele>
<time>2012-07-22T12:47:46Z</time>
<speed>0.050000</speed>
<extensions>
<speed>0.1</speed>
<temp>0.00</temp>
<bpm>0</bpm>
<rpm>0.00</rpm>
</extensions>
</trkpt>
<trkpt lat="64.026123047" lon="-19.159252167">
<ele>629.093750</ele>
<time>2012-07-22T12:47:51Z</time>
<extensions>
<speed>0.0</speed>
<temp>0.00</temp>
<bpm>0</bpm>
<rpm>0.00</rpm>
</extensions>
</trkpt>
<trkpt lat="64.026123047" lon="-19.159252167">
<ele>629.156250</ele>
<time>2012-07-22T12:47:56Z</time>
<extensions>
<speed>0.0</speed>
<temp>0.00</temp>
<bpm>0</bpm>
<rpm>0.00</rpm>
</extensions>
</trkpt>
<trkpt lat="64.026123047" lon="-19.159252167">
<ele>629.171875</ele>
<time>2012-07-22T12:48:01Z</time>
<extensions>
<speed>0.0</speed>
<temp>0.00</temp>
<bpm>0</bpm>
<rpm>0.00</rpm>
</extensions>
</trkpt>
<trkpt lat="64.026123047" lon="-19.159252167">
<ele>629.156250</ele>
<time>2012-07-22T12:48:06Z</time>
<speed>0.080000</speed>
<extensions>
<speed>0.1</speed>
<temp>0.00</temp>
<bpm>0</bpm>
<rpm>0.00</rpm>
</extensions>
</trkpt>
<trkpt lat="64.026199341" lon="-19.159128189">
<ele>627.421875</ele>
<time>2012-07-22T12:48:11Z</time>
<speed>3.520000</speed>
<extensions>
<speed>3.5</speed>
<temp>0.00</temp>
<bpm>0</bpm>
<rpm>0.00</rpm>
</extensions>
</trkpt>
<trkpt lat="64.026329041" lon="-19.158811569">
<ele>621.656250</ele>
<time>2012-07-22T12:48:16Z</time>
<speed>4.180000</speed>
<extensions>
<speed>4.2</speed>
<temp>0.00</temp>
<bpm>0</bpm>
<rpm>0.00</rpm>
</extensions>
</trkpt>
<trkpt lat="64.026481628" lon="-19.158535004">
<ele>617.281250</ele>
<time>2012-07-22T12:48:21Z</time>
<speed>4.590000</speed>
<extensions>
<speed>4.6</speed>
<temp>0.00</temp>
<bpm>0</bpm>
<rpm>0.00</rpm>
</extensions>
</trkpt>
<trkpt lat="64.026649475" lon="-19.158306122">
<ele>612.781250</ele>
<time>2012-07-22T12:48:26Z</time>
<speed>4.290000</speed>
<extensions>
<speed>4.3</speed>
<temp>0.00</temp>
<bpm>0</bpm>
<rpm>0.00</rpm>
</extensions>
</trkpt>
<trkpt lat="64.026840210" lon="-19.158203125">
<ele>606.734375</ele>
<time>2012-07-22T12:48:31Z</time>
<speed>5.280000</speed>
<extensions>
<speed>5.3</speed>
<temp>0.00</temp>
<bpm>0</bpm>
<rpm>0.00</rpm>
</extensions>
</trkpt>
<trkpt lat="64.027046204" lon="-19.158269882">
<ele>598.921875</ele>
<time>2012-07-22T12:48:36Z</time>
<speed>5.180000</speed>
<extensions>
<speed>5.2</speed>
<temp>0.00</temp>
<bpm>0</bpm>
<rpm>0.00</rpm>
</extensions>
</trkpt>
<trkpt lat="64.027381897" lon="-19.158372879">
<ele>590.421875</ele>
<time>2012-07-22T12:48:41Z</time>
<speed>9.980000</speed>
<extensions>
<speed>10.0</speed>
<temp>0.00</temp>
<bpm>0</bpm>
<rpm>0.00</rpm>
</extensions>
</trkpt>
<trkpt lat="64.027885437" lon="-19.158428192">
<ele>581.000000</ele>
<time>2012-07-22T12:48:46Z</time>
<speed>10.820000</speed>
<extensions>
<speed>10.8</speed>
<temp>0.00</temp>
<bpm>0</bpm>
<rpm>0.00</rpm>
</extensions>
</trkpt>
<trkpt lat="64.028244019" lon="-19.158338547">
<ele>576.015625</ele>
<time>2012-07-22T12:48:51Z</time>
<speed>6.410000</speed>
<extensions>
<speed>6.4</speed>
<temp>0.00</temp>
<bpm>0</bpm>
<rpm>0.00</rpm>
</extensions>
</trkpt>
<trkpt lat="64.028350830" lon="-19.157922745">
<ele>572.515625</ele>
<time>2012-07-22T12:48:56Z</time>
<speed>3.040000</speed>
<extensions>
<speed>3.0</speed>
<temp>0.00</temp>
<bpm>0</bpm>
<rpm>0.00</rpm>
</extensions>
</trkpt>
<trkpt lat="64.028335571" lon="-19.157722473">
<ele>570.109375</ele>
<time>2012-07-22T12:49:01Z</time>
<speed>1.160000</speed>
<extensions>
<speed>1.2</speed>
<temp>0.00</temp>
<bpm>0</bpm>
<rpm>0.00</rpm>
</extensions>
</trkpt>
<trkpt lat="64.028327942" lon="-19.157674789">
<ele>569.968750</ele>
<time>2012-07-22T12:49:06Z</time>
<speed>0.160000</speed>
<extensions>
<speed>0.2</speed>
<temp>0.00</temp>
<bpm>0</bpm>
<rpm>0.00</rpm>
</extensions>
</trkpt>
<trkpt lat="64.028320313" lon="-19.157680511">
<ele>570.000000</ele>
<time>2012-07-22T12:49:11Z</time>
<extensions>
<speed>0.0</speed>
<temp>0.00</temp>
<bpm>0</bpm>
<rpm>0.00</rpm>
</extensions>
</trkpt>
<trkpt lat="64.028320313" lon="-19.157680511">
<ele>570.046875</ele>
<time>2012-07-22T12:49:16Z</time>
<speed>0.020000</speed>
<extensions>
<speed>0.0</speed>
<temp>0.00</temp>
<bpm>0</bpm>
<rpm>0.00</rpm>
</extensions>
</trkpt>
<trkpt lat="64.028327942" lon="-19.157682419">
<ele>570.140625</ele>
<time>2012-07-22T12:49:21Z</time>
<speed>0.010000</speed>
<extensions>
<speed>0.0</speed>
<temp>0.00</temp>
<bpm>0</bpm>
<rpm>0.00</rpm>
</extensions>
</trkpt>
<trkpt lat="64.028327942" lon="-19.157682419">
<ele>570.281250</ele>
<time>2012-07-22T12:49:26Z</time>
<extensions>
<speed>0.0</speed>
<temp>0.00</temp>
<bpm>0</bpm>
<rpm>0.00</rpm>
</extensions>
</trkpt>
<trkpt lat="64.028327942" lon="-19.157684326">
<ele>570.359375</ele>
<time>2012-07-22T12:49:31Z</time>
<extensions>
<speed>0.0</speed>
<temp>0.00</temp>
<bpm>0</bpm>
<rpm>0.00</rpm>
</extensions>
</trkpt>
<trkpt lat="64.028327942" lon="-19.157684326">
<ele>570.343750</ele>
<time>2012-07-22T12:49:36Z</time>
<speed>0.020000</speed>
<extensions>
<speed>0.0</speed>
<temp>0.00</temp>
<bpm>0</bpm>
<rpm>0.00</rpm>
</extensions>
</trkpt>
<trkpt lat="64.028327942" lon="-19.157686234">
<ele>570.296875</ele>
<time>2012-07-22T12:49:41Z</time>
<speed>0.010000</speed>
<extensions>
<speed>0.0</speed>
<temp>0.00</temp>
<bpm>0</bpm>
<rpm>0.00</rpm>
</extensions>
</trkpt>
<trkpt lat="64.028327942" lon="-19.157686234">
<ele>570.171875</ele>
<time>2012-07-22T12:49:46Z</time>
<speed>0.020000</speed>
<extensions>
<speed>0.0</speed>
<temp>0.00</temp>
<bpm>0</bpm>
<rpm>0.00</rpm>
</extensions>
</trkpt>
<trkpt lat="64.028327942" lon="-19.157686234">
<ele>570.000000</ele>
<time>2012-07-22T12:49:51Z</time>
<speed>0.010000</speed>
<extensions>
<speed>0.0</speed>
<temp>0.00</temp>
<bpm>0</bpm>
<rpm>0.00</rpm>
</extensions>
</trkpt>
<trkpt lat="64.028327942" lon="-19.157686234">
<ele>569.984375</ele>
<time>2012-07-22T12:49:56Z</time>
<extensions>
<speed>0.0</speed>
<temp>0.00</temp>
<bpm>0</bpm>
<rpm>0.00</rpm>
</extensions>
</trkpt>
<trkpt lat="64.028327942" lon="-19.157686234">
<ele>570.000000</ele>
<time>2012-07-22T12:50:01Z</time>
<extensions>
<speed>0.0</speed>
<temp>0.00</temp>
<bpm>0</bpm>
<rpm>0.00</rpm>
</extensions>
</trkpt>
<trkpt lat="64.028327942" lon="-19.157686234">
<ele>570.000000</ele>
<time>2012-07-22T12:50:06Z</time>
<extensions>
<speed>0.0</speed>
<temp>0.00</temp>
<bpm>0</bpm>
<rpm>0.00</rpm>
</extensions>
</trkpt>
<trkpt lat="64.028327942" lon="-19.157686234">
<ele>569.953125</ele>
<time>2012-07-22T12:50:11Z</time>
<extensions>
<speed>0.0</speed>
<temp>0.00</temp>
<bpm>0</bpm>
<rpm>0.00</rpm>
</extensions>
</trkpt>
<trkpt lat="64.028327942" lon="-19.157686234">
<ele>569.937500</ele>
<time>2012-07-22T12:50:16Z</time>
<speed>0.010000</speed>
<extensions>
<speed>0.0</speed>
<temp>0.00</temp>
<bpm>0</bpm>
<rpm>0.00</rpm>
</extensions>
</trkpt>
<trkpt lat="64.028320313" lon="-19.157682419">
<ele>569.953125</ele>
<time>2012-07-22T12:50:21Z</time>
<speed>1.680000</speed>
<extensions>
<speed>1.7</speed>
<temp>0.00</temp>
<bpm>0</bpm>
<rpm>0.00</rpm>
</extensions>
</trkpt>
<trkpt lat="64.028244019" lon="-19.157661438">
<ele>570.171875</ele>
<time>2012-07-22T12:50:26Z</time>
<speed>1.210000</speed>
<extensions>
<speed>1.2</speed>
<temp>0.00</temp>
<bpm>0</bpm>
<rpm>0.00</rpm>
</extensions>
</trkpt>
<trkpt lat="64.028198242" lon="-19.157575607">
<ele>570.125000</ele>
<time>2012-07-22T12:50:31Z</time>
<speed>1.720000</speed>
<extensions>
<speed>1.7</speed>
<temp>0.00</temp>
<bpm>0</bpm>
<rpm>0.00</rpm>
</extensions>
</trkpt>
<trkpt lat="64.028167725" lon="-19.157480240">
<ele>569.718750</ele>
<time>2012-07-22T12:50:36Z</time>
<speed>0.470000</speed>
<extensions>
<speed>0.5</speed>
<temp>0.00</temp>
<bpm>0</bpm>
<rpm>0.00</rpm>
</extensions>
</trkpt>
<trkpt lat="64.028152466" lon="-19.157478333">
<ele>570.781250</ele>
<time>2012-07-22T12:50:41Z</time>
<speed>0.990000</speed>
<extensions>
<speed>1.0</speed>
<temp>0.00</temp>
<bpm>0</bpm>
<rpm>0.00</rpm>
</extensions>
</trkpt>
<trkpt lat="64.028129578" lon="-19.157461166">
<ele>571.468750</ele>
<time>2012-07-22T12:50:46Z</time>
<speed>0.420000</speed>
<extensions>
<speed>0.4</speed>
<temp>0.00</temp>
<bpm>0</bpm>
<rpm>0.00</rpm>
</extensions>
</trkpt>
<trkpt lat="64.028160095" lon="-19.157417297">
<ele>571.656250</ele>
<time>2012-07-22T12:50:51Z</time>
<speed>0.300000</speed>
<extensions>
<speed>0.3</speed>
<temp>0.00</temp>
<bpm>0</bpm>
<rpm>0.00</rpm>
</extensions>
</trkpt>
<trkpt lat="64.028152466" lon="-19.157390594">
<ele>571.968750</ele>
<time>2012-07-22T12:50:56Z</time>
<speed>0.040000</speed>
<extensions>
<speed>0.0</speed>
<temp>0.00</temp>
<bpm>0</bpm>
<rpm>0.00</rpm>
</extensions>
</trkpt>
<trkpt lat="64.028152466" lon="-19.157388687">
<ele>571.890625</ele>
<time>2012-07-22T12:51:01Z</time>
<speed>0.010000</speed>
<extensions>
<speed>0.0</speed>
<temp>0.00</temp>
<bpm>0</bpm>
<rpm>0.00</rpm>
</extensions>
</trkpt>
<trkpt lat="64.028152466" lon="-19.157388687">
<ele>571.921875</ele>
<time>2012-07-22T12:51:06Z</time>
<speed>0.030000</speed>
<extensions>
<speed>0.0</speed>
<temp>0.00</temp>
<bpm>0</bpm>
<rpm>0.00</rpm>
</extensions>
</trkpt>
<trkpt lat="64.028152466" lon="-19.157388687">
<ele>571.984375</ele>
<time>2012-07-22T12:51:11Z</time>
<speed>0.200000</speed>
<extensions>
<speed>0.2</speed>
<temp>0.00</temp>
<bpm>0</bpm>
<rpm>0.00</rpm>
</extensions>
</trkpt>
<trkpt lat="64.028152466" lon="-19.157417297">
<ele>572.390625</ele>
<time>2012-07-22T12:51:16Z</time>
<speed>0.680000</speed>
<extensions>
<speed>0.7</speed>
<temp>0.00</temp>
<bpm>0</bpm>
<rpm>0.00</rpm>
</extensions>
</trkpt>
<trkpt lat="64.028152466" lon="-19.157480240">
<ele>573.906250</ele>
<time>2012-07-22T12:51:21Z</time>
<speed>0.070000</speed>
<extensions>
<speed>0.1</speed>
<temp>0.00</temp>
<bpm>0</bpm>
<rpm>0.00</rpm>
</extensions>
</trkpt>
<trkpt lat="64.028144836" lon="-19.157503128">
<ele>574.421875</ele>
<time>2012-07-22T12:51:26Z</time>
<speed>0.100000</speed>
<extensions>
<speed>0.1</speed>
<temp>0.00</temp>
<bpm>0</bpm>
<rpm>0.00</rpm>
</extensions>
</trkpt>
<trkpt lat="64.028137207" lon="-19.157499313">
<ele>573.968750</ele>
<time>2012-07-22T12:51:31Z</time>
<speed>0.660000</speed>
<extensions>
<speed>0.7</speed>
<temp>0.00</temp>
<bpm>0</bpm>
<rpm>0.00</rpm>
</extensions>
</trkpt>
<trkpt lat="64.028160095" lon="-19.157354355">
<ele>573.234375</ele>
<time>2012-07-22T12:51:36Z</time>
<speed>1.380000</speed>
<extensions>
<speed>1.4</speed>
<temp>0.00</temp>
<bpm>0</bpm>
<rpm>0.00</rpm>
</extensions>
</trkpt>
<trkpt lat="64.028099060" lon="-19.157203674">
<ele>572.546875</ele>
<time>2012-07-22T12:51:41Z</time>
<speed>2.500000</speed>
<extensions>
<speed>2.5</speed>
<temp>0.00</temp>
<bpm>0</bpm>
<rpm>0.00</rpm>
</extensions>
</trkpt>
<trkpt lat="64.028030396" lon="-19.157102585">
<ele>573.515625</ele>
<time>2012-07-22T12:51:46Z</time>
<speed>2.290000</speed>
<extensions>
<speed>2.3</speed>
<temp>0.00</temp>
<bpm>0</bpm>
<rpm>0.00</rpm>
</extensions>
</trkpt>
<trkpt lat="64.027984619" lon="-19.157037735">
<ele>573.828125</ele>
<time>2012-07-22T12:51:51Z</time>
<speed>0.340000</speed>
<extensions>
<speed>0.3</speed>
<temp>0.00</temp>
<bpm>0</bpm>
<rpm>0.00</rpm>
</extensions>
</trkpt>
<trkpt lat="64.027984619" lon="-19.157022476">
<ele>573.734375</ele>
<time>2012-07-22T12:51:56Z</time>
<speed>0.020000</speed>
<extensions>
<speed>0.0</speed>
<temp>0.00</temp>
<bpm>0</bpm>
<rpm>0.00</rpm>
</extensions>
</trkpt>
<trkpt lat="64.027984619" lon="-19.157020569">
<ele>573.875000</ele>
<time>2012-07-22T12:52:01Z</time>
<speed>0.030000</speed>
<extensions>
<speed>0.0</speed>
<temp>0.00</temp>
<bpm>0</bpm>
<rpm>0.00</rpm>
</extensions>
</trkpt>
<trkpt lat="64.027984619" lon="-19.157018661">
<ele>573.875000</ele>
<time>2012-07-22T12:52:06Z</time>
<extensions>
<speed>0.0</speed>
<temp>0.00</temp>
<bpm>0</bpm>
<rpm>0.00</rpm>
</extensions>
</trkpt>
<trkpt lat="64.027976990" lon="-19.157018661">
<ele>573.875000</ele>
<time>2012-07-22T12:52:11Z</time>
<extensions>
<speed>0.0</speed>
<temp>0.00</temp>
<bpm>0</bpm>
<rpm>0.00</rpm>
</extensions>
</trkpt>
<trkpt lat="64.027976990" lon="-19.157018661">
<ele>573.859375</ele>
<time>2012-07-22T12:52:16Z</time>
<speed>0.010000</speed>
<extensions>
<speed>0.0</speed>
<temp>0.00</temp>
<bpm>0</bpm>
<rpm>0.00</rpm>
</extensions>
</trkpt>
<trkpt lat="64.027976990" lon="-19.157018661">
<ele>573.843750</ele>
<time>2012-07-22T12:52:21Z</time>
<extensions>
<speed>0.0</speed>
<temp>0.00</temp>
<bpm>0</bpm>
<rpm>0.00</rpm>
</extensions>
</trkpt>
<trkpt lat="64.027976990" lon="-19.157018661">
<ele>573.828125</ele>
<time>2012-07-22T12:52:26Z</time>
<extensions>
<speed>0.0</speed>
<temp>0.00</temp>
<bpm>0</bpm>
<rpm>0.00</rpm>
</extensions>
</trkpt>
<trkpt lat="64.027976990" lon="-19.157016754">
<ele>573.812500</ele>
<time>2012-07-22T12:52:31Z</time>
<extensions>
<speed>0.0</speed>
<temp>0.00</temp>
<bpm>0</bpm>
<rpm>0.00</rpm>
</extensions>
</trkpt>
<trkpt lat="64.027976990" lon="-19.157016754">
<ele>573.796875</ele>
<time>2012-07-22T12:52:36Z</time>
<extensions>
<speed>0.0</speed>
<temp>0.00</temp>
<bpm>0</bpm>
<rpm>0.00</rpm>
</extensions>
</trkpt>
<trkpt lat="64.027969360" lon="-19.157018661">
<ele>573.750000</ele>
<time>2012-07-22T12:52:41Z</time>
<speed>0.410000</speed>
<extensions>
<speed>0.4</speed>
<temp>0.00</temp>
<bpm>0</bpm>
<rpm>0.00</rpm>
</extensions>
</trkpt>
<trkpt lat="64.027969360" lon="-19.157022476">
<ele>573.078125</ele>
<time>2012-07-22T12:52:46Z</time>
<speed>0.040000</speed>
<extensions>
<speed>0.0</speed>
<temp>0.00</temp>
<bpm>0</bpm>
<rpm>0.00</rpm>
</extensions>
</trkpt>
<trkpt lat="64.027954102" lon="-19.156949997">
<ele>572.765625</ele>
<time>2012-07-22T12:52:51Z</time>
<speed>1.770000</speed>
<extensions>
<speed>1.8</speed>
<temp>0.00</temp>
<bpm>0</bpm>
<rpm>0.00</rpm>
</extensions>
</trkpt>
<trkpt lat="64.027923584" lon="-19.156759262">
<ele>573.203125</ele>
<time>2012-07-22T12:52:56Z</time>
<speed>1.940000</speed>
<extensions>
<speed>1.9</speed>
<temp>0.00</temp>
<bpm>0</bpm>
<rpm>0.00</rpm>
</extensions>
</trkpt>
<trkpt lat="64.027885437" lon="-19.156621933">
<ele>574.046875</ele>
<time>2012-07-22T12:53:01Z</time>
<speed>1.350000</speed>
<extensions>
<speed>1.4</speed>
<temp>0.00</temp>
<bpm>0</bpm>
<rpm>0.00</rpm>
</extensions>
</trkpt>
<trkpt lat="64.027839661" lon="-19.156476974">
<ele>573.781250</ele>
<time>2012-07-22T12:53:06Z</time>
<speed>1.770000</speed>
<extensions>
<speed>1.8</speed>
<temp>0.00</temp>
<bpm>0</bpm>
<rpm>0.00</rpm>
</extensions>
</trkpt>
<trkpt lat="64.027824402" lon="-19.156242371">
<ele>574.078125</ele>
<time>2012-07-22T12:53:11Z</time>
<speed>2.730000</speed>
<extensions>
<speed>2.7</speed>
<temp>0.00</temp>
<bpm>0</bpm>
<rpm>0.00</rpm>
</extensions>
</trkpt>
<trkpt lat="64.027816772" lon="-19.155921936">
<ele>573.671875</ele>
<time>2012-07-22T12:53:16Z</time>
<speed>3.000000</speed>
<extensions>
<speed>3.0</speed>
<temp>0.00</temp>
<bpm>0</bpm>
<rpm>0.00</rpm>
</extensions>
</trkpt>
<trkpt lat="64.027847290" lon="-19.155590057">
<ele>573.859375</ele>
<time>2012-07-22T12:53:21Z</time>
<speed>3.170000</speed>
<extensions>
<speed>3.2</speed>
<temp>0.00</temp>
<bpm>0</bpm>
<rpm>0.00</rpm>
</extensions>
</trkpt>
<trkpt lat="64.027877808" lon="-19.155254364">
<ele>572.062500</ele>
<time>2012-07-22T12:53:26Z</time>
<speed>3.390000</speed>
<extensions>
<speed>3.4</speed>
<temp>0.00</temp>
<bpm>0</bpm>
<rpm>0.00</rpm>
</extensions>
</trkpt>
<trkpt lat="64.027915955" lon="-19.154901505">
<ele>572.390625</ele>
<time>2012-07-22T12:53:31Z</time>
<speed>3.540000</speed>
<extensions>
<speed>3.5</speed>
<temp>0.00</temp>
<bpm>0</bpm>
<rpm>0.00</rpm>
</extensions>
</trkpt>
<trkpt lat="64.027938843" lon="-19.154561996">
<ele>572.656250</ele>
<time>2012-07-22T12:53:36Z</time>
<speed>2.960000</speed>
<extensions>
<speed>3.0</speed>
<temp>0.00</temp>
<bpm>0</bpm>
<rpm>0.00</rpm>
</extensions>
</trkpt>
<trkpt lat="64.027969360" lon="-19.154239655">
<ele>572.875000</ele>
<time>2012-07-22T12:53:41Z</time>
<speed>3.160000</speed>
<extensions>
<speed>3.2</speed>
<temp>0.00</temp>
<bpm>0</bpm>
<rpm>0.00</rpm>
</extensions>
</trkpt>
<trkpt lat="64.027984619" lon="-19.153909683">
<ele>573.968750</ele>
<time>2012-07-22T12:53:46Z</time>
<speed>3.420000</speed>
<extensions>
<speed>3.4</speed>
<temp>0.00</temp>
<bpm>0</bpm>
<rpm>0.00</rpm>
</extensions>
</trkpt>
<trkpt lat="64.028015137" lon="-19.153568268">
<ele>573.875000</ele>
<time>2012-07-22T12:53:51Z</time>
<speed>3.310000</speed>
<extensions>
<speed>3.3</speed>
<temp>0.00</temp>
<bpm>0</bpm>
<rpm>0.00</rpm>
</extensions>
</trkpt>
<trkpt lat="64.028045654" lon="-19.153221130">
<ele>573.500000</ele>
<time>2012-07-22T12:53:56Z</time>
<speed>3.450000</speed>
<extensions>
<speed>3.5</speed>
<temp>0.00</temp>
<bpm>0</bpm>
<rpm>0.00</rpm>
</extensions>
</trkpt>
<trkpt lat="64.028068542" lon="-19.152866364">
<ele>572.328125</ele>
<time>2012-07-22T12:54:01Z</time>
<speed>3.680000</speed>
<extensions>
<speed>3.7</speed>
<temp>0.00</temp>
<bpm>0</bpm>
<rpm>0.00</rpm>
</extensions>
</trkpt>
<trkpt lat="64.028099060" lon="-19.152498245">
<ele>573.109375</ele>
<time>2012-07-22T12:54:06Z</time>
<speed>3.590000</speed>
<extensions>
<speed>3.6</speed>
<temp>0.00</temp>
<bpm>0</bpm>
<rpm>0.00</rpm>
</extensions>
</trkpt>
<trkpt lat="64.028129578" lon="-19.152139664">
<ele>573.781250</ele>
<time>2012-07-22T12:54:11Z</time>
<speed>3.500000</speed>
<extensions>
<speed>3.5</speed>
<temp>0.00</temp>
<bpm>0</bpm>
<rpm>0.00</rpm>
</extensions>
</trkpt>
<trkpt lat="64.028152466" lon="-19.151790619">
<ele>574.468750</ele>
<time>2012-07-22T12:54:16Z</time>
<speed>3.400000</speed>
<extensions>
<speed>3.4</speed>
<temp>0.00</temp>
<bpm>0</bpm>
<rpm>0.00</rpm>
</extensions>
</trkpt>
<trkpt lat="64.028167725" lon="-19.151460648">
<ele>574.921875</ele>
<time>2012-07-22T12:54:21Z</time>
<speed>3.040000</speed>
<extensions>
<speed>3.0</speed>
<temp>0.00</temp>
<bpm>0</bpm>
<rpm>0.00</rpm>
</extensions>
</trkpt>
<trkpt lat="64.028198242" lon="-19.151140213">
<ele>575.140625</ele>
<time>2012-07-22T12:54:26Z</time>
<speed>3.400000</speed>
<extensions>
<speed>3.4</speed>
<temp>0.00</temp>
<bpm>0</bpm>
<rpm>0.00</rpm>
</extensions>
</trkpt>
<trkpt lat="64.028221130" lon="-19.150806427">
<ele>575.296875</ele>
<time>2012-07-22T12:54:31Z</time>
<speed>3.300000</speed>
<extensions>
<speed>3.3</speed>
<temp>0.00</temp>
<bpm>0</bpm>
<rpm>0.00</rpm>
</extensions>
</trkpt>
<trkpt lat="64.028274536" lon="-19.150468826">
<ele>575.281250</ele>
<time>2012-07-22T12:54:36Z</time>
<speed>3.550000</speed>
<extensions>
<speed>3.5</speed>
<temp>0.00</temp>
<bpm>0</bpm>
<rpm>0.00</rpm>
</extensions>
</trkpt>
<trkpt lat="64.028335571" lon="-19.150138855">
<ele>575.718750</ele>
<time>2012-07-22T12:54:41Z</time>
<speed>3.570000</speed>
<extensions>
<speed>3.6</speed>
<temp>0.00</temp>
<bpm>0</bpm>
<rpm>0.00</rpm>
</extensions>
</trkpt>
<trkpt lat="64.028411865" lon="-19.149839401">
<ele>576.109375</ele>
<time>2012-07-22T12:54:46Z</time>
<speed>3.420000</speed>
<extensions>
<speed>3.4</speed>
<temp>0.00</temp>
<bpm>0</bpm>
<rpm>0.00</rpm>
</extensions>
</trkpt>
<trkpt lat="64.028488159" lon="-19.149536133">
<ele>575.984375</ele>
<time>2012-07-22T12:54:51Z</time>
<speed>3.060000</speed>
<extensions>
<speed>3.1</speed>
<temp>0.00</temp>
<bpm>0</bpm>
<rpm>0.00</rpm>
</extensions>
</trkpt>
<trkpt lat="64.028556824" lon="-19.149244308">
<ele>574.687500</ele>
<time>2012-07-22T12:54:56Z</time>
<speed>3.310000</speed>
<extensions>
<speed>3.3</speed>
<temp>0.00</temp>
<bpm>0</bpm>
<rpm>0.00</rpm>
</extensions>
</trkpt>
<trkpt lat="64.028625488" lon="-19.148971558">
<ele>572.859375</ele>
<time>2012-07-22T12:55:01Z</time>
<speed>2.790000</speed>
<extensions>
<speed>2.8</speed>
<temp>0.00</temp>
<bpm>0</bpm>
<rpm>0.00</rpm>
</extensions>
</trkpt>
<trkpt lat="64.028671265" lon="-19.148715973">
<ele>573.312500</ele>
<time>2012-07-22T12:55:06Z</time>
<speed>3.040000</speed>
<extensions>
<speed>3.0</speed>
<temp>0.00</temp>
<bpm>0</bpm>
<rpm>0.00</rpm>
</extensions>
</trkpt>
<trkpt lat="64.028724670" lon="-19.148399353">
<ele>573.625000</ele>
<time>2012-07-22T12:55:11Z</time>
<speed>3.240000</speed>
<extensions>
<speed>3.2</speed>
<temp>0.00</temp>
<bpm>0</bpm>
<rpm>0.00</rpm>
</extensions>
</trkpt>
<trkpt lat="64.028785706" lon="-19.148084641">
<ele>573.046875</ele>
<time>2012-07-22T12:55:16Z</time>
<speed>3.360000</speed>
<extensions>
<speed>3.4</speed>
<temp>0.00</temp>
<bpm>0</bpm>
<rpm>0.00</rpm>
</extensions>
</trkpt>
<trkpt lat="64.028831482" lon="-19.147773743">
<ele>573.484375</ele>
<time>2012-07-22T12:55:21Z</time>
<speed>3.370000</speed>
<extensions>
<speed>3.4</speed>
<temp>0.00</temp>
<bpm>0</bpm>
<rpm>0.00</rpm>
</extensions>
</trkpt>
<trkpt lat="64.028892517" lon="-19.147453308">
<ele>573.484375</ele>
<time>2012-07-22T12:55:26Z</time>
<speed>3.460000</speed>
<extensions>
<speed>3.5</speed>
<temp>0.00</temp>
<bpm>0</bpm>
<rpm>0.00</rpm>
</extensions>
</trkpt>
<trkpt lat="64.028953552" lon="-19.147148132">
<ele>573.203125</ele>
<time>2012-07-22T12:55:31Z</time>
<speed>3.180000</speed>
<extensions>
<speed>3.2</speed>
<temp>0.00</temp>
<bpm>0</bpm>
<rpm>0.00</rpm>
</extensions>
</trkpt>
<trkpt lat="64.029022217" lon="-19.146850586">
<ele>573.593750</ele>
<time>2012-07-22T12:55:36Z</time>
<speed>3.250000</speed>
<extensions>
<speed>3.2</speed>
<temp>0.00</temp>
<bpm>0</bpm>
<rpm>0.00</rpm>
</extensions>
</trkpt>
<trkpt lat="64.029075623" lon="-19.146562576">
<ele>573.718750</ele>
<time>2012-07-22T12:55:41Z</time>
<speed>3.060000</speed>
<extensions>
<speed>3.1</speed>
<temp>0.00</temp>
<bpm>0</bpm>
<rpm>0.00</rpm>
</extensions>
</trkpt>
<trkpt lat="64.029136658" lon="-19.146274567">
<ele>574.000000</ele>
<time>2012-07-22T12:55:46Z</time>
<speed>3.100000</speed>
<extensions>
<speed>3.1</speed>
<temp>0.00</temp>
<bpm>0</bpm>
<rpm>0.00</rpm>
</extensions>
</trkpt>
<trkpt lat="64.029197693" lon="-19.145975113">
<ele>573.796875</ele>
<time>2012-07-22T12:55:51Z</time>
<speed>3.280000</speed>
<extensions>
<speed>3.3</speed>
<temp>0.00</temp>
<bpm>0</bpm>
<rpm>0.00</rpm>
</extensions>
</trkpt>
<trkpt lat="64.029258728" lon="-19.145681381">
<ele>573.625000</ele>
<time>2012-07-22T12:55:56Z</time>
<speed>3.220000</speed>
<extensions>
<speed>3.2</speed>
<temp>0.00</temp>
<bpm>0</bpm>
<rpm>0.00</rpm>
</extensions>
</trkpt>
<trkpt lat="64.029342651" lon="-19.145376205">
<ele>573.828125</ele>
<time>2012-07-22T12:56:01Z</time>
<speed>3.450000</speed>
<extensions>
<speed>3.5</speed>
<temp>0.00</temp>
<bpm>0</bpm>
<rpm>0.00</rpm>
</extensions>
</trkpt>
<trkpt lat="64.029434204" lon="-19.145092010">
<ele>573.359375</ele>
<time>2012-07-22T12:56:06Z</time>
<speed>3.450000</speed>
<extensions>
<speed>3.5</speed>
<temp>0.00</temp>
<bpm>0</bpm>
<rpm>0.00</rpm>
</extensions>
</trkpt>
<trkpt lat="64.029518127" lon="-19.144796371">
<ele>572.781250</ele>
<time>2012-07-22T12:56:11Z</time>
<speed>3.400000</speed>
<extensions>
<speed>3.4</speed>
<temp>0.00</temp>
<bpm>0</bpm>
<rpm>0.00</rpm>
</extensions>
</trkpt>
<trkpt lat="64.029571533" lon="-19.144479752">
<ele>572.515625</ele>
<time>2012-07-22T12:56:16Z</time>
<speed>3.260000</speed>
<extensions>
<speed>3.3</speed>
<temp>0.00</temp>
<bpm>0</bpm>
<rpm>0.00</rpm>
</extensions>
</trkpt>
<trkpt lat="64.029624939" lon="-19.144163132">
<ele>572.000000</ele>
<time>2012-07-22T12:56:21Z</time>
<speed>3.280000</speed>
<extensions>
<speed>3.3</speed>
<temp>0.00</temp>
<bpm>0</bpm>
<rpm>0.00</rpm>
</extensions>
</trkpt>
<trkpt lat="64.029663086" lon="-19.143833160">
<ele>572.093750</ele>
<time>2012-07-22T12:56:26Z</time>
<speed>3.450000</speed>
<extensions>
<speed>3.5</speed>
<temp>0.00</temp>
<bpm>0</bpm>
<rpm>0.00</rpm>
</extensions>
</trkpt>
<trkpt lat="64.029701233" lon="-19.143503189">
<ele>572.156250</ele>
<time>2012-07-22T12:56:31Z</time>
<speed>3.390000</speed>
<extensions>
<speed>3.4</speed>
<temp>0.00</temp>
<bpm>0</bpm>
<rpm>0.00</rpm>
</extensions>
</trkpt>
<trkpt lat="64.029754639" lon="-19.143180847">
<ele>572.359375</ele>
<time>2012-07-22T12:56:36Z</time>
<speed>3.310000</speed>
<extensions>
<speed>3.3</speed>
<temp>0.00</temp>
<bpm>0</bpm>
<rpm>0.00</rpm>
</extensions>
</trkpt>
<trkpt lat="64.029792786" lon="-19.142847061">
<ele>572.296875</ele>
<time>2012-07-22T12:56:41Z</time>
<speed>3.280000</speed>
<extensions>
<speed>3.3</speed>
<temp>0.00</temp>
<bpm>0</bpm>
<rpm>0.00</rpm>
</extensions>
</trkpt>
<trkpt lat="64.029838562" lon="-19.142509460">
<ele>572.296875</ele>
<time>2012-07-22T12:56:46Z</time>
<speed>3.270000</speed>
<extensions>
<speed>3.3</speed>
<temp>0.00</temp>
<bpm>0</bpm>
<rpm>0.00</rpm>
</extensions>
</trkpt>
<trkpt lat="64.029891968" lon="-19.142206192">
<ele>572.578125</ele>
<time>2012-07-22T12:56:51Z</time>
<speed>3.150000</speed>
<extensions>
<speed>3.2</speed>
<temp>0.00</temp>
<bpm>0</bpm>
<rpm>0.00</rpm>
</extensions>
</trkpt>
<trkpt lat="64.029930115" lon="-19.141910553">
<ele>572.843750</ele>
<time>2012-07-22T12:56:56Z</time>
<speed>2.960000</speed>
<extensions>
<speed>3.0</speed>
<temp>0.00</temp>
<bpm>0</bpm>
<rpm>0.00</rpm>
</extensions>
</trkpt>
<trkpt lat="64.029968262" lon="-19.141609192">
<ele>571.968750</ele>
<time>2012-07-22T12:57:01Z</time>
<speed>3.130000</speed>
<extensions>
<speed>3.1</speed>
<temp>0.00</temp>
<bpm>0</bpm>
<rpm>0.00</rpm>
</extensions>
</trkpt>
<trkpt lat="64.029998779" lon="-19.141305923">
<ele>571.031250</ele>
<time>2012-07-22T12:57:06Z</time>
<speed>3.060000</speed>
<extensions>
<speed>3.1</speed>
<temp>0.00</temp>
<bpm>0</bpm>
<rpm>0.00</rpm>
</extensions>
</trkpt>
<trkpt lat="64.030029297" lon="-19.141021729">
<ele>570.468750</ele>
<time>2012-07-22T12:57:11Z</time>
<speed>2.720000</speed>
<extensions>
<speed>2.7</speed>
<temp>0.00</temp>
<bpm>0</bpm>
<rpm>0.00</rpm>
</extensions>
</trkpt>
<trkpt lat="64.030052185" lon="-19.140743256">
<ele>570.296875</ele>
<time>2012-07-22T12:57:16Z</time>
<speed>2.880000</speed>
<extensions>
<speed>2.9</speed>
<temp>0.00</temp>
<bpm>0</bpm>
<rpm>0.00</rpm>
</extensions>
</trkpt>
<trkpt lat="64.030082703" lon="-19.140451431">
<ele>570.171875</ele>
<time>2012-07-22T12:57:21Z</time>
<speed>2.820000</speed>
<extensions>
<speed>2.8</speed>
<temp>0.00</temp>
<bpm>0</bpm>
<rpm>0.00</rpm>
</extensions>
</trkpt>
<trkpt lat="64.030113220" lon="-19.140184402">
<ele>570.203125</ele>
<time>2012-07-22T12:57:26Z</time>
<speed>2.890000</speed>
<extensions>
<speed>2.9</speed>
<temp>0.00</temp>
<bpm>0</bpm>
<rpm>0.00</rpm>
</extensions>
</trkpt>
<trkpt lat="64.030143738" lon="-19.139900208">
<ele>570.484375</ele>
<time>2012-07-22T12:57:31Z</time>
<speed>2.900000</speed>
<extensions>
<speed>2.9</speed>
<temp>0.00</temp>
<bpm>0</bpm>
<rpm>0.00</rpm>
</extensions>
</trkpt>
<trkpt lat="64.030181885" lon="-19.139633179">
<ele>570.765625</ele>
<time>2012-07-22T12:57:36Z</time>
<speed>2.840000</speed>
<extensions>
<speed>2.8</speed>
<temp>0.00</temp>
<bpm>0</bpm>
<rpm>0.00</rpm>
</extensions>
</trkpt>
<trkpt lat="64.030212402" lon="-19.139329910">
<ele>570.703125</ele>
<time>2012-07-22T12:57:41Z</time>
<speed>3.000000</speed>
<extensions>
<speed>3.0</speed>
<temp>0.00</temp>
<bpm>0</bpm>
<rpm>0.00</rpm>
</extensions>
</trkpt>
<trkpt lat="64.030265808" lon="-19.139038086">
<ele>570.437500</ele>
<time>2012-07-22T12:57:46Z</time>
<speed>2.880000</speed>
<extensions>
<speed>2.9</speed>
<temp>0.00</temp>
<bpm>0</bpm>
<rpm>0.00</rpm>
</extensions>
</trkpt>
<trkpt lat="64.030326843" lon="-19.138772964">
<ele>570.750000</ele>
<time>2012-07-22T12:57:51Z</time>
<speed>2.900000</speed>
<extensions>
<speed>2.9</speed>
<temp>0.00</temp>
<bpm>0</bpm>
<rpm>0.00</rpm>
</extensions>
</trkpt>
<trkpt lat="64.030387878" lon="-19.138511658">
<ele>570.828125</ele>
<time>2012-07-22T12:57:56Z</time>
<speed>2.890000</speed>
<extensions>
<speed>2.9</speed>
<temp>0.00</temp>
<bpm>0</bpm>
<rpm>0.00</rpm>
</extensions>
</trkpt>
<trkpt lat="64.030456543" lon="-19.138256073">
<ele>570.640625</ele>
<time>2012-07-22T12:58:01Z</time>
<speed>2.970000</speed>
<extensions>
<speed>3.0</speed>
<temp>0.00</temp>
<bpm>0</bpm>
<rpm>0.00</rpm>
</extensions>
</trkpt>
<trkpt lat="64.030540466" lon="-19.138006210">
<ele>570.921875</ele>
<time>2012-07-22T12:58:06Z</time>
<speed>3.050000</speed>
<extensions>
<speed>3.0</speed>
<temp>0.00</temp>
<bpm>0</bpm>
<rpm>0.00</rpm>
</extensions>
</trkpt>
<trkpt lat="64.030609131" lon="-19.137762070">
<ele>571.250000</ele>
<time>2012-07-22T12:58:11Z</time>
<speed>2.820000</speed>
<extensions>
<speed>2.8</speed>
<temp>0.00</temp>
<bpm>0</bpm>
<rpm>0.00</rpm>
</extensions>
</trkpt>
<trkpt lat="64.030670166" lon="-19.137523651">
<ele>570.937500</ele>
<time>2012-07-22T12:58:16Z</time>
<speed>2.650000</speed>
<extensions>
<speed>2.6</speed>
<temp>0.00</temp>
<bpm>0</bpm>
<rpm>0.00</rpm>
</extensions>
</trkpt>
<trkpt lat="64.030731201" lon="-19.137296677">
<ele>570.890625</ele>
<time>2012-07-22T12:58:21Z</time>
<speed>2.750000</speed>
<extensions>
<speed>2.7</speed>
<temp>0.00</temp>
<bpm>0</bpm>
<rpm>0.00</rpm>
</extensions>
</trkpt>
<trkpt lat="64.030807495" lon="-19.137060165">
<ele>570.453125</ele>
<time>2012-07-22T12:58:26Z</time>
<speed>2.820000</speed>
<extensions>
<speed>2.8</speed>
<temp>0.00</temp>
<bpm>0</bpm>
<rpm>0.00</rpm>
</extensions>
</trkpt>
<trkpt lat="64.030853271" lon="-19.136806488">
<ele>570.093750</ele>
<time>2012-07-22T12:58:31Z</time>
<speed>2.810000</speed>
<extensions>
<speed>2.8</speed>
<temp>0.00</temp>
<bpm>0</bpm>
<rpm>0.00</rpm>
</extensions>
</trkpt>
<trkpt lat="64.030952454" lon="-19.136575699">
<ele>569.921875</ele>
<time>2012-07-22T12:58:36Z</time>
<speed>3.020000</speed>
<extensions>
<speed>3.0</speed>
<temp>0.00</temp>
<bpm>0</bpm>
<rpm>0.00</rpm>
</extensions>
</trkpt>
<trkpt lat="64.031036377" lon="-19.136323929">
<ele>570.109375</ele>
<time>2012-07-22T12:58:41Z</time>
<speed>3.260000</speed>
<extensions>
<speed>3.3</speed>
<temp>0.00</temp>
<bpm>0</bpm>
<rpm>0.00</rpm>
</extensions>
</trkpt>
<trkpt lat="64.031112671" lon="-19.136030197">
<ele>569.843750</ele>
<time>2012-07-22T12:58:46Z</time>
<speed>3.390000</speed>
<extensions>
<speed>3.4</speed>
<temp>0.00</temp>
<bpm>0</bpm>
<rpm>0.00</rpm>
</extensions>
</trkpt>
<trkpt lat="64.031181335" lon="-19.135757446">
<ele>569.781250</ele>
<time>2012-07-22T12:58:51Z</time>
<speed>3.150000</speed>
<extensions>
<speed>3.2</speed>
<temp>0.00</temp>
<bpm>0</bpm>
<rpm>0.00</rpm>
</extensions>
</trkpt>
<trkpt lat="64.031265259" lon="-19.135492325">
<ele>569.437500</ele>
<time>2012-07-22T12:58:56Z</time>
<speed>3.270000</speed>
<extensions>
<speed>3.3</speed>
<temp>0.00</temp>
<bpm>0</bpm>
<rpm>0.00</rpm>
</extensions>
</trkpt>
<trkpt lat="64.031356812" lon="-19.135246277">
<ele>569.390625</ele>
<time>2012-07-22T12:59:01Z</time>
<speed>2.920000</speed>
<extensions>
<speed>2.9</speed>
<temp>0.00</temp>
<bpm>0</bpm>
<rpm>0.00</rpm>
</extensions>
</trkpt>
<trkpt lat="64.031417847" lon="-19.135023117">
<ele>569.296875</ele>
<time>2012-07-22T12:59:06Z</time>
<speed>2.670000</speed>
<extensions>
<speed>2.7</speed>
<temp>0.00</temp>
<bpm>0</bpm>
<rpm>0.00</rpm>
</extensions>
</trkpt>
<trkpt lat="64.031494141" lon="-19.134792328">
<ele>569.187500</ele>
<time>2012-07-22T12:59:11Z</time>
<speed>2.600000</speed>
<extensions>
<speed>2.6</speed>
<temp>0.00</temp>
<bpm>0</bpm>
<rpm>0.00</rpm>
</extensions>
</trkpt>
<trkpt lat="64.031555176" lon="-19.134563446">
<ele>569.421875</ele>
<time>2012-07-22T12:59:16Z</time>
<speed>2.580000</speed>
<extensions>
<speed>2.6</speed>
<temp>0.00</temp>
<bpm>0</bpm>
<rpm>0.00</rpm>
</extensions>
</trkpt>
<trkpt lat="64.031608582" lon="-19.134328842">
<ele>569.515625</ele>
<time>2012-07-22T12:59:21Z</time>
<speed>2.550000</speed>
<extensions>
<speed>2.6</speed>
<temp>0.00</temp>
<bpm>0</bpm>
<rpm>0.00</rpm>
</extensions>
</trkpt>
<trkpt lat="64.031684875" lon="-19.134124756">
<ele>569.484375</ele>
<time>2012-07-22T12:59:26Z</time>
<speed>2.470000</speed>
<extensions>
<speed>2.5</speed>
<temp>0.00</temp>
<bpm>0</bpm>
<rpm>0.00</rpm>
</extensions>
</trkpt>
<trkpt lat="64.031768799" lon="-19.133926392">
<ele>569.375000</ele>
<time>2012-07-22T12:59:31Z</time>
<speed>2.860000</speed>
<extensions>
<speed>2.9</speed>
<temp>0.00</temp>
<bpm>0</bpm>
<rpm>0.00</rpm>
</extensions>
</trkpt>
<trkpt lat="64.031845093" lon="-19.133689880">
<ele>568.984375</ele>
<time>2012-07-22T12:59:36Z</time>
<speed>2.920000</speed>
<extensions>
<speed>2.9</speed>
<temp>0.00</temp>
<bpm>0</bpm>
<rpm>0.00</rpm>
</extensions>
</trkpt>
<trkpt lat="64.031921387" lon="-19.133447647">
<ele>568.906250</ele>
<time>2012-07-22T12:59:41Z</time>
<speed>2.760000</speed>
<extensions>
<speed>2.8</speed>
<temp>0.00</temp>
<bpm>0</bpm>
<rpm>0.00</rpm>
</extensions>
</trkpt>
<trkpt lat="64.031990051" lon="-19.133214951">
<ele>568.531250</ele>
<time>2012-07-22T12:59:46Z</time>
<speed>2.800000</speed>
<extensions>
<speed>2.8</speed>
<temp>0.00</temp>
<bpm>0</bpm>
<rpm>0.00</rpm>
</extensions>
</trkpt>
<trkpt lat="64.032058716" lon="-19.133003235">
<ele>568.468750</ele>
<time>2012-07-22T12:59:51Z</time>
<speed>2.530000</speed>
<extensions>
<speed>2.5</speed>
<temp>0.00</temp>
<bpm>0</bpm>
<rpm>0.00</rpm>
</extensions>
</trkpt>
<trkpt lat="64.032104492" lon="-19.132801056">
<ele>568.687500</ele>
<time>2012-07-22T12:59:56Z</time>
<speed>2.330000</speed>
<extensions>
<speed>2.3</speed>
<temp>0.00</temp>
<bpm>0</bpm>
<rpm>0.00</rpm>
</extensions>
</trkpt>
<trkpt lat="64.032180786" lon="-19.132608414">
<ele>568.343750</ele>
<time>2012-07-22T13:00:01Z</time>
<speed>2.540000</speed>
<extensions>
<speed>2.5</speed>
<temp>0.00</temp>
<bpm>0</bpm>
<rpm>0.00</rpm>
</extensions>
</trkpt>
<trkpt lat="64.032249451" lon="-19.132396698">
<ele>568.328125</ele>
<time>2012-07-22T13:00:06Z</time>
<speed>2.560000</speed>
<extensions>
<speed>2.6</speed>
<temp>0.00</temp>
<bpm>0</bpm>
<rpm>0.00</rpm>
</extensions>
</trkpt>
<trkpt lat="64.032325745" lon="-19.132194519">
<ele>568.359375</ele>
<time>2012-07-22T13:00:11Z</time>
<speed>2.570000</speed>
<extensions>
<speed>2.6</speed>
<temp>0.00</temp>
<bpm>0</bpm>
<rpm>0.00</rpm>
</extensions>
</trkpt>
<trkpt lat="64.032386780" lon="-19.131999969">
<ele>568.218750</ele>
<time>2012-07-22T13:00:16Z</time>
<speed>2.250000</speed>
<extensions>
<speed>2.3</speed>
<temp>0.00</temp>
<bpm>0</bpm>
<rpm>0.00</rpm>
</extensions>
</trkpt>
<trkpt lat="64.032432556" lon="-19.131860733">
<ele>568.359375</ele>
<time>2012-07-22T13:00:21Z</time>
<speed>2.070000</speed>
<extensions>
<speed>2.1</speed>
<temp>0.00</temp>
<bpm>0</bpm>
<rpm>0.00</rpm>
</extensions>
</trkpt>
<trkpt lat="64.032501221" lon="-19.131689072">
<ele>568.156250</ele>
<time>2012-07-22T13:00:26Z</time>
<speed>2.230000</speed>
<extensions>
<speed>2.2</speed>
<temp>0.00</temp>
<bpm>0</bpm>
<rpm>0.00</rpm>
</extensions>
</trkpt>
<trkpt lat="64.032554626" lon="-19.131523132">
<ele>567.953125</ele>
<time>2012-07-22T13:00:31Z</time>
<speed>2.370000</speed>
<extensions>
<speed>2.4</speed>
<temp>0.00</temp>
<bpm>0</bpm>
<rpm>0.00</rpm>
</extensions>
</trkpt>
<trkpt lat="64.032630920" lon="-19.131362915">
<ele>567.890625</ele>
<time>2012-07-22T13:00:36Z</time>
<speed>2.380000</speed>
<extensions>
<speed>2.4</speed>
<temp>0.00</temp>
<bpm>0</bpm>
<rpm>0.00</rpm>
</extensions>
</trkpt>
<trkpt lat="64.032691956" lon="-19.131172180">
<ele>568.203125</ele>
<time>2012-07-22T13:00:41Z</time>
<speed>2.410000</speed>
<extensions>
<speed>2.4</speed>
<temp>0.00</temp>
<bpm>0</bpm>
<rpm>0.00</rpm>
</extensions>
</trkpt>
<trkpt lat="64.032760620" lon="-19.130992889">
<ele>568.546875</ele>
<time>2012-07-22T13:00:46Z</time>
<speed>2.220000</speed>
<extensions>
<speed>2.2</speed>
<temp>0.00</temp>
<bpm>0</bpm>
<rpm>0.00</rpm>
</extensions>
</trkpt>
<trkpt lat="64.032836914" lon="-19.130819321">
<ele>568.531250</ele>
<time>2012-07-22T13:00:51Z</time>
<speed>2.290000</speed>
<extensions>
<speed>2.3</speed>
<temp>0.00</temp>
<bpm>0</bpm>
<rpm>0.00</rpm>
</extensions>
</trkpt>
<trkpt lat="64.032905579" lon="-19.130653381">
<ele>568.390625</ele>
<time>2012-07-22T13:00:56Z</time>
<speed>2.160000</speed>
<extensions>
<speed>2.2</speed>
<temp>0.00</temp>
<bpm>0</bpm>
<rpm>0.00</rpm>
</extensions>
</trkpt>
<trkpt lat="64.032974243" lon="-19.130504608">
<ele>568.781250</ele>
<time>2012-07-22T13:01:01Z</time>
<speed>1.830000</speed>
<extensions>
<speed>1.8</speed>
<temp>0.00</temp>
<bpm>0</bpm>
<rpm>0.00</rpm>
</extensions>
</trkpt>
<trkpt lat="64.033027649" lon="-19.130363464">
<ele>569.046875</ele>
<time>2012-07-22T13:01:06Z</time>
<speed>1.910000</speed>
<extensions>
<speed>1.9</speed>
<temp>0.00</temp>
<bpm>0</bpm>
<rpm>0.00</rpm>
</extensions>
</trkpt>
<trkpt lat="64.033088684" lon="-19.130224228">
<ele>569.406250</ele>
<time>2012-07-22T13:01:11Z</time>
<speed>2.000000</speed>
<extensions>
<speed>2.0</speed>
<temp>0.00</temp>
<bpm>0</bpm>
<rpm>0.00</rpm>
</extensions>
</trkpt>
<trkpt lat="64.033142090" lon="-19.130088806">
<ele>569.968750</ele>
<time>2012-07-22T13:01:16Z</time>
<speed>1.900000</speed>
<extensions>
<speed>1.9</speed>
<temp>0.00</temp>
<bpm>0</bpm>
<rpm>0.00</rpm>
</extensions>
</trkpt>
<trkpt lat="64.033203125" lon="-19.129962921">
<ele>571.015625</ele>
<time>2012-07-22T13:01:21Z</time>
<speed>1.510000</speed>
<extensions>
<speed>1.5</speed>
<temp>0.00</temp>
<bpm>0</bpm>
<rpm>0.00</rpm>
</extensions>
</trkpt>
<trkpt lat="64.033218384" lon="-19.129949570">
<ele>571.906250</ele>
<time>2012-07-22T13:01:26Z</time>
<speed>0.850000</speed>
<extensions>
<speed>0.8</speed>
<temp>0.00</temp>
<bpm>0</bpm>
<rpm>0.00</rpm>
</extensions>
</trkpt>
<trkpt lat="64.033241272" lon="-19.129920959">
<ele>572.562500</ele>
<time>2012-07-22T13:01:31Z</time>
<speed>0.150000</speed>
<extensions>
<speed>0.2</speed>
<temp>0.00</temp>
<bpm>0</bpm>
<rpm>0.00</rpm>
</extensions>
</trkpt>
<trkpt lat="64.033271790" lon="-19.129882813">
<ele>572.906250</ele>
<time>2012-07-22T13:01:36Z</time>
<speed>0.910000</speed>
<extensions>
<speed>0.9</speed>
<temp>0.00</temp>
<bpm>0</bpm>
<rpm>0.00</rpm>
</extensions>
</trkpt>
<trkpt lat="64.033309937" lon="-19.129823685">
<ele>574.343750</ele>
<time>2012-07-22T13:01:41Z</time>
<speed>0.920000</speed>
<extensions>
<speed>0.9</speed>
<temp>0.00</temp>
<bpm>0</bpm>
<rpm>0.00</rpm>
</extensions>
</trkpt>
<trkpt lat="64.033340454" lon="-19.129768372">
<ele>575.656250</ele>
<time>2012-07-22T13:01:46Z</time>
<speed>0.970000</speed>
<extensions>
<speed>1.0</speed>
<temp>0.00</temp>
<bpm>0</bpm>
<rpm>0.00</rpm>
</extensions>
</trkpt>
<trkpt lat="64.033378601" lon="-19.129688263">
<ele>576.093750</ele>
<time>2012-07-22T13:01:51Z</time>
<speed>0.820000</speed>
<extensions>
<speed>0.8</speed>
<temp>0.00</temp>
<bpm>0</bpm>
<rpm>0.00</rpm>
</extensions>
</trkpt>
<trkpt lat="64.033409119" lon="-19.129623413">
<ele>576.296875</ele>
<time>2012-07-22T13:01:56Z</time>
<speed>0.620000</speed>
<extensions>
<speed>0.6</speed>
<temp>0.00</temp>
<bpm>0</bpm>
<rpm>0.00</rpm>
</extensions>
</trkpt>
<trkpt lat="64.033432007" lon="-19.129590988">
<ele>576.281250</ele>
<time>2012-07-22T13:02:01Z</time>
<speed>0.600000</speed>
<extensions>
<speed>0.6</speed>
<temp>0.00</temp>
<bpm>0</bpm>
<rpm>0.00</rpm>
</extensions>
</trkpt>
<trkpt lat="64.033454895" lon="-19.129543304">
<ele>576.875000</ele>
<time>2012-07-22T13:02:06Z</time>
<speed>0.530000</speed>
<extensions>
<speed>0.5</speed>
<temp>0.00</temp>
<bpm>0</bpm>
<rpm>0.00</rpm>
</extensions>
</trkpt>
<trkpt lat="64.033485413" lon="-19.129533768">
<ele>577.484375</ele>
<time>2012-07-22T13:02:11Z</time>
<speed>0.130000</speed>
<extensions>
<speed>0.1</speed>
<temp>0.00</temp>
<bpm>0</bpm>
<rpm>0.00</rpm>
</extensions>
</trkpt>
<trkpt lat="64.033493042" lon="-19.129531860">
<ele>577.640625</ele>
<time>2012-07-22T13:02:16Z</time>
<speed>0.110000</speed>
<extensions>
<speed>0.1</speed>
<temp>0.00</temp>
<bpm>0</bpm>
<rpm>0.00</rpm>
</extensions>
</trkpt>
<trkpt lat="64.033500671" lon="-19.129503250">
<ele>578.078125</ele>
<time>2012-07-22T13:02:21Z</time>
<speed>0.710000</speed>
<extensions>
<speed>0.7</speed>
<temp>0.00</temp>
<bpm>0</bpm>
<rpm>0.00</rpm>
</extensions>
</trkpt>
<trkpt lat="64.033531189" lon="-19.129451752">
<ele>578.250000</ele>
<time>2012-07-22T13:02:26Z</time>
<speed>0.760000</speed>
<extensions>
<speed>0.8</speed>
<temp>0.00</temp>
<bpm>0</bpm>
<rpm>0.00</rpm>
</extensions>
</trkpt>
<trkpt lat="64.033569336" lon="-19.129411697">
<ele>579.046875</ele>
<time>2012-07-22T13:02:31Z</time>
<speed>0.840000</speed>
<extensions>
<speed>0.8</speed>
<temp>0.00</temp>
<bpm>0</bpm>
<rpm>0.00</rpm>
</extensions>
</trkpt>
<trkpt lat="64.033607483" lon="-19.129384995">
<ele>579.718750</ele>
<time>2012-07-22T13:02:36Z</time>
<speed>0.670000</speed>
<extensions>
<speed>0.7</speed>
<temp>0.00</temp>
<bpm>0</bpm>
<rpm>0.00</rpm>
</extensions>
</trkpt>
<trkpt lat="64.033638000" lon="-19.129352570">
<ele>580.437500</ele>
<time>2012-07-22T13:02:41Z</time>
<speed>1.050000</speed>
<extensions>
<speed>1.0</speed>
<temp>0.00</temp>
<bpm>0</bpm>
<rpm>0.00</rpm>
</extensions>
</trkpt>
<trkpt lat="64.033683777" lon="-19.129331589">
<ele>581.046875</ele>
<time>2012-07-22T13:02:46Z</time>
<speed>1.230000</speed>
<extensions>
<speed>1.2</speed>
<temp>0.00</temp>
<bpm>0</bpm>
<rpm>0.00</rpm>
</extensions>
</trkpt>
<trkpt lat="64.033744812" lon="-19.129339218">
<ele>581.546875</ele>
<time>2012-07-22T13:02:51Z</time>
<speed>1.300000</speed>
<extensions>
<speed>1.3</speed>
<temp>0.00</temp>
<bpm>0</bpm>
<rpm>0.00</rpm>
</extensions>
</trkpt>
<trkpt lat="64.033790588" lon="-19.129343033">
<ele>581.343750</ele>
<time>2012-07-22T13:02:56Z</time>
<speed>1.240000</speed>
<extensions>
<speed>1.2</speed>
<temp>0.00</temp>
<bpm>0</bpm>
<rpm>0.00</rpm>
</extensions>
</trkpt>
<trkpt lat="64.033836365" lon="-19.129356384">
<ele>581.031250</ele>
<time>2012-07-22T13:03:01Z</time>
<speed>1.290000</speed>
<extensions>
<speed>1.3</speed>
<temp>0.00</temp>
<bpm>0</bpm>
<rpm>0.00</rpm>
</extensions>
</trkpt>
<trkpt lat="64.033897400" lon="-19.129373550">
<ele>580.812500</ele>
<time>2012-07-22T13:03:06Z</time>
<speed>1.210000</speed>
<extensions>
<speed>1.2</speed>
<temp>0.00</temp>
<bpm>0</bpm>
<rpm>0.00</rpm>
</extensions>
</trkpt>
<trkpt lat="64.033950806" lon="-19.129428864">
<ele>580.703125</ele>
<time>2012-07-22T13:03:11Z</time>
<speed>1.230000</speed>
<extensions>
<speed>1.2</speed>
<temp>0.00</temp>
<bpm>0</bpm>
<rpm>0.00</rpm>
</extensions>
</trkpt>
<trkpt lat="64.034011841" lon="-19.129463196">
<ele>580.812500</ele>
<time>2012-07-22T13:03:16Z</time>
<speed>1.340000</speed>
<extensions>
<speed>1.3</speed>
<temp>0.00</temp>
<bpm>0</bpm>
<rpm>0.00</rpm>
</extensions>
</trkpt>
<trkpt lat="64.034065247" lon="-19.129507065">
<ele>580.609375</ele>
<time>2012-07-22T13:03:21Z</time>
<speed>1.290000</speed>
<extensions>
<speed>1.3</speed>
<temp>0.00</temp>
<bpm>0</bpm>
<rpm>0.00</rpm>
</extensions>
</trkpt>
<trkpt lat="64.034118652" lon="-19.129526138">
<ele>580.406250</ele>
<time>2012-07-22T13:03:26Z</time>
<speed>1.260000</speed>
<extensions>
<speed>1.3</speed>
<temp>0.00</temp>
<bpm>0</bpm>
<rpm>0.00</rpm>
</extensions>
</trkpt>
<trkpt lat="64.034179688" lon="-19.129516602">
<ele>580.546875</ele>
<time>2012-07-22T13:03:31Z</time>
<speed>1.160000</speed>
<extensions>
<speed>1.2</speed>
<temp>0.00</temp>
<bpm>0</bpm>
<rpm>0.00</rpm>
</extensions>
</trkpt>
<trkpt lat="64.034225464" lon="-19.129503250">
<ele>581.125000</ele>
<time>2012-07-22T13:03:36Z</time>
<speed>1.220000</speed>
<extensions>
<speed>1.2</speed>
<temp>0.00</temp>
<bpm>0</bpm>
<rpm>0.00</rpm>
</extensions>
</trkpt>
<trkpt lat="64.034271240" lon="-19.129470825">
<ele>582.312500</ele>
<time>2012-07-22T13:03:41Z</time>
<speed>0.980000</speed>
<extensions>
<speed>1.0</speed>
<temp>0.00</temp>
<bpm>0</bpm>
<rpm>0.00</rpm>
</extensions>
</trkpt>
<trkpt lat="64.034301758" lon="-19.129421234">
<ele>582.687500</ele>
<time>2012-07-22T13:03:46Z</time>
<speed>1.090000</speed>
<extensions>
<speed>1.1</speed>
<temp>0.00</temp>
<bpm>0</bpm>
<rpm>0.00</rpm>
</extensions>
</trkpt>
<trkpt lat="64.034339905" lon="-19.129335403">
<ele>583.718750</ele>
<time>2012-07-22T13:03:51Z</time>
<speed>1.060000</speed>
<extensions>
<speed>1.1</speed>
<temp>0.00</temp>
<bpm>0</bpm>
<rpm>0.00</rpm>
</extensions>
</trkpt>
<trkpt lat="64.034370422" lon="-19.129268646">
<ele>583.750000</ele>
<time>2012-07-22T13:03:56Z</time>
<speed>0.890000</speed>
<extensions>
<speed>0.9</speed>
<temp>0.00</temp>
<bpm>0</bpm>
<rpm>0.00</rpm>
</extensions>
</trkpt>
<trkpt lat="64.034378052" lon="-19.129169464">
<ele>584.156250</ele>
<time>2012-07-22T13:04:01Z</time>
<speed>0.820000</speed>
<extensions>
<speed>0.8</speed>
<temp>0.00</temp>
<bpm>0</bpm>
<rpm>0.00</rpm>
</extensions>
</trkpt>
<trkpt lat="64.034362793" lon="-19.129076004">
<ele>584.625000</ele>
<time>2012-07-22T13:04:06Z</time>
<speed>1.140000</speed>
<extensions>
<speed>1.1</speed>
<temp>0.00</temp>
<bpm>0</bpm>
<rpm>0.00</rpm>
</extensions>
</trkpt>
<trkpt lat="64.034355164" lon="-19.128978729">
<ele>585.062500</ele>
<time>2012-07-22T13:04:11Z</time>
<speed>0.970000</speed>
<extensions>
<speed>1.0</speed>
<temp>0.00</temp>
<bpm>0</bpm>
<rpm>0.00</rpm>
</extensions>
</trkpt>
<trkpt lat="64.034355164" lon="-19.128892899">
<ele>586.078125</ele>
<time>2012-07-22T13:04:16Z</time>
<speed>1.200000</speed>
<extensions>
<speed>1.2</speed>
<temp>0.00</temp>
<bpm>0</bpm>
<rpm>0.00</rpm>
</extensions>
</trkpt>
<trkpt lat="64.034339905" lon="-19.128805161">
<ele>586.515625</ele>
<time>2012-07-22T13:04:21Z</time>
<speed>0.910000</speed>
<extensions>
<speed>0.9</speed>
<temp>0.00</temp>
<bpm>0</bpm>
<rpm>0.00</rpm>
</extensions>
</trkpt>
<trkpt lat="64.034317017" lon="-19.128728867">
<ele>586.406250</ele>
<time>2012-07-22T13:04:26Z</time>
<speed>0.990000</speed>
<extensions>
<speed>1.0</speed>
<temp>0.00</temp>
<bpm>0</bpm>
<rpm>0.00</rpm>
</extensions>
</trkpt>
<trkpt lat="64.034309387" lon="-19.128631592">
<ele>587.031250</ele>
<time>2012-07-22T13:04:31Z</time>
<speed>0.890000</speed>
<extensions>
<speed>0.9</speed>
<temp>0.00</temp>
<bpm>0</bpm>
<rpm>0.00</rpm>
</extensions>
</trkpt>
<trkpt lat="64.034301758" lon="-19.128534317">
<ele>587.515625</ele>
<time>2012-07-22T13:04:36Z</time>
<speed>0.840000</speed>
<extensions>
<speed>0.8</speed>
<temp>0.00</temp>
<bpm>0</bpm>
<rpm>0.00</rpm>
</extensions>
</trkpt>
<trkpt lat="64.034301758" lon="-19.128440857">
<ele>588.125000</ele>
<time>2012-07-22T13:04:41Z</time>
<speed>0.940000</speed>
<extensions>
<speed>0.9</speed>
<temp>0.00</temp>
<bpm>0</bpm>
<rpm>0.00</rpm>
</extensions>
</trkpt>
<trkpt lat="64.034317017" lon="-19.128316879">
<ele>589.078125</ele>
<time>2012-07-22T13:04:46Z</time>
<speed>0.970000</speed>
<extensions>
<speed>1.0</speed>
<temp>0.00</temp>
<bpm>0</bpm>
<rpm>0.00</rpm>
</extensions>
</trkpt>
<trkpt lat="64.034324646" lon="-19.128208160">
<ele>589.656250</ele>
<time>2012-07-22T13:04:51Z</time>
<speed>0.940000</speed>
<extensions>
<speed>0.9</speed>
<temp>0.00</temp>
<bpm>0</bpm>
<rpm>0.00</rpm>
</extensions>
</trkpt>
<trkpt lat="64.034339905" lon="-19.128118515">
<ele>591.000000</ele>
<time>2012-07-22T13:04:56Z</time>
<speed>0.740000</speed>
<extensions>
<speed>0.7</speed>
<temp>0.00</temp>
<bpm>0</bpm>
<rpm>0.00</rpm>
</extensions>
</trkpt>
<trkpt lat="64.034339905" lon="-19.128042221">
<ele>591.312500</ele>
<time>2012-07-22T13:05:01Z</time>
<speed>1.000000</speed>
<extensions>
<speed>1.0</speed>
<temp>0.00</temp>
<bpm>0</bpm>
<rpm>0.00</rpm>
</extensions>
</trkpt>
<trkpt lat="64.034355164" lon="-19.127977371">
<ele>591.500000</ele>
<time>2012-07-22T13:05:06Z</time>
<speed>0.930000</speed>
<extensions>
<speed>0.9</speed>
<temp>0.00</temp>
<bpm>0</bpm>
<rpm>0.00</rpm>
</extensions>
</trkpt>
<trkpt lat="64.034370422" lon="-19.127895355">
<ele>591.437500</ele>
<time>2012-07-22T13:05:11Z</time>
<speed>0.880000</speed>
<extensions>
<speed>0.9</speed>
<temp>0.00</temp>
<bpm>0</bpm>
<rpm>0.00</rpm>
</extensions>
</trkpt>
<trkpt lat="64.034385681" lon="-19.127807617">
<ele>591.312500</ele>
<time>2012-07-22T13:05:16Z</time>
<speed>1.070000</speed>
<extensions>
<speed>1.1</speed>
<temp>0.00</temp>
<bpm>0</bpm>
<rpm>0.00</rpm>
</extensions>
</trkpt>
<trkpt lat="64.034423828" lon="-19.127696991">
<ele>592.031250</ele>
<time>2012-07-22T13:05:21Z</time>
<speed>1.040000</speed>
<extensions>
<speed>1.0</speed>
<temp>0.00</temp>
<bpm>0</bpm>
<rpm>0.00</rpm>
</extensions>
</trkpt>
<trkpt lat="64.034446716" lon="-19.127603531">
<ele>593.093750</ele>
<time>2012-07-22T13:05:26Z</time>
<speed>1.110000</speed>
<extensions>
<speed>1.1</speed>
<temp>0.00</temp>
<bpm>0</bpm>
<rpm>0.00</rpm>
</extensions>
</trkpt>
<trkpt lat="64.034477234" lon="-19.127508163">
<ele>594.000000</ele>
<time>2012-07-22T13:05:31Z</time>
<speed>1.200000</speed>
<extensions>
<speed>1.2</speed>
<temp>0.00</temp>
<bpm>0</bpm>
<rpm>0.00</rpm>
</extensions>
</trkpt>
<trkpt lat="64.034500122" lon="-19.127429962">
<ele>594.593750</ele>
<time>2012-07-22T13:05:36Z</time>
<speed>0.990000</speed>
<extensions>
<speed>1.0</speed>
<temp>0.00</temp>
<bpm>0</bpm>
<rpm>0.00</rpm>
</extensions>
</trkpt>
<trkpt lat="64.034523010" lon="-19.127344131">
<ele>595.218750</ele>
<time>2012-07-22T13:05:41Z</time>
<speed>1.080000</speed>
<extensions>
<speed>1.1</speed>
<temp>0.00</temp>
<bpm>0</bpm>
<rpm>0.00</rpm>
</extensions>
</trkpt>
<trkpt lat="64.034538269" lon="-19.127271652">
<ele>595.625000</ele>
<time>2012-07-22T13:05:46Z</time>
<speed>0.690000</speed>
<extensions>
<speed>0.7</speed>
<temp>0.00</temp>
<bpm>0</bpm>
<rpm>0.00</rpm>
</extensions>
</trkpt>
<trkpt lat="64.034553528" lon="-19.127187729">
<ele>595.781250</ele>
<time>2012-07-22T13:05:51Z</time>
<speed>0.530000</speed>
<extensions>
<speed>0.5</speed>
<temp>0.00</temp>
<bpm>0</bpm>
<rpm>0.00</rpm>
</extensions>
</trkpt>
<trkpt lat="64.034545898" lon="-19.127109528">
<ele>596.328125</ele>
<time>2012-07-22T13:05:56Z</time>
<speed>0.860000</speed>
<extensions>
<speed>0.9</speed>
<temp>0.00</temp>
<bpm>0</bpm>
<rpm>0.00</rpm>
</extensions>
</trkpt>
<trkpt lat="64.034538269" lon="-19.127033234">
<ele>597.015625</ele>
<time>2012-07-22T13:06:01Z</time>
<speed>0.930000</speed>
<extensions>
<speed>0.9</speed>
<temp>0.00</temp>
<bpm>0</bpm>
<rpm>0.00</rpm>
</extensions>
</trkpt>
<trkpt lat="64.034545898" lon="-19.126943588">
<ele>597.406250</ele>
<time>2012-07-22T13:06:06Z</time>
<speed>0.810000</speed>
<extensions>
<speed>0.8</speed>
<temp>0.00</temp>
<bpm>0</bpm>
<rpm>0.00</rpm>
</extensions>
</trkpt>
<trkpt lat="64.034553528" lon="-19.126886368">
<ele>596.937500</ele>
<time>2012-07-22T13:06:11Z</time>
<speed>0.060000</speed>
<extensions>
<speed>0.1</speed>
<temp>0.00</temp>
<bpm>0</bpm>
<rpm>0.00</rpm>
</extensions>
</trkpt>
<trkpt lat="64.034545898" lon="-19.126840591">
<ele>596.406250</ele>
<time>2012-07-22T13:06:16Z</time>
<speed>0.190000</speed>
<extensions>
<speed>0.2</speed>
<temp>0.00</temp>
<bpm>0</bpm>
<rpm>0.00</rpm>
</extensions>
</trkpt>
<trkpt lat="64.034545898" lon="-19.126827240">
<ele>596.343750</ele>
<time>2012-07-22T13:06:21Z</time>
<speed>0.120000</speed>
<extensions>
<speed>0.1</speed>
<temp>0.00</temp>
<bpm>0</bpm>
<rpm>0.00</rpm>
</extensions>
</trkpt>
<trkpt lat="64.034545898" lon="-19.126825333">
<ele>596.328125</ele>
<time>2012-07-22T13:06:26Z</time>
<speed>0.020000</speed>
<extensions>
<speed>0.0</speed>
<temp>0.00</temp>
<bpm>0</bpm>
<rpm>0.00</rpm>
</extensions>
</trkpt>
<trkpt lat="64.034545898" lon="-19.126743317">
<ele>596.265625</ele>
<time>2012-07-22T13:06:31Z</time>
<speed>1.740000</speed>
<extensions>
<speed>1.7</speed>
<temp>0.00</temp>
<bpm>0</bpm>
<rpm>0.00</rpm>
</extensions>
</trkpt>
<trkpt lat="64.034576416" lon="-19.126476288">
<ele>594.937500</ele>
<time>2012-07-22T13:06:36Z</time>
<speed>2.900000</speed>
<extensions>
<speed>2.9</speed>
<temp>0.00</temp>
<bpm>0</bpm>
<rpm>0.00</rpm>
</extensions>
</trkpt>
<trkpt lat="64.034614563" lon="-19.126255035">
<ele>595.015625</ele>
<time>2012-07-22T13:06:41Z</time>
<speed>2.300000</speed>
<extensions>
<speed>2.3</speed>
<temp>0.00</temp>
<bpm>0</bpm>
<rpm>0.00</rpm>
</extensions>
</trkpt>
<trkpt lat="64.034683228" lon="-19.126085281">
<ele>595.578125</ele>
<time>2012-07-22T13:06:46Z</time>
<speed>1.990000</speed>
<extensions>
<speed>2.0</speed>
<temp>0.00</temp>
<bpm>0</bpm>
<rpm>0.00</rpm>
</extensions>
</trkpt>
<trkpt lat="64.034736633" lon="-19.125968933">
<ele>596.140625</ele>
<time>2012-07-22T13:06:51Z</time>
<speed>1.570000</speed>
<extensions>
<speed>1.6</speed>
<temp>0.00</temp>
<bpm>0</bpm>
<rpm>0.00</rpm>
</extensions>
</trkpt>
<trkpt lat="64.034782410" lon="-19.125873566">
<ele>597.093750</ele>
<time>2012-07-22T13:06:56Z</time>
<speed>1.590000</speed>
<extensions>
<speed>1.6</speed>
<temp>0.00</temp>
<bpm>0</bpm>
<rpm>0.00</rpm>
</extensions>
</trkpt>
<trkpt lat="64.034820557" lon="-19.125785828">
<ele>597.500000</ele>
<time>2012-07-22T13:07:01Z</time>
<speed>0.870000</speed>
<extensions>
<speed>0.9</speed>
<temp>0.00</temp>
<bpm>0</bpm>
<rpm>0.00</rpm>
</extensions>
</trkpt>
<trkpt lat="64.034843445" lon="-19.125713348">
<ele>597.734375</ele>
<time>2012-07-22T13:07:06Z</time>
<speed>1.110000</speed>
<extensions>
<speed>1.1</speed>
<temp>0.00</temp>
<bpm>0</bpm>
<rpm>0.00</rpm>
</extensions>
</trkpt>
<trkpt lat="64.034873962" lon="-19.125606537">
<ele>598.468750</ele>
<time>2012-07-22T13:07:11Z</time>
<speed>1.320000</speed>
<extensions>
<speed>1.3</speed>
<temp>0.00</temp>
<bpm>0</bpm>
<rpm>0.00</rpm>
</extensions>
</trkpt>
<trkpt lat="64.034904480" lon="-19.125461578">
<ele>599.015625</ele>
<time>2012-07-22T13:07:16Z</time>
<speed>1.480000</speed>
<extensions>
<speed>1.5</speed>
<temp>0.00</temp>
<bpm>0</bpm>
<rpm>0.00</rpm>
</extensions>
</trkpt>
<trkpt lat="64.034904480" lon="-19.125307083">
<ele>599.250000</ele>
<time>2012-07-22T13:07:21Z</time>
<speed>1.470000</speed>
<extensions>
<speed>1.5</speed>
<temp>0.00</temp>
<bpm>0</bpm>
<rpm>0.00</rpm>
</extensions>
</trkpt>
<trkpt lat="64.034889221" lon="-19.125160217">
<ele>599.921875</ele>
<time>2012-07-22T13:07:26Z</time>
<speed>1.340000</speed>
<extensions>
<speed>1.3</speed>
<temp>0.00</temp>
<bpm>0</bpm>
<rpm>0.00</rpm>
</extensions>
</trkpt>
<trkpt lat="64.034873962" lon="-19.125047684">
<ele>600.828125</ele>
<time>2012-07-22T13:07:31Z</time>
<speed>1.220000</speed>
<extensions>
<speed>1.2</speed>
<temp>0.00</temp>
<bpm>0</bpm>
<rpm>0.00</rpm>
</extensions>
</trkpt>
<trkpt lat="64.034843445" lon="-19.124925613">
<ele>601.406250</ele>
<time>2012-07-22T13:07:36Z</time>
<speed>0.950000</speed>
<extensions>
<speed>1.0</speed>
<temp>0.00</temp>
<bpm>0</bpm>
<rpm>0.00</rpm>
</extensions>
</trkpt>
<trkpt lat="64.034820557" lon="-19.124811172">
<ele>602.031250</ele>
<time>2012-07-22T13:07:41Z</time>
<speed>1.420000</speed>
<extensions>
<speed>1.4</speed>
<temp>0.00</temp>
<bpm>0</bpm>
<rpm>0.00</rpm>
</extensions>
</trkpt>
<trkpt lat="64.034790039" lon="-19.124673843">
<ele>602.390625</ele>
<time>2012-07-22T13:07:46Z</time>
<speed>1.410000</speed>
<extensions>
<speed>1.4</speed>
<temp>0.00</temp>
<bpm>0</bpm>
<rpm>0.00</rpm>
</extensions>
</trkpt>
<trkpt lat="64.034759521" lon="-19.124532700">
<ele>603.343750</ele>
<time>2012-07-22T13:07:51Z</time>
<speed>1.240000</speed>
<extensions>
<speed>1.2</speed>
<temp>0.00</temp>
<bpm>0</bpm>
<rpm>0.00</rpm>
</extensions>
</trkpt>
<trkpt lat="64.034744263" lon="-19.124416351">
<ele>603.921875</ele>
<time>2012-07-22T13:07:56Z</time>
<speed>1.540000</speed>
<extensions>
<speed>1.5</speed>
<temp>0.00</temp>
<bpm>0</bpm>
<rpm>0.00</rpm>
</extensions>
</trkpt>
<trkpt lat="64.034706116" lon="-19.124300003">
<ele>604.359375</ele>
<time>2012-07-22T13:08:01Z</time>
<speed>1.400000</speed>
<extensions>
<speed>1.4</speed>
<temp>0.00</temp>
<bpm>0</bpm>
<rpm>0.00</rpm>
</extensions>
</trkpt>
<trkpt lat="64.034690857" lon="-19.124179840">
<ele>604.812500</ele>
<time>2012-07-22T13:08:06Z</time>
<speed>0.980000</speed>
<extensions>
<speed>1.0</speed>
<temp>0.00</temp>
<bpm>0</bpm>
<rpm>0.00</rpm>
</extensions>
</trkpt>
<trkpt lat="64.034660339" lon="-19.124057770">
<ele>605.500000</ele>
<time>2012-07-22T13:08:11Z</time>
<speed>1.740000</speed>
<extensions>
<speed>1.7</speed>
<temp>0.00</temp>
<bpm>0</bpm>
<rpm>0.00</rpm>
</extensions>
</trkpt>
<trkpt lat="64.034629822" lon="-19.123891830">
<ele>606.125000</ele>
<time>2012-07-22T13:08:16Z</time>
<speed>1.600000</speed>
<extensions>
<speed>1.6</speed>
<temp>0.00</temp>
<bpm>0</bpm>
<rpm>0.00</rpm>
</extensions>
</trkpt>
<trkpt lat="64.034599304" lon="-19.123760223">
<ele>606.421875</ele>
<time>2012-07-22T13:08:21Z</time>
<speed>1.370000</speed>
<extensions>
<speed>1.4</speed>
<temp>0.00</temp>
<bpm>0</bpm>
<rpm>0.00</rpm>
</extensions>
</trkpt>
<trkpt lat="64.034576416" lon="-19.123626709">
<ele>606.375000</ele>
<time>2012-07-22T13:08:26Z</time>
<speed>1.380000</speed>
<extensions>
<speed>1.4</speed>
<temp>0.00</temp>
<bpm>0</bpm>
<rpm>0.00</rpm>
</extensions>
</trkpt>
<trkpt lat="64.034545898" lon="-19.123516083">
<ele>606.984375</ele>
<time>2012-07-22T13:08:31Z</time>
<speed>1.470000</speed>
<extensions>
<speed>1.5</speed>
<temp>0.00</temp>
<bpm>0</bpm>
<rpm>0.00</rpm>
</extensions>
</trkpt>
<trkpt lat="64.034530640" lon="-19.123435974">
<ele>607.875000</ele>
<time>2012-07-22T13:08:36Z</time>
<speed>0.180000</speed>
<extensions>
<speed>0.2</speed>
<temp>0.00</temp>
<bpm>0</bpm>
<rpm>0.00</rpm>
</extensions>
</trkpt>
<trkpt lat="64.034523010" lon="-19.123426437">
<ele>608.562500</ele>
<time>2012-07-22T13:08:41Z</time>
<speed>0.390000</speed>
<extensions>
<speed>0.4</speed>
<temp>0.00</temp>
<bpm>0</bpm>
<rpm>0.00</rpm>
</extensions>
</trkpt>
<trkpt lat="64.034507751" lon="-19.123373032">
<ele>609.515625</ele>
<time>2012-07-22T13:08:46Z</time>
<speed>0.710000</speed>
<extensions>
<speed>0.7</speed>
<temp>0.00</temp>
<bpm>0</bpm>
<rpm>0.00</rpm>
</extensions>
</trkpt>
<trkpt lat="64.034492493" lon="-19.123321533">
<ele>610.125000</ele>
<time>2012-07-22T13:08:51Z</time>
<speed>0.940000</speed>
<extensions>
<speed>0.9</speed>
<temp>0.00</temp>
<bpm>0</bpm>
<rpm>0.00</rpm>
</extensions>
</trkpt>
<trkpt lat="64.034477234" lon="-19.123245239">
<ele>610.578125</ele>
<time>2012-07-22T13:08:56Z</time>
<speed>0.690000</speed>
<extensions>
<speed>0.7</speed>
<temp>0.00</temp>
<bpm>0</bpm>
<rpm>0.00</rpm>
</extensions>
</trkpt>
<trkpt lat="64.034477234" lon="-19.123191833">
<ele>610.500000</ele>
<time>2012-07-22T13:09:01Z</time>
<speed>0.360000</speed>
<extensions>
<speed>0.4</speed>
<temp>0.00</temp>
<bpm>0</bpm>
<rpm>0.00</rpm>
</extensions>
</trkpt>
<trkpt lat="64.034454346" lon="-19.123147964">
<ele>611.234375</ele>
<time>2012-07-22T13:09:06Z</time>
<speed>0.590000</speed>
<extensions>
<speed>0.6</speed>
<temp>0.00</temp>
<bpm>0</bpm>
<rpm>0.00</rpm>
</extensions>
</trkpt>
<trkpt lat="64.034439087" lon="-19.123109818">
<ele>612.078125</ele>
<time>2012-07-22T13:09:11Z</time>
<speed>0.700000</speed>
<extensions>
<speed>0.7</speed>
<temp>0.00</temp>
<bpm>0</bpm>
<rpm>0.00</rpm>
</extensions>
</trkpt>
<trkpt lat="64.034416199" lon="-19.123052597">
<ele>612.781250</ele>
<time>2012-07-22T13:09:16Z</time>
<speed>0.560000</speed>
<extensions>
<speed>0.6</speed>
<temp>0.00</temp>
<bpm>0</bpm>
<rpm>0.00</rpm>
</extensions>
</trkpt>
<trkpt lat="64.034400940" lon="-19.123012543">
<ele>613.468750</ele>
<time>2012-07-22T13:09:21Z</time>
<speed>0.720000</speed>
<extensions>
<speed>0.7</speed>
<temp>0.00</temp>
<bpm>0</bpm>
<rpm>0.00</rpm>
</extensions>
</trkpt>
<trkpt lat="64.034370422" lon="-19.122966766">
<ele>613.781250</ele>
<time>2012-07-22T13:09:26Z</time>
<speed>0.580000</speed>
<extensions>
<speed>0.6</speed>
<temp>0.00</temp>
<bpm>0</bpm>
<rpm>0.00</rpm>
</extensions>
</trkpt>
<trkpt lat="64.034355164" lon="-19.122922897">
<ele>614.781250</ele>
<time>2012-07-22T13:09:31Z</time>
<speed>0.690000</speed>
<extensions>
<speed>0.7</speed>
<temp>0.00</temp>
<bpm>0</bpm>
<rpm>0.00</rpm>
</extensions>
</trkpt>
<trkpt lat="64.034324646" lon="-19.122877121">
<ele>615.234375</ele>
<time>2012-07-22T13:09:36Z</time>
<speed>0.800000</speed>
<extensions>
<speed>0.8</speed>
<temp>0.00</temp>
<bpm>0</bpm>
<rpm>0.00</rpm>
</extensions>
</trkpt>
<trkpt lat="64.034294128" lon="-19.122823715">
<ele>615.765625</ele>
<time>2012-07-22T13:09:41Z</time>
<speed>0.900000</speed>
<extensions>
<speed>0.9</speed>
<temp>0.00</temp>
<bpm>0</bpm>
<rpm>0.00</rpm>
</extensions>
</trkpt>
<trkpt lat="64.034255981" lon="-19.122772217">
<ele>616.062500</ele>
<time>2012-07-22T13:09:46Z</time>
<speed>0.600000</speed>
<extensions>
<speed>0.6</speed>
<temp>0.00</temp>
<bpm>0</bpm>
<rpm>0.00</rpm>
</extensions>
</trkpt>
<trkpt lat="64.034233093" lon="-19.122735977">
<ele>616.906250</ele>
<time>2012-07-22T13:09:51Z</time>
<speed>0.850000</speed>
<extensions>
<speed>0.8</speed>
<temp>0.00</temp>
<bpm>0</bpm>
<rpm>0.00</rpm>
</extensions>
</trkpt>
<trkpt lat="64.034217834" lon="-19.122686386">
<ele>617.250000</ele>
<time>2012-07-22T13:09:56Z</time>
<speed>0.760000</speed>
<extensions>
<speed>0.8</speed>
<temp>0.00</temp>
<bpm>0</bpm>
<rpm>0.00</rpm>
</extensions>
</trkpt>
<trkpt lat="64.034202576" lon="-19.122636795">
<ele>617.593750</ele>
<time>2012-07-22T13:10:01Z</time>
<speed>0.760000</speed>
<extensions>
<speed>0.8</speed>
<temp>0.00</temp>
<bpm>0</bpm>
<rpm>0.00</rpm>
</extensions>
</trkpt>
<trkpt lat="64.034172058" lon="-19.122589111">
<ele>618.453125</ele>
<time>2012-07-22T13:10:06Z</time>
<speed>0.600000</speed>
<extensions>
<speed>0.6</speed>
<temp>0.00</temp>
<bpm>0</bpm>
<rpm>0.00</rpm>
</extensions>
</trkpt>
<trkpt lat="64.034149170" lon="-19.122541428">
<ele>618.921875</ele>
<time>2012-07-22T13:10:11Z</time>
<speed>0.510000</speed>
<extensions>
<speed>0.5</speed>
<temp>0.00</temp>
<bpm>0</bpm>
<rpm>0.00</rpm>
</extensions>
</trkpt>
<trkpt lat="64.034126282" lon="-19.122484207">
<ele>619.375000</ele>
<time>2012-07-22T13:10:16Z</time>
<speed>0.820000</speed>
<extensions>
<speed>0.8</speed>
<temp>0.00</temp>
<bpm>0</bpm>
<rpm>0.00</rpm>
</extensions>
</trkpt>
<trkpt lat="64.034103394" lon="-19.122438431">
<ele>620.171875</ele>
<time>2012-07-22T13:10:21Z</time>
<speed>0.510000</speed>
<extensions>
<speed>0.5</speed>
<temp>0.00</temp>
<bpm>0</bpm>
<rpm>0.00</rpm>
</extensions>
</trkpt>
<trkpt lat="64.034080505" lon="-19.122396469">
<ele>620.000000</ele>
<time>2012-07-22T13:10:26Z</time>
<speed>0.590000</speed>
<extensions>
<speed>0.6</speed>
<temp>0.00</temp>
<bpm>0</bpm>
<rpm>0.00</rpm>
</extensions>
</trkpt>
<trkpt lat="64.034049988" lon="-19.122348785">
<ele>620.906250</ele>
<time>2012-07-22T13:10:31Z</time>
<speed>0.740000</speed>
<extensions>
<speed>0.7</speed>
<temp>0.00</temp>
<bpm>0</bpm>
<rpm>0.00</rpm>
</extensions>
</trkpt>
<trkpt lat="64.034004211" lon="-19.122299194">
<ele>621.531250</ele>
<time>2012-07-22T13:10:36Z</time>
<speed>1.170000</speed>
<extensions>
<speed>1.2</speed>
<temp>0.00</temp>
<bpm>0</bpm>
<rpm>0.00</rpm>
</extensions>
</trkpt>
<trkpt lat="64.033981323" lon="-19.122228622">
<ele>621.656250</ele>
<time>2012-07-22T13:10:41Z</time>
<speed>0.940000</speed>
<extensions>
<speed>0.9</speed>
<temp>0.00</temp>
<bpm>0</bpm>
<rpm>0.00</rpm>
</extensions>
</trkpt>
<trkpt lat="64.033943176" lon="-19.122135162">
<ele>621.390625</ele>
<time>2012-07-22T13:10:46Z</time>
<speed>1.100000</speed>
<extensions>
<speed>1.1</speed>
<temp>0.00</temp>
<bpm>0</bpm>
<rpm>0.00</rpm>
</extensions>
</trkpt>
<trkpt lat="64.033912659" lon="-19.122049332">
<ele>621.625000</ele>
<time>2012-07-22T13:10:51Z</time>
<speed>1.070000</speed>
<extensions>
<speed>1.1</speed>
<temp>0.00</temp>
<bpm>0</bpm>
<rpm>0.00</rpm>
</extensions>
</trkpt>
<trkpt lat="64.033889771" lon="-19.121992111">
<ele>622.328125</ele>
<time>2012-07-22T13:10:56Z</time>
<speed>0.830000</speed>
<extensions>
<speed>0.8</speed>
<temp>0.00</temp>
<bpm>0</bpm>
<rpm>0.00</rpm>
</extensions>
</trkpt>
<trkpt lat="64.033866882" lon="-19.121940613">
<ele>622.953125</ele>
<time>2012-07-22T13:11:01Z</time>
<speed>0.760000</speed>
<extensions>
<speed>0.8</speed>
<temp>0.00</temp>
<bpm>0</bpm>
<rpm>0.00</rpm>
</extensions>
</trkpt>
<trkpt lat="64.033851624" lon="-19.121887207">
<ele>623.625000</ele>
<time>2012-07-22T13:11:06Z</time>
<speed>0.060000</speed>
<extensions>
<speed>0.1</speed>
<temp>0.00</temp>
<bpm>0</bpm>
<rpm>0.00</rpm>
</extensions>
</trkpt>
<trkpt lat="64.033836365" lon="-19.121858597">
<ele>623.734375</ele>
<time>2012-07-22T13:11:11Z</time>
<speed>0.790000</speed>
<extensions>
<speed>0.8</speed>
<temp>0.00</temp>
<bpm>0</bpm>
<rpm>0.00</rpm>
</extensions>
</trkpt>
<trkpt lat="64.033813477" lon="-19.121795654">
<ele>624.046875</ele>
<time>2012-07-22T13:11:16Z</time>
<speed>0.840000</speed>
<extensions>
<speed>0.8</speed>
<temp>0.00</temp>
<bpm>0</bpm>
<rpm>0.00</rpm>
</extensions>
</trkpt>
<trkpt lat="64.033798218" lon="-19.121742249">
<ele>624.281250</ele>
<time>2012-07-22T13:11:21Z</time>
<speed>0.720000</speed>
<extensions>
<speed>0.7</speed>
<temp>0.00</temp>
<bpm>0</bpm>
<rpm>0.00</rpm>
</extensions>
</trkpt>
<trkpt lat="64.033767700" lon="-19.121698380">
<ele>625.093750</ele>
<time>2012-07-22T13:11:26Z</time>
<speed>0.770000</speed>
<extensions>
<speed>0.8</speed>
<temp>0.00</temp>
<bpm>0</bpm>
<rpm>0.00</rpm>
</extensions>
</trkpt>
<trkpt lat="64.033737183" lon="-19.121654510">
<ele>625.718750</ele>
<time>2012-07-22T13:11:31Z</time>
<speed>0.740000</speed>
<extensions>
<speed>0.7</speed>
<temp>0.00</temp>
<bpm>0</bpm>
<rpm>0.00</rpm>
</extensions>
</trkpt>
<trkpt lat="64.033706665" lon="-19.121612549">
<ele>626.000000</ele>
<time>2012-07-22T13:11:36Z</time>
<speed>0.760000</speed>
<extensions>
<speed>0.8</speed>
<temp>0.00</temp>
<bpm>0</bpm>
<rpm>0.00</rpm>
</extensions>
</trkpt>
<trkpt lat="64.033676147" lon="-19.121570587">
<ele>626.640625</ele>
<time>2012-07-22T13:11:41Z</time>
<speed>0.990000</speed>
<extensions>
<speed>1.0</speed>
<temp>0.00</temp>
<bpm>0</bpm>
<rpm>0.00</rpm>
</extensions>
</trkpt>
<trkpt lat="64.033638000" lon="-19.121536255">
<ele>627.296875</ele>
<time>2012-07-22T13:11:46Z</time>
<speed>1.010000</speed>
<extensions>
<speed>1.0</speed>
<temp>0.00</temp>
<bpm>0</bpm>
<rpm>0.00</rpm>
</extensions>
</trkpt>
<trkpt lat="64.033599854" lon="-19.121492386">
<ele>627.843750</ele>
<time>2012-07-22T13:11:51Z</time>
<speed>1.160000</speed>
<extensions>
<speed>1.2</speed>
<temp>0.00</temp>
<bpm>0</bpm>
<rpm>0.00</rpm>
</extensions>
</trkpt>
<trkpt lat="64.033546448" lon="-19.121448517">
<ele>628.593750</ele>
<time>2012-07-22T13:11:56Z</time>
<speed>1.030000</speed>
<extensions>
<speed>1.0</speed>
<temp>0.00</temp>
<bpm>0</bpm>
<rpm>0.00</rpm>
</extensions>
</trkpt>
<trkpt lat="64.033531189" lon="-19.121419907">
<ele>628.796875</ele>
<time>2012-07-22T13:12:01Z</time>
<speed>0.030000</speed>
<extensions>
<speed>0.0</speed>
<temp>0.00</temp>
<bpm>0</bpm>
<rpm>0.00</rpm>
</extensions>
</trkpt>
<trkpt lat="64.033515930" lon="-19.121427536">
<ele>628.781250</ele>
<time>2012-07-22T13:12:06Z</time>
<speed>0.810000</speed>
<extensions>
<speed>0.8</speed>
<temp>0.00</temp>
<bpm>0</bpm>
<rpm>0.00</rpm>
</extensions>
</trkpt>
<trkpt lat="64.033454895" lon="-19.121391296">
<ele>628.593750</ele>
<time>2012-07-22T13:12:11Z</time>
<speed>1.510000</speed>
<extensions>
<speed>1.5</speed>
<temp>0.00</temp>
<bpm>0</bpm>
<rpm>0.00</rpm>
</extensions>
</trkpt>
<trkpt lat="64.033401489" lon="-19.121353149">
<ele>628.546875</ele>
<time>2012-07-22T13:12:16Z</time>
<speed>1.210000</speed>
<extensions>
<speed>1.2</speed>
<temp>0.00</temp>
<bpm>0</bpm>
<rpm>0.00</rpm>
</extensions>
</trkpt>
<trkpt lat="64.033340454" lon="-19.121276855">
<ele>628.593750</ele>
<time>2012-07-22T13:12:21Z</time>
<speed>1.550000</speed>
<extensions>
<speed>1.5</speed>
<temp>0.00</temp>
<bpm>0</bpm>
<rpm>0.00</rpm>
</extensions>
</trkpt>
<trkpt lat="64.033279419" lon="-19.121217728">
<ele>628.562500</ele>
<time>2012-07-22T13:12:26Z</time>
<speed>1.770000</speed>
<extensions>
<speed>1.8</speed>
<temp>0.00</temp>
<bpm>0</bpm>
<rpm>0.00</rpm>
</extensions>
</trkpt>
<trkpt lat="64.033210754" lon="-19.121131897">
<ele>629.000000</ele>
<time>2012-07-22T13:12:31Z</time>
<speed>1.700000</speed>
<extensions>
<speed>1.7</speed>
<temp>0.00</temp>
<bpm>0</bpm>
<rpm>0.00</rpm>
</extensions>
</trkpt>
<trkpt lat="64.033149719" lon="-19.121078491">
<ele>629.578125</ele>
<time>2012-07-22T13:12:36Z</time>
<speed>1.600000</speed>
<extensions>
<speed>1.6</speed>
<temp>0.00</temp>
<bpm>0</bpm>
<rpm>0.00</rpm>
</extensions>
</trkpt>
<trkpt lat="64.033081055" lon="-19.121007919">
<ele>630.406250</ele>
<time>2012-07-22T13:12:41Z</time>
<speed>1.730000</speed>
<extensions>
<speed>1.7</speed>
<temp>0.00</temp>
<bpm>0</bpm>
<rpm>0.00</rpm>
</extensions>
</trkpt>
<trkpt lat="64.033012390" lon="-19.120958328">
<ele>631.078125</ele>
<time>2012-07-22T13:12:46Z</time>
<speed>1.290000</speed>
<extensions>
<speed>1.3</speed>
<temp>0.00</temp>
<bpm>0</bpm>
<rpm>0.00</rpm>
</extensions>
</trkpt>
<trkpt lat="64.032958984" lon="-19.120887756">
<ele>631.953125</ele>
<time>2012-07-22T13:12:51Z</time>
<speed>1.320000</speed>
<extensions>
<speed>1.3</speed>
<temp>0.00</temp>
<bpm>0</bpm>
<rpm>0.00</rpm>
</extensions>
</trkpt>
<trkpt lat="64.032913208" lon="-19.120790482">
<ele>632.468750</ele>
<time>2012-07-22T13:12:56Z</time>
<speed>1.280000</speed>
<extensions>
<speed>1.3</speed>
<temp>0.00</temp>
<bpm>0</bpm>
<rpm>0.00</rpm>
</extensions>
</trkpt>
<trkpt lat="64.032859802" lon="-19.120700836">
<ele>633.250000</ele>
<time>2012-07-22T13:13:01Z</time>
<speed>1.640000</speed>
<extensions>
<speed>1.6</speed>
<temp>0.00</temp>
<bpm>0</bpm>
<rpm>0.00</rpm>
</extensions>
</trkpt>
<trkpt lat="64.032806396" lon="-19.120540619">
<ele>634.171875</ele>
<time>2012-07-22T13:13:06Z</time>
<speed>1.720000</speed>
<extensions>
<speed>1.7</speed>
<temp>0.00</temp>
<bpm>0</bpm>
<rpm>0.00</rpm>
</extensions>
</trkpt>
<trkpt lat="64.032752991" lon="-19.120346069">
<ele>634.562500</ele>
<time>2012-07-22T13:13:11Z</time>
<speed>2.080000</speed>
<extensions>
<speed>2.1</speed>
<temp>0.00</temp>
<bpm>0</bpm>
<rpm>0.00</rpm>
</extensions>
</trkpt>
<trkpt lat="64.032730103" lon="-19.120185852">
<ele>634.203125</ele>
<time>2012-07-22T13:13:16Z</time>
<speed>1.110000</speed>
<extensions>
<speed>1.1</speed>
<temp>0.00</temp>
<bpm>0</bpm>
<rpm>0.00</rpm>
</extensions>
</trkpt>
<trkpt lat="64.032707214" lon="-19.120044708">
<ele>633.937500</ele>
<time>2012-07-22T13:13:21Z</time>
<speed>1.460000</speed>
<extensions>
<speed>1.5</speed>
<temp>0.00</temp>
<bpm>0</bpm>
<rpm>0.00</rpm>
</extensions>
</trkpt>
<trkpt lat="64.032676697" lon="-19.119913101">
<ele>634.187500</ele>
<time>2012-07-22T13:13:26Z</time>
<speed>1.510000</speed>
<extensions>
<speed>1.5</speed>
<temp>0.00</temp>
<bpm>0</bpm>
<rpm>0.00</rpm>
</extensions>
</trkpt>
<trkpt lat="64.032653809" lon="-19.119766235">
<ele>634.796875</ele>
<time>2012-07-22T13:13:31Z</time>
<speed>1.040000</speed>
<extensions>
<speed>1.0</speed>
<temp>0.00</temp>
<bpm>0</bpm>
<rpm>0.00</rpm>
</extensions>
</trkpt>
<trkpt lat="64.032630920" lon="-19.119617462">
<ele>635.125000</ele>
<time>2012-07-22T13:13:36Z</time>
<speed>1.880000</speed>
<extensions>
<speed>1.9</speed>
<temp>0.00</temp>
<bpm>0</bpm>
<rpm>0.00</rpm>
</extensions>
</trkpt>
<trkpt lat="64.032608032" lon="-19.119455338">
<ele>635.265625</ele>
<time>2012-07-22T13:13:41Z</time>
<speed>1.720000</speed>
<extensions>
<speed>1.7</speed>
<temp>0.00</temp>
<bpm>0</bpm>
<rpm>0.00</rpm>
</extensions>
</trkpt>
<trkpt lat="64.032592773" lon="-19.119255066">
<ele>635.343750</ele>
<time>2012-07-22T13:13:46Z</time>
<speed>2.130000</speed>
<extensions>
<speed>2.1</speed>
<temp>0.00</temp>
<bpm>0</bpm>
<rpm>0.00</rpm>
</extensions>
</trkpt>
<trkpt lat="64.032577515" lon="-19.119037628">
<ele>635.218750</ele>
<time>2012-07-22T13:13:51Z</time>
<speed>2.080000</speed>
<extensions>
<speed>2.1</speed>
<temp>0.00</temp>
<bpm>0</bpm>
<rpm>0.00</rpm>
</extensions>
</trkpt>
<trkpt lat="64.032554626" lon="-19.118841171">
<ele>634.687500</ele>
<time>2012-07-22T13:13:56Z</time>
<speed>2.120000</speed>
<extensions>
<speed>2.1</speed>
<temp>0.00</temp>
<bpm>0</bpm>
<rpm>0.00</rpm>
</extensions>
</trkpt>
<trkpt lat="64.032516479" lon="-19.118633270">
<ele>635.500000</ele>
<time>2012-07-22T13:14:01Z</time>
<speed>2.400000</speed>
<extensions>
<speed>2.4</speed>
<temp>0.00</temp>
<bpm>0</bpm>
<rpm>0.00</rpm>
</extensions>
</trkpt>
<trkpt lat="64.032493591" lon="-19.118488312">
<ele>636.625000</ele>
<time>2012-07-22T13:14:06Z</time>
<speed>1.570000</speed>
<extensions>
<speed>1.6</speed>
<temp>0.00</temp>
<bpm>0</bpm>
<rpm>0.00</rpm>
</extensions>
</trkpt>
<trkpt lat="64.032447815" lon="-19.118358612">
<ele>638.125000</ele>
<time>2012-07-22T13:14:11Z</time>
<speed>1.480000</speed>
<extensions>
<speed>1.5</speed>
<temp>0.00</temp>
<bpm>0</bpm>
<rpm>0.00</rpm>
</extensions>
</trkpt>
<trkpt lat="64.032409668" lon="-19.118293762">
<ele>638.984375</ele>
<time>2012-07-22T13:14:16Z</time>
<speed>1.350000</speed>
<extensions>
<speed>1.4</speed>
<temp>0.00</temp>
<bpm>0</bpm>
<rpm>0.00</rpm>
</extensions>
</trkpt>
<trkpt lat="64.032341003" lon="-19.118228912">
<ele>639.218750</ele>
<time>2012-07-22T13:14:21Z</time>
<speed>1.710000</speed>
<extensions>
<speed>1.7</speed>
<temp>0.00</temp>
<bpm>0</bpm>
<rpm>0.00</rpm>
</extensions>
</trkpt>
<trkpt lat="64.032272339" lon="-19.118144989">
<ele>639.140625</ele>
<time>2012-07-22T13:14:26Z</time>
<speed>1.900000</speed>
<extensions>
<speed>1.9</speed>
<temp>0.00</temp>
<bpm>0</bpm>
<rpm>0.00</rpm>
</extensions>
</trkpt>
<trkpt lat="64.032211304" lon="-19.118045807">
<ele>639.250000</ele>
<time>2012-07-22T13:14:31Z</time>
<speed>2.060000</speed>
<extensions>
<speed>2.1</speed>
<temp>0.00</temp>
<bpm>0</bpm>
<rpm>0.00</rpm>
</extensions>
</trkpt>
<trkpt lat="64.032142639" lon="-19.117916107">
<ele>639.453125</ele>
<time>2012-07-22T13:14:36Z</time>
<speed>1.910000</speed>
<extensions>
<speed>1.9</speed>
<temp>0.00</temp>
<bpm>0</bpm>
<rpm>0.00</rpm>
</extensions>
</trkpt>
<trkpt lat="64.032081604" lon="-19.117778778">
<ele>639.734375</ele>
<time>2012-07-22T13:14:41Z</time>
<speed>1.720000</speed>
<extensions>
<speed>1.7</speed>
<temp>0.00</temp>
<bpm>0</bpm>
<rpm>0.00</rpm>
</extensions>
</trkpt>
<trkpt lat="64.032028198" lon="-19.117630005">
<ele>640.218750</ele>
<time>2012-07-22T13:14:46Z</time>
<speed>1.810000</speed>
<extensions>
<speed>1.8</speed>
<temp>0.00</temp>
<bpm>0</bpm>
<rpm>0.00</rpm>
</extensions>
</trkpt>
<trkpt lat="64.031974792" lon="-19.117475510">
<ele>640.656250</ele>
<time>2012-07-22T13:14:51Z</time>
<speed>1.960000</speed>
<extensions>
<speed>2.0</speed>
<temp>0.00</temp>
<bpm>0</bpm>
<rpm>0.00</rpm>
</extensions>
</trkpt>
<trkpt lat="64.031913757" lon="-19.117361069">
<ele>641.156250</ele>
<time>2012-07-22T13:14:56Z</time>
<speed>1.620000</speed>
<extensions>
<speed>1.6</speed>
<temp>0.00</temp>
<bpm>0</bpm>
<rpm>0.00</rpm>
</extensions>
</trkpt>
<trkpt lat="64.031860352" lon="-19.117254257">
<ele>641.265625</ele>
<time>2012-07-22T13:15:01Z</time>
<speed>1.780000</speed>
<extensions>
<speed>1.8</speed>
<temp>0.00</temp>
<bpm>0</bpm>
<rpm>0.00</rpm>
</extensions>
</trkpt>
<trkpt lat="64.031799316" lon="-19.117137909">
<ele>640.984375</ele>
<time>2012-07-22T13:15:06Z</time>
<speed>1.950000</speed>
<extensions>
<speed>1.9</speed>
<temp>0.00</temp>
<bpm>0</bpm>
<rpm>0.00</rpm>
</extensions>
</trkpt>
<trkpt lat="64.031738281" lon="-19.117002487">
<ele>640.468750</ele>
<time>2012-07-22T13:15:11Z</time>
<speed>2.170000</speed>
<extensions>
<speed>2.2</speed>
<temp>0.00</temp>
<bpm>0</bpm>
<rpm>0.00</rpm>
</extensions>
</trkpt>
<trkpt lat="64.031669617" lon="-19.116823196">
<ele>640.125000</ele>
<time>2012-07-22T13:15:16Z</time>
<speed>2.350000</speed>
<extensions>
<speed>2.4</speed>
<temp>0.00</temp>
<bpm>0</bpm>
<rpm>0.00</rpm>
</extensions>
</trkpt>
<trkpt lat="64.031608582" lon="-19.116640091">
<ele>640.062500</ele>
<time>2012-07-22T13:15:21Z</time>
<speed>2.260000</speed>
<extensions>
<speed>2.3</speed>
<temp>0.00</temp>
<bpm>0</bpm>
<rpm>0.00</rpm>
</extensions>
</trkpt>
<trkpt lat="64.031562805" lon="-19.116428375">
<ele>639.859375</ele>
<time>2012-07-22T13:15:26Z</time>
<speed>2.380000</speed>
<extensions>
<speed>2.4</speed>
<temp>0.00</temp>
<bpm>0</bpm>
<rpm>0.00</rpm>
</extensions>
</trkpt>
<trkpt lat="64.031517029" lon="-19.116209030">
<ele>639.109375</ele>
<time>2012-07-22T13:15:31Z</time>
<speed>2.490000</speed>
<extensions>
<speed>2.5</speed>
<temp>0.00</temp>
<bpm>0</bpm>
<rpm>0.00</rpm>
</extensions>
</trkpt>
<trkpt lat="64.031448364" lon="-19.115989685">
<ele>638.359375</ele>
<time>2012-07-22T13:15:36Z</time>
<speed>2.290000</speed>
<extensions>
<speed>2.3</speed>
<temp>0.00</temp>
<bpm>0</bpm>
<rpm>0.00</rpm>
</extensions>
</trkpt>
<trkpt lat="64.031379700" lon="-19.115818024">
<ele>638.375000</ele>
<time>2012-07-22T13:15:41Z</time>
<speed>2.510000</speed>
<extensions>
<speed>2.5</speed>
<temp>0.00</temp>
<bpm>0</bpm>
<rpm>0.00</rpm>
</extensions>
</trkpt>
<trkpt lat="64.031295776" lon="-19.115650177">
<ele>638.343750</ele>
<time>2012-07-22T13:15:46Z</time>
<speed>2.030000</speed>
<extensions>
<speed>2.0</speed>
<temp>0.00</temp>
<bpm>0</bpm>
<rpm>0.00</rpm>
</extensions>
</trkpt>
<trkpt lat="64.031219482" lon="-19.115524292">
<ele>638.734375</ele>
<time>2012-07-22T13:15:51Z</time>
<speed>2.310000</speed>
<extensions>
<speed>2.3</speed>
<temp>0.00</temp>
<bpm>0</bpm>
<rpm>0.00</rpm>
</extensions>
</trkpt>
<trkpt lat="64.031120300" lon="-19.115449905">
<ele>639.265625</ele>
<time>2012-07-22T13:15:56Z</time>
<speed>2.040000</speed>
<extensions>
<speed>2.0</speed>
<temp>0.00</temp>
<bpm>0</bpm>
<rpm>0.00</rpm>
</extensions>
</trkpt>
<trkpt lat="64.031036377" lon="-19.115415573">
<ele>640.109375</ele>
<time>2012-07-22T13:16:01Z</time>
<speed>1.790000</speed>
<extensions>
<speed>1.8</speed>
<temp>0.00</temp>
<bpm>0</bpm>
<rpm>0.00</rpm>
</extensions>
</trkpt>
<trkpt lat="64.030960083" lon="-19.115430832">
<ele>640.437500</ele>
<time>2012-07-22T13:16:06Z</time>
<speed>2.170000</speed>
<extensions>
<speed>2.2</speed>
<temp>0.00</temp>
<bpm>0</bpm>
<rpm>0.00</rpm>
</extensions>
</trkpt>
<trkpt lat="64.030860901" lon="-19.115463257">
<ele>640.406250</ele>
<time>2012-07-22T13:16:11Z</time>
<speed>2.360000</speed>
<extensions>
<speed>2.4</speed>
<temp>0.00</temp>
<bpm>0</bpm>
<rpm>0.00</rpm>
</extensions>
</trkpt>
<trkpt lat="64.030761719" lon="-19.115505219">
<ele>639.656250</ele>
<time>2012-07-22T13:16:16Z</time>
<speed>2.820000</speed>
<extensions>
<speed>2.8</speed>
<temp>0.00</temp>
<bpm>0</bpm>
<rpm>0.00</rpm>
</extensions>
</trkpt>
<trkpt lat="64.030632019" lon="-19.115434647">
<ele>639.453125</ele>
<time>2012-07-22T13:16:21Z</time>
<speed>2.970000</speed>
<extensions>
<speed>3.0</speed>
<temp>0.00</temp>
<bpm>0</bpm>
<rpm>0.00</rpm>
</extensions>
</trkpt>
<trkpt lat="64.030540466" lon="-19.115180969">
<ele>639.140625</ele>
<time>2012-07-22T13:16:26Z</time>
<speed>3.100000</speed>
<extensions>
<speed>3.1</speed>
<temp>0.00</temp>
<bpm>0</bpm>
<rpm>0.00</rpm>
</extensions>
</trkpt>
<trkpt lat="64.030494690" lon="-19.114900589">
<ele>638.593750</ele>
<time>2012-07-22T13:16:31Z</time>
<speed>2.590000</speed>
<extensions>
<speed>2.6</speed>
<temp>0.00</temp>
<bpm>0</bpm>
<rpm>0.00</rpm>
</extensions>
</trkpt>
<trkpt lat="64.030464172" lon="-19.114610672">
<ele>637.515625</ele>
<time>2012-07-22T13:16:36Z</time>
<speed>2.930000</speed>
<extensions>
<speed>2.9</speed>
<temp>0.00</temp>
<bpm>0</bpm>
<rpm>0.00</rpm>
</extensions>
</trkpt>
<trkpt lat="64.030433655" lon="-19.114334106">
<ele>636.875000</ele>
<time>2012-07-22T13:16:41Z</time>
<speed>2.770000</speed>
<extensions>
<speed>2.8</speed>
<temp>0.00</temp>
<bpm>0</bpm>
<rpm>0.00</rpm>
</extensions>
</trkpt>
<trkpt lat="64.030403137" lon="-19.114072800">
<ele>636.609375</ele>
<time>2012-07-22T13:16:46Z</time>
<speed>2.040000</speed>
<extensions>
<speed>2.0</speed>
<temp>0.00</temp>
<bpm>0</bpm>
<rpm>0.00</rpm>
</extensions>
</trkpt>
<trkpt lat="64.030387878" lon="-19.113937378">
<ele>637.296875</ele>
<time>2012-07-22T13:16:51Z</time>
<speed>0.260000</speed>
<extensions>
<speed>0.3</speed>
<temp>0.00</temp>
<bpm>0</bpm>
<rpm>0.00</rpm>
</extensions>
</trkpt>
<trkpt lat="64.030387878" lon="-19.113872528">
<ele>637.890625</ele>
<time>2012-07-22T13:16:56Z</time>
<speed>1.080000</speed>
<extensions>
<speed>1.1</speed>
<temp>0.00</temp>
<bpm>0</bpm>
<rpm>0.00</rpm>
</extensions>
</trkpt>
<trkpt lat="64.030372620" lon="-19.113784790">
<ele>638.140625</ele>
<time>2012-07-22T13:17:01Z</time>
<speed>0.890000</speed>
<extensions>
<speed>0.9</speed>
<temp>0.00</temp>
<bpm>0</bpm>
<rpm>0.00</rpm>
</extensions>
</trkpt>
<trkpt lat="64.030364990" lon="-19.113712311">
<ele>638.375000</ele>
<time>2012-07-22T13:17:06Z</time>
<speed>0.590000</speed>
<extensions>
<speed>0.6</speed>
<temp>0.00</temp>
<bpm>0</bpm>
<rpm>0.00</rpm>
</extensions>
</trkpt>
<trkpt lat="64.030364990" lon="-19.113653183">
<ele>638.906250</ele>
<time>2012-07-22T13:17:11Z</time>
<speed>0.580000</speed>
<extensions>
<speed>0.6</speed>
<temp>0.00</temp>
<bpm>0</bpm>
<rpm>0.00</rpm>
</extensions>
</trkpt>
<trkpt lat="64.030349731" lon="-19.113576889">
<ele>639.390625</ele>
<time>2012-07-22T13:17:16Z</time>
<speed>0.760000</speed>
<extensions>
<speed>0.8</speed>
<temp>0.00</temp>
<bpm>0</bpm>
<rpm>0.00</rpm>
</extensions>
</trkpt>
<trkpt lat="64.030342102" lon="-19.113533020">
<ele>639.734375</ele>
<time>2012-07-22T13:17:21Z</time>
<speed>0.850000</speed>
<extensions>
<speed>0.8</speed>
<temp>0.00</temp>
<bpm>0</bpm>
<rpm>0.00</rpm>
</extensions>
</trkpt>
<trkpt lat="64.030334473" lon="-19.113456726">
<ele>640.312500</ele>
<time>2012-07-22T13:17:26Z</time>
<speed>0.830000</speed>
<extensions>
<speed>0.8</speed>
<temp>0.00</temp>
<bpm>0</bpm>
<rpm>0.00</rpm>
</extensions>
</trkpt>
<trkpt lat="64.030334473" lon="-19.113386154">
<ele>640.765625</ele>
<time>2012-07-22T13:17:31Z</time>
<speed>0.830000</speed>
<extensions>
<speed>0.8</speed>
<temp>0.00</temp>
<bpm>0</bpm>
<rpm>0.00</rpm>
</extensions>
</trkpt>
<trkpt lat="64.030326843" lon="-19.113304138">
<ele>641.015625</ele>
<time>2012-07-22T13:17:36Z</time>
<speed>0.880000</speed>
<extensions>
<speed>0.9</speed>
<temp>0.00</temp>
<bpm>0</bpm>
<rpm>0.00</rpm>
</extensions>
</trkpt>
<trkpt lat="64.030319214" lon="-19.113197327">
<ele>641.562500</ele>
<time>2012-07-22T13:17:41Z</time>
<speed>1.120000</speed>
<extensions>
<speed>1.1</speed>
<temp>0.00</temp>
<bpm>0</bpm>
<rpm>0.00</rpm>
</extensions>
</trkpt>
<trkpt lat="64.030303955" lon="-19.113073349">
<ele>642.015625</ele>
<time>2012-07-22T13:17:46Z</time>
<speed>1.140000</speed>
<extensions>
<speed>1.1</speed>
<temp>0.00</temp>
<bpm>0</bpm>
<rpm>0.00</rpm>
</extensions>
</trkpt>
<trkpt lat="64.030288696" lon="-19.112936020">
<ele>642.578125</ele>
<time>2012-07-22T13:17:51Z</time>
<speed>1.290000</speed>
<extensions>
<speed>1.3</speed>
<temp>0.00</temp>
<bpm>0</bpm>
<rpm>0.00</rpm>
</extensions>
</trkpt>
<trkpt lat="64.030273438" lon="-19.112800598">
<ele>642.828125</ele>
<time>2012-07-22T13:17:56Z</time>
<speed>1.240000</speed>
<extensions>
<speed>1.2</speed>
<temp>0.00</temp>
<bpm>0</bpm>
<rpm>0.00</rpm>
</extensions>
</trkpt>
<trkpt lat="64.030258179" lon="-19.112676620">
<ele>643.515625</ele>
<time>2012-07-22T13:18:01Z</time>
<speed>1.190000</speed>
<extensions>
<speed>1.2</speed>
<temp>0.00</temp>
<bpm>0</bpm>
<rpm>0.00</rpm>
</extensions>
</trkpt>
<trkpt lat="64.030235291" lon="-19.112571716">
<ele>644.781250</ele>
<time>2012-07-22T13:18:06Z</time>
<speed>1.000000</speed>
<extensions>
<speed>1.0</speed>
<temp>0.00</temp>
<bpm>0</bpm>
<rpm>0.00</rpm>
</extensions>
</trkpt>
<trkpt lat="64.030227661" lon="-19.112525940">
<ele>645.234375</ele>
<time>2012-07-22T13:18:11Z</time>
<speed>0.820000</speed>
<extensions>
<speed>0.8</speed>
<temp>0.00</temp>
<bpm>0</bpm>
<rpm>0.00</rpm>
</extensions>
</trkpt>
<trkpt lat="64.030181885" lon="-19.112415314">
<ele>645.390625</ele>
<time>2012-07-22T13:18:16Z</time>
<speed>1.920000</speed>
<extensions>
<speed>1.9</speed>
<temp>0.00</temp>
<bpm>0</bpm>
<rpm>0.00</rpm>
</extensions>
</trkpt>
<trkpt lat="64.030120850" lon="-19.112308502">
<ele>645.593750</ele>
<time>2012-07-22T13:18:21Z</time>
<speed>1.810000</speed>
<extensions>
<speed>1.8</speed>
<temp>0.00</temp>
<bpm>0</bpm>
<rpm>0.00</rpm>
</extensions>
</trkpt>
<trkpt lat="64.030052185" lon="-19.112195969">
<ele>645.562500</ele>
<time>2012-07-22T13:18:26Z</time>
<speed>1.850000</speed>
<extensions>
<speed>1.8</speed>
<temp>0.00</temp>
<bpm>0</bpm>
<rpm>0.00</rpm>
</extensions>
</trkpt>
<trkpt lat="64.029991150" lon="-19.112094879">
<ele>645.687500</ele>
<time>2012-07-22T13:18:31Z</time>
<speed>1.510000</speed>
<extensions>
<speed>1.5</speed>
<temp>0.00</temp>
<bpm>0</bpm>
<rpm>0.00</rpm>
</extensions>
</trkpt>
<trkpt lat="64.029922485" lon="-19.111961365">
<ele>645.281250</ele>
<time>2012-07-22T13:18:36Z</time>
<speed>2.220000</speed>
<extensions>
<speed>2.2</speed>
<temp>0.00</temp>
<bpm>0</bpm>
<rpm>0.00</rpm>
</extensions>
</trkpt>
<trkpt lat="64.029830933" lon="-19.111806870">
<ele>644.781250</ele>
<time>2012-07-22T13:18:41Z</time>
<speed>2.670000</speed>
<extensions>
<speed>2.7</speed>
<temp>0.00</temp>
<bpm>0</bpm>
<rpm>0.00</rpm>
</extensions>
</trkpt>
<trkpt lat="64.029731750" lon="-19.111589432">
<ele>644.140625</ele>
<time>2012-07-22T13:18:46Z</time>
<speed>3.250000</speed>
<extensions>
<speed>3.2</speed>
<temp>0.00</temp>
<bpm>0</bpm>
<rpm>0.00</rpm>
</extensions>
</trkpt>
<trkpt lat="64.029640198" lon="-19.111328125">
<ele>643.953125</ele>
<time>2012-07-22T13:18:51Z</time>
<speed>2.920000</speed>
<extensions>
<speed>2.9</speed>
<temp>0.00</temp>
<bpm>0</bpm>
<rpm>0.00</rpm>
</extensions>
</trkpt>
<trkpt lat="64.029579163" lon="-19.111066818">
<ele>644.093750</ele>
<time>2012-07-22T13:18:56Z</time>
<speed>2.950000</speed>
<extensions>
<speed>2.9</speed>
<temp>0.00</temp>
<bpm>0</bpm>
<rpm>0.00</rpm>
</extensions>
</trkpt>
<trkpt lat="64.029525757" lon="-19.110813141">
<ele>643.890625</ele>
<time>2012-07-22T13:19:01Z</time>
<speed>2.560000</speed>
<extensions>
<speed>2.6</speed>
<temp>0.00</temp>
<bpm>0</bpm>
<rpm>0.00</rpm>
</extensions>
</trkpt>
<trkpt lat="64.029495239" lon="-19.110557556">
<ele>643.609375</ele>
<time>2012-07-22T13:19:06Z</time>
<speed>2.600000</speed>
<extensions>
<speed>2.6</speed>
<temp>0.00</temp>
<bpm>0</bpm>
<rpm>0.00</rpm>
</extensions>
</trkpt>
<trkpt lat="64.029464722" lon="-19.110292435">
<ele>643.421875</ele>
<time>2012-07-22T13:19:11Z</time>
<speed>2.590000</speed>
<extensions>
<speed>2.6</speed>
<temp>0.00</temp>
<bpm>0</bpm>
<rpm>0.00</rpm>
</extensions>
</trkpt>
<trkpt lat="64.029441833" lon="-19.110025406">
<ele>643.515625</ele>
<time>2012-07-22T13:19:16Z</time>
<speed>2.560000</speed>
<extensions>
<speed>2.6</speed>
<temp>0.00</temp>
<bpm>0</bpm>
<rpm>0.00</rpm>
</extensions>
</trkpt>
<trkpt lat="64.029434204" lon="-19.109754562">
<ele>643.859375</ele>
<time>2012-07-22T13:19:21Z</time>
<speed>2.460000</speed>
<extensions>
<speed>2.5</speed>
<temp>0.00</temp>
<bpm>0</bpm>
<rpm>0.00</rpm>
</extensions>
</trkpt>
<trkpt lat="64.029418945" lon="-19.109498978">
<ele>644.250000</ele>
<time>2012-07-22T13:19:26Z</time>
<speed>2.390000</speed>
<extensions>
<speed>2.4</speed>
<temp>0.00</temp>
<bpm>0</bpm>
<rpm>0.00</rpm>
</extensions>
</trkpt>
<trkpt lat="64.029411316" lon="-19.109245300">
<ele>644.437500</ele>
<time>2012-07-22T13:19:31Z</time>
<speed>2.510000</speed>
<extensions>
<speed>2.5</speed>
<temp>0.00</temp>
<bpm>0</bpm>
<rpm>0.00</rpm>
</extensions>
</trkpt>
<trkpt lat="64.029403687" lon="-19.108993530">
<ele>644.953125</ele>
<time>2012-07-22T13:19:36Z</time>
<speed>2.160000</speed>
<extensions>
<speed>2.2</speed>
<temp>0.00</temp>
<bpm>0</bpm>
<rpm>0.00</rpm>
</extensions>
</trkpt>
<trkpt lat="64.029396057" lon="-19.108776093">
<ele>645.484375</ele>
<time>2012-07-22T13:19:41Z</time>
<speed>2.370000</speed>
<extensions>
<speed>2.4</speed>
<temp>0.00</temp>
<bpm>0</bpm>
<rpm>0.00</rpm>
</extensions>
</trkpt>
<trkpt lat="64.029411316" lon="-19.108533859">
<ele>645.906250</ele>
<time>2012-07-22T13:19:46Z</time>
<speed>2.160000</speed>
<extensions>
<speed>2.2</speed>
<temp>0.00</temp>
<bpm>0</bpm>
<rpm>0.00</rpm>
</extensions>
</trkpt>
<trkpt lat="64.029426575" lon="-19.108304977">
<ele>646.234375</ele>
<time>2012-07-22T13:19:51Z</time>
<speed>2.390000</speed>
<extensions>
<speed>2.4</speed>
<temp>0.00</temp>
<bpm>0</bpm>
<rpm>0.00</rpm>
</extensions>
</trkpt>
<trkpt lat="64.029457092" lon="-19.108093262">
<ele>646.609375</ele>
<time>2012-07-22T13:19:56Z</time>
<speed>2.220000</speed>
<extensions>
<speed>2.2</speed>
<temp>0.00</temp>
<bpm>0</bpm>
<rpm>0.00</rpm>
</extensions>
</trkpt>
<trkpt lat="64.029479980" lon="-19.107866287">
<ele>646.375000</ele>
<time>2012-07-22T13:20:01Z</time>
<speed>2.700000</speed>
<extensions>
<speed>2.7</speed>
<temp>0.00</temp>
<bpm>0</bpm>
<rpm>0.00</rpm>
</extensions>
</trkpt>
<trkpt lat="64.029510498" lon="-19.107584000">
<ele>645.828125</ele>
<time>2012-07-22T13:20:06Z</time>
<speed>3.070000</speed>
<extensions>
<speed>3.1</speed>
<temp>0.00</temp>
<bpm>0</bpm>
<rpm>0.00</rpm>
</extensions>
</trkpt>
<trkpt lat="64.029541016" lon="-19.107313156">
<ele>645.328125</ele>
<time>2012-07-22T13:20:11Z</time>
<speed>2.550000</speed>
<extensions>
<speed>2.6</speed>
<temp>0.00</temp>
<bpm>0</bpm>
<rpm>0.00</rpm>
</extensions>
</trkpt>
<trkpt lat="64.029541016" lon="-19.107049942">
<ele>645.140625</ele>
<time>2012-07-22T13:20:16Z</time>
<speed>2.590000</speed>
<extensions>
<speed>2.6</speed>
<temp>0.00</temp>
<bpm>0</bpm>
<rpm>0.00</rpm>
</extensions>
</trkpt>
<trkpt lat="64.029541016" lon="-19.106775284">
<ele>644.906250</ele>
<time>2012-07-22T13:20:21Z</time>
<speed>2.750000</speed>
<extensions>
<speed>2.7</speed>
<temp>0.00</temp>
<bpm>0</bpm>
<rpm>0.00</rpm>
</extensions>
</trkpt>
<trkpt lat="64.029556274" lon="-19.106483459">
<ele>644.734375</ele>
<time>2012-07-22T13:20:26Z</time>
<speed>2.890000</speed>
<extensions>
<speed>2.9</speed>
<temp>0.00</temp>
<bpm>0</bpm>
<rpm>0.00</rpm>
</extensions>
</trkpt>
<trkpt lat="64.029556274" lon="-19.106218338">
<ele>644.203125</ele>
<time>2012-07-22T13:20:31Z</time>
<speed>2.640000</speed>
<extensions>
<speed>2.6</speed>
<temp>0.00</temp>
<bpm>0</bpm>
<rpm>0.00</rpm>
</extensions>
</trkpt>
<trkpt lat="64.029579163" lon="-19.105978012">
<ele>643.937500</ele>
<time>2012-07-22T13:20:36Z</time>
<speed>2.270000</speed>
<extensions>
<speed>2.3</speed>
<temp>0.00</temp>
<bpm>0</bpm>
<rpm>0.00</rpm>
</extensions>
</trkpt>
<trkpt lat="64.029609680" lon="-19.105752945">
<ele>644.125000</ele>
<time>2012-07-22T13:20:41Z</time>
<speed>2.550000</speed>
<extensions>
<speed>2.6</speed>
<temp>0.00</temp>
<bpm>0</bpm>
<rpm>0.00</rpm>
</extensions>
</trkpt>
<trkpt lat="64.029640198" lon="-19.105472565">
<ele>643.781250</ele>
<time>2012-07-22T13:20:46Z</time>
<speed>2.840000</speed>
<extensions>
<speed>2.8</speed>
<temp>0.00</temp>
<bpm>0</bpm>
<rpm>0.00</rpm>
</extensions>
</trkpt>
<trkpt lat="64.029685974" lon="-19.105163574">
<ele>643.796875</ele>
<time>2012-07-22T13:20:51Z</time>
<speed>3.190000</speed>
<extensions>
<speed>3.2</speed>
<temp>0.00</temp>
<bpm>0</bpm>
<rpm>0.00</rpm>
</extensions>
</trkpt>
<trkpt lat="64.029716492" lon="-19.104902267">
<ele>644.218750</ele>
<time>2012-07-22T13:20:56Z</time>
<speed>2.390000</speed>
<extensions>
<speed>2.4</speed>
<temp>0.00</temp>
<bpm>0</bpm>
<rpm>0.00</rpm>
</extensions>
</trkpt>
<trkpt lat="64.029731750" lon="-19.104749680">
<ele>644.140625</ele>
<time>2012-07-22T13:21:01Z</time>
<speed>1.270000</speed>
<extensions>
<speed>1.3</speed>
<temp>0.00</temp>
<bpm>0</bpm>
<rpm>0.00</rpm>
</extensions>
</trkpt>
<trkpt lat="64.029747009" lon="-19.104587555">
<ele>644.468750</ele>
<time>2012-07-22T13:21:06Z</time>
<speed>1.810000</speed>
<extensions>
<speed>1.8</speed>
<temp>0.00</temp>
<bpm>0</bpm>
<rpm>0.00</rpm>
</extensions>
</trkpt>
<trkpt lat="64.029762268" lon="-19.104413986">
<ele>645.265625</ele>
<time>2012-07-22T13:21:11Z</time>
<speed>1.810000</speed>
<extensions>
<speed>1.8</speed>
<temp>0.00</temp>
<bpm>0</bpm>
<rpm>0.00</rpm>
</extensions>
</trkpt>
<trkpt lat="64.029777527" lon="-19.104246140">
<ele>646.312500</ele>
<time>2012-07-22T13:21:16Z</time>
<speed>1.690000</speed>
<extensions>
<speed>1.7</speed>
<temp>0.00</temp>
<bpm>0</bpm>
<rpm>0.00</rpm>
</extensions>
</trkpt>
<trkpt lat="64.029800415" lon="-19.104068756">
<ele>647.203125</ele>
<time>2012-07-22T13:21:21Z</time>
<speed>1.990000</speed>
<extensions>
<speed>2.0</speed>
<temp>0.00</temp>
<bpm>0</bpm>
<rpm>0.00</rpm>
</extensions>
</trkpt>
<trkpt lat="64.029800415" lon="-19.103866577">
<ele>648.000000</ele>
<time>2012-07-22T13:21:26Z</time>
<speed>1.920000</speed>
<extensions>
<speed>1.9</speed>
<temp>0.00</temp>
<bpm>0</bpm>
<rpm>0.00</rpm>
</extensions>
</trkpt>
<trkpt lat="64.029800415" lon="-19.103645325">
<ele>647.828125</ele>
<time>2012-07-22T13:21:31Z</time>
<speed>2.840000</speed>
<extensions>
<speed>2.8</speed>
<temp>0.00</temp>
<bpm>0</bpm>
<rpm>0.00</rpm>
</extensions>
</trkpt>
<trkpt lat="64.029792786" lon="-19.103313446">
<ele>647.453125</ele>
<time>2012-07-22T13:21:36Z</time>
<speed>3.490000</speed>
<extensions>
<speed>3.5</speed>
<temp>0.00</temp>
<bpm>0</bpm>
<rpm>0.00</rpm>
</extensions>
</trkpt>
<trkpt lat="64.029823303" lon="-19.102935791">
<ele>646.843750</ele>
<time>2012-07-22T13:21:41Z</time>
<speed>3.520000</speed>
<extensions>
<speed>3.5</speed>
<temp>0.00</temp>
<bpm>0</bpm>
<rpm>0.00</rpm>
</extensions>
</trkpt>
<trkpt lat="64.029891968" lon="-19.102645874">
<ele>646.984375</ele>
<time>2012-07-22T13:21:46Z</time>
<speed>2.660000</speed>
<extensions>
<speed>2.7</speed>
<temp>0.00</temp>
<bpm>0</bpm>
<rpm>0.00</rpm>
</extensions>
</trkpt>
<trkpt lat="64.029960632" lon="-19.102418900">
<ele>647.687500</ele>
<time>2012-07-22T13:21:51Z</time>
<speed>2.610000</speed>
<extensions>
<speed>2.6</speed>
<temp>0.00</temp>
<bpm>0</bpm>
<rpm>0.00</rpm>
</extensions>
</trkpt>
<trkpt lat="64.030021667" lon="-19.102222443">
<ele>647.812500</ele>
<time>2012-07-22T13:21:56Z</time>
<speed>2.250000</speed>
<extensions>
<speed>2.3</speed>
<temp>0.00</temp>
<bpm>0</bpm>
<rpm>0.00</rpm>
</extensions>
</trkpt>
<trkpt lat="64.030090332" lon="-19.102035522">
<ele>647.625000</ele>
<time>2012-07-22T13:22:01Z</time>
<speed>2.490000</speed>
<extensions>
<speed>2.5</speed>
<temp>0.00</temp>
<bpm>0</bpm>
<rpm>0.00</rpm>
</extensions>
</trkpt>
<trkpt lat="64.030166626" lon="-19.101850510">
<ele>648.156250</ele>
<time>2012-07-22T13:22:06Z</time>
<speed>2.380000</speed>
<extensions>
<speed>2.4</speed>
<temp>0.00</temp>
<bpm>0</bpm>
<rpm>0.00</rpm>
</extensions>
</trkpt>
<trkpt lat="64.030242920" lon="-19.101697922">
<ele>647.984375</ele>
<time>2012-07-22T13:22:11Z</time>
<speed>2.250000</speed>
<extensions>
<speed>2.3</speed>
<temp>0.00</temp>
<bpm>0</bpm>
<rpm>0.00</rpm>
</extensions>
</trkpt>
<trkpt lat="64.030319214" lon="-19.101530075">
<ele>648.203125</ele>
<time>2012-07-22T13:22:16Z</time>
<speed>2.330000</speed>
<extensions>
<speed>2.3</speed>
<temp>0.00</temp>
<bpm>0</bpm>
<rpm>0.00</rpm>
</extensions>
</trkpt>
<trkpt lat="64.030387878" lon="-19.101373672">
<ele>647.781250</ele>
<time>2012-07-22T13:22:21Z</time>
<speed>2.580000</speed>
<extensions>
<speed>2.6</speed>
<temp>0.00</temp>
<bpm>0</bpm>
<rpm>0.00</rpm>
</extensions>
</trkpt>
<trkpt lat="64.030471802" lon="-19.101093292">
<ele>646.812500</ele>
<time>2012-07-22T13:22:26Z</time>
<speed>3.690000</speed>
<extensions>
<speed>3.7</speed>
<temp>0.00</temp>
<bpm>0</bpm>
<rpm>0.00</rpm>
</extensions>
</trkpt>
<trkpt lat="64.030532837" lon="-19.100645065">
<ele>644.625000</ele>
<time>2012-07-22T13:22:31Z</time>
<speed>5.070000</speed>
<extensions>
<speed>5.1</speed>
<temp>0.00</temp>
<bpm>0</bpm>
<rpm>0.00</rpm>
</extensions>
</trkpt>
<trkpt lat="64.030609131" lon="-19.100128174">
<ele>642.109375</ele>
<time>2012-07-22T13:22:36Z</time>
<speed>5.310000</speed>
<extensions>
<speed>5.3</speed>
<temp>0.00</temp>
<bpm>0</bpm>
<rpm>0.00</rpm>
</extensions>
</trkpt>
<trkpt lat="64.030670166" lon="-19.099666595">
<ele>640.531250</ele>
<time>2012-07-22T13:22:41Z</time>
<speed>4.230000</speed>
<extensions>
<speed>4.2</speed>
<temp>0.00</temp>
<bpm>0</bpm>
<rpm>0.00</rpm>
</extensions>
</trkpt>
<trkpt lat="64.030670166" lon="-19.099271774">
<ele>639.765625</ele>
<time>2012-07-22T13:22:46Z</time>
<speed>3.420000</speed>
<extensions>
<speed>3.4</speed>
<temp>0.00</temp>
<bpm>0</bpm>
<rpm>0.00</rpm>
</extensions>
</trkpt>
<trkpt lat="64.030609131" lon="-19.098947525">
<ele>639.531250</ele>
<time>2012-07-22T13:22:51Z</time>
<speed>3.930000</speed>
<extensions>
<speed>3.9</speed>
<temp>0.00</temp>
<bpm>0</bpm>
<rpm>0.00</rpm>
</extensions>
</trkpt>
<trkpt lat="64.030494690" lon="-19.098672867">
<ele>639.703125</ele>
<time>2012-07-22T13:22:56Z</time>
<speed>3.610000</speed>
<extensions>
<speed>3.6</speed>
<temp>0.00</temp>
<bpm>0</bpm>
<rpm>0.00</rpm>
</extensions>
</trkpt>
<trkpt lat="64.030387878" lon="-19.098489761">
<ele>639.515625</ele>
<time>2012-07-22T13:23:01Z</time>
<speed>3.090000</speed>
<extensions>
<speed>3.1</speed>
<temp>0.00</temp>
<bpm>0</bpm>
<rpm>0.00</rpm>
</extensions>
</trkpt>
<trkpt lat="64.030273438" lon="-19.098306656">
<ele>639.203125</ele>
<time>2012-07-22T13:23:06Z</time>
<speed>3.310000</speed>
<extensions>
<speed>3.3</speed>
<temp>0.00</temp>
<bpm>0</bpm>
<rpm>0.00</rpm>
</extensions>
</trkpt>
<trkpt lat="64.030158997" lon="-19.098110199">
<ele>638.937500</ele>
<time>2012-07-22T13:23:11Z</time>
<speed>2.920000</speed>
<extensions>
<speed>2.9</speed>
<temp>0.00</temp>
<bpm>0</bpm>
<rpm>0.00</rpm>
</extensions>
</trkpt>
<trkpt lat="64.030059814" lon="-19.097925186">
<ele>638.812500</ele>
<time>2012-07-22T13:23:16Z</time>
<speed>2.960000</speed>
<extensions>
<speed>3.0</speed>
<temp>0.00</temp>
<bpm>0</bpm>
<rpm>0.00</rpm>
</extensions>
</trkpt>
<trkpt lat="64.029953003" lon="-19.097751617">
<ele>638.562500</ele>
<time>2012-07-22T13:23:21Z</time>
<speed>2.610000</speed>
<extensions>
<speed>2.6</speed>
<temp>0.00</temp>
<bpm>0</bpm>
<rpm>0.00</rpm>
</extensions>
</trkpt>
<trkpt lat="64.029853821" lon="-19.097572327">
<ele>638.703125</ele>
<time>2012-07-22T13:23:26Z</time>
<speed>2.920000</speed>
<extensions>
<speed>2.9</speed>
<temp>0.00</temp>
<bpm>0</bpm>
<rpm>0.00</rpm>
</extensions>
</trkpt>
<trkpt lat="64.029739380" lon="-19.097404480">
<ele>638.656250</ele>
<time>2012-07-22T13:23:31Z</time>
<speed>2.960000</speed>
<extensions>
<speed>3.0</speed>
<temp>0.00</temp>
<bpm>0</bpm>
<rpm>0.00</rpm>
</extensions>
</trkpt>
<trkpt lat="64.029632568" lon="-19.097236633">
<ele>638.406250</ele>
<time>2012-07-22T13:23:36Z</time>
<speed>3.110000</speed>
<extensions>
<speed>3.1</speed>
<temp>0.00</temp>
<bpm>0</bpm>
<rpm>0.00</rpm>
</extensions>
</trkpt>
<trkpt lat="64.029533386" lon="-19.097034454">
<ele>638.265625</ele>
<time>2012-07-22T13:23:41Z</time>
<speed>2.990000</speed>
<extensions>
<speed>3.0</speed>
<temp>0.00</temp>
<bpm>0</bpm>
<rpm>0.00</rpm>
</extensions>
</trkpt>
<trkpt lat="64.029434204" lon="-19.096824646">
<ele>638.218750</ele>
<time>2012-07-22T13:23:46Z</time>
<speed>2.990000</speed>
<extensions>
<speed>3.0</speed>
<temp>0.00</temp>
<bpm>0</bpm>
<rpm>0.00</rpm>
</extensions>
</trkpt>
<trkpt lat="64.029350281" lon="-19.096569061">
<ele>638.187500</ele>
<time>2012-07-22T13:23:51Z</time>
<speed>3.230000</speed>
<extensions>
<speed>3.2</speed>
<temp>0.00</temp>
<bpm>0</bpm>
<rpm>0.00</rpm>
</extensions>
</trkpt>
<trkpt lat="64.029289246" lon="-19.096282959">
<ele>638.234375</ele>
<time>2012-07-22T13:23:56Z</time>
<speed>3.260000</speed>
<extensions>
<speed>3.3</speed>
<temp>0.00</temp>
<bpm>0</bpm>
<rpm>0.00</rpm>
</extensions>
</trkpt>
<trkpt lat="64.029220581" lon="-19.095983505">
<ele>638.031250</ele>
<time>2012-07-22T13:24:01Z</time>
<speed>3.120000</speed>
<extensions>
<speed>3.1</speed>
<temp>0.00</temp>
<bpm>0</bpm>
<rpm>0.00</rpm>
</extensions>
</trkpt>
<trkpt lat="64.029182434" lon="-19.095685959">
<ele>637.921875</ele>
<time>2012-07-22T13:24:06Z</time>
<speed>3.060000</speed>
<extensions>
<speed>3.1</speed>
<temp>0.00</temp>
<bpm>0</bpm>
<rpm>0.00</rpm>
</extensions>
</trkpt>
<trkpt lat="64.029151917" lon="-19.095384598">
<ele>637.328125</ele>
<time>2012-07-22T13:24:11Z</time>
<speed>2.710000</speed>
<extensions>
<speed>2.7</speed>
<temp>0.00</temp>
<bpm>0</bpm>
<rpm>0.00</rpm>
</extensions>
</trkpt>
<trkpt lat="64.029121399" lon="-19.095125198">
<ele>636.687500</ele>
<time>2012-07-22T13:24:16Z</time>
<speed>2.870000</speed>
<extensions>
<speed>2.9</speed>
<temp>0.00</temp>
<bpm>0</bpm>
<rpm>0.00</rpm>
</extensions>
</trkpt>
<trkpt lat="64.029090881" lon="-19.094833374">
<ele>636.250000</ele>
<time>2012-07-22T13:24:21Z</time>
<speed>2.890000</speed>
<extensions>
<speed>2.9</speed>
<temp>0.00</temp>
<bpm>0</bpm>
<rpm>0.00</rpm>
</extensions>
</trkpt>
<trkpt lat="64.029060364" lon="-19.094551086">
<ele>636.390625</ele>
<time>2012-07-22T13:24:26Z</time>
<speed>2.850000</speed>
<extensions>
<speed>2.9</speed>
<temp>0.00</temp>
<bpm>0</bpm>
<rpm>0.00</rpm>
</extensions>
</trkpt>
<trkpt lat="64.029045105" lon="-19.094264984">
<ele>636.406250</ele>
<time>2012-07-22T13:24:31Z</time>
<speed>2.680000</speed>
<extensions>
<speed>2.7</speed>
<temp>0.00</temp>
<bpm>0</bpm>
<rpm>0.00</rpm>
</extensions>
</trkpt>
<trkpt lat="64.029037476" lon="-19.093994141">
<ele>636.718750</ele>
<time>2012-07-22T13:24:36Z</time>
<speed>2.310000</speed>
<extensions>
<speed>2.3</speed>
<temp>0.00</temp>
<bpm>0</bpm>
<rpm>0.00</rpm>
</extensions>
</trkpt>
<trkpt lat="64.029052734" lon="-19.093822479">
<ele>636.875000</ele>
<time>2012-07-22T13:24:41Z</time>
<speed>1.220000</speed>
<extensions>
<speed>1.2</speed>
<temp>0.00</temp>
<bpm>0</bpm>
<rpm>0.00</rpm>
</extensions>
</trkpt>
<trkpt lat="64.029083252" lon="-19.093664169">
<ele>636.484375</ele>
<time>2012-07-22T13:24:46Z</time>
<speed>1.900000</speed>
<extensions>
<speed>1.9</speed>
<temp>0.00</temp>
<bpm>0</bpm>
<rpm>0.00</rpm>
</extensions>
</trkpt>
<trkpt lat="64.029121399" lon="-19.093465805">
<ele>636.218750</ele>
<time>2012-07-22T13:24:51Z</time>
<speed>1.790000</speed>
<extensions>
<speed>1.8</speed>
<temp>0.00</temp>
<bpm>0</bpm>
<rpm>0.00</rpm>
</extensions>
</trkpt>
<trkpt lat="64.029167175" lon="-19.093238831">
<ele>636.140625</ele>
<time>2012-07-22T13:24:56Z</time>
<speed>2.400000</speed>
<extensions>
<speed>2.4</speed>
<temp>0.00</temp>
<bpm>0</bpm>
<rpm>0.00</rpm>
</extensions>
</trkpt>
<trkpt lat="64.029174805" lon="-19.093166351">
<ele>635.828125</ele>
<time>2012-07-22T13:25:01Z</time>
<speed>0.310000</speed>
<extensions>
<speed>0.3</speed>
<temp>0.00</temp>
<bpm>0</bpm>
<rpm>0.00</rpm>
</extensions>
</trkpt>
<trkpt lat="64.029205322" lon="-19.093069077">
<ele>635.906250</ele>
<time>2012-07-22T13:25:06Z</time>
<speed>1.860000</speed>
<extensions>
<speed>1.9</speed>
<temp>0.00</temp>
<bpm>0</bpm>
<rpm>0.00</rpm>
</extensions>
</trkpt>
<trkpt lat="64.029243469" lon="-19.092851639">
<ele>636.281250</ele>
<time>2012-07-22T13:25:11Z</time>
<speed>2.610000</speed>
<extensions>
<speed>2.6</speed>
<temp>0.00</temp>
<bpm>0</bpm>
<rpm>0.00</rpm>
</extensions>
</trkpt>
<trkpt lat="64.029296875" lon="-19.092603683">
<ele>636.437500</ele>
<time>2012-07-22T13:25:16Z</time>
<speed>2.650000</speed>
<extensions>
<speed>2.6</speed>
<temp>0.00</temp>
<bpm>0</bpm>
<rpm>0.00</rpm>
</extensions>
</trkpt>
<trkpt lat="64.029350281" lon="-19.092355728">
<ele>636.656250</ele>
<time>2012-07-22T13:25:21Z</time>
<speed>2.680000</speed>
<extensions>
<speed>2.7</speed>
<temp>0.00</temp>
<bpm>0</bpm>
<rpm>0.00</rpm>
</extensions>
</trkpt>
<trkpt lat="64.029396057" lon="-19.092092514">
<ele>636.703125</ele>
<time>2012-07-22T13:25:26Z</time>
<speed>2.770000</speed>
<extensions>
<speed>2.8</speed>
<temp>0.00</temp>
<bpm>0</bpm>
<rpm>0.00</rpm>
</extensions>
</trkpt>
<trkpt lat="64.029449463" lon="-19.091833115">
<ele>636.796875</ele>
<time>2012-07-22T13:25:31Z</time>
<speed>2.720000</speed>
<extensions>
<speed>2.7</speed>
<temp>0.00</temp>
<bpm>0</bpm>
<rpm>0.00</rpm>
</extensions>
</trkpt>
<trkpt lat="64.029502869" lon="-19.091602325">
<ele>637.031250</ele>
<time>2012-07-22T13:25:36Z</time>
<speed>2.530000</speed>
<extensions>
<speed>2.5</speed>
<temp>0.00</temp>
<bpm>0</bpm>
<rpm>0.00</rpm>
</extensions>
</trkpt>
<trkpt lat="64.029571533" lon="-19.091396332">
<ele>637.375000</ele>
<time>2012-07-22T13:25:41Z</time>
<speed>2.400000</speed>
<extensions>
<speed>2.4</speed>
<temp>0.00</temp>
<bpm>0</bpm>
<rpm>0.00</rpm>
</extensions>
</trkpt>
<trkpt lat="64.029647827" lon="-19.091241837">
<ele>637.515625</ele>
<time>2012-07-22T13:25:46Z</time>
<speed>2.280000</speed>
<extensions>
<speed>2.3</speed>
<temp>0.00</temp>
<bpm>0</bpm>
<rpm>0.00</rpm>
</extensions>
</trkpt>
<trkpt lat="64.029724121" lon="-19.091108322">
<ele>637.671875</ele>
<time>2012-07-22T13:25:51Z</time>
<speed>2.110000</speed>
<extensions>
<speed>2.1</speed>
<temp>0.00</temp>
<bpm>0</bpm>
<rpm>0.00</rpm>
</extensions>
</trkpt>
<trkpt lat="64.029808044" lon="-19.091032028">
<ele>637.843750</ele>
<time>2012-07-22T13:25:56Z</time>
<speed>1.990000</speed>
<extensions>
<speed>2.0</speed>
<temp>0.00</temp>
<bpm>0</bpm>
<rpm>0.00</rpm>
</extensions>
</trkpt>
<trkpt lat="64.029907227" lon="-19.090932846">
<ele>637.421875</ele>
<time>2012-07-22T13:26:01Z</time>
<speed>2.470000</speed>
<extensions>
<speed>2.5</speed>
<temp>0.00</temp>
<bpm>0</bpm>
<rpm>0.00</rpm>
</extensions>
</trkpt>
<trkpt lat="64.029998779" lon="-19.090822220">
<ele>636.625000</ele>
<time>2012-07-22T13:26:06Z</time>
<speed>2.440000</speed>
<extensions>
<speed>2.4</speed>
<temp>0.00</temp>
<bpm>0</bpm>
<rpm>0.00</rpm>
</extensions>
</trkpt>
<trkpt lat="64.030075073" lon="-19.090686798">
<ele>637.234375</ele>
<time>2012-07-22T13:26:11Z</time>
<speed>2.000000</speed>
<extensions>
<speed>2.0</speed>
<temp>0.00</temp>
<bpm>0</bpm>
<rpm>0.00</rpm>
</extensions>
</trkpt>
<trkpt lat="64.030143738" lon="-19.090555191">
<ele>637.765625</ele>
<time>2012-07-22T13:26:16Z</time>
<speed>1.690000</speed>
<extensions>
<speed>1.7</speed>
<temp>0.00</temp>
<bpm>0</bpm>
<rpm>0.00</rpm>
</extensions>
</trkpt>
<trkpt lat="64.030197144" lon="-19.090436935">
<ele>637.640625</ele>
<time>2012-07-22T13:26:21Z</time>
<speed>1.330000</speed>
<extensions>
<speed>1.3</speed>
<temp>0.00</temp>
<bpm>0</bpm>
<rpm>0.00</rpm>
</extensions>
</trkpt>
<trkpt lat="64.030242920" lon="-19.090314865">
<ele>637.093750</ele>
<time>2012-07-22T13:26:26Z</time>
<speed>1.970000</speed>
<extensions>
<speed>2.0</speed>
<temp>0.00</temp>
<bpm>0</bpm>
<rpm>0.00</rpm>
</extensions>
</trkpt>
<trkpt lat="64.030319214" lon="-19.090021133">
<ele>635.187500</ele>
<time>2012-07-22T13:26:31Z</time>
<speed>4.740000</speed>
<extensions>
<speed>4.7</speed>
<temp>0.00</temp>
<bpm>0</bpm>
<rpm>0.00</rpm>
</extensions>
</trkpt>
<trkpt lat="64.030471802" lon="-19.089323044">
<ele>629.750000</ele>
<time>2012-07-22T13:26:36Z</time>
<speed>9.620000</speed>
<extensions>
<speed>9.6</speed>
<temp>0.00</temp>
<bpm>0</bpm>
<rpm>0.00</rpm>
</extensions>
</trkpt>
<trkpt lat="64.030677795" lon="-19.088499069">
<ele>628.703125</ele>
<time>2012-07-22T13:26:41Z</time>
<speed>7.330000</speed>
<extensions>
<speed>7.3</speed>
<temp>0.00</temp>
<bpm>0</bpm>
<rpm>0.00</rpm>
</extensions>
</trkpt>
<trkpt lat="64.030784607" lon="-19.088090897">
<ele>630.171875</ele>
<time>2012-07-22T13:26:46Z</time>
<speed>2.250000</speed>
<extensions>
<speed>2.3</speed>
<temp>0.00</temp>
<bpm>0</bpm>
<rpm>0.00</rpm>
</extensions>
</trkpt>
<trkpt lat="64.030815125" lon="-19.087972641">
<ele>630.468750</ele>
<time>2012-07-22T13:26:51Z</time>
<speed>0.190000</speed>
<extensions>
<speed>0.2</speed>
<temp>0.00</temp>
<bpm>0</bpm>
<rpm>0.00</rpm>
</extensions>
</trkpt>
<trkpt lat="64.030807495" lon="-19.087966919">
<ele>630.375000</ele>
<time>2012-07-22T13:26:56Z</time>
<speed>0.070000</speed>
<extensions>
<speed>0.1</speed>
<temp>0.00</temp>
<bpm>0</bpm>
<rpm>0.00</rpm>
</extensions>
</trkpt>
<trkpt lat="64.030838013" lon="-19.087915421">
<ele>631.234375</ele>
<time>2012-07-22T13:27:01Z</time>
<speed>1.190000</speed>
<extensions>
<speed>1.2</speed>
<temp>0.00</temp>
<bpm>0</bpm>
<rpm>0.00</rpm>
</extensions>
</trkpt>
<trkpt lat="64.030868530" lon="-19.087823868">
<ele>632.125000</ele>
<time>2012-07-22T13:27:06Z</time>
<speed>0.860000</speed>
<extensions>
<speed>0.9</speed>
<temp>0.00</temp>
<bpm>0</bpm>
<rpm>0.00</rpm>
</extensions>
</trkpt>
<trkpt lat="64.030899048" lon="-19.087736130">
<ele>633.328125</ele>
<time>2012-07-22T13:27:11Z</time>
<speed>0.640000</speed>
<extensions>
<speed>0.6</speed>
<temp>0.00</temp>
<bpm>0</bpm>
<rpm>0.00</rpm>
</extensions>
</trkpt>
<trkpt lat="64.030921936" lon="-19.087661743">
<ele>634.484375</ele>
<time>2012-07-22T13:27:16Z</time>
<speed>0.830000</speed>
<extensions>
<speed>0.8</speed>
<temp>0.00</temp>
<bpm>0</bpm>
<rpm>0.00</rpm>
</extensions>
</trkpt>
<trkpt lat="64.030944824" lon="-19.087587357">
<ele>635.515625</ele>
<time>2012-07-22T13:27:21Z</time>
<speed>0.810000</speed>
<extensions>
<speed>0.8</speed>
<temp>0.00</temp>
<bpm>0</bpm>
<rpm>0.00</rpm>
</extensions>
</trkpt>
<trkpt lat="64.030960083" lon="-19.087511063">
<ele>636.203125</ele>
<time>2012-07-22T13:27:26Z</time>
<speed>0.930000</speed>
<extensions>
<speed>0.9</speed>
<temp>0.00</temp>
<bpm>0</bpm>
<rpm>0.00</rpm>
</extensions>
</trkpt>
<trkpt lat="64.030982971" lon="-19.087423325">
<ele>637.328125</ele>
<time>2012-07-22T13:27:31Z</time>
<speed>0.930000</speed>
<extensions>
<speed>0.9</speed>
<temp>0.00</temp>
<bpm>0</bpm>
<rpm>0.00</rpm>
</extensions>
</trkpt>
<trkpt lat="64.030998230" lon="-19.087322235">
<ele>638.296875</ele>
<time>2012-07-22T13:27:36Z</time>
<speed>1.010000</speed>
<extensions>
<speed>1.0</speed>
<temp>0.00</temp>
<bpm>0</bpm>
<rpm>0.00</rpm>
</extensions>
</trkpt>
<trkpt lat="64.030998230" lon="-19.087242126">
<ele>639.015625</ele>
<time>2012-07-22T13:27:41Z</time>
<speed>1.060000</speed>
<extensions>
<speed>1.1</speed>
<temp>0.00</temp>
<bpm>0</bpm>
<rpm>0.00</rpm>
</extensions>
</trkpt>
<trkpt lat="64.031005859" lon="-19.087139130">
<ele>639.562500</ele>
<time>2012-07-22T13:27:46Z</time>
<speed>1.160000</speed>
<extensions>
<speed>1.2</speed>
<temp>0.00</temp>
<bpm>0</bpm>
<rpm>0.00</rpm>
</extensions>
</trkpt>
<trkpt lat="64.031005859" lon="-19.087032318">
<ele>639.390625</ele>
<time>2012-07-22T13:27:51Z</time>
<speed>1.230000</speed>
<extensions>
<speed>1.2</speed>
<temp>0.00</temp>
<bpm>0</bpm>
<rpm>0.00</rpm>
</extensions>
</trkpt>
<trkpt lat="64.030998230" lon="-19.086925507">
<ele>638.890625</ele>
<time>2012-07-22T13:27:56Z</time>
<speed>1.020000</speed>
<extensions>
<speed>1.0</speed>
<temp>0.00</temp>
<bpm>0</bpm>
<rpm>0.00</rpm>
</extensions>
</trkpt>
<trkpt lat="64.030998230" lon="-19.086851120">
<ele>638.718750</ele>
<time>2012-07-22T13:28:01Z</time>
<speed>0.490000</speed>
<extensions>
<speed>0.5</speed>
<temp>0.00</temp>
<bpm>0</bpm>
<rpm>0.00</rpm>
</extensions>
</trkpt>
<trkpt lat="64.030990601" lon="-19.086791992">
<ele>638.062500</ele>
<time>2012-07-22T13:28:06Z</time>
<speed>1.590000</speed>
<extensions>
<speed>1.6</speed>
<temp>0.00</temp>
<bpm>0</bpm>
<rpm>0.00</rpm>
</extensions>
</trkpt>
<trkpt lat="64.030975342" lon="-19.086618423">
<ele>637.296875</ele>
<time>2012-07-22T13:28:11Z</time>
<speed>2.200000</speed>
<extensions>
<speed>2.2</speed>
<temp>0.00</temp>
<bpm>0</bpm>
<rpm>0.00</rpm>
</extensions>
</trkpt>
<trkpt lat="64.030960083" lon="-19.086366653">
<ele>636.437500</ele>
<time>2012-07-22T13:28:16Z</time>
<speed>2.760000</speed>
<extensions>
<speed>2.8</speed>
<temp>0.00</temp>
<bpm>0</bpm>
<rpm>0.00</rpm>
</extensions>
</trkpt>
<trkpt lat="64.030921936" lon="-19.086128235">
<ele>636.343750</ele>
<time>2012-07-22T13:28:21Z</time>
<speed>2.300000</speed>
<extensions>
<speed>2.3</speed>
<temp>0.00</temp>
<bpm>0</bpm>
<rpm>0.00</rpm>
</extensions>
</trkpt>
<trkpt lat="64.030876160" lon="-19.085939407">
<ele>636.390625</ele>
<time>2012-07-22T13:28:26Z</time>
<speed>0.540000</speed>
<extensions>
<speed>0.5</speed>
<temp>0.00</temp>
<bpm>0</bpm>
<rpm>0.00</rpm>
</extensions>
</trkpt>
<trkpt lat="64.030876160" lon="-19.085929871">
<ele>637.359375</ele>
<time>2012-07-22T13:28:31Z</time>
<extensions>
<speed>0.0</speed>
<temp>0.00</temp>
<bpm>0</bpm>
<rpm>0.00</rpm>
</extensions>
</trkpt>
<trkpt lat="64.030876160" lon="-19.085929871">
<ele>637.359375</ele>
<time>2012-07-22T13:28:36Z</time>
<speed>0.030000</speed>
<extensions>
<speed>0.0</speed>
<temp>0.00</temp>
<bpm>0</bpm>
<rpm>0.00</rpm>
</extensions>
</trkpt>
<trkpt lat="64.030876160" lon="-19.085929871">
<ele>637.359375</ele>
<time>2012-07-22T13:28:41Z</time>
<speed>0.020000</speed>
<extensions>
<speed>0.0</speed>
<temp>0.00</temp>
<bpm>0</bpm>
<rpm>0.00</rpm>
</extensions>
</trkpt>
<trkpt lat="64.030876160" lon="-19.085929871">
<ele>637.359375</ele>
<time>2012-07-22T13:28:46Z</time>
<speed>0.010000</speed>
<extensions>
<speed>0.0</speed>
<temp>0.00</temp>
<bpm>0</bpm>
<rpm>0.00</rpm>
</extensions>
</trkpt>
<trkpt lat="64.030876160" lon="-19.085929871">
<ele>637.375000</ele>
<time>2012-07-22T13:28:51Z</time>
<extensions>
<speed>0.0</speed>
<temp>0.00</temp>
<bpm>0</bpm>
<rpm>0.00</rpm>
</extensions>
</trkpt>
<trkpt lat="64.030876160" lon="-19.085929871">
<ele>637.375000</ele>
<time>2012-07-22T13:28:56Z</time>
<extensions>
<speed>0.0</speed>
<temp>0.00</temp>
<bpm>0</bpm>
<rpm>0.00</rpm>
</extensions>
</trkpt>
<trkpt lat="64.030876160" lon="-19.085929871">
<ele>637.375000</ele>
<time>2012-07-22T13:29:01Z</time>
<speed>0.010000</speed>
<extensions>
<speed>0.0</speed>
<temp>0.00</temp>
<bpm>0</bpm>
<rpm>0.00</rpm>
</extensions>
</trkpt>
<trkpt lat="64.030876160" lon="-19.085929871">
<ele>637.375000</ele>
<time>2012-07-22T13:29:06Z</time>
<extensions>
<speed>0.0</speed>
<temp>0.00</temp>
<bpm>0</bpm>
<rpm>0.00</rpm>
</extensions>
</trkpt>
<trkpt lat="64.030876160" lon="-19.085929871">
<ele>637.390625</ele>
<time>2012-07-22T13:29:11Z</time>
<extensions>
<speed>0.0</speed>
<temp>0.00</temp>
<bpm>0</bpm>
<rpm>0.00</rpm>
</extensions>
</trkpt>
<trkpt lat="64.030876160" lon="-19.085929871">
<ele>637.390625</ele>
<time>2012-07-22T13:29:16Z</time>
<extensions>
<speed>0.0</speed>
<temp>0.00</temp>
<bpm>0</bpm>
<rpm>0.00</rpm>
</extensions>
</trkpt>
<trkpt lat="64.030868530" lon="-19.085910797">
<ele>637.171875</ele>
<time>2012-07-22T13:29:21Z</time>
<speed>1.410000</speed>
<extensions>
<speed>1.4</speed>
<temp>0.00</temp>
<bpm>0</bpm>
<rpm>0.00</rpm>
</extensions>
</trkpt>
<trkpt lat="64.030830383" lon="-19.085826874">
<ele>636.781250</ele>
<time>2012-07-22T13:29:26Z</time>
<speed>0.120000</speed>
<extensions>
<speed>0.1</speed>
<temp>0.00</temp>
<bpm>0</bpm>
<rpm>0.00</rpm>
</extensions>
</trkpt>
<trkpt lat="64.030830383" lon="-19.085824966">
<ele>637.046875</ele>
<time>2012-07-22T13:29:31Z</time>
<extensions>
<speed>0.0</speed>
<temp>0.00</temp>
<bpm>0</bpm>
<rpm>0.00</rpm>
</extensions>
</trkpt>
<trkpt lat="64.030830383" lon="-19.085824966">
<ele>637.062500</ele>
<time>2012-07-22T13:29:36Z</time>
<extensions>
<speed>0.0</speed>
<temp>0.00</temp>
<bpm>0</bpm>
<rpm>0.00</rpm>
</extensions>
</trkpt>
<trkpt lat="64.030830383" lon="-19.085826874">
<ele>637.046875</ele>
<time>2012-07-22T13:29:41Z</time>
<extensions>
<speed>0.0</speed>
<temp>0.00</temp>
<bpm>0</bpm>
<rpm>0.00</rpm>
</extensions>
</trkpt>
<trkpt lat="64.030830383" lon="-19.085826874">
<ele>637.031250</ele>
<time>2012-07-22T13:29:46Z</time>
<speed>0.010000</speed>
<extensions>
<speed>0.0</speed>
<temp>0.00</temp>
<bpm>0</bpm>
<rpm>0.00</rpm>
</extensions>
</trkpt>
<trkpt lat="64.030830383" lon="-19.085826874">
<ele>637.046875</ele>
<time>2012-07-22T13:29:51Z</time>
<extensions>
<speed>0.0</speed>
<temp>0.00</temp>
<bpm>0</bpm>
<rpm>0.00</rpm>
</extensions>
</trkpt>
<trkpt lat="64.030830383" lon="-19.085824966">
<ele>637.046875</ele>
<time>2012-07-22T13:29:56Z</time>
<extensions>
<speed>0.0</speed>
<temp>0.00</temp>
<bpm>0</bpm>
<rpm>0.00</rpm>
</extensions>
</trkpt>
<trkpt lat="64.030830383" lon="-19.085824966">
<ele>637.062500</ele>
<time>2012-07-22T13:30:01Z</time>
<extensions>
<speed>0.0</speed>
<temp>0.00</temp>
<bpm>0</bpm>
<rpm>0.00</rpm>
</extensions>
</trkpt>
<trkpt lat="64.030830383" lon="-19.085824966">
<ele>637.062500</ele>
<time>2012-07-22T13:30:06Z</time>
<speed>0.010000</speed>
<extensions>
<speed>0.0</speed>
<temp>0.00</temp>
<bpm>0</bpm>
<rpm>0.00</rpm>
</extensions>
</trkpt>
<trkpt lat="64.030830383" lon="-19.085824966">
<ele>637.078125</ele>
<time>2012-07-22T13:30:11Z</time>
<speed>0.570000</speed>
<extensions>
<speed>0.6</speed>
<temp>0.00</temp>
<bpm>0</bpm>
<rpm>0.00</rpm>
</extensions>
</trkpt>
<trkpt lat="64.030723572" lon="-19.085725784">
<ele>635.687500</ele>
<time>2012-07-22T13:30:16Z</time>
<speed>4.000000</speed>
<extensions>
<speed>4.0</speed>
<temp>0.00</temp>
<bpm>0</bpm>
<rpm>0.00</rpm>
</extensions>
</trkpt>
<trkpt lat="64.030517578" lon="-19.085477829">
<ele>632.687500</ele>
<time>2012-07-22T13:30:21Z</time>
<speed>5.430000</speed>
<extensions>
<speed>5.4</speed>
<temp>0.00</temp>
<bpm>0</bpm>
<rpm>0.00</rpm>
</extensions>
</trkpt>
<trkpt lat="64.030197144" lon="-19.085048676">
<ele>629.312500</ele>
<time>2012-07-22T13:30:26Z</time>
<speed>9.510000</speed>
<extensions>
<speed>9.5</speed>
<temp>0.00</temp>
<bpm>0</bpm>
<rpm>0.00</rpm>
</extensions>
</trkpt>
<trkpt lat="64.029914856" lon="-19.084291458">
<ele>623.546875</ele>
<time>2012-07-22T13:30:31Z</time>
<speed>9.130000</speed>
<extensions>
<speed>9.1</speed>
<temp>0.00</temp>
<bpm>0</bpm>
<rpm>0.00</rpm>
</extensions>
</trkpt>
<trkpt lat="64.029792786" lon="-19.083448410">
<ele>621.390625</ele>
<time>2012-07-22T13:30:36Z</time>
<speed>7.490000</speed>
<extensions>
<speed>7.5</speed>
<temp>0.00</temp>
<bpm>0</bpm>
<rpm>0.00</rpm>
</extensions>
</trkpt>
<trkpt lat="64.029792786" lon="-19.082824707">
<ele>621.687500</ele>
<time>2012-07-22T13:30:41Z</time>
<speed>4.210000</speed>
<extensions>
<speed>4.2</speed>
<temp>0.00</temp>
<bpm>0</bpm>
<rpm>0.00</rpm>
</extensions>
</trkpt>
<trkpt lat="64.029815674" lon="-19.082540512">
<ele>622.062500</ele>
<time>2012-07-22T13:30:46Z</time>
<speed>2.410000</speed>
<extensions>
<speed>2.4</speed>
<temp>0.00</temp>
<bpm>0</bpm>
<rpm>0.00</rpm>
</extensions>
</trkpt>
<trkpt lat="64.029830933" lon="-19.082304001">
<ele>621.921875</ele>
<time>2012-07-22T13:30:51Z</time>
<speed>2.340000</speed>
<extensions>
<speed>2.3</speed>
<temp>0.00</temp>
<bpm>0</bpm>
<rpm>0.00</rpm>
</extensions>
</trkpt>
<trkpt lat="64.029846191" lon="-19.082117081">
<ele>622.734375</ele>
<time>2012-07-22T13:30:56Z</time>
<speed>1.840000</speed>
<extensions>
<speed>1.8</speed>
<temp>0.00</temp>
<bpm>0</bpm>
<rpm>0.00</rpm>
</extensions>
</trkpt>
<trkpt lat="64.029869080" lon="-19.081920624">
<ele>623.359375</ele>
<time>2012-07-22T13:31:01Z</time>
<speed>2.230000</speed>
<extensions>
<speed>2.2</speed>
<temp>0.00</temp>
<bpm>0</bpm>
<rpm>0.00</rpm>
</extensions>
</trkpt>
<trkpt lat="64.029899597" lon="-19.081710815">
<ele>624.312500</ele>
<time>2012-07-22T13:31:06Z</time>
<speed>2.220000</speed>
<extensions>
<speed>2.2</speed>
<temp>0.00</temp>
<bpm>0</bpm>
<rpm>0.00</rpm>
</extensions>
</trkpt>
<trkpt lat="64.029922485" lon="-19.081495285">
<ele>624.843750</ele>
<time>2012-07-22T13:31:11Z</time>
<speed>2.340000</speed>
<extensions>
<speed>2.3</speed>
<temp>0.00</temp>
<bpm>0</bpm>
<rpm>0.00</rpm>
</extensions>
</trkpt>
<trkpt lat="64.029975891" lon="-19.081333160">
<ele>625.140625</ele>
<time>2012-07-22T13:31:16Z</time>
<speed>1.550000</speed>
<extensions>
<speed>1.5</speed>
<temp>0.00</temp>
<bpm>0</bpm>
<rpm>0.00</rpm>
</extensions>
</trkpt>
<trkpt lat="64.030006409" lon="-19.081193924">
<ele>625.171875</ele>
<time>2012-07-22T13:31:21Z</time>
<speed>1.550000</speed>
<extensions>
<speed>1.5</speed>
<temp>0.00</temp>
<bpm>0</bpm>
<rpm>0.00</rpm>
</extensions>
</trkpt>
<trkpt lat="64.030014038" lon="-19.081150055">
<ele>625.234375</ele>
<time>2012-07-22T13:31:26Z</time>
<speed>0.040000</speed>
<extensions>
<speed>0.0</speed>
<temp>0.00</temp>
<bpm>0</bpm>
<rpm>0.00</rpm>
</extensions>
</trkpt>
<trkpt lat="64.030036926" lon="-19.081068039">
<ele>625.609375</ele>
<time>2012-07-22T13:31:31Z</time>
<speed>2.260000</speed>
<extensions>
<speed>2.3</speed>
<temp>0.00</temp>
<bpm>0</bpm>
<rpm>0.00</rpm>
</extensions>
</trkpt>
<trkpt lat="64.030113220" lon="-19.080854416">
<ele>625.781250</ele>
<time>2012-07-22T13:31:36Z</time>
<speed>2.830000</speed>
<extensions>
<speed>2.8</speed>
<temp>0.00</temp>
<bpm>0</bpm>
<rpm>0.00</rpm>
</extensions>
</trkpt>
<trkpt lat="64.030197144" lon="-19.080604553">
<ele>625.437500</ele>
<time>2012-07-22T13:31:41Z</time>
<speed>3.350000</speed>
<extensions>
<speed>3.4</speed>
<temp>0.00</temp>
<bpm>0</bpm>
<rpm>0.00</rpm>
</extensions>
</trkpt>
<trkpt lat="64.030281067" lon="-19.080324173">
<ele>625.046875</ele>
<time>2012-07-22T13:31:46Z</time>
<speed>3.480000</speed>
<extensions>
<speed>3.5</speed>
<temp>0.00</temp>
<bpm>0</bpm>
<rpm>0.00</rpm>
</extensions>
</trkpt>
<trkpt lat="64.030372620" lon="-19.080011368">
<ele>624.781250</ele>
<time>2012-07-22T13:31:51Z</time>
<speed>3.470000</speed>
<extensions>
<speed>3.5</speed>
<temp>0.00</temp>
<bpm>0</bpm>
<rpm>0.00</rpm>
</extensions>
</trkpt>
<trkpt lat="64.030464172" lon="-19.079696655">
<ele>624.390625</ele>
<time>2012-07-22T13:31:56Z</time>
<speed>3.860000</speed>
<extensions>
<speed>3.9</speed>
<temp>0.00</temp>
<bpm>0</bpm>
<rpm>0.00</rpm>
</extensions>
</trkpt>
<trkpt lat="64.030548096" lon="-19.079349518">
<ele>623.718750</ele>
<time>2012-07-22T13:32:01Z</time>
<speed>3.870000</speed>
<extensions>
<speed>3.9</speed>
<temp>0.00</temp>
<bpm>0</bpm>
<rpm>0.00</rpm>
</extensions>
</trkpt>
<trkpt lat="64.030639648" lon="-19.078948975">
<ele>622.937500</ele>
<time>2012-07-22T13:32:06Z</time>
<speed>4.410000</speed>
<extensions>
<speed>4.4</speed>
<temp>0.00</temp>
<bpm>0</bpm>
<rpm>0.00</rpm>
</extensions>
</trkpt>
<trkpt lat="64.030700684" lon="-19.078535080">
<ele>622.218750</ele>
<time>2012-07-22T13:32:11Z</time>
<speed>4.090000</speed>
<extensions>
<speed>4.1</speed>
<temp>0.00</temp>
<bpm>0</bpm>
<rpm>0.00</rpm>
</extensions>
</trkpt>
<trkpt lat="64.030723572" lon="-19.078138351">
<ele>621.750000</ele>
<time>2012-07-22T13:32:16Z</time>
<speed>3.900000</speed>
<extensions>
<speed>3.9</speed>
<temp>0.00</temp>
<bpm>0</bpm>
<rpm>0.00</rpm>
</extensions>
</trkpt>
<trkpt lat="64.030723572" lon="-19.077735901">
<ele>621.250000</ele>
<time>2012-07-22T13:32:21Z</time>
<speed>3.940000</speed>
<extensions>
<speed>3.9</speed>
<temp>0.00</temp>
<bpm>0</bpm>
<rpm>0.00</rpm>
</extensions>
</trkpt>
<trkpt lat="64.030715942" lon="-19.077325821">
<ele>620.265625</ele>
<time>2012-07-22T13:32:26Z</time>
<speed>4.440000</speed>
<extensions>
<speed>4.4</speed>
<temp>0.00</temp>
<bpm>0</bpm>
<rpm>0.00</rpm>
</extensions>
</trkpt>
<trkpt lat="64.030723572" lon="-19.076890945">
<ele>619.609375</ele>
<time>2012-07-22T13:32:31Z</time>
<speed>4.290000</speed>
<extensions>
<speed>4.3</speed>
<temp>0.00</temp>
<bpm>0</bpm>
<rpm>0.00</rpm>
</extensions>
</trkpt>
<trkpt lat="64.030769348" lon="-19.076463699">
<ele>619.218750</ele>
<time>2012-07-22T13:32:36Z</time>
<speed>4.390000</speed>
<extensions>
<speed>4.4</speed>
<temp>0.00</temp>
<bpm>0</bpm>
<rpm>0.00</rpm>
</extensions>
</trkpt>
<trkpt lat="64.030860901" lon="-19.076002121">
<ele>618.578125</ele>
<time>2012-07-22T13:32:41Z</time>
<speed>5.180000</speed>
<extensions>
<speed>5.2</speed>
<temp>0.00</temp>
<bpm>0</bpm>
<rpm>0.00</rpm>
</extensions>
</trkpt>
<trkpt lat="64.030967712" lon="-19.075502396">
<ele>617.328125</ele>
<time>2012-07-22T13:32:46Z</time>
<speed>5.340000</speed>
<extensions>
<speed>5.3</speed>
<temp>0.00</temp>
<bpm>0</bpm>
<rpm>0.00</rpm>
</extensions>
</trkpt>
<trkpt lat="64.031066895" lon="-19.075077057">
<ele>616.765625</ele>
<time>2012-07-22T13:32:51Z</time>
<speed>4.220000</speed>
<extensions>
<speed>4.2</speed>
<temp>0.00</temp>
<bpm>0</bpm>
<rpm>0.00</rpm>
</extensions>
</trkpt>
<trkpt lat="64.031196594" lon="-19.074676514">
<ele>615.625000</ele>
<time>2012-07-22T13:32:56Z</time>
<speed>5.500000</speed>
<extensions>
<speed>5.5</speed>
<temp>0.00</temp>
<bpm>0</bpm>
<rpm>0.00</rpm>
</extensions>
</trkpt>
<trkpt lat="64.031364441" lon="-19.074241638">
<ele>614.750000</ele>
<time>2012-07-22T13:33:01Z</time>
<speed>5.150000</speed>
<extensions>
<speed>5.2</speed>
<temp>0.00</temp>
<bpm>0</bpm>
<rpm>0.00</rpm>
</extensions>
</trkpt>
<trkpt lat="64.031517029" lon="-19.073963165">
<ele>615.078125</ele>
<time>2012-07-22T13:33:06Z</time>
<speed>4.030000</speed>
<extensions>
<speed>4.0</speed>
<temp>0.00</temp>
<bpm>0</bpm>
<rpm>0.00</rpm>
</extensions>
</trkpt>
<trkpt lat="64.031661987" lon="-19.073747635">
<ele>613.593750</ele>
<time>2012-07-22T13:33:11Z</time>
<speed>3.510000</speed>
<extensions>
<speed>3.5</speed>
<temp>0.00</temp>
<bpm>0</bpm>
<rpm>0.00</rpm>
</extensions>
</trkpt>
<trkpt lat="64.031761169" lon="-19.073324203">
<ele>611.937500</ele>
<time>2012-07-22T13:33:16Z</time>
<speed>6.670000</speed>
<extensions>
<speed>6.7</speed>
<temp>0.00</temp>
<bpm>0</bpm>
<rpm>0.00</rpm>
</extensions>
</trkpt>
<trkpt lat="64.031791687" lon="-19.072492599">
<ele>606.812500</ele>
<time>2012-07-22T13:33:21Z</time>
<speed>8.510000</speed>
<extensions>
<speed>8.5</speed>
<temp>0.00</temp>
<bpm>0</bpm>
<rpm>0.00</rpm>
</extensions>
</trkpt>
<trkpt lat="64.031814575" lon="-19.071666718">
<ele>604.515625</ele>
<time>2012-07-22T13:33:26Z</time>
<speed>7.300000</speed>
<extensions>
<speed>7.3</speed>
<temp>0.00</temp>
<bpm>0</bpm>
<rpm>0.00</rpm>
</extensions>
</trkpt>
<trkpt lat="64.031860352" lon="-19.071037292">
<ele>604.359375</ele>
<time>2012-07-22T13:33:31Z</time>
<speed>5.770000</speed>
<extensions>
<speed>5.8</speed>
<temp>0.00</temp>
<bpm>0</bpm>
<rpm>0.00</rpm>
</extensions>
</trkpt>
<trkpt lat="64.031890869" lon="-19.070529938">
<ele>605.484375</ele>
<time>2012-07-22T13:33:36Z</time>
<speed>4.310000</speed>
<extensions>
<speed>4.3</speed>
<temp>0.00</temp>
<bpm>0</bpm>
<rpm>0.00</rpm>
</extensions>
</trkpt>
<trkpt lat="64.031906128" lon="-19.070112228">
<ele>603.046875</ele>
<time>2012-07-22T13:33:41Z</time>
<speed>4.030000</speed>
<extensions>
<speed>4.0</speed>
<temp>0.00</temp>
<bpm>0</bpm>
<rpm>0.00</rpm>
</extensions>
</trkpt>
<trkpt lat="64.031921387" lon="-19.069753647">
<ele>602.468750</ele>
<time>2012-07-22T13:33:46Z</time>
<speed>3.350000</speed>
<extensions>
<speed>3.4</speed>
<temp>0.00</temp>
<bpm>0</bpm>
<rpm>0.00</rpm>
</extensions>
</trkpt>
<trkpt lat="64.031936646" lon="-19.069423676">
<ele>601.859375</ele>
<time>2012-07-22T13:33:51Z</time>
<speed>3.540000</speed>
<extensions>
<speed>3.5</speed>
<temp>0.00</temp>
<bpm>0</bpm>
<rpm>0.00</rpm>
</extensions>
</trkpt>
<trkpt lat="64.031944275" lon="-19.069076538">
<ele>601.796875</ele>
<time>2012-07-22T13:33:56Z</time>
<speed>3.360000</speed>
<extensions>
<speed>3.4</speed>
<temp>0.00</temp>
<bpm>0</bpm>
<rpm>0.00</rpm>
</extensions>
</trkpt>
<trkpt lat="64.031959534" lon="-19.068777084">
<ele>601.312500</ele>
<time>2012-07-22T13:34:01Z</time>
<speed>2.850000</speed>
<extensions>
<speed>2.9</speed>
<temp>0.00</temp>
<bpm>0</bpm>
<rpm>0.00</rpm>
</extensions>
</trkpt>
<trkpt lat="64.031974792" lon="-19.068471909">
<ele>600.937500</ele>
<time>2012-07-22T13:34:06Z</time>
<speed>3.060000</speed>
<extensions>
<speed>3.1</speed>
<temp>0.00</temp>
<bpm>0</bpm>
<rpm>0.00</rpm>
</extensions>
</trkpt>
<trkpt lat="64.031982422" lon="-19.068180084">
<ele>600.656250</ele>
<time>2012-07-22T13:34:11Z</time>
<speed>2.760000</speed>
<extensions>
<speed>2.8</speed>
<temp>0.00</temp>
<bpm>0</bpm>
<rpm>0.00</rpm>
</extensions>
</trkpt>
<trkpt lat="64.031997681" lon="-19.067899704">
<ele>600.656250</ele>
<time>2012-07-22T13:34:16Z</time>
<speed>2.890000</speed>
<extensions>
<speed>2.9</speed>
<temp>0.00</temp>
<bpm>0</bpm>
<rpm>0.00</rpm>
</extensions>
</trkpt>
<trkpt lat="64.032012939" lon="-19.067609787">
<ele>600.171875</ele>
<time>2012-07-22T13:34:21Z</time>
<speed>3.100000</speed>
<extensions>
<speed>3.1</speed>
<temp>0.00</temp>
<bpm>0</bpm>
<rpm>0.00</rpm>
</extensions>
</trkpt>
<trkpt lat="64.032028198" lon="-19.067251205">
<ele>600.375000</ele>
<time>2012-07-22T13:34:26Z</time>
<speed>3.190000</speed>
<extensions>
<speed>3.2</speed>
<temp>0.00</temp>
<bpm>0</bpm>
<rpm>0.00</rpm>
</extensions>
</trkpt>
<trkpt lat="64.032058716" lon="-19.066892624">
<ele>599.812500</ele>
<time>2012-07-22T13:34:31Z</time>
<speed>3.630000</speed>
<extensions>
<speed>3.6</speed>
<temp>0.00</temp>
<bpm>0</bpm>
<rpm>0.00</rpm>
</extensions>
</trkpt>
<trkpt lat="64.032066345" lon="-19.066560745">
<ele>598.468750</ele>
<time>2012-07-22T13:34:36Z</time>
<speed>3.060000</speed>
<extensions>
<speed>3.1</speed>
<temp>0.00</temp>
<bpm>0</bpm>
<rpm>0.00</rpm>
</extensions>
</trkpt>
<trkpt lat="64.032073975" lon="-19.066247940">
<ele>603.109375</ele>
<time>2012-07-22T13:34:41Z</time>
<speed>3.230000</speed>
<extensions>
<speed>3.2</speed>
<temp>0.00</temp>
<bpm>0</bpm>
<rpm>0.00</rpm>
</extensions>
</trkpt>
<trkpt lat="64.032081604" lon="-19.065919876">
<ele>602.031250</ele>
<time>2012-07-22T13:34:46Z</time>
<speed>3.040000</speed>
<extensions>
<speed>3.0</speed>
<temp>0.00</temp>
<bpm>0</bpm>
<rpm>0.00</rpm>
</extensions>
</trkpt>
<trkpt lat="64.032096863" lon="-19.065612793">
<ele>601.281250</ele>
<time>2012-07-22T13:34:51Z</time>
<speed>2.790000</speed>
<extensions>
<speed>2.8</speed>
<temp>0.00</temp>
<bpm>0</bpm>
<rpm>0.00</rpm>
</extensions>
</trkpt>
<trkpt lat="64.032104492" lon="-19.065311432">
<ele>601.250000</ele>
<time>2012-07-22T13:34:56Z</time>
<speed>2.980000</speed>
<extensions>
<speed>3.0</speed>
<temp>0.00</temp>
<bpm>0</bpm>
<rpm>0.00</rpm>
</extensions>
</trkpt>
<trkpt lat="64.032112122" lon="-19.064992905">
<ele>599.859375</ele>
<time>2012-07-22T13:35:01Z</time>
<speed>2.970000</speed>
<extensions>
<speed>3.0</speed>
<temp>0.00</temp>
<bpm>0</bpm>
<rpm>0.00</rpm>
</extensions>
</trkpt>
<trkpt lat="64.032127380" lon="-19.064695358">
<ele>599.500000</ele>
<time>2012-07-22T13:35:06Z</time>
<speed>3.180000</speed>
<extensions>
<speed>3.2</speed>
<temp>0.00</temp>
<bpm>0</bpm>
<rpm>0.00</rpm>
</extensions>
</trkpt>
<trkpt lat="64.032142639" lon="-19.064382553">
<ele>598.906250</ele>
<time>2012-07-22T13:35:11Z</time>
<speed>3.070000</speed>
<extensions>
<speed>3.1</speed>
<temp>0.00</temp>
<bpm>0</bpm>
<rpm>0.00</rpm>
</extensions>
</trkpt>
<trkpt lat="64.032150269" lon="-19.064081192">
<ele>598.343750</ele>
<time>2012-07-22T13:35:16Z</time>
<speed>2.940000</speed>
<extensions>
<speed>2.9</speed>
<temp>0.00</temp>
<bpm>0</bpm>
<rpm>0.00</rpm>
</extensions>
</trkpt>
<trkpt lat="64.032165527" lon="-19.063781738">
<ele>598.156250</ele>
<time>2012-07-22T13:35:21Z</time>
<speed>2.700000</speed>
<extensions>
<speed>2.7</speed>
<temp>0.00</temp>
<bpm>0</bpm>
<rpm>0.00</rpm>
</extensions>
</trkpt>
<trkpt lat="64.032165527" lon="-19.063488007">
<ele>597.406250</ele>
<time>2012-07-22T13:35:26Z</time>
<speed>2.980000</speed>
<extensions>
<speed>3.0</speed>
<temp>0.00</temp>
<bpm>0</bpm>
<rpm>0.00</rpm>
</extensions>
</trkpt>
<trkpt lat="64.032180786" lon="-19.063177109">
<ele>598.265625</ele>
<time>2012-07-22T13:35:31Z</time>
<speed>3.090000</speed>
<extensions>
<speed>3.1</speed>
<temp>0.00</temp>
<bpm>0</bpm>
<rpm>0.00</rpm>
</extensions>
</trkpt>
<trkpt lat="64.032188416" lon="-19.062866211">
<ele>598.187500</ele>
<time>2012-07-22T13:35:36Z</time>
<speed>3.140000</speed>
<extensions>
<speed>3.1</speed>
<temp>0.00</temp>
<bpm>0</bpm>
<rpm>0.00</rpm>
</extensions>
</trkpt>
<trkpt lat="64.032196045" lon="-19.062540054">
<ele>598.062500</ele>
<time>2012-07-22T13:35:41Z</time>
<speed>3.100000</speed>
<extensions>
<speed>3.1</speed>
<temp>0.00</temp>
<bpm>0</bpm>
<rpm>0.00</rpm>
</extensions>
</trkpt>
<trkpt lat="64.032203674" lon="-19.062229156">
<ele>597.906250</ele>
<time>2012-07-22T13:35:46Z</time>
<speed>2.980000</speed>
<extensions>
<speed>3.0</speed>
<temp>0.00</temp>
<bpm>0</bpm>
<rpm>0.00</rpm>
</extensions>
</trkpt>
<trkpt lat="64.032218933" lon="-19.061922073">
<ele>598.109375</ele>
<time>2012-07-22T13:35:51Z</time>
<speed>3.130000</speed>
<extensions>
<speed>3.1</speed>
<temp>0.00</temp>
<bpm>0</bpm>
<rpm>0.00</rpm>
</extensions>
</trkpt>
<trkpt lat="64.032226563" lon="-19.061601639">
<ele>597.625000</ele>
<time>2012-07-22T13:35:56Z</time>
<speed>3.250000</speed>
<extensions>
<speed>3.2</speed>
<temp>0.00</temp>
<bpm>0</bpm>
<rpm>0.00</rpm>
</extensions>
</trkpt>
<trkpt lat="64.032241821" lon="-19.061277390">
<ele>597.718750</ele>
<time>2012-07-22T13:36:01Z</time>
<speed>3.100000</speed>
<extensions>
<speed>3.1</speed>
<temp>0.00</temp>
<bpm>0</bpm>
<rpm>0.00</rpm>
</extensions>
</trkpt>
<trkpt lat="64.032257080" lon="-19.060977936">
<ele>596.750000</ele>
<time>2012-07-22T13:36:06Z</time>
<speed>2.920000</speed>
<extensions>
<speed>2.9</speed>
<temp>0.00</temp>
<bpm>0</bpm>
<rpm>0.00</rpm>
</extensions>
</trkpt>
<trkpt lat="64.032272339" lon="-19.060697556">
<ele>596.234375</ele>
<time>2012-07-22T13:36:11Z</time>
<speed>2.020000</speed>
<extensions>
<speed>2.0</speed>
<temp>0.00</temp>
<bpm>0</bpm>
<rpm>0.00</rpm>
</extensions>
</trkpt>
<trkpt lat="64.032272339" lon="-19.060495377">
<ele>595.421875</ele>
<time>2012-07-22T13:36:16Z</time>
<speed>2.000000</speed>
<extensions>
<speed>2.0</speed>
<temp>0.00</temp>
<bpm>0</bpm>
<rpm>0.00</rpm>
</extensions>
</trkpt>
<trkpt lat="64.032272339" lon="-19.060279846">
<ele>594.328125</ele>
<time>2012-07-22T13:36:21Z</time>
<speed>2.030000</speed>
<extensions>
<speed>2.0</speed>
<temp>0.00</temp>
<bpm>0</bpm>
<rpm>0.00</rpm>
</extensions>
</trkpt>
<trkpt lat="64.032279968" lon="-19.060060501">
<ele>594.406250</ele>
<time>2012-07-22T13:36:26Z</time>
<speed>1.860000</speed>
<extensions>
<speed>1.9</speed>
<temp>0.00</temp>
<bpm>0</bpm>
<rpm>0.00</rpm>
</extensions>
</trkpt>
<trkpt lat="64.032279968" lon="-19.059858322">
<ele>593.703125</ele>
<time>2012-07-22T13:36:31Z</time>
<speed>1.840000</speed>
<extensions>
<speed>1.8</speed>
<temp>0.00</temp>
<bpm>0</bpm>
<rpm>0.00</rpm>
</extensions>
</trkpt>
<trkpt lat="64.032295227" lon="-19.059669495">
<ele>594.234375</ele>
<time>2012-07-22T13:36:36Z</time>
<speed>1.480000</speed>
<extensions>
<speed>1.5</speed>
<temp>0.00</temp>
<bpm>0</bpm>
<rpm>0.00</rpm>
</extensions>
</trkpt>
<trkpt lat="64.032302856" lon="-19.059495926">
<ele>594.390625</ele>
<time>2012-07-22T13:36:41Z</time>
<speed>1.680000</speed>
<extensions>
<speed>1.7</speed>
<temp>0.00</temp>
<bpm>0</bpm>
<rpm>0.00</rpm>
</extensions>
</trkpt>
<trkpt lat="64.032318115" lon="-19.059328079">
<ele>593.968750</ele>
<time>2012-07-22T13:36:46Z</time>
<speed>1.770000</speed>
<extensions>
<speed>1.8</speed>
<temp>0.00</temp>
<bpm>0</bpm>
<rpm>0.00</rpm>
</extensions>
</trkpt>
<trkpt lat="64.032356262" lon="-19.059133530">
<ele>593.718750</ele>
<time>2012-07-22T13:36:51Z</time>
<speed>2.160000</speed>
<extensions>
<speed>2.2</speed>
<temp>0.00</temp>
<bpm>0</bpm>
<rpm>0.00</rpm>
</extensions>
</trkpt>
<trkpt lat="64.032394409" lon="-19.058929443">
<ele>593.734375</ele>
<time>2012-07-22T13:36:56Z</time>
<speed>2.240000</speed>
<extensions>
<speed>2.2</speed>
<temp>0.00</temp>
<bpm>0</bpm>
<rpm>0.00</rpm>
</extensions>
</trkpt>
<trkpt lat="64.032440186" lon="-19.058731079">
<ele>593.890625</ele>
<time>2012-07-22T13:37:01Z</time>
<speed>2.330000</speed>
<extensions>
<speed>2.3</speed>
<temp>0.00</temp>
<bpm>0</bpm>
<rpm>0.00</rpm>
</extensions>
</trkpt>
<trkpt lat="64.032493591" lon="-19.058546066">
<ele>593.640625</ele>
<time>2012-07-22T13:37:06Z</time>
<speed>2.320000</speed>
<extensions>
<speed>2.3</speed>
<temp>0.00</temp>
<bpm>0</bpm>
<rpm>0.00</rpm>
</extensions>
</trkpt>
<trkpt lat="64.032554626" lon="-19.058345795">
<ele>593.484375</ele>
<time>2012-07-22T13:37:11Z</time>
<speed>2.460000</speed>
<extensions>
<speed>2.5</speed>
<temp>0.00</temp>
<bpm>0</bpm>
<rpm>0.00</rpm>
</extensions>
</trkpt>
<trkpt lat="64.032646179" lon="-19.058134079">
<ele>593.250000</ele>
<time>2012-07-22T13:37:16Z</time>
<speed>2.630000</speed>
<extensions>
<speed>2.6</speed>
<temp>0.00</temp>
<bpm>0</bpm>
<rpm>0.00</rpm>
</extensions>
</trkpt>
<trkpt lat="64.032730103" lon="-19.057920456">
<ele>593.265625</ele>
<time>2012-07-22T13:37:21Z</time>
<speed>2.560000</speed>
<extensions>
<speed>2.6</speed>
<temp>0.00</temp>
<bpm>0</bpm>
<rpm>0.00</rpm>
</extensions>
</trkpt>
<trkpt lat="64.032760620" lon="-19.057891846">
<ele>594.218750</ele>
<time>2012-07-22T13:37:26Z</time>
<speed>0.020000</speed>
<extensions>
<speed>0.0</speed>
<temp>0.00</temp>
<bpm>0</bpm>
<rpm>0.00</rpm>
</extensions>
</trkpt>
<trkpt lat="64.032798767" lon="-19.057779312">
<ele>594.578125</ele>
<time>2012-07-22T13:37:31Z</time>
<speed>2.760000</speed>
<extensions>
<speed>2.8</speed>
<temp>0.00</temp>
<bpm>0</bpm>
<rpm>0.00</rpm>
</extensions>
</trkpt>
<trkpt lat="64.032875061" lon="-19.057592392">
<ele>594.968750</ele>
<time>2012-07-22T13:37:36Z</time>
<speed>2.540000</speed>
<extensions>
<speed>2.5</speed>
<temp>0.00</temp>
<bpm>0</bpm>
<rpm>0.00</rpm>
</extensions>
</trkpt>
<trkpt lat="64.032966614" lon="-19.057430267">
<ele>595.328125</ele>
<time>2012-07-22T13:37:41Z</time>
<speed>2.730000</speed>
<extensions>
<speed>2.7</speed>
<temp>0.00</temp>
<bpm>0</bpm>
<rpm>0.00</rpm>
</extensions>
</trkpt>
<trkpt lat="64.033058167" lon="-19.057250977">
<ele>595.531250</ele>
<time>2012-07-22T13:37:46Z</time>
<speed>2.960000</speed>
<extensions>
<speed>3.0</speed>
<temp>0.00</temp>
<bpm>0</bpm>
<rpm>0.00</rpm>
</extensions>
</trkpt>
<trkpt lat="64.033172607" lon="-19.057010651">
<ele>595.828125</ele>
<time>2012-07-22T13:37:51Z</time>
<speed>3.870000</speed>
<extensions>
<speed>3.9</speed>
<temp>0.00</temp>
<bpm>0</bpm>
<rpm>0.00</rpm>
</extensions>
</trkpt>
<trkpt lat="64.033287048" lon="-19.056680679">
<ele>594.765625</ele>
<time>2012-07-22T13:37:56Z</time>
<speed>4.170000</speed>
<extensions>
<speed>4.2</speed>
<temp>0.00</temp>
<bpm>0</bpm>
<rpm>0.00</rpm>
</extensions>
</trkpt>
<trkpt lat="64.033348083" lon="-19.056287766">
<ele>594.140625</ele>
<time>2012-07-22T13:38:01Z</time>
<speed>4.050000</speed>
<extensions>
<speed>4.0</speed>
<temp>0.00</temp>
<bpm>0</bpm>
<rpm>0.00</rpm>
</extensions>
</trkpt>
<trkpt lat="64.033370972" lon="-19.055860519">
<ele>594.562500</ele>
<time>2012-07-22T13:38:06Z</time>
<speed>4.020000</speed>
<extensions>
<speed>4.0</speed>
<temp>0.00</temp>
<bpm>0</bpm>
<rpm>0.00</rpm>
</extensions>
</trkpt>
<trkpt lat="64.033378601" lon="-19.055442810">
<ele>594.421875</ele>
<time>2012-07-22T13:38:11Z</time>
<speed>4.480000</speed>
<extensions>
<speed>4.5</speed>
<temp>0.00</temp>
<bpm>0</bpm>
<rpm>0.00</rpm>
</extensions>
</trkpt>
<trkpt lat="64.033332825" lon="-19.054958344">
<ele>593.125000</ele>
<time>2012-07-22T13:38:16Z</time>
<speed>4.650000</speed>
<extensions>
<speed>4.6</speed>
<temp>0.00</temp>
<bpm>0</bpm>
<rpm>0.00</rpm>
</extensions>
</trkpt>
<trkpt lat="64.033241272" lon="-19.054538727">
<ele>592.203125</ele>
<time>2012-07-22T13:38:21Z</time>
<speed>4.400000</speed>
<extensions>
<speed>4.4</speed>
<temp>0.00</temp>
<bpm>0</bpm>
<rpm>0.00</rpm>
</extensions>
</trkpt>
<trkpt lat="64.033096313" lon="-19.054206848">
<ele>591.468750</ele>
<time>2012-07-22T13:38:26Z</time>
<speed>4.860000</speed>
<extensions>
<speed>4.9</speed>
<temp>0.00</temp>
<bpm>0</bpm>
<rpm>0.00</rpm>
</extensions>
</trkpt>
<trkpt lat="64.032928467" lon="-19.053836823">
<ele>589.265625</ele>
<time>2012-07-22T13:38:31Z</time>
<speed>5.230000</speed>
<extensions>
<speed>5.2</speed>
<temp>0.00</temp>
<bpm>0</bpm>
<rpm>0.00</rpm>
</extensions>
</trkpt>
<trkpt lat="64.032745361" lon="-19.053539276">
<ele>584.015625</ele>
<time>2012-07-22T13:38:36Z</time>
<speed>5.590000</speed>
<extensions>
<speed>5.6</speed>
<temp>0.00</temp>
<bpm>0</bpm>
<rpm>0.00</rpm>
</extensions>
</trkpt>
<trkpt lat="64.032470703" lon="-19.053312302">
<ele>580.343750</ele>
<time>2012-07-22T13:38:41Z</time>
<speed>7.270000</speed>
<extensions>
<speed>7.3</speed>
<temp>0.00</temp>
<bpm>0</bpm>
<rpm>0.00</rpm>
</extensions>
</trkpt>
<trkpt lat="64.032104492" lon="-19.053064346">
<ele>576.156250</ele>
<time>2012-07-22T13:38:46Z</time>
<speed>8.100000</speed>
<extensions>
<speed>8.1</speed>
<temp>0.00</temp>
<bpm>0</bpm>
<rpm>0.00</rpm>
</extensions>
</trkpt>
<trkpt lat="64.031837463" lon="-19.052627563">
<ele>575.265625</ele>
<time>2012-07-22T13:38:51Z</time>
<speed>6.920000</speed>
<extensions>
<speed>6.9</speed>
<temp>0.00</temp>
<bpm>0</bpm>
<rpm>0.00</rpm>
</extensions>
</trkpt>
<trkpt lat="64.031776428" lon="-19.052030563">
<ele>574.484375</ele>
<time>2012-07-22T13:38:56Z</time>
<speed>5.020000</speed>
<extensions>
<speed>5.0</speed>
<temp>0.00</temp>
<bpm>0</bpm>
<rpm>0.00</rpm>
</extensions>
</trkpt>
<trkpt lat="64.031784058" lon="-19.051656723">
<ele>574.265625</ele>
<time>2012-07-22T13:39:01Z</time>
<speed>3.100000</speed>
<extensions>
<speed>3.1</speed>
<temp>0.00</temp>
<bpm>0</bpm>
<rpm>0.00</rpm>
</extensions>
</trkpt>
<trkpt lat="64.031806946" lon="-19.051277161">
<ele>574.234375</ele>
<time>2012-07-22T13:39:06Z</time>
<speed>4.260000</speed>
<extensions>
<speed>4.3</speed>
<temp>0.00</temp>
<bpm>0</bpm>
<rpm>0.00</rpm>
</extensions>
</trkpt>
<trkpt lat="64.031845093" lon="-19.050928116">
<ele>574.375000</ele>
<time>2012-07-22T13:39:11Z</time>
<speed>3.310000</speed>
<extensions>
<speed>3.3</speed>
<temp>0.00</temp>
<bpm>0</bpm>
<rpm>0.00</rpm>
</extensions>
</trkpt>
<trkpt lat="64.031883240" lon="-19.050579071">
<ele>574.203125</ele>
<time>2012-07-22T13:39:16Z</time>
<speed>3.470000</speed>
<extensions>
<speed>3.5</speed>
<temp>0.00</temp>
<bpm>0</bpm>
<rpm>0.00</rpm>
</extensions>
</trkpt>
<trkpt lat="64.031913757" lon="-19.050239563">
<ele>574.234375</ele>
<time>2012-07-22T13:39:21Z</time>
<speed>3.510000</speed>
<extensions>
<speed>3.5</speed>
<temp>0.00</temp>
<bpm>0</bpm>
<rpm>0.00</rpm>
</extensions>
</trkpt>
<trkpt lat="64.031967163" lon="-19.049880981">
<ele>574.234375</ele>
<time>2012-07-22T13:39:26Z</time>
<speed>3.570000</speed>
<extensions>
<speed>3.6</speed>
<temp>0.00</temp>
<bpm>0</bpm>
<rpm>0.00</rpm>
</extensions>
</trkpt>
<trkpt lat="64.032012939" lon="-19.049518585">
<ele>574.125000</ele>
<time>2012-07-22T13:39:31Z</time>
<speed>3.750000</speed>
<extensions>
<speed>3.8</speed>
<temp>0.00</temp>
<bpm>0</bpm>
<rpm>0.00</rpm>
</extensions>
</trkpt>
<trkpt lat="64.032058716" lon="-19.049154282">
<ele>574.296875</ele>
<time>2012-07-22T13:39:36Z</time>
<speed>3.520000</speed>
<extensions>
<speed>3.5</speed>
<temp>0.00</temp>
<bpm>0</bpm>
<rpm>0.00</rpm>
</extensions>
</trkpt>
<trkpt lat="64.032089233" lon="-19.048822403">
<ele>574.343750</ele>
<time>2012-07-22T13:39:41Z</time>
<speed>3.280000</speed>
<extensions>
<speed>3.3</speed>
<temp>0.00</temp>
<bpm>0</bpm>
<rpm>0.00</rpm>
</extensions>
</trkpt>
<trkpt lat="64.032127380" lon="-19.048477173">
<ele>574.437500</ele>
<time>2012-07-22T13:39:46Z</time>
<speed>3.550000</speed>
<extensions>
<speed>3.5</speed>
<temp>0.00</temp>
<bpm>0</bpm>
<rpm>0.00</rpm>
</extensions>
</trkpt>
<trkpt lat="64.032173157" lon="-19.048126221">
<ele>574.421875</ele>
<time>2012-07-22T13:39:51Z</time>
<speed>3.620000</speed>
<extensions>
<speed>3.6</speed>
<temp>0.00</temp>
<bpm>0</bpm>
<rpm>0.00</rpm>
</extensions>
</trkpt>
<trkpt lat="64.032203674" lon="-19.047780991">
<ele>574.343750</ele>
<time>2012-07-22T13:39:56Z</time>
<speed>3.500000</speed>
<extensions>
<speed>3.5</speed>
<temp>0.00</temp>
<bpm>0</bpm>
<rpm>0.00</rpm>
</extensions>
</trkpt>
<trkpt lat="64.032241821" lon="-19.047460556">
<ele>574.203125</ele>
<time>2012-07-22T13:40:01Z</time>
<speed>3.060000</speed>
<extensions>
<speed>3.1</speed>
<temp>0.00</temp>
<bpm>0</bpm>
<rpm>0.00</rpm>
</extensions>
</trkpt>
<trkpt lat="64.032287598" lon="-19.047143936">
<ele>574.031250</ele>
<time>2012-07-22T13:40:06Z</time>
<speed>3.310000</speed>
<extensions>
<speed>3.3</speed>
<temp>0.00</temp>
<bpm>0</bpm>
<rpm>0.00</rpm>
</extensions>
</trkpt>
<trkpt lat="64.032325745" lon="-19.046802521">
<ele>573.921875</ele>
<time>2012-07-22T13:40:11Z</time>
<speed>3.270000</speed>
<extensions>
<speed>3.3</speed>
<temp>0.00</temp>
<bpm>0</bpm>
<rpm>0.00</rpm>
</extensions>
</trkpt>
<trkpt lat="64.032371521" lon="-19.046483994">
<ele>573.890625</ele>
<time>2012-07-22T13:40:16Z</time>
<speed>3.370000</speed>
<extensions>
<speed>3.4</speed>
<temp>0.00</temp>
<bpm>0</bpm>
<rpm>0.00</rpm>
</extensions>
</trkpt>
<trkpt lat="64.032424927" lon="-19.046154022">
<ele>574.031250</ele>
<time>2012-07-22T13:40:21Z</time>
<speed>3.440000</speed>
<extensions>
<speed>3.4</speed>
<temp>0.00</temp>
<bpm>0</bpm>
<rpm>0.00</rpm>
</extensions>
</trkpt>
<trkpt lat="64.032470703" lon="-19.045827866">
<ele>574.359375</ele>
<time>2012-07-22T13:40:26Z</time>
<speed>3.170000</speed>
<extensions>
<speed>3.2</speed>
<temp>0.00</temp>
<bpm>0</bpm>
<rpm>0.00</rpm>
</extensions>
</trkpt>
<trkpt lat="64.032501221" lon="-19.045532227">
<ele>575.937500</ele>
<time>2012-07-22T13:40:31Z</time>
<speed>3.090000</speed>
<extensions>
<speed>3.1</speed>
<temp>0.00</temp>
<bpm>0</bpm>
<rpm>0.00</rpm>
</extensions>
</trkpt>
<trkpt lat="64.032539368" lon="-19.045232773">
<ele>576.734375</ele>
<time>2012-07-22T13:40:36Z</time>
<speed>3.180000</speed>
<extensions>
<speed>3.2</speed>
<temp>0.00</temp>
<bpm>0</bpm>
<rpm>0.00</rpm>
</extensions>
</trkpt>
<trkpt lat="64.032585144" lon="-19.044921875">
<ele>577.312500</ele>
<time>2012-07-22T13:40:41Z</time>
<speed>3.260000</speed>
<extensions>
<speed>3.3</speed>
<temp>0.00</temp>
<bpm>0</bpm>
<rpm>0.00</rpm>
</extensions>
</trkpt>
<trkpt lat="64.032630920" lon="-19.044605255">
<ele>578.171875</ele>
<time>2012-07-22T13:40:46Z</time>
<speed>3.160000</speed>
<extensions>
<speed>3.2</speed>
<temp>0.00</temp>
<bpm>0</bpm>
<rpm>0.00</rpm>
</extensions>
</trkpt>
<trkpt lat="64.032669067" lon="-19.044271469">
<ele>578.296875</ele>
<time>2012-07-22T13:40:51Z</time>
<speed>3.440000</speed>
<extensions>
<speed>3.4</speed>
<temp>0.00</temp>
<bpm>0</bpm>
<rpm>0.00</rpm>
</extensions>
</trkpt>
<trkpt lat="64.032699585" lon="-19.043937683">
<ele>578.765625</ele>
<time>2012-07-22T13:40:56Z</time>
<speed>3.100000</speed>
<extensions>
<speed>3.1</speed>
<temp>0.00</temp>
<bpm>0</bpm>
<rpm>0.00</rpm>
</extensions>
</trkpt>
<trkpt lat="64.032722473" lon="-19.043638229">
<ele>578.937500</ele>
<time>2012-07-22T13:41:01Z</time>
<speed>3.040000</speed>
<extensions>
<speed>3.0</speed>
<temp>0.00</temp>
<bpm>0</bpm>
<rpm>0.00</rpm>
</extensions>
</trkpt>
<trkpt lat="64.032745361" lon="-19.043350220">
<ele>579.234375</ele>
<time>2012-07-22T13:41:06Z</time>
<speed>3.050000</speed>
<extensions>
<speed>3.0</speed>
<temp>0.00</temp>
<bpm>0</bpm>
<rpm>0.00</rpm>
</extensions>
</trkpt>
<trkpt lat="64.032783508" lon="-19.043043137">
<ele>578.968750</ele>
<time>2012-07-22T13:41:11Z</time>
<speed>3.290000</speed>
<extensions>
<speed>3.3</speed>
<temp>0.00</temp>
<bpm>0</bpm>
<rpm>0.00</rpm>
</extensions>
</trkpt>
<trkpt lat="64.032821655" lon="-19.042730331">
<ele>578.875000</ele>
<time>2012-07-22T13:41:16Z</time>
<speed>3.040000</speed>
<extensions>
<speed>3.0</speed>
<temp>0.00</temp>
<bpm>0</bpm>
<rpm>0.00</rpm>
</extensions>
</trkpt>
<trkpt lat="64.032859802" lon="-19.042436600">
<ele>579.281250</ele>
<time>2012-07-22T13:41:21Z</time>
<speed>2.830000</speed>
<extensions>
<speed>2.8</speed>
<temp>0.00</temp>
<bpm>0</bpm>
<rpm>0.00</rpm>
</extensions>
</trkpt>
<trkpt lat="64.032905579" lon="-19.042163849">
<ele>579.703125</ele>
<time>2012-07-22T13:41:26Z</time>
<speed>2.760000</speed>
<extensions>
<speed>2.8</speed>
<temp>0.00</temp>
<bpm>0</bpm>
<rpm>0.00</rpm>
</extensions>
</trkpt>
<trkpt lat="64.032936096" lon="-19.041893005">
<ele>580.156250</ele>
<time>2012-07-22T13:41:31Z</time>
<speed>2.770000</speed>
<extensions>
<speed>2.8</speed>
<temp>0.00</temp>
<bpm>0</bpm>
<rpm>0.00</rpm>
</extensions>
</trkpt>
<trkpt lat="64.032951355" lon="-19.041612625">
<ele>580.125000</ele>
<time>2012-07-22T13:41:36Z</time>
<speed>2.750000</speed>
<extensions>
<speed>2.7</speed>
<temp>0.00</temp>
<bpm>0</bpm>
<rpm>0.00</rpm>
</extensions>
</trkpt>
<trkpt lat="64.032943726" lon="-19.041330338">
<ele>580.328125</ele>
<time>2012-07-22T13:41:41Z</time>
<speed>2.470000</speed>
<extensions>
<speed>2.5</speed>
<temp>0.00</temp>
<bpm>0</bpm>
<rpm>0.00</rpm>
</extensions>
</trkpt>
<trkpt lat="64.032928467" lon="-19.041112900">
<ele>580.187500</ele>
<time>2012-07-22T13:41:46Z</time>
<speed>1.760000</speed>
<extensions>
<speed>1.8</speed>
<temp>0.00</temp>
<bpm>0</bpm>
<rpm>0.00</rpm>
</extensions>
</trkpt>
<trkpt lat="64.032905579" lon="-19.040933609">
<ele>580.031250</ele>
<time>2012-07-22T13:41:51Z</time>
<speed>1.960000</speed>
<extensions>
<speed>2.0</speed>
<temp>0.00</temp>
<bpm>0</bpm>
<rpm>0.00</rpm>
</extensions>
</trkpt>
<trkpt lat="64.032875061" lon="-19.040718079">
<ele>580.343750</ele>
<time>2012-07-22T13:41:56Z</time>
<speed>2.490000</speed>
<extensions>
<speed>2.5</speed>
<temp>0.00</temp>
<bpm>0</bpm>
<rpm>0.00</rpm>
</extensions>
</trkpt>
<trkpt lat="64.032829285" lon="-19.040538788">
<ele>580.625000</ele>
<time>2012-07-22T13:42:01Z</time>
<speed>2.500000</speed>
<extensions>
<speed>2.5</speed>
<temp>0.00</temp>
<bpm>0</bpm>
<rpm>0.00</rpm>
</extensions>
</trkpt>
<trkpt lat="64.032730103" lon="-19.040393829">
<ele>580.421875</ele>
<time>2012-07-22T13:42:06Z</time>
<speed>2.820000</speed>
<extensions>
<speed>2.8</speed>
<temp>0.00</temp>
<bpm>0</bpm>
<rpm>0.00</rpm>
</extensions>
</trkpt>
<trkpt lat="64.032608032" lon="-19.040298462">
<ele>580.578125</ele>
<time>2012-07-22T13:42:11Z</time>
<speed>3.310000</speed>
<extensions>
<speed>3.3</speed>
<temp>0.00</temp>
<bpm>0</bpm>
<rpm>0.00</rpm>
</extensions>
</trkpt>
<trkpt lat="64.032470703" lon="-19.040170670">
<ele>580.562500</ele>
<time>2012-07-22T13:42:16Z</time>
<speed>3.340000</speed>
<extensions>
<speed>3.3</speed>
<temp>0.00</temp>
<bpm>0</bpm>
<rpm>0.00</rpm>
</extensions>
</trkpt>
<trkpt lat="64.032310486" lon="-19.040018082">
<ele>580.343750</ele>
<time>2012-07-22T13:42:21Z</time>
<speed>3.680000</speed>
<extensions>
<speed>3.7</speed>
<temp>0.00</temp>
<bpm>0</bpm>
<rpm>0.00</rpm>
</extensions>
</trkpt>
<trkpt lat="64.032165527" lon="-19.039859772">
<ele>580.062500</ele>
<time>2012-07-22T13:42:26Z</time>
<speed>3.270000</speed>
<extensions>
<speed>3.3</speed>
<temp>0.00</temp>
<bpm>0</bpm>
<rpm>0.00</rpm>
</extensions>
</trkpt>
<trkpt lat="64.032028198" lon="-19.039724350">
<ele>580.171875</ele>
<time>2012-07-22T13:42:31Z</time>
<speed>3.190000</speed>
<extensions>
<speed>3.2</speed>
<temp>0.00</temp>
<bpm>0</bpm>
<rpm>0.00</rpm>
</extensions>
</trkpt>
<trkpt lat="64.031906128" lon="-19.039579391">
<ele>580.156250</ele>
<time>2012-07-22T13:42:36Z</time>
<speed>3.200000</speed>
<extensions>
<speed>3.2</speed>
<temp>0.00</temp>
<bpm>0</bpm>
<rpm>0.00</rpm>
</extensions>
</trkpt>
<trkpt lat="64.031768799" lon="-19.039443970">
<ele>580.046875</ele>
<time>2012-07-22T13:42:41Z</time>
<speed>3.270000</speed>
<extensions>
<speed>3.3</speed>
<temp>0.00</temp>
<bpm>0</bpm>
<rpm>0.00</rpm>
</extensions>
</trkpt>
<trkpt lat="64.031631470" lon="-19.039289474">
<ele>579.875000</ele>
<time>2012-07-22T13:42:46Z</time>
<speed>3.630000</speed>
<extensions>
<speed>3.6</speed>
<temp>0.00</temp>
<bpm>0</bpm>
<rpm>0.00</rpm>
</extensions>
</trkpt>
<trkpt lat="64.031494141" lon="-19.039134979">
<ele>579.531250</ele>
<time>2012-07-22T13:42:51Z</time>
<speed>3.420000</speed>
<extensions>
<speed>3.4</speed>
<temp>0.00</temp>
<bpm>0</bpm>
<rpm>0.00</rpm>
</extensions>
</trkpt>
<trkpt lat="64.031356812" lon="-19.038940430">
<ele>579.203125</ele>
<time>2012-07-22T13:42:56Z</time>
<speed>3.550000</speed>
<extensions>
<speed>3.5</speed>
<temp>0.00</temp>
<bpm>0</bpm>
<rpm>0.00</rpm>
</extensions>
</trkpt>
<trkpt lat="64.031219482" lon="-19.038759232">
<ele>579.234375</ele>
<time>2012-07-22T13:43:01Z</time>
<speed>3.490000</speed>
<extensions>
<speed>3.5</speed>
<temp>0.00</temp>
<bpm>0</bpm>
<rpm>0.00</rpm>
</extensions>
</trkpt>
<trkpt lat="64.031089783" lon="-19.038593292">
<ele>578.750000</ele>
<time>2012-07-22T13:43:06Z</time>
<speed>2.890000</speed>
<extensions>
<speed>2.9</speed>
<temp>0.00</temp>
<bpm>0</bpm>
<rpm>0.00</rpm>
</extensions>
</trkpt>
<trkpt lat="64.030960083" lon="-19.038419724">
<ele>578.828125</ele>
<time>2012-07-22T13:43:11Z</time>
<speed>3.530000</speed>
<extensions>
<speed>3.5</speed>
<temp>0.00</temp>
<bpm>0</bpm>
<rpm>0.00</rpm>
</extensions>
</trkpt>
<trkpt lat="64.030815125" lon="-19.038242340">
<ele>578.750000</ele>
<time>2012-07-22T13:43:16Z</time>
<speed>3.670000</speed>
<extensions>
<speed>3.7</speed>
<temp>0.00</temp>
<bpm>0</bpm>
<rpm>0.00</rpm>
</extensions>
</trkpt>
<trkpt lat="64.030677795" lon="-19.038066864">
<ele>578.859375</ele>
<time>2012-07-22T13:43:21Z</time>
<speed>3.340000</speed>
<extensions>
<speed>3.3</speed>
<temp>0.00</temp>
<bpm>0</bpm>
<rpm>0.00</rpm>
</extensions>
</trkpt>
<trkpt lat="64.030548096" lon="-19.037900925">
<ele>579.046875</ele>
<time>2012-07-22T13:43:26Z</time>
<speed>3.350000</speed>
<extensions>
<speed>3.4</speed>
<temp>0.00</temp>
<bpm>0</bpm>
<rpm>0.00</rpm>
</extensions>
</trkpt>
<trkpt lat="64.030410767" lon="-19.037719727">
<ele>578.671875</ele>
<time>2012-07-22T13:43:31Z</time>
<speed>3.660000</speed>
<extensions>
<speed>3.7</speed>
<temp>0.00</temp>
<bpm>0</bpm>
<rpm>0.00</rpm>
</extensions>
</trkpt>
<trkpt lat="64.030273438" lon="-19.037508011">
<ele>578.593750</ele>
<time>2012-07-22T13:43:36Z</time>
<speed>3.310000</speed>
<extensions>
<speed>3.3</speed>
<temp>0.00</temp>
<bpm>0</bpm>
<rpm>0.00</rpm>
</extensions>
</trkpt>
<trkpt lat="64.030158997" lon="-19.037321091">
<ele>578.515625</ele>
<time>2012-07-22T13:43:41Z</time>
<speed>3.600000</speed>
<extensions>
<speed>3.6</speed>
<temp>0.00</temp>
<bpm>0</bpm>
<rpm>0.00</rpm>
</extensions>
</trkpt>
<trkpt lat="64.030036926" lon="-19.037160873">
<ele>578.140625</ele>
<time>2012-07-22T13:43:46Z</time>
<speed>3.090000</speed>
<extensions>
<speed>3.1</speed>
<temp>0.00</temp>
<bpm>0</bpm>
<rpm>0.00</rpm>
</extensions>
</trkpt>
<trkpt lat="64.029922485" lon="-19.037023544">
<ele>578.109375</ele>
<time>2012-07-22T13:43:51Z</time>
<speed>3.120000</speed>
<extensions>
<speed>3.1</speed>
<temp>0.00</temp>
<bpm>0</bpm>
<rpm>0.00</rpm>
</extensions>
</trkpt>
<trkpt lat="64.029785156" lon="-19.036861420">
<ele>578.109375</ele>
<time>2012-07-22T13:43:56Z</time>
<speed>3.600000</speed>
<extensions>
<speed>3.6</speed>
<temp>0.00</temp>
<bpm>0</bpm>
<rpm>0.00</rpm>
</extensions>
</trkpt>
<trkpt lat="64.029640198" lon="-19.036720276">
<ele>578.281250</ele>
<time>2012-07-22T13:44:01Z</time>
<speed>3.630000</speed>
<extensions>
<speed>3.6</speed>
<temp>0.00</temp>
<bpm>0</bpm>
<rpm>0.00</rpm>
</extensions>
</trkpt>
<trkpt lat="64.029495239" lon="-19.036571503">
<ele>578.203125</ele>
<time>2012-07-22T13:44:06Z</time>
<speed>3.830000</speed>
<extensions>
<speed>3.8</speed>
<temp>0.00</temp>
<bpm>0</bpm>
<rpm>0.00</rpm>
</extensions>
</trkpt>
<trkpt lat="64.029342651" lon="-19.036396027">
<ele>578.218750</ele>
<time>2012-07-22T13:44:11Z</time>
<speed>3.190000</speed>
<extensions>
<speed>3.2</speed>
<temp>0.00</temp>
<bpm>0</bpm>
<rpm>0.00</rpm>
</extensions>
</trkpt>
<trkpt lat="64.029228210" lon="-19.036289215">
<ele>578.953125</ele>
<time>2012-07-22T13:44:16Z</time>
<speed>3.270000</speed>
<extensions>
<speed>3.3</speed>
<temp>0.00</temp>
<bpm>0</bpm>
<rpm>0.00</rpm>
</extensions>
</trkpt>
<trkpt lat="64.029067993" lon="-19.036270142">
<ele>579.421875</ele>
<time>2012-07-22T13:44:21Z</time>
<speed>3.660000</speed>
<extensions>
<speed>3.7</speed>
<temp>0.00</temp>
<bpm>0</bpm>
<rpm>0.00</rpm>
</extensions>
</trkpt>
<trkpt lat="64.028938293" lon="-19.036296844">
<ele>579.437500</ele>
<time>2012-07-22T13:44:26Z</time>
<speed>2.090000</speed>
<extensions>
<speed>2.1</speed>
<temp>0.00</temp>
<bpm>0</bpm>
<rpm>0.00</rpm>
</extensions>
</trkpt>
<trkpt lat="64.028854370" lon="-19.036315918">
<ele>579.593750</ele>
<time>2012-07-22T13:44:31Z</time>
<speed>2.180000</speed>
<extensions>
<speed>2.2</speed>
<temp>0.00</temp>
<bpm>0</bpm>
<rpm>0.00</rpm>
</extensions>
</trkpt>
<trkpt lat="64.028739929" lon="-19.036355972">
<ele>579.593750</ele>
<time>2012-07-22T13:44:36Z</time>
<speed>2.920000</speed>
<extensions>
<speed>2.9</speed>
<temp>0.00</temp>
<bpm>0</bpm>
<rpm>0.00</rpm>
</extensions>
</trkpt>
<trkpt lat="64.028610229" lon="-19.036445618">
<ele>579.625000</ele>
<time>2012-07-22T13:44:41Z</time>
<speed>3.410000</speed>
<extensions>
<speed>3.4</speed>
<temp>0.00</temp>
<bpm>0</bpm>
<rpm>0.00</rpm>
</extensions>
</trkpt>
<trkpt lat="64.028465271" lon="-19.036546707">
<ele>579.859375</ele>
<time>2012-07-22T13:44:46Z</time>
<speed>3.410000</speed>
<extensions>
<speed>3.4</speed>
<temp>0.00</temp>
<bpm>0</bpm>
<rpm>0.00</rpm>
</extensions>
</trkpt>
<trkpt lat="64.028305054" lon="-19.036621094">
<ele>580.343750</ele>
<time>2012-07-22T13:44:51Z</time>
<speed>3.640000</speed>
<extensions>
<speed>3.6</speed>
<temp>0.00</temp>
<bpm>0</bpm>
<rpm>0.00</rpm>
</extensions>
</trkpt>
<trkpt lat="64.028129578" lon="-19.036630630">
<ele>579.859375</ele>
<time>2012-07-22T13:44:56Z</time>
<speed>3.940000</speed>
<extensions>
<speed>3.9</speed>
<temp>0.00</temp>
<bpm>0</bpm>
<rpm>0.00</rpm>
</extensions>
</trkpt>
<trkpt lat="64.027946472" lon="-19.036617279">
<ele>580.015625</ele>
<time>2012-07-22T13:45:01Z</time>
<speed>3.970000</speed>
<extensions>
<speed>4.0</speed>
<temp>0.00</temp>
<bpm>0</bpm>
<rpm>0.00</rpm>
</extensions>
</trkpt>
<trkpt lat="64.027770996" lon="-19.036558151">
<ele>580.578125</ele>
<time>2012-07-22T13:45:06Z</time>
<speed>3.940000</speed>
<extensions>
<speed>3.9</speed>
<temp>0.00</temp>
<bpm>0</bpm>
<rpm>0.00</rpm>
</extensions>
</trkpt>
<trkpt lat="64.027618408" lon="-19.036396027">
<ele>581.328125</ele>
<time>2012-07-22T13:45:11Z</time>
<speed>2.980000</speed>
<extensions>
<speed>3.0</speed>
<temp>0.00</temp>
<bpm>0</bpm>
<rpm>0.00</rpm>
</extensions>
</trkpt>
<trkpt lat="64.027503967" lon="-19.036184311">
<ele>581.500000</ele>
<time>2012-07-22T13:45:16Z</time>
<speed>3.340000</speed>
<extensions>
<speed>3.3</speed>
<temp>0.00</temp>
<bpm>0</bpm>
<rpm>0.00</rpm>
</extensions>
</trkpt>
<trkpt lat="64.027427673" lon="-19.035919189">
<ele>582.218750</ele>
<time>2012-07-22T13:45:21Z</time>
<speed>2.150000</speed>
<extensions>
<speed>2.1</speed>
<temp>0.00</temp>
<bpm>0</bpm>
<rpm>0.00</rpm>
</extensions>
</trkpt>
<trkpt lat="64.027389526" lon="-19.035779953">
<ele>582.640625</ele>
<time>2012-07-22T13:45:26Z</time>
<speed>1.530000</speed>
<extensions>
<speed>1.5</speed>
<temp>0.00</temp>
<bpm>0</bpm>
<rpm>0.00</rpm>
</extensions>
</trkpt>
<trkpt lat="64.027351379" lon="-19.035617828">
<ele>583.953125</ele>
<time>2012-07-22T13:45:31Z</time>
<speed>1.720000</speed>
<extensions>
<speed>1.7</speed>
<temp>0.00</temp>
<bpm>0</bpm>
<rpm>0.00</rpm>
</extensions>
</trkpt>
<trkpt lat="64.027305603" lon="-19.035457611">
<ele>585.562500</ele>
<time>2012-07-22T13:45:36Z</time>
<speed>2.210000</speed>
<extensions>
<speed>2.2</speed>
<temp>0.00</temp>
<bpm>0</bpm>
<rpm>0.00</rpm>
</extensions>
</trkpt>
<trkpt lat="64.027244568" lon="-19.035287857">
<ele>586.203125</ele>
<time>2012-07-22T13:45:41Z</time>
<speed>1.270000</speed>
<extensions>
<speed>1.3</speed>
<temp>0.00</temp>
<bpm>0</bpm>
<rpm>0.00</rpm>
</extensions>
</trkpt>
<trkpt lat="64.027206421" lon="-19.035200119">
<ele>586.281250</ele>
<time>2012-07-22T13:45:46Z</time>
<speed>1.680000</speed>
<extensions>
<speed>1.7</speed>
<temp>0.00</temp>
<bpm>0</bpm>
<rpm>0.00</rpm>
</extensions>
</trkpt>
<trkpt lat="64.027122498" lon="-19.035097122">
<ele>585.328125</ele>
<time>2012-07-22T13:45:51Z</time>
<speed>2.850000</speed>
<extensions>
<speed>2.9</speed>
<temp>0.00</temp>
<bpm>0</bpm>
<rpm>0.00</rpm>
</extensions>
</trkpt>
<trkpt lat="64.026954651" lon="-19.034934998">
<ele>583.515625</ele>
<time>2012-07-22T13:45:56Z</time>
<speed>5.160000</speed>
<extensions>
<speed>5.2</speed>
<temp>0.00</temp>
<bpm>0</bpm>
<rpm>0.00</rpm>
</extensions>
</trkpt>
<trkpt lat="64.026733398" lon="-19.034769058">
<ele>582.484375</ele>
<time>2012-07-22T13:46:01Z</time>
<speed>5.450000</speed>
<extensions>
<speed>5.5</speed>
<temp>0.00</temp>
<bpm>0</bpm>
<rpm>0.00</rpm>
</extensions>
</trkpt>
<trkpt lat="64.026512146" lon="-19.034524918">
<ele>580.343750</ele>
<time>2012-07-22T13:46:06Z</time>
<speed>4.640000</speed>
<extensions>
<speed>4.6</speed>
<temp>0.00</temp>
<bpm>0</bpm>
<rpm>0.00</rpm>
</extensions>
</trkpt>
<trkpt lat="64.026367188" lon="-19.034397125">
<ele>580.937500</ele>
<time>2012-07-22T13:46:11Z</time>
<speed>3.390000</speed>
<extensions>
<speed>3.4</speed>
<temp>0.00</temp>
<bpm>0</bpm>
<rpm>0.00</rpm>
</extensions>
</trkpt>
<trkpt lat="64.026214600" lon="-19.034244537">
<ele>580.453125</ele>
<time>2012-07-22T13:46:16Z</time>
<speed>3.930000</speed>
<extensions>
<speed>3.9</speed>
<temp>0.00</temp>
<bpm>0</bpm>
<rpm>0.00</rpm>
</extensions>
</trkpt>
<trkpt lat="64.026046753" lon="-19.034107208">
<ele>580.046875</ele>
<time>2012-07-22T13:46:21Z</time>
<speed>4.200000</speed>
<extensions>
<speed>4.2</speed>
<temp>0.00</temp>
<bpm>0</bpm>
<rpm>0.00</rpm>
</extensions>
</trkpt>
<trkpt lat="64.025878906" lon="-19.033975601">
<ele>580.156250</ele>
<time>2012-07-22T13:46:26Z</time>
<speed>3.640000</speed>
<extensions>
<speed>3.6</speed>
<temp>0.00</temp>
<bpm>0</bpm>
<rpm>0.00</rpm>
</extensions>
</trkpt>
<trkpt lat="64.025733948" lon="-19.033863068">
<ele>580.234375</ele>
<time>2012-07-22T13:46:31Z</time>
<speed>2.980000</speed>
<extensions>
<speed>3.0</speed>
<temp>0.00</temp>
<bpm>0</bpm>
<rpm>0.00</rpm>
</extensions>
</trkpt>
<trkpt lat="64.025596619" lon="-19.033679962">
<ele>579.468750</ele>
<time>2012-07-22T13:46:36Z</time>
<speed>3.560000</speed>
<extensions>
<speed>3.6</speed>
<temp>0.00</temp>
<bpm>0</bpm>
<rpm>0.00</rpm>
</extensions>
</trkpt>
<trkpt lat="64.025451660" lon="-19.033496857">
<ele>579.031250</ele>
<time>2012-07-22T13:46:41Z</time>
<speed>3.530000</speed>
<extensions>
<speed>3.5</speed>
<temp>0.00</temp>
<bpm>0</bpm>
<rpm>0.00</rpm>
</extensions>
</trkpt>
<trkpt lat="64.025306702" lon="-19.033462524">
<ele>582.859375</ele>
<time>2012-07-22T13:46:46Z</time>
<speed>3.690000</speed>
<extensions>
<speed>3.7</speed>
<temp>0.00</temp>
<bpm>0</bpm>
<rpm>0.00</rpm>
</extensions>
</trkpt>
<trkpt lat="64.025146484" lon="-19.033632278">
<ele>582.859375</ele>
<time>2012-07-22T13:46:51Z</time>
<speed>3.990000</speed>
<extensions>
<speed>4.0</speed>
<temp>0.00</temp>
<bpm>0</bpm>
<rpm>0.00</rpm>
</extensions>
</trkpt>
<trkpt lat="64.025009155" lon="-19.033866882">
<ele>581.812500</ele>
<time>2012-07-22T13:46:56Z</time>
<speed>3.470000</speed>
<extensions>
<speed>3.5</speed>
<temp>0.00</temp>
<bpm>0</bpm>
<rpm>0.00</rpm>
</extensions>
</trkpt>
<trkpt lat="64.024871826" lon="-19.034099579">
<ele>581.078125</ele>
<time>2012-07-22T13:47:01Z</time>
<speed>4.100000</speed>
<extensions>
<speed>4.1</speed>
<temp>0.00</temp>
<bpm>0</bpm>
<rpm>0.00</rpm>
</extensions>
</trkpt>
<trkpt lat="64.024742126" lon="-19.034273148">
<ele>581.468750</ele>
<time>2012-07-22T13:47:06Z</time>
<speed>3.620000</speed>
<extensions>
<speed>3.6</speed>
<temp>0.00</temp>
<bpm>0</bpm>
<rpm>0.00</rpm>
</extensions>
</trkpt>
<trkpt lat="64.024581909" lon="-19.034433365">
<ele>581.218750</ele>
<time>2012-07-22T13:47:11Z</time>
<speed>3.880000</speed>
<extensions>
<speed>3.9</speed>
<temp>0.00</temp>
<bpm>0</bpm>
<rpm>0.00</rpm>
</extensions>
</trkpt>
<trkpt lat="64.024429321" lon="-19.034627914">
<ele>580.812500</ele>
<time>2012-07-22T13:47:16Z</time>
<speed>4.310000</speed>
<extensions>
<speed>4.3</speed>
<temp>0.00</temp>
<bpm>0</bpm>
<rpm>0.00</rpm>
</extensions>
</trkpt>
<trkpt lat="64.024269104" lon="-19.034887314">
<ele>581.625000</ele>
<time>2012-07-22T13:47:21Z</time>
<speed>4.340000</speed>
<extensions>
<speed>4.3</speed>
<temp>0.00</temp>
<bpm>0</bpm>
<rpm>0.00</rpm>
</extensions>
</trkpt>
<trkpt lat="64.024116516" lon="-19.035140991">
<ele>582.812500</ele>
<time>2012-07-22T13:47:26Z</time>
<speed>3.970000</speed>
<extensions>
<speed>4.0</speed>
<temp>0.00</temp>
<bpm>0</bpm>
<rpm>0.00</rpm>
</extensions>
</trkpt>
<trkpt lat="64.023956299" lon="-19.035375595">
<ele>581.843750</ele>
<time>2012-07-22T13:47:31Z</time>
<speed>4.290000</speed>
<extensions>
<speed>4.3</speed>
<temp>0.00</temp>
<bpm>0</bpm>
<rpm>0.00</rpm>
</extensions>
</trkpt>
<trkpt lat="64.023811340" lon="-19.035585403">
<ele>581.562500</ele>
<time>2012-07-22T13:47:36Z</time>
<speed>3.400000</speed>
<extensions>
<speed>3.4</speed>
<temp>0.00</temp>
<bpm>0</bpm>
<rpm>0.00</rpm>
</extensions>
</trkpt>
<trkpt lat="64.023674011" lon="-19.035812378">
<ele>580.609375</ele>
<time>2012-07-22T13:47:41Z</time>
<speed>4.130000</speed>
<extensions>
<speed>4.1</speed>
<temp>0.00</temp>
<bpm>0</bpm>
<rpm>0.00</rpm>
</extensions>
</trkpt>
<trkpt lat="64.023513794" lon="-19.036024094">
<ele>580.765625</ele>
<time>2012-07-22T13:47:46Z</time>
<speed>3.790000</speed>
<extensions>
<speed>3.8</speed>
<temp>0.00</temp>
<bpm>0</bpm>
<rpm>0.00</rpm>
</extensions>
</trkpt>
<trkpt lat="64.023376465" lon="-19.036214828">
<ele>580.968750</ele>
<time>2012-07-22T13:47:51Z</time>
<speed>3.200000</speed>
<extensions>
<speed>3.2</speed>
<temp>0.00</temp>
<bpm>0</bpm>
<rpm>0.00</rpm>
</extensions>
</trkpt>
<trkpt lat="64.023254395" lon="-19.036331177">
<ele>581.578125</ele>
<time>2012-07-22T13:47:56Z</time>
<speed>2.580000</speed>
<extensions>
<speed>2.6</speed>
<temp>0.00</temp>
<bpm>0</bpm>
<rpm>0.00</rpm>
</extensions>
</trkpt>
<trkpt lat="64.023147583" lon="-19.036409378">
<ele>581.656250</ele>
<time>2012-07-22T13:48:01Z</time>
<speed>2.250000</speed>
<extensions>
<speed>2.3</speed>
<temp>0.00</temp>
<bpm>0</bpm>
<rpm>0.00</rpm>
</extensions>
</trkpt>
<trkpt lat="64.023078918" lon="-19.036462784">
<ele>581.578125</ele>
<time>2012-07-22T13:48:06Z</time>
<speed>1.460000</speed>
<extensions>
<speed>1.5</speed>
<temp>0.00</temp>
<bpm>0</bpm>
<rpm>0.00</rpm>
</extensions>
</trkpt>
<trkpt lat="64.023010254" lon="-19.036495209">
<ele>581.437500</ele>
<time>2012-07-22T13:48:11Z</time>
<speed>1.580000</speed>
<extensions>
<speed>1.6</speed>
<temp>0.00</temp>
<bpm>0</bpm>
<rpm>0.00</rpm>
</extensions>
</trkpt>
<trkpt lat="64.022933960" lon="-19.036523819">
<ele>581.875000</ele>
<time>2012-07-22T13:48:16Z</time>
<speed>1.520000</speed>
<extensions>
<speed>1.5</speed>
<temp>0.00</temp>
<bpm>0</bpm>
<rpm>0.00</rpm>
</extensions>
</trkpt>
<trkpt lat="64.022865295" lon="-19.036537170">
<ele>581.937500</ele>
<time>2012-07-22T13:48:21Z</time>
<speed>1.650000</speed>
<extensions>
<speed>1.7</speed>
<temp>0.00</temp>
<bpm>0</bpm>
<rpm>0.00</rpm>
</extensions>
</trkpt>
<trkpt lat="64.022796631" lon="-19.036556244">
<ele>582.062500</ele>
<time>2012-07-22T13:48:26Z</time>
<speed>2.020000</speed>
<extensions>
<speed>2.0</speed>
<temp>0.00</temp>
<bpm>0</bpm>
<rpm>0.00</rpm>
</extensions>
</trkpt>
<trkpt lat="64.022720337" lon="-19.036556244">
<ele>581.984375</ele>
<time>2012-07-22T13:48:31Z</time>
<speed>1.340000</speed>
<extensions>
<speed>1.3</speed>
<temp>0.00</temp>
<bpm>0</bpm>
<rpm>0.00</rpm>
</extensions>
</trkpt>
<trkpt lat="64.022674561" lon="-19.036540985">
<ele>582.421875</ele>
<time>2012-07-22T13:48:36Z</time>
<speed>1.040000</speed>
<extensions>
<speed>1.0</speed>
<temp>0.00</temp>
<bpm>0</bpm>
<rpm>0.00</rpm>
</extensions>
</trkpt>
<trkpt lat="64.022613525" lon="-19.036512375">
<ele>582.609375</ele>
<time>2012-07-22T13:48:41Z</time>
<speed>1.140000</speed>
<extensions>
<speed>1.1</speed>
<temp>0.00</temp>
<bpm>0</bpm>
<rpm>0.00</rpm>
</extensions>
</trkpt>
<trkpt lat="64.022560120" lon="-19.036510468">
<ele>583.093750</ele>
<time>2012-07-22T13:48:46Z</time>
<speed>1.080000</speed>
<extensions>
<speed>1.1</speed>
<temp>0.00</temp>
<bpm>0</bpm>
<rpm>0.00</rpm>
</extensions>
</trkpt>
<trkpt lat="64.022544861" lon="-19.036485672">
<ele>585.343750</ele>
<time>2012-07-22T13:48:51Z</time>
<speed>0.490000</speed>
<extensions>
<speed>0.5</speed>
<temp>0.00</temp>
<bpm>0</bpm>
<rpm>0.00</rpm>
</extensions>
</trkpt>
<trkpt lat="64.022521973" lon="-19.036476135">
<ele>586.906250</ele>
<time>2012-07-22T13:48:56Z</time>
<speed>0.800000</speed>
<extensions>
<speed>0.8</speed>
<temp>0.00</temp>
<bpm>0</bpm>
<rpm>0.00</rpm>
</extensions>
</trkpt>
<trkpt lat="64.022491455" lon="-19.036457062">
<ele>587.125000</ele>
<time>2012-07-22T13:49:01Z</time>
<speed>0.780000</speed>
<extensions>
<speed>0.8</speed>
<temp>0.00</temp>
<bpm>0</bpm>
<rpm>0.00</rpm>
</extensions>
</trkpt>
<trkpt lat="64.022453308" lon="-19.036437988">
<ele>587.578125</ele>
<time>2012-07-22T13:49:06Z</time>
<speed>0.600000</speed>
<extensions>
<speed>0.6</speed>
<temp>0.00</temp>
<bpm>0</bpm>
<rpm>0.00</rpm>
</extensions>
</trkpt>
<trkpt lat="64.022438049" lon="-19.036430359">
<ele>587.734375</ele>
<time>2012-07-22T13:49:11Z</time>
<speed>0.890000</speed>
<extensions>
<speed>0.9</speed>
<temp>0.00</temp>
<bpm>0</bpm>
<rpm>0.00</rpm>
</extensions>
</trkpt>
<trkpt lat="64.022399902" lon="-19.036413193">
<ele>588.125000</ele>
<time>2012-07-22T13:49:16Z</time>
<speed>0.760000</speed>
<extensions>
<speed>0.8</speed>
<temp>0.00</temp>
<bpm>0</bpm>
<rpm>0.00</rpm>
</extensions>
</trkpt>
<trkpt lat="64.022361755" lon="-19.036382675">
<ele>588.234375</ele>
<time>2012-07-22T13:49:21Z</time>
<speed>0.870000</speed>
<extensions>
<speed>0.9</speed>
<temp>0.00</temp>
<bpm>0</bpm>
<rpm>0.00</rpm>
</extensions>
</trkpt>
<trkpt lat="64.022323608" lon="-19.036344528">
<ele>588.437500</ele>
<time>2012-07-22T13:49:26Z</time>
<speed>0.780000</speed>
<extensions>
<speed>0.8</speed>
<temp>0.00</temp>
<bpm>0</bpm>
<rpm>0.00</rpm>
</extensions>
</trkpt>
<trkpt lat="64.022285461" lon="-19.036333084">
<ele>588.046875</ele>
<time>2012-07-22T13:49:31Z</time>
<speed>1.030000</speed>
<extensions>
<speed>1.0</speed>
<temp>0.00</temp>
<bpm>0</bpm>
<rpm>0.00</rpm>
</extensions>
</trkpt>
<trkpt lat="64.022247314" lon="-19.036304474">
<ele>588.656250</ele>
<time>2012-07-22T13:49:36Z</time>
<speed>1.100000</speed>
<extensions>
<speed>1.1</speed>
<temp>0.00</temp>
<bpm>0</bpm>
<rpm>0.00</rpm>
</extensions>
</trkpt>
<trkpt lat="64.022224426" lon="-19.036340714">
<ele>588.484375</ele>
<time>2012-07-22T13:49:41Z</time>
<speed>0.180000</speed>
<extensions>
<speed>0.2</speed>
<temp>0.00</temp>
<bpm>0</bpm>
<rpm>0.00</rpm>
</extensions>
</trkpt>
<trkpt lat="64.022178650" lon="-19.036310196">
<ele>588.375000</ele>
<time>2012-07-22T13:49:46Z</time>
<speed>1.810000</speed>
<extensions>
<speed>1.8</speed>
<temp>0.00</temp>
<bpm>0</bpm>
<rpm>0.00</rpm>
</extensions>
</trkpt>
<trkpt lat="64.022094727" lon="-19.036283493">
<ele>588.218750</ele>
<time>2012-07-22T13:49:51Z</time>
<speed>1.590000</speed>
<extensions>
<speed>1.6</speed>
<temp>0.00</temp>
<bpm>0</bpm>
<rpm>0.00</rpm>
</extensions>
</trkpt>
<trkpt lat="64.022003174" lon="-19.036279678">
<ele>588.046875</ele>
<time>2012-07-22T13:49:56Z</time>
<speed>2.400000</speed>
<extensions>
<speed>2.4</speed>
<temp>0.00</temp>
<bpm>0</bpm>
<rpm>0.00</rpm>
</extensions>
</trkpt>
<trkpt lat="64.021888733" lon="-19.036334991">
<ele>587.312500</ele>
<time>2012-07-22T13:50:01Z</time>
<speed>2.350000</speed>
<extensions>
<speed>2.4</speed>
<temp>0.00</temp>
<bpm>0</bpm>
<rpm>0.00</rpm>
</extensions>
</trkpt>
<trkpt lat="64.021789551" lon="-19.036384583">
<ele>585.828125</ele>
<time>2012-07-22T13:50:06Z</time>
<speed>2.210000</speed>
<extensions>
<speed>2.2</speed>
<temp>0.00</temp>
<bpm>0</bpm>
<rpm>0.00</rpm>
</extensions>
</trkpt>
<trkpt lat="64.021705627" lon="-19.036457062">
<ele>585.781250</ele>
<time>2012-07-22T13:50:11Z</time>
<speed>2.070000</speed>
<extensions>
<speed>2.1</speed>
<temp>0.00</temp>
<bpm>0</bpm>
<rpm>0.00</rpm>
</extensions>
</trkpt>
<trkpt lat="64.021621704" lon="-19.036546707">
<ele>585.750000</ele>
<time>2012-07-22T13:50:16Z</time>
<speed>2.370000</speed>
<extensions>
<speed>2.4</speed>
<temp>0.00</temp>
<bpm>0</bpm>
<rpm>0.00</rpm>
</extensions>
</trkpt>
<trkpt lat="64.021545410" lon="-19.036693573">
<ele>584.953125</ele>
<time>2012-07-22T13:50:21Z</time>
<speed>2.420000</speed>
<extensions>
<speed>2.4</speed>
<temp>0.00</temp>
<bpm>0</bpm>
<rpm>0.00</rpm>
</extensions>
</trkpt>
<trkpt lat="64.021484375" lon="-19.036895752">
<ele>584.140625</ele>
<time>2012-07-22T13:50:26Z</time>
<speed>2.630000</speed>
<extensions>
<speed>2.6</speed>
<temp>0.00</temp>
<bpm>0</bpm>
<rpm>0.00</rpm>
</extensions>
</trkpt>
<trkpt lat="64.021423340" lon="-19.037134171">
<ele>583.250000</ele>
<time>2012-07-22T13:50:31Z</time>
<speed>2.790000</speed>
<extensions>
<speed>2.8</speed>
<temp>0.00</temp>
<bpm>0</bpm>
<rpm>0.00</rpm>
</extensions>
</trkpt>
<trkpt lat="64.021377563" lon="-19.037431717">
<ele>581.328125</ele>
<time>2012-07-22T13:50:36Z</time>
<speed>3.180000</speed>
<extensions>
<speed>3.2</speed>
<temp>0.00</temp>
<bpm>0</bpm>
<rpm>0.00</rpm>
</extensions>
</trkpt>
<trkpt lat="64.021339417" lon="-19.037744522">
<ele>579.046875</ele>
<time>2012-07-22T13:50:41Z</time>
<speed>3.200000</speed>
<extensions>
<speed>3.2</speed>
<temp>0.00</temp>
<bpm>0</bpm>
<rpm>0.00</rpm>
</extensions>
</trkpt>
<trkpt lat="64.021331787" lon="-19.038028717">
<ele>579.062500</ele>
<time>2012-07-22T13:50:46Z</time>
<speed>2.990000</speed>
<extensions>
<speed>3.0</speed>
<temp>0.00</temp>
<bpm>0</bpm>
<rpm>0.00</rpm>
</extensions>
</trkpt>
<trkpt lat="64.021331787" lon="-19.038309097">
<ele>579.656250</ele>
<time>2012-07-22T13:50:51Z</time>
<speed>2.750000</speed>
<extensions>
<speed>2.7</speed>
<temp>0.00</temp>
<bpm>0</bpm>
<rpm>0.00</rpm>
</extensions>
</trkpt>
<trkpt lat="64.021316528" lon="-19.038557053">
<ele>579.968750</ele>
<time>2012-07-22T13:50:56Z</time>
<speed>2.540000</speed>
<extensions>
<speed>2.5</speed>
<temp>0.00</temp>
<bpm>0</bpm>
<rpm>0.00</rpm>
</extensions>
</trkpt>
<trkpt lat="64.021286011" lon="-19.038806915">
<ele>580.031250</ele>
<time>2012-07-22T13:51:01Z</time>
<speed>2.490000</speed>
<extensions>
<speed>2.5</speed>
<temp>0.00</temp>
<bpm>0</bpm>
<rpm>0.00</rpm>
</extensions>
</trkpt>
<trkpt lat="64.021232605" lon="-19.039079666">
<ele>578.875000</ele>
<time>2012-07-22T13:51:06Z</time>
<speed>2.910000</speed>
<extensions>
<speed>2.9</speed>
<temp>0.00</temp>
<bpm>0</bpm>
<rpm>0.00</rpm>
</extensions>
</trkpt>
<trkpt lat="64.021186829" lon="-19.039327621">
<ele>579.203125</ele>
<time>2012-07-22T13:51:11Z</time>
<speed>3.110000</speed>
<extensions>
<speed>3.1</speed>
<temp>0.00</temp>
<bpm>0</bpm>
<rpm>0.00</rpm>
</extensions>
</trkpt>
<trkpt lat="64.021156311" lon="-19.039632797">
<ele>578.578125</ele>
<time>2012-07-22T13:51:16Z</time>
<speed>2.880000</speed>
<extensions>
<speed>2.9</speed>
<temp>0.00</temp>
<bpm>0</bpm>
<rpm>0.00</rpm>
</extensions>
</trkpt>
<trkpt lat="64.021133423" lon="-19.039913177">
<ele>578.765625</ele>
<time>2012-07-22T13:51:21Z</time>
<speed>2.800000</speed>
<extensions>
<speed>2.8</speed>
<temp>0.00</temp>
<bpm>0</bpm>
<rpm>0.00</rpm>
</extensions>
</trkpt>
<trkpt lat="64.021110535" lon="-19.040212631">
<ele>578.703125</ele>
<time>2012-07-22T13:51:26Z</time>
<speed>3.180000</speed>
<extensions>
<speed>3.2</speed>
<temp>0.00</temp>
<bpm>0</bpm>
<rpm>0.00</rpm>
</extensions>
</trkpt>
<trkpt lat="64.021080017" lon="-19.040489197">
<ele>580.000000</ele>
<time>2012-07-22T13:51:31Z</time>
<speed>2.710000</speed>
<extensions>
<speed>2.7</speed>
<temp>0.00</temp>
<bpm>0</bpm>
<rpm>0.00</rpm>
</extensions>
</trkpt>
<trkpt lat="64.021026611" lon="-19.040685654">
<ele>579.843750</ele>
<time>2012-07-22T13:51:36Z</time>
<speed>1.680000</speed>
<extensions>
<speed>1.7</speed>
<temp>0.00</temp>
<bpm>0</bpm>
<rpm>0.00</rpm>
</extensions>
</trkpt>
<trkpt lat="64.020965576" lon="-19.040868759">
<ele>580.125000</ele>
<time>2012-07-22T13:51:41Z</time>
<speed>2.980000</speed>
<extensions>
<speed>3.0</speed>
<temp>0.00</temp>
<bpm>0</bpm>
<rpm>0.00</rpm>
</extensions>
</trkpt>
<trkpt lat="64.020858765" lon="-19.041086197">
<ele>580.546875</ele>
<time>2012-07-22T13:51:46Z</time>
<speed>2.860000</speed>
<extensions>
<speed>2.9</speed>
<temp>0.00</temp>
<bpm>0</bpm>
<rpm>0.00</rpm>
</extensions>
</trkpt>
<trkpt lat="64.020744324" lon="-19.041332245">
<ele>579.359375</ele>
<time>2012-07-22T13:51:51Z</time>
<speed>3.360000</speed>
<extensions>
<speed>3.4</speed>
<temp>0.00</temp>
<bpm>0</bpm>
<rpm>0.00</rpm>
</extensions>
</trkpt>
<trkpt lat="64.020637512" lon="-19.041572571">
<ele>578.609375</ele>
<time>2012-07-22T13:51:56Z</time>
<speed>3.490000</speed>
<extensions>
<speed>3.5</speed>
<temp>0.00</temp>
<bpm>0</bpm>
<rpm>0.00</rpm>
</extensions>
</trkpt>
<trkpt lat="64.020523071" lon="-19.041801453">
<ele>577.953125</ele>
<time>2012-07-22T13:52:01Z</time>
<speed>3.490000</speed>
<extensions>
<speed>3.5</speed>
<temp>0.00</temp>
<bpm>0</bpm>
<rpm>0.00</rpm>
</extensions>
</trkpt>
<trkpt lat="64.020423889" lon="-19.041992188">
<ele>577.781250</ele>
<time>2012-07-22T13:52:06Z</time>
<speed>2.660000</speed>
<extensions>
<speed>2.7</speed>
<temp>0.00</temp>
<bpm>0</bpm>
<rpm>0.00</rpm>
</extensions>
</trkpt>
<trkpt lat="64.020324707" lon="-19.042161942">
<ele>578.187500</ele>
<time>2012-07-22T13:52:11Z</time>
<speed>2.660000</speed>
<extensions>
<speed>2.7</speed>
<temp>0.00</temp>
<bpm>0</bpm>
<rpm>0.00</rpm>
</extensions>
</trkpt>
<trkpt lat="64.020225525" lon="-19.042301178">
<ele>578.546875</ele>
<time>2012-07-22T13:52:16Z</time>
<speed>2.750000</speed>
<extensions>
<speed>2.7</speed>
<temp>0.00</temp>
<bpm>0</bpm>
<rpm>0.00</rpm>
</extensions>
</trkpt>
<trkpt lat="64.020141602" lon="-19.042430878">
<ele>580.406250</ele>
<time>2012-07-22T13:52:21Z</time>
<speed>2.140000</speed>
<extensions>
<speed>2.1</speed>
<temp>0.00</temp>
<bpm>0</bpm>
<rpm>0.00</rpm>
</extensions>
</trkpt>
<trkpt lat="64.020050049" lon="-19.042551041">
<ele>581.515625</ele>
<time>2012-07-22T13:52:26Z</time>
<speed>2.470000</speed>
<extensions>
<speed>2.5</speed>
<temp>0.00</temp>
<bpm>0</bpm>
<rpm>0.00</rpm>
</extensions>
</trkpt>
<trkpt lat="64.019958496" lon="-19.042697906">
<ele>582.000000</ele>
<time>2012-07-22T13:52:31Z</time>
<speed>2.640000</speed>
<extensions>
<speed>2.6</speed>
<temp>0.00</temp>
<bpm>0</bpm>
<rpm>0.00</rpm>
</extensions>
</trkpt>
<trkpt lat="64.019836426" lon="-19.042846680">
<ele>582.390625</ele>
<time>2012-07-22T13:52:36Z</time>
<speed>2.790000</speed>
<extensions>
<speed>2.8</speed>
<temp>0.00</temp>
<bpm>0</bpm>
<rpm>0.00</rpm>
</extensions>
</trkpt>
<trkpt lat="64.019721985" lon="-19.043010712">
<ele>582.046875</ele>
<time>2012-07-22T13:52:41Z</time>
<speed>2.640000</speed>
<extensions>
<speed>2.6</speed>
<temp>0.00</temp>
<bpm>0</bpm>
<rpm>0.00</rpm>
</extensions>
</trkpt>
<trkpt lat="64.019630432" lon="-19.043128967">
<ele>582.468750</ele>
<time>2012-07-22T13:52:46Z</time>
<speed>2.500000</speed>
<extensions>
<speed>2.5</speed>
<temp>0.00</temp>
<bpm>0</bpm>
<rpm>0.00</rpm>
</extensions>
</trkpt>
<trkpt lat="64.019531250" lon="-19.043281555">
<ele>582.031250</ele>
<time>2012-07-22T13:52:51Z</time>
<speed>2.810000</speed>
<extensions>
<speed>2.8</speed>
<temp>0.00</temp>
<bpm>0</bpm>
<rpm>0.00</rpm>
</extensions>
</trkpt>
<trkpt lat="64.019432068" lon="-19.043462753">
<ele>580.781250</ele>
<time>2012-07-22T13:52:56Z</time>
<speed>2.050000</speed>
<extensions>
<speed>2.1</speed>
<temp>0.00</temp>
<bpm>0</bpm>
<rpm>0.00</rpm>
</extensions>
</trkpt>
<trkpt lat="64.019348145" lon="-19.043582916">
<ele>580.375000</ele>
<time>2012-07-22T13:53:01Z</time>
<speed>2.100000</speed>
<extensions>
<speed>2.1</speed>
<temp>0.00</temp>
<bpm>0</bpm>
<rpm>0.00</rpm>
</extensions>
</trkpt>
<trkpt lat="64.019271851" lon="-19.043712616">
<ele>580.359375</ele>
<time>2012-07-22T13:53:06Z</time>
<speed>2.650000</speed>
<extensions>
<speed>2.6</speed>
<temp>0.00</temp>
<bpm>0</bpm>
<rpm>0.00</rpm>
</extensions>
</trkpt>
<trkpt lat="64.019187927" lon="-19.043891907">
<ele>579.843750</ele>
<time>2012-07-22T13:53:11Z</time>
<speed>2.660000</speed>
<extensions>
<speed>2.7</speed>
<temp>0.00</temp>
<bpm>0</bpm>
<rpm>0.00</rpm>
</extensions>
</trkpt>
<trkpt lat="64.019096375" lon="-19.044050217">
<ele>580.406250</ele>
<time>2012-07-22T13:53:16Z</time>
<speed>2.550000</speed>
<extensions>
<speed>2.6</speed>
<temp>0.00</temp>
<bpm>0</bpm>
<rpm>0.00</rpm>
</extensions>
</trkpt>
<trkpt lat="64.019012451" lon="-19.044221878">
<ele>580.734375</ele>
<time>2012-07-22T13:53:21Z</time>
<speed>2.510000</speed>
<extensions>
<speed>2.5</speed>
<temp>0.00</temp>
<bpm>0</bpm>
<rpm>0.00</rpm>
</extensions>
</trkpt>
<trkpt lat="64.018920898" lon="-19.044326782">
<ele>582.093750</ele>
<time>2012-07-22T13:53:26Z</time>
<speed>2.260000</speed>
<extensions>
<speed>2.3</speed>
<temp>0.00</temp>
<bpm>0</bpm>
<rpm>0.00</rpm>
</extensions>
</trkpt>
<trkpt lat="64.018844604" lon="-19.044445038">
<ele>582.796875</ele>
<time>2012-07-22T13:53:31Z</time>
<speed>2.250000</speed>
<extensions>
<speed>2.3</speed>
<temp>0.00</temp>
<bpm>0</bpm>
<rpm>0.00</rpm>
</extensions>
</trkpt>
<trkpt lat="64.018760681" lon="-19.044591904">
<ele>582.859375</ele>
<time>2012-07-22T13:53:36Z</time>
<speed>2.460000</speed>
<extensions>
<speed>2.5</speed>
<temp>0.00</temp>
<bpm>0</bpm>
<rpm>0.00</rpm>
</extensions>
</trkpt>
<trkpt lat="64.018669128" lon="-19.044723511">
<ele>583.453125</ele>
<time>2012-07-22T13:53:41Z</time>
<speed>2.220000</speed>
<extensions>
<speed>2.2</speed>
<temp>0.00</temp>
<bpm>0</bpm>
<rpm>0.00</rpm>
</extensions>
</trkpt>
<trkpt lat="64.018585205" lon="-19.044818878">
<ele>584.703125</ele>
<time>2012-07-22T13:53:46Z</time>
<speed>2.000000</speed>
<extensions>
<speed>2.0</speed>
<temp>0.00</temp>
<bpm>0</bpm>
<rpm>0.00</rpm>
</extensions>
</trkpt>
<trkpt lat="64.018493652" lon="-19.044946671">
<ele>585.734375</ele>
<time>2012-07-22T13:53:51Z</time>
<speed>2.470000</speed>
<extensions>
<speed>2.5</speed>
<temp>0.00</temp>
<bpm>0</bpm>
<rpm>0.00</rpm>
</extensions>
</trkpt>
<trkpt lat="64.018409729" lon="-19.045043945">
<ele>586.765625</ele>
<time>2012-07-22T13:53:56Z</time>
<speed>2.330000</speed>
<extensions>
<speed>2.3</speed>
<temp>0.00</temp>
<bpm>0</bpm>
<rpm>0.00</rpm>
</extensions>
</trkpt>
<trkpt lat="64.018318176" lon="-19.045160294">
<ele>586.843750</ele>
<time>2012-07-22T13:54:01Z</time>
<speed>2.410000</speed>
<extensions>
<speed>2.4</speed>
<temp>0.00</temp>
<bpm>0</bpm>
<rpm>0.00</rpm>
</extensions>
</trkpt>
<trkpt lat="64.018218994" lon="-19.045286179">
<ele>586.312500</ele>
<time>2012-07-22T13:54:06Z</time>
<speed>2.460000</speed>
<extensions>
<speed>2.5</speed>
<temp>0.00</temp>
<bpm>0</bpm>
<rpm>0.00</rpm>
</extensions>
</trkpt>
<trkpt lat="64.018112183" lon="-19.045404434">
<ele>586.468750</ele>
<time>2012-07-22T13:54:11Z</time>
<speed>2.640000</speed>
<extensions>
<speed>2.6</speed>
<temp>0.00</temp>
<bpm>0</bpm>
<rpm>0.00</rpm>
</extensions>
</trkpt>
<trkpt lat="64.018005371" lon="-19.045515060">
<ele>587.031250</ele>
<time>2012-07-22T13:54:16Z</time>
<speed>2.520000</speed>
<extensions>
<speed>2.5</speed>
<temp>0.00</temp>
<bpm>0</bpm>
<rpm>0.00</rpm>
</extensions>
</trkpt>
<trkpt lat="64.017898560" lon="-19.045623779">
<ele>587.625000</ele>
<time>2012-07-22T13:54:21Z</time>
<speed>2.390000</speed>
<extensions>
<speed>2.4</speed>
<temp>0.00</temp>
<bpm>0</bpm>
<rpm>0.00</rpm>
</extensions>
</trkpt>
<trkpt lat="64.017799377" lon="-19.045740128">
<ele>588.781250</ele>
<time>2012-07-22T13:54:26Z</time>
<speed>2.410000</speed>
<extensions>
<speed>2.4</speed>
<temp>0.00</temp>
<bpm>0</bpm>
<rpm>0.00</rpm>
</extensions>
</trkpt>
<trkpt lat="64.017707825" lon="-19.045837402">
<ele>589.093750</ele>
<time>2012-07-22T13:54:31Z</time>
<speed>2.300000</speed>
<extensions>
<speed>2.3</speed>
<temp>0.00</temp>
<bpm>0</bpm>
<rpm>0.00</rpm>
</extensions>
</trkpt>
<trkpt lat="64.017608643" lon="-19.045927048">
<ele>589.171875</ele>
<time>2012-07-22T13:54:36Z</time>
<speed>2.450000</speed>
<extensions>
<speed>2.4</speed>
<temp>0.00</temp>
<bpm>0</bpm>
<rpm>0.00</rpm>
</extensions>
</trkpt>
<trkpt lat="64.017501831" lon="-19.046030045">
<ele>590.125000</ele>
<time>2012-07-22T13:54:41Z</time>
<speed>2.400000</speed>
<extensions>
<speed>2.4</speed>
<temp>0.00</temp>
<bpm>0</bpm>
<rpm>0.00</rpm>
</extensions>
</trkpt>
<trkpt lat="64.017402649" lon="-19.046133041">
<ele>591.000000</ele>
<time>2012-07-22T13:54:46Z</time>
<speed>2.530000</speed>
<extensions>
<speed>2.5</speed>
<temp>0.00</temp>
<bpm>0</bpm>
<rpm>0.00</rpm>
</extensions>
</trkpt>
<trkpt lat="64.017311096" lon="-19.046228409">
<ele>591.437500</ele>
<time>2012-07-22T13:54:51Z</time>
<speed>2.610000</speed>
<extensions>
<speed>2.6</speed>
<temp>0.00</temp>
<bpm>0</bpm>
<rpm>0.00</rpm>
</extensions>
</trkpt>
<trkpt lat="64.017211914" lon="-19.046337128">
<ele>590.968750</ele>
<time>2012-07-22T13:54:56Z</time>
<speed>2.060000</speed>
<extensions>
<speed>2.1</speed>
<temp>0.00</temp>
<bpm>0</bpm>
<rpm>0.00</rpm>
</extensions>
</trkpt>
<trkpt lat="64.017127991" lon="-19.046432495">
<ele>591.453125</ele>
<time>2012-07-22T13:55:01Z</time>
<speed>2.150000</speed>
<extensions>
<speed>2.1</speed>
<temp>0.00</temp>
<bpm>0</bpm>
<rpm>0.00</rpm>
</extensions>
</trkpt>
<trkpt lat="64.017044067" lon="-19.046524048">
<ele>591.437500</ele>
<time>2012-07-22T13:55:06Z</time>
<speed>1.740000</speed>
<extensions>
<speed>1.7</speed>
<temp>0.00</temp>
<bpm>0</bpm>
<rpm>0.00</rpm>
</extensions>
</trkpt>
<trkpt lat="64.016983032" lon="-19.046581268">
<ele>592.281250</ele>
<time>2012-07-22T13:55:11Z</time>
<speed>1.160000</speed>
<extensions>
<speed>1.2</speed>
<temp>0.00</temp>
<bpm>0</bpm>
<rpm>0.00</rpm>
</extensions>
</trkpt>
<trkpt lat="64.016944885" lon="-19.046621323">
<ele>593.625000</ele>
<time>2012-07-22T13:55:16Z</time>
<speed>1.390000</speed>
<extensions>
<speed>1.4</speed>
<temp>0.00</temp>
<bpm>0</bpm>
<rpm>0.00</rpm>
</extensions>
</trkpt>
<trkpt lat="64.016891479" lon="-19.046665192">
<ele>594.093750</ele>
<time>2012-07-22T13:55:21Z</time>
<speed>1.450000</speed>
<extensions>
<speed>1.4</speed>
<temp>0.00</temp>
<bpm>0</bpm>
<rpm>0.00</rpm>
</extensions>
</trkpt>
<trkpt lat="64.016838074" lon="-19.046709061">
<ele>595.109375</ele>
<time>2012-07-22T13:55:26Z</time>
<speed>1.310000</speed>
<extensions>
<speed>1.3</speed>
<temp>0.00</temp>
<bpm>0</bpm>
<rpm>0.00</rpm>
</extensions>
</trkpt>
<trkpt lat="64.016822815" lon="-19.046728134">
<ele>594.140625</ele>
<time>2012-07-22T13:55:31Z</time>
<speed>0.070000</speed>
<extensions>
<speed>0.1</speed>
<temp>0.00</temp>
<bpm>0</bpm>
<rpm>0.00</rpm>
</extensions>
</trkpt>
<trkpt lat="64.016822815" lon="-19.046726227">
<ele>594.093750</ele>
<time>2012-07-22T13:55:36Z</time>
<speed>0.140000</speed>
<extensions>
<speed>0.1</speed>
<temp>0.00</temp>
<bpm>0</bpm>
<rpm>0.00</rpm>
</extensions>
</trkpt>
<trkpt lat="64.016799927" lon="-19.046756744">
<ele>594.375000</ele>
<time>2012-07-22T13:55:41Z</time>
<speed>0.910000</speed>
<extensions>
<speed>0.9</speed>
<temp>0.00</temp>
<bpm>0</bpm>
<rpm>0.00</rpm>
</extensions>
</trkpt>
<trkpt lat="64.016769409" lon="-19.046766281">
<ele>594.671875</ele>
<time>2012-07-22T13:55:46Z</time>
<speed>0.750000</speed>
<extensions>
<speed>0.8</speed>
<temp>0.00</temp>
<bpm>0</bpm>
<rpm>0.00</rpm>
</extensions>
</trkpt>
<trkpt lat="64.016731262" lon="-19.046792984">
<ele>594.546875</ele>
<time>2012-07-22T13:55:51Z</time>
<speed>1.070000</speed>
<extensions>
<speed>1.1</speed>
<temp>0.00</temp>
<bpm>0</bpm>
<rpm>0.00</rpm>
</extensions>
</trkpt>
<trkpt lat="64.016685486" lon="-19.046823502">
<ele>595.234375</ele>
<time>2012-07-22T13:55:56Z</time>
<speed>0.990000</speed>
<extensions>
<speed>1.0</speed>
<temp>0.00</temp>
<bpm>0</bpm>
<rpm>0.00</rpm>
</extensions>
</trkpt>
<trkpt lat="64.016639709" lon="-19.046854019">
<ele>596.187500</ele>
<time>2012-07-22T13:56:01Z</time>
<speed>1.160000</speed>
<extensions>
<speed>1.2</speed>
<temp>0.00</temp>
<bpm>0</bpm>
<rpm>0.00</rpm>
</extensions>
</trkpt>
<trkpt lat="64.016593933" lon="-19.046867371">
<ele>596.718750</ele>
<time>2012-07-22T13:56:06Z</time>
<speed>1.080000</speed>
<extensions>
<speed>1.1</speed>
<temp>0.00</temp>
<bpm>0</bpm>
<rpm>0.00</rpm>
</extensions>
</trkpt>
<trkpt lat="64.016548157" lon="-19.046884537">
<ele>597.171875</ele>
<time>2012-07-22T13:56:11Z</time>
<speed>1.110000</speed>
<extensions>
<speed>1.1</speed>
<temp>0.00</temp>
<bpm>0</bpm>
<rpm>0.00</rpm>
</extensions>
</trkpt>
<trkpt lat="64.016502380" lon="-19.046907425">
<ele>597.625000</ele>
<time>2012-07-22T13:56:16Z</time>
<speed>1.110000</speed>
<extensions>
<speed>1.1</speed>
<temp>0.00</temp>
<bpm>0</bpm>
<rpm>0.00</rpm>
</extensions>
</trkpt>
<trkpt lat="64.016448975" lon="-19.046915054">
<ele>598.046875</ele>
<time>2012-07-22T13:56:21Z</time>
<speed>1.000000</speed>
<extensions>
<speed>1.0</speed>
<temp>0.00</temp>
<bpm>0</bpm>
<rpm>0.00</rpm>
</extensions>
</trkpt>
<trkpt lat="64.016403198" lon="-19.046915054">
<ele>598.406250</ele>
<time>2012-07-22T13:56:26Z</time>
<speed>1.160000</speed>
<extensions>
<speed>1.2</speed>
<temp>0.00</temp>
<bpm>0</bpm>
<rpm>0.00</rpm>
</extensions>
</trkpt>
<trkpt lat="64.016357422" lon="-19.046911240">
<ele>598.781250</ele>
<time>2012-07-22T13:56:31Z</time>
<speed>0.910000</speed>
<extensions>
<speed>0.9</speed>
<temp>0.00</temp>
<bpm>0</bpm>
<rpm>0.00</rpm>
</extensions>
</trkpt>
<trkpt lat="64.016304016" lon="-19.046907425">
<ele>599.375000</ele>
<time>2012-07-22T13:56:36Z</time>
<speed>1.080000</speed>
<extensions>
<speed>1.1</speed>
<temp>0.00</temp>
<bpm>0</bpm>
<rpm>0.00</rpm>
</extensions>
</trkpt>
<trkpt lat="64.016250610" lon="-19.046909332">
<ele>599.750000</ele>
<time>2012-07-22T13:56:41Z</time>
<speed>1.180000</speed>
<extensions>
<speed>1.2</speed>
<temp>0.00</temp>
<bpm>0</bpm>
<rpm>0.00</rpm>
</extensions>
</trkpt>
<trkpt lat="64.016197205" lon="-19.046922684">
<ele>600.406250</ele>
<time>2012-07-22T13:56:46Z</time>
<speed>1.210000</speed>
<extensions>
<speed>1.2</speed>
<temp>0.00</temp>
<bpm>0</bpm>
<rpm>0.00</rpm>
</extensions>
</trkpt>
<trkpt lat="64.016151428" lon="-19.046915054">
<ele>600.671875</ele>
<time>2012-07-22T13:56:51Z</time>
<speed>1.080000</speed>
<extensions>
<speed>1.1</speed>
<temp>0.00</temp>
<bpm>0</bpm>
<rpm>0.00</rpm>
</extensions>
</trkpt>
<trkpt lat="64.016098022" lon="-19.046884537">
<ele>600.453125</ele>
<time>2012-07-22T13:56:56Z</time>
<speed>1.130000</speed>
<extensions>
<speed>1.1</speed>
<temp>0.00</temp>
<bpm>0</bpm>
<rpm>0.00</rpm>
</extensions>
</trkpt>
<trkpt lat="64.016052246" lon="-19.046878815">
<ele>600.593750</ele>
<time>2012-07-22T13:57:01Z</time>
<speed>1.010000</speed>
<extensions>
<speed>1.0</speed>
<temp>0.00</temp>
<bpm>0</bpm>
<rpm>0.00</rpm>
</extensions>
</trkpt>
<trkpt lat="64.016006470" lon="-19.046863556">
<ele>600.640625</ele>
<time>2012-07-22T13:57:06Z</time>
<speed>1.070000</speed>
<extensions>
<speed>1.1</speed>
<temp>0.00</temp>
<bpm>0</bpm>
<rpm>0.00</rpm>
</extensions>
</trkpt>
<trkpt lat="64.015960693" lon="-19.046842575">
<ele>601.265625</ele>
<time>2012-07-22T13:57:11Z</time>
<speed>0.930000</speed>
<extensions>
<speed>0.9</speed>
<temp>0.00</temp>
<bpm>0</bpm>
<rpm>0.00</rpm>
</extensions>
</trkpt>
<trkpt lat="64.015914917" lon="-19.046836853">
<ele>601.671875</ele>
<time>2012-07-22T13:57:16Z</time>
<speed>1.050000</speed>
<extensions>
<speed>1.0</speed>
<temp>0.00</temp>
<bpm>0</bpm>
<rpm>0.00</rpm>
</extensions>
</trkpt>
<trkpt lat="64.015869141" lon="-19.046806335">
<ele>602.000000</ele>
<time>2012-07-22T13:57:21Z</time>
<speed>1.060000</speed>
<extensions>
<speed>1.1</speed>
<temp>0.00</temp>
<bpm>0</bpm>
<rpm>0.00</rpm>
</extensions>
</trkpt>
<trkpt lat="64.015815735" lon="-19.046768188">
<ele>602.093750</ele>
<time>2012-07-22T13:57:26Z</time>
<speed>1.060000</speed>
<extensions>
<speed>1.1</speed>
<temp>0.00</temp>
<bpm>0</bpm>
<rpm>0.00</rpm>
</extensions>
</trkpt>
<trkpt lat="64.015777588" lon="-19.046728134">
<ele>601.937500</ele>
<time>2012-07-22T13:57:31Z</time>
<speed>0.900000</speed>
<extensions>
<speed>0.9</speed>
<temp>0.00</temp>
<bpm>0</bpm>
<rpm>0.00</rpm>
</extensions>
</trkpt>
<trkpt lat="64.015731812" lon="-19.046688080">
<ele>602.375000</ele>
<time>2012-07-22T13:57:36Z</time>
<speed>0.940000</speed>
<extensions>
<speed>0.9</speed>
<temp>0.00</temp>
<bpm>0</bpm>
<rpm>0.00</rpm>
</extensions>
</trkpt>
<trkpt lat="64.015701294" lon="-19.046661377">
<ele>602.906250</ele>
<time>2012-07-22T13:57:41Z</time>
<speed>0.760000</speed>
<extensions>
<speed>0.8</speed>
<temp>0.00</temp>
<bpm>0</bpm>
<rpm>0.00</rpm>
</extensions>
</trkpt>
<trkpt lat="64.015670776" lon="-19.046630859">
<ele>603.468750</ele>
<time>2012-07-22T13:57:46Z</time>
<speed>0.600000</speed>
<extensions>
<speed>0.6</speed>
<temp>0.00</temp>
<bpm>0</bpm>
<rpm>0.00</rpm>
</extensions>
</trkpt>
<trkpt lat="64.015655518" lon="-19.046636581">
<ele>603.937500</ele>
<time>2012-07-22T13:57:51Z</time>
<extensions>
<speed>0.0</speed>
<temp>0.00</temp>
<bpm>0</bpm>
<rpm>0.00</rpm>
</extensions>
</trkpt>
<trkpt lat="64.015655518" lon="-19.046636581">
<ele>603.921875</ele>
<time>2012-07-22T13:57:56Z</time>
<speed>0.020000</speed>
<extensions>
<speed>0.0</speed>
<temp>0.00</temp>
<bpm>0</bpm>
<rpm>0.00</rpm>
</extensions>
</trkpt>
<trkpt lat="64.015640259" lon="-19.046623230">
<ele>603.578125</ele>
<time>2012-07-22T13:58:01Z</time>
<speed>0.940000</speed>
<extensions>
<speed>0.9</speed>
<temp>0.00</temp>
<bpm>0</bpm>
<rpm>0.00</rpm>
</extensions>
</trkpt>
<trkpt lat="64.015594482" lon="-19.046577454">
<ele>603.687500</ele>
<time>2012-07-22T13:58:06Z</time>
<speed>1.110000</speed>
<extensions>
<speed>1.1</speed>
<temp>0.00</temp>
<bpm>0</bpm>
<rpm>0.00</rpm>
</extensions>
</trkpt>
<trkpt lat="64.015556335" lon="-19.046539307">
<ele>604.687500</ele>
<time>2012-07-22T13:58:11Z</time>
<speed>1.020000</speed>
<extensions>
<speed>1.0</speed>
<temp>0.00</temp>
<bpm>0</bpm>
<rpm>0.00</rpm>
</extensions>
</trkpt>
<trkpt lat="64.015518188" lon="-19.046493530">
<ele>604.203125</ele>
<time>2012-07-22T13:58:16Z</time>
<speed>0.980000</speed>
<extensions>
<speed>1.0</speed>
<temp>0.00</temp>
<bpm>0</bpm>
<rpm>0.00</rpm>
</extensions>
</trkpt>
<trkpt lat="64.015480042" lon="-19.046443939">
<ele>605.000000</ele>
<time>2012-07-22T13:58:21Z</time>
<speed>0.930000</speed>
<extensions>
<speed>0.9</speed>
<temp>0.00</temp>
<bpm>0</bpm>
<rpm>0.00</rpm>
</extensions>
</trkpt>
<trkpt lat="64.015441895" lon="-19.046396255">
<ele>605.593750</ele>
<time>2012-07-22T13:58:26Z</time>
<speed>0.690000</speed>
<extensions>
<speed>0.7</speed>
<temp>0.00</temp>
<bpm>0</bpm>
<rpm>0.00</rpm>
</extensions>
</trkpt>
<trkpt lat="64.015411377" lon="-19.046360016">
<ele>606.734375</ele>
<time>2012-07-22T13:58:31Z</time>
<speed>0.960000</speed>
<extensions>
<speed>1.0</speed>
<temp>0.00</temp>
<bpm>0</bpm>
<rpm>0.00</rpm>
</extensions>
</trkpt>
<trkpt lat="64.015373230" lon="-19.046310425">
<ele>606.812500</ele>
<time>2012-07-22T13:58:36Z</time>
<speed>0.540000</speed>
<extensions>
<speed>0.5</speed>
<temp>0.00</temp>
<bpm>0</bpm>
<rpm>0.00</rpm>
</extensions>
</trkpt>
<trkpt lat="64.015342712" lon="-19.046285629">
<ele>606.453125</ele>
<time>2012-07-22T13:58:41Z</time>
<speed>0.810000</speed>
<extensions>
<speed>0.8</speed>
<temp>0.00</temp>
<bpm>0</bpm>
<rpm>0.00</rpm>
</extensions>
</trkpt>
<trkpt lat="64.015312195" lon="-19.046262741">
<ele>606.687500</ele>
<time>2012-07-22T13:58:46Z</time>
<speed>0.840000</speed>
<extensions>
<speed>0.8</speed>
<temp>0.00</temp>
<bpm>0</bpm>
<rpm>0.00</rpm>
</extensions>
</trkpt>
<trkpt lat="64.015281677" lon="-19.046236038">
<ele>607.109375</ele>
<time>2012-07-22T13:58:51Z</time>
<speed>0.840000</speed>
<extensions>
<speed>0.8</speed>
<temp>0.00</temp>
<bpm>0</bpm>
<rpm>0.00</rpm>
</extensions>
</trkpt>
<trkpt lat="64.015258789" lon="-19.046205521">
<ele>607.703125</ele>
<time>2012-07-22T13:58:56Z</time>
<speed>0.820000</speed>
<extensions>
<speed>0.8</speed>
<temp>0.00</temp>
<bpm>0</bpm>
<rpm>0.00</rpm>
</extensions>
</trkpt>
<trkpt lat="64.015220642" lon="-19.046180725">
<ele>608.140625</ele>
<time>2012-07-22T13:59:01Z</time>
<speed>0.990000</speed>
<extensions>
<speed>1.0</speed>
<temp>0.00</temp>
<bpm>0</bpm>
<rpm>0.00</rpm>
</extensions>
</trkpt>
<trkpt lat="64.015190125" lon="-19.046152115">
<ele>608.890625</ele>
<time>2012-07-22T13:59:06Z</time>
<speed>0.640000</speed>
<extensions>
<speed>0.6</speed>
<temp>0.00</temp>
<bpm>0</bpm>
<rpm>0.00</rpm>
</extensions>
</trkpt>
<trkpt lat="64.015159607" lon="-19.046129227">
<ele>609.421875</ele>
<time>2012-07-22T13:59:11Z</time>
<speed>0.670000</speed>
<extensions>
<speed>0.7</speed>
<temp>0.00</temp>
<bpm>0</bpm>
<rpm>0.00</rpm>
</extensions>
</trkpt>
<trkpt lat="64.015129089" lon="-19.046102524">
<ele>609.375000</ele>
<time>2012-07-22T13:59:16Z</time>
<speed>0.930000</speed>
<extensions>
<speed>0.9</speed>
<temp>0.00</temp>
<bpm>0</bpm>
<rpm>0.00</rpm>
</extensions>
</trkpt>
<trkpt lat="64.015083313" lon="-19.046070099">
<ele>609.828125</ele>
<time>2012-07-22T13:59:21Z</time>
<speed>0.940000</speed>
<extensions>
<speed>0.9</speed>
<temp>0.00</temp>
<bpm>0</bpm>
<rpm>0.00</rpm>
</extensions>
</trkpt>
<trkpt lat="64.015045166" lon="-19.046041489">
<ele>610.421875</ele>
<time>2012-07-22T13:59:26Z</time>
<speed>0.830000</speed>
<extensions>
<speed>0.8</speed>
<temp>0.00</temp>
<bpm>0</bpm>
<rpm>0.00</rpm>
</extensions>
</trkpt>
<trkpt lat="64.015014648" lon="-19.046001434">
<ele>611.765625</ele>
<time>2012-07-22T13:59:31Z</time>
<speed>0.600000</speed>
<extensions>
<speed>0.6</speed>
<temp>0.00</temp>
<bpm>0</bpm>
<rpm>0.00</rpm>
</extensions>
</trkpt>
<trkpt lat="64.014968872" lon="-19.045963287">
<ele>610.796875</ele>
<time>2012-07-22T13:59:36Z</time>
<speed>0.890000</speed>
<extensions>
<speed>0.9</speed>
<temp>0.00</temp>
<bpm>0</bpm>
<rpm>0.00</rpm>
</extensions>
</trkpt>
<trkpt lat="64.014938354" lon="-19.045953751">
<ele>611.500000</ele>
<time>2012-07-22T13:59:41Z</time>
<speed>0.760000</speed>
<extensions>
<speed>0.8</speed>
<temp>0.00</temp>
<bpm>0</bpm>
<rpm>0.00</rpm>
</extensions>
</trkpt>
<trkpt lat="64.014907837" lon="-19.045936584">
<ele>613.359375</ele>
<time>2012-07-22T13:59:46Z</time>
<speed>0.140000</speed>
<extensions>
<speed>0.1</speed>
<temp>0.00</temp>
<bpm>0</bpm>
<rpm>0.00</rpm>
</extensions>
</trkpt>
<trkpt lat="64.014892578" lon="-19.045942307">
<ele>613.312500</ele>
<time>2012-07-22T13:59:51Z</time>
<speed>0.870000</speed>
<extensions>
<speed>0.9</speed>
<temp>0.00</temp>
<bpm>0</bpm>
<rpm>0.00</rpm>
</extensions>
</trkpt>
<trkpt lat="64.014862061" lon="-19.045944214">
<ele>614.031250</ele>
<time>2012-07-22T13:59:56Z</time>
<speed>0.690000</speed>
<extensions>
<speed>0.7</speed>
<temp>0.00</temp>
<bpm>0</bpm>
<rpm>0.00</rpm>
</extensions>
</trkpt>
<trkpt lat="64.014831543" lon="-19.045913696">
<ele>615.031250</ele>
<time>2012-07-22T14:00:01Z</time>
<speed>0.020000</speed>
<extensions>
<speed>0.0</speed>
<temp>0.00</temp>
<bpm>0</bpm>
<rpm>0.00</rpm>
</extensions>
</trkpt>
<trkpt lat="64.014831543" lon="-19.045909882">
<ele>614.609375</ele>
<time>2012-07-22T14:00:06Z</time>
<speed>0.280000</speed>
<extensions>
<speed>0.3</speed>
<temp>0.00</temp>
<bpm>0</bpm>
<rpm>0.00</rpm>
</extensions>
</trkpt>
<trkpt lat="64.014831543" lon="-19.045890808">
<ele>614.640625</ele>
<time>2012-07-22T14:00:11Z</time>
<speed>0.020000</speed>
<extensions>
<speed>0.0</speed>
<temp>0.00</temp>
<bpm>0</bpm>
<rpm>0.00</rpm>
</extensions>
</trkpt>
<trkpt lat="64.014808655" lon="-19.045896530">
<ele>614.781250</ele>
<time>2012-07-22T14:00:16Z</time>
<speed>0.820000</speed>
<extensions>
<speed>0.8</speed>
<temp>0.00</temp>
<bpm>0</bpm>
<rpm>0.00</rpm>
</extensions>
</trkpt>
<trkpt lat="64.014770508" lon="-19.045892715">
<ele>615.265625</ele>
<time>2012-07-22T14:00:21Z</time>
<speed>0.890000</speed>
<extensions>
<speed>0.9</speed>
<temp>0.00</temp>
<bpm>0</bpm>
<rpm>0.00</rpm>
</extensions>
</trkpt>
<trkpt lat="64.014717102" lon="-19.045881271">
<ele>616.671875</ele>
<time>2012-07-22T14:00:26Z</time>
<speed>0.840000</speed>
<extensions>
<speed>0.8</speed>
<temp>0.00</temp>
<bpm>0</bpm>
<rpm>0.00</rpm>
</extensions>
</trkpt>
<trkpt lat="64.014678955" lon="-19.045864105">
<ele>617.250000</ele>
<time>2012-07-22T14:00:31Z</time>
<speed>0.930000</speed>
<extensions>
<speed>0.9</speed>
<temp>0.00</temp>
<bpm>0</bpm>
<rpm>0.00</rpm>
</extensions>
</trkpt>
<trkpt lat="64.014633179" lon="-19.045848846">
<ele>617.640625</ele>
<time>2012-07-22T14:00:36Z</time>
<speed>0.760000</speed>
<extensions>
<speed>0.8</speed>
<temp>0.00</temp>
<bpm>0</bpm>
<rpm>0.00</rpm>
</extensions>
</trkpt>
<trkpt lat="64.014602661" lon="-19.045848846">
<ele>617.750000</ele>
<time>2012-07-22T14:00:41Z</time>
<speed>0.770000</speed>
<extensions>
<speed>0.8</speed>
<temp>0.00</temp>
<bpm>0</bpm>
<rpm>0.00</rpm>
</extensions>
</trkpt>
<trkpt lat="64.014572144" lon="-19.045841217">
<ele>618.546875</ele>
<time>2012-07-22T14:00:46Z</time>
<speed>0.020000</speed>
<extensions>
<speed>0.0</speed>
<temp>0.00</temp>
<bpm>0</bpm>
<rpm>0.00</rpm>
</extensions>
</trkpt>
<trkpt lat="64.014572144" lon="-19.045841217">
<ele>618.640625</ele>
<time>2012-07-22T14:00:51Z</time>
<speed>0.060000</speed>
<extensions>
<speed>0.1</speed>
<temp>0.00</temp>
<bpm>0</bpm>
<rpm>0.00</rpm>
</extensions>
</trkpt>
<trkpt lat="64.014564514" lon="-19.045837402">
<ele>618.796875</ele>
<time>2012-07-22T14:00:56Z</time>
<speed>0.440000</speed>
<extensions>
<speed>0.4</speed>
<temp>0.00</temp>
<bpm>0</bpm>
<rpm>0.00</rpm>
</extensions>
</trkpt>
<trkpt lat="64.014533997" lon="-19.045839310">
<ele>619.421875</ele>
<time>2012-07-22T14:01:01Z</time>
<speed>0.680000</speed>
<extensions>
<speed>0.7</speed>
<temp>0.00</temp>
<bpm>0</bpm>
<rpm>0.00</rpm>
</extensions>
</trkpt>
<trkpt lat="64.014503479" lon="-19.045835495">
<ele>620.109375</ele>
<time>2012-07-22T14:01:06Z</time>
<speed>0.770000</speed>
<extensions>
<speed>0.8</speed>
<temp>0.00</temp>
<bpm>0</bpm>
<rpm>0.00</rpm>
</extensions>
</trkpt>
<trkpt lat="64.014465332" lon="-19.045845032">
<ele>621.140625</ele>
<time>2012-07-22T14:01:11Z</time>
<speed>0.700000</speed>
<extensions>
<speed>0.7</speed>
<temp>0.00</temp>
<bpm>0</bpm>
<rpm>0.00</rpm>
</extensions>
</trkpt>
<trkpt lat="64.014434814" lon="-19.045858383">
<ele>621.390625</ele>
<time>2012-07-22T14:01:16Z</time>
<speed>0.590000</speed>
<extensions>
<speed>0.6</speed>
<temp>0.00</temp>
<bpm>0</bpm>
<rpm>0.00</rpm>
</extensions>
</trkpt>
<trkpt lat="64.014419556" lon="-19.045850754">
<ele>622.140625</ele>
<time>2012-07-22T14:01:21Z</time>
<speed>0.540000</speed>
<extensions>
<speed>0.5</speed>
<temp>0.00</temp>
<bpm>0</bpm>
<rpm>0.00</rpm>
</extensions>
</trkpt>
<trkpt lat="64.014396667" lon="-19.045820236">
<ele>622.593750</ele>
<time>2012-07-22T14:01:26Z</time>
<speed>0.020000</speed>
<extensions>
<speed>0.0</speed>
<temp>0.00</temp>
<bpm>0</bpm>
<rpm>0.00</rpm>
</extensions>
</trkpt>
<trkpt lat="64.014404297" lon="-19.045816422">
<ele>622.671875</ele>
<time>2012-07-22T14:01:31Z</time>
<speed>0.010000</speed>
<extensions>
<speed>0.0</speed>
<temp>0.00</temp>
<bpm>0</bpm>
<rpm>0.00</rpm>
</extensions>
</trkpt>
<trkpt lat="64.014404297" lon="-19.045816422">
<ele>622.656250</ele>
<time>2012-07-22T14:01:36Z</time>
<speed>0.010000</speed>
<extensions>
<speed>0.0</speed>
<temp>0.00</temp>
<bpm>0</bpm>
<rpm>0.00</rpm>
</extensions>
</trkpt>
<trkpt lat="64.014396667" lon="-19.045814514">
<ele>622.906250</ele>
<time>2012-07-22T14:01:41Z</time>
<speed>0.520000</speed>
<extensions>
<speed>0.5</speed>
<temp>0.00</temp>
<bpm>0</bpm>
<rpm>0.00</rpm>
</extensions>
</trkpt>
<trkpt lat="64.014366150" lon="-19.045801163">
<ele>623.968750</ele>
<time>2012-07-22T14:01:46Z</time>
<speed>0.700000</speed>
<extensions>
<speed>0.7</speed>
<temp>0.00</temp>
<bpm>0</bpm>
<rpm>0.00</rpm>
</extensions>
</trkpt>
<trkpt lat="64.014335632" lon="-19.045810699">
<ele>624.312500</ele>
<time>2012-07-22T14:01:51Z</time>
<speed>0.730000</speed>
<extensions>
<speed>0.7</speed>
<temp>0.00</temp>
<bpm>0</bpm>
<rpm>0.00</rpm>
</extensions>
</trkpt>
<trkpt lat="64.014305115" lon="-19.045795441">
<ele>625.250000</ele>
<time>2012-07-22T14:01:56Z</time>
<speed>0.870000</speed>
<extensions>
<speed>0.9</speed>
<temp>0.00</temp>
<bpm>0</bpm>
<rpm>0.00</rpm>
</extensions>
</trkpt>
<trkpt lat="64.014266968" lon="-19.045810699">
<ele>625.640625</ele>
<time>2012-07-22T14:02:01Z</time>
<speed>0.900000</speed>
<extensions>
<speed>0.9</speed>
<temp>0.00</temp>
<bpm>0</bpm>
<rpm>0.00</rpm>
</extensions>
</trkpt>
<trkpt lat="64.014221191" lon="-19.045820236">
<ele>625.875000</ele>
<time>2012-07-22T14:02:06Z</time>
<speed>0.890000</speed>
<extensions>
<speed>0.9</speed>
<temp>0.00</temp>
<bpm>0</bpm>
<rpm>0.00</rpm>
</extensions>
</trkpt>
<trkpt lat="64.014183044" lon="-19.045837402">
<ele>626.046875</ele>
<time>2012-07-22T14:02:11Z</time>
<speed>0.610000</speed>
<extensions>
<speed>0.6</speed>
<temp>0.00</temp>
<bpm>0</bpm>
<rpm>0.00</rpm>
</extensions>
</trkpt>
<trkpt lat="64.014137268" lon="-19.045835495">
<ele>626.203125</ele>
<time>2012-07-22T14:02:16Z</time>
<speed>0.870000</speed>
<extensions>
<speed>0.9</speed>
<temp>0.00</temp>
<bpm>0</bpm>
<rpm>0.00</rpm>
</extensions>
</trkpt>
<trkpt lat="64.014091492" lon="-19.045848846">
<ele>626.171875</ele>
<time>2012-07-22T14:02:21Z</time>
<speed>1.300000</speed>
<extensions>
<speed>1.3</speed>
<temp>0.00</temp>
<bpm>0</bpm>
<rpm>0.00</rpm>
</extensions>
</trkpt>
<trkpt lat="64.014045715" lon="-19.045822144">
<ele>625.890625</ele>
<time>2012-07-22T14:02:26Z</time>
<speed>1.150000</speed>
<extensions>
<speed>1.1</speed>
<temp>0.00</temp>
<bpm>0</bpm>
<rpm>0.00</rpm>
</extensions>
</trkpt>
<trkpt lat="64.013992310" lon="-19.045816422">
<ele>626.125000</ele>
<time>2012-07-22T14:02:31Z</time>
<speed>1.190000</speed>
<extensions>
<speed>1.2</speed>
<temp>0.00</temp>
<bpm>0</bpm>
<rpm>0.00</rpm>
</extensions>
</trkpt>
<trkpt lat="64.013938904" lon="-19.045789719">
<ele>626.296875</ele>
<time>2012-07-22T14:02:36Z</time>
<speed>1.030000</speed>
<extensions>
<speed>1.0</speed>
<temp>0.00</temp>
<bpm>0</bpm>
<rpm>0.00</rpm>
</extensions>
</trkpt>
<trkpt lat="64.013893127" lon="-19.045724869">
<ele>625.750000</ele>
<time>2012-07-22T14:02:41Z</time>
<speed>1.120000</speed>
<extensions>
<speed>1.1</speed>
<temp>0.00</temp>
<bpm>0</bpm>
<rpm>0.00</rpm>
</extensions>
</trkpt>
<trkpt lat="64.013854980" lon="-19.045648575">
<ele>625.250000</ele>
<time>2012-07-22T14:02:46Z</time>
<speed>0.950000</speed>
<extensions>
<speed>1.0</speed>
<temp>0.00</temp>
<bpm>0</bpm>
<rpm>0.00</rpm>
</extensions>
</trkpt>
<trkpt lat="64.013839722" lon="-19.045619965">
<ele>624.828125</ele>
<time>2012-07-22T14:02:51Z</time>
<speed>0.030000</speed>
<extensions>
<speed>0.0</speed>
<temp>0.00</temp>
<bpm>0</bpm>
<rpm>0.00</rpm>
</extensions>
</trkpt>
<trkpt lat="64.013832092" lon="-19.045619965">
<ele>624.687500</ele>
<time>2012-07-22T14:02:56Z</time>
<extensions>
<speed>0.0</speed>
<temp>0.00</temp>
<bpm>0</bpm>
<rpm>0.00</rpm>
</extensions>
</trkpt>
<trkpt lat="64.013832092" lon="-19.045619965">
<ele>624.656250</ele>
<time>2012-07-22T14:03:01Z</time>
<extensions>
<speed>0.0</speed>
<temp>0.00</temp>
<bpm>0</bpm>
<rpm>0.00</rpm>
</extensions>
</trkpt>
<trkpt lat="64.013832092" lon="-19.045619965">
<ele>624.609375</ele>
<time>2012-07-22T14:03:06Z</time>
<speed>0.010000</speed>
<extensions>
<speed>0.0</speed>
<temp>0.00</temp>
<bpm>0</bpm>
<rpm>0.00</rpm>
</extensions>
</trkpt>
<trkpt lat="64.013832092" lon="-19.045619965">
<ele>624.609375</ele>
<time>2012-07-22T14:03:11Z</time>
<speed>0.010000</speed>
<extensions>
<speed>0.0</speed>
<temp>0.00</temp>
<bpm>0</bpm>
<rpm>0.00</rpm>
</extensions>
</trkpt>
<trkpt lat="64.013832092" lon="-19.045621872">
<ele>624.593750</ele>
<time>2012-07-22T14:03:16Z</time>
<extensions>
<speed>0.0</speed>
<temp>0.00</temp>
<bpm>0</bpm>
<rpm>0.00</rpm>
</extensions>
</trkpt>
<trkpt lat="64.013832092" lon="-19.045621872">
<ele>624.578125</ele>
<time>2012-07-22T14:03:21Z</time>
<extensions>
<speed>0.0</speed>
<temp>0.00</temp>
<bpm>0</bpm>
<rpm>0.00</rpm>
</extensions>
</trkpt>
<trkpt lat="64.013832092" lon="-19.045621872">
<ele>624.578125</ele>
<time>2012-07-22T14:03:26Z</time>
<speed>0.010000</speed>
<extensions>
<speed>0.0</speed>
<temp>0.00</temp>
<bpm>0</bpm>
<rpm>0.00</rpm>
</extensions>
</trkpt>
<trkpt lat="64.013832092" lon="-19.045621872">
<ele>624.562500</ele>
<time>2012-07-22T14:03:31Z</time>
<extensions>
<speed>0.0</speed>
<temp>0.00</temp>
<bpm>0</bpm>
<rpm>0.00</rpm>
</extensions>
</trkpt>
<trkpt lat="64.013832092" lon="-19.045619965">
<ele>624.546875</ele>
<time>2012-07-22T14:03:36Z</time>
<extensions>
<speed>0.0</speed>
<temp>0.00</temp>
<bpm>0</bpm>
<rpm>0.00</rpm>
</extensions>
</trkpt>
<trkpt lat="64.013832092" lon="-19.045619965">
<ele>624.546875</ele>
<time>2012-07-22T14:03:41Z</time>
<extensions>
<speed>0.0</speed>
<temp>0.00</temp>
<bpm>0</bpm>
<rpm>0.00</rpm>
</extensions>
</trkpt>
<trkpt lat="64.013832092" lon="-19.045619965">
<ele>624.531250</ele>
<time>2012-07-22T14:03:46Z</time>
<extensions>
<speed>0.0</speed>
<temp>0.00</temp>
<bpm>0</bpm>
<rpm>0.00</rpm>
</extensions>
</trkpt>
<trkpt lat="64.013832092" lon="-19.045619965">
<ele>624.500000</ele>
<time>2012-07-22T14:03:51Z</time>
<extensions>
<speed>0.0</speed>
<temp>0.00</temp>
<bpm>0</bpm>
<rpm>0.00</rpm>
</extensions>
</trkpt>
<trkpt lat="64.013832092" lon="-19.045619965">
<ele>624.500000</ele>
<time>2012-07-22T14:03:56Z</time>
<extensions>
<speed>0.0</speed>
<temp>0.00</temp>
<bpm>0</bpm>
<rpm>0.00</rpm>
</extensions>
</trkpt>
<trkpt lat="64.013832092" lon="-19.045619965">
<ele>624.484375</ele>
<time>2012-07-22T14:04:01Z</time>
<extensions>
<speed>0.0</speed>
<temp>0.00</temp>
<bpm>0</bpm>
<rpm>0.00</rpm>
</extensions>
</trkpt>
<trkpt lat="64.013824463" lon="-19.045570374">
<ele>624.625000</ele>
<time>2012-07-22T14:04:06Z</time>
<speed>0.830000</speed>
<extensions>
<speed>0.8</speed>
<temp>0.00</temp>
<bpm>0</bpm>
<rpm>0.00</rpm>
</extensions>
</trkpt>
<trkpt lat="64.013824463" lon="-19.045549393">
<ele>624.390625</ele>
<time>2012-07-22T14:04:11Z</time>
<extensions>
<speed>0.0</speed>
<temp>0.00</temp>
<bpm>0</bpm>
<rpm>0.00</rpm>
</extensions>
</trkpt>
<trkpt lat="64.013824463" lon="-19.045549393">
<ele>624.359375</ele>
<time>2012-07-22T14:04:16Z</time>
<extensions>
<speed>0.0</speed>
<temp>0.00</temp>
<bpm>0</bpm>
<rpm>0.00</rpm>
</extensions>
</trkpt>
<trkpt lat="64.013824463" lon="-19.045549393">
<ele>624.328125</ele>
<time>2012-07-22T14:04:21Z</time>
<extensions>
<speed>0.0</speed>
<temp>0.00</temp>
<bpm>0</bpm>
<rpm>0.00</rpm>
</extensions>
</trkpt>
<trkpt lat="64.013824463" lon="-19.045547485">
<ele>624.312500</ele>
<time>2012-07-22T14:04:26Z</time>
<extensions>
<speed>0.0</speed>
<temp>0.00</temp>
<bpm>0</bpm>
<rpm>0.00</rpm>
</extensions>
</trkpt>
<trkpt lat="64.013824463" lon="-19.045547485">
<ele>624.312500</ele>
<time>2012-07-22T14:04:31Z</time>
<extensions>
<speed>0.0</speed>
<temp>0.00</temp>
<bpm>0</bpm>
<rpm>0.00</rpm>
</extensions>
</trkpt>
<trkpt lat="64.013824463" lon="-19.045547485">
<ele>624.296875</ele>
<time>2012-07-22T14:04:36Z</time>
<extensions>
<speed>0.0</speed>
<temp>0.00</temp>
<bpm>0</bpm>
<rpm>0.00</rpm>
</extensions>
</trkpt>
<trkpt lat="64.013824463" lon="-19.045547485">
<ele>624.296875</ele>
<time>2012-07-22T14:04:41Z</time>
<extensions>
<speed>0.0</speed>
<temp>0.00</temp>
<bpm>0</bpm>
<rpm>0.00</rpm>
</extensions>
</trkpt>
<trkpt lat="64.013824463" lon="-19.045547485">
<ele>624.281250</ele>
<time>2012-07-22T14:04:46Z</time>
<extensions>
<speed>0.0</speed>
<temp>0.00</temp>
<bpm>0</bpm>
<rpm>0.00</rpm>
</extensions>
</trkpt>
<trkpt lat="64.013824463" lon="-19.045547485">
<ele>624.281250</ele>
<time>2012-07-22T14:04:51Z</time>
<extensions>
<speed>0.0</speed>
<temp>0.00</temp>
<bpm>0</bpm>
<rpm>0.00</rpm>
</extensions>
</trkpt>
<trkpt lat="64.013824463" lon="-19.045547485">
<ele>624.281250</ele>
<time>2012-07-22T14:04:56Z</time>
<extensions>
<speed>0.0</speed>
<temp>0.00</temp>
<bpm>0</bpm>
<rpm>0.00</rpm>
</extensions>
</trkpt>
<trkpt lat="64.013824463" lon="-19.045547485">
<ele>624.265625</ele>
<time>2012-07-22T14:05:01Z</time>
<extensions>
<speed>0.0</speed>
<temp>0.00</temp>
<bpm>0</bpm>
<rpm>0.00</rpm>
</extensions>
</trkpt>
<trkpt lat="64.013824463" lon="-19.045547485">
<ele>624.265625</ele>
<time>2012-07-22T14:05:06Z</time>
<speed>0.140000</speed>
<extensions>
<speed>0.1</speed>
<temp>0.00</temp>
<bpm>0</bpm>
<rpm>0.00</rpm>
</extensions>
</trkpt>
<trkpt lat="64.013816833" lon="-19.045530319">
<ele>624.046875</ele>
<time>2012-07-22T14:05:11Z</time>
<speed>0.020000</speed>
<extensions>
<speed>0.0</speed>
<temp>0.00</temp>
<bpm>0</bpm>
<rpm>0.00</rpm>
</extensions>
</trkpt>
<trkpt lat="64.013832092" lon="-19.045553207">
<ele>624.453125</ele>
<time>2012-07-22T14:05:16Z</time>
<speed>0.140000</speed>
<extensions>
<speed>0.1</speed>
<temp>0.00</temp>
<bpm>0</bpm>
<rpm>0.00</rpm>
</extensions>
</trkpt>
<trkpt lat="64.013839722" lon="-19.045654297">
<ele>624.171875</ele>
<time>2012-07-22T14:05:21Z</time>
<speed>1.190000</speed>
<extensions>
<speed>1.2</speed>
<temp>0.00</temp>
<bpm>0</bpm>
<rpm>0.00</rpm>
</extensions>
</trkpt>
<trkpt lat="64.013854980" lon="-19.045742035">
<ele>623.968750</ele>
<time>2012-07-22T14:05:26Z</time>
<speed>0.130000</speed>
<extensions>
<speed>0.1</speed>
<temp>0.00</temp>
<bpm>0</bpm>
<rpm>0.00</rpm>
</extensions>
</trkpt>
<trkpt lat="64.013847351" lon="-19.045742035">
<ele>623.421875</ele>
<time>2012-07-22T14:05:31Z</time>
<speed>0.010000</speed>
<extensions>
<speed>0.0</speed>
<temp>0.00</temp>
<bpm>0</bpm>
<rpm>0.00</rpm>
</extensions>
</trkpt>
<trkpt lat="64.013847351" lon="-19.045742035">
<ele>623.390625</ele>
<time>2012-07-22T14:05:36Z</time>
<speed>0.080000</speed>
<extensions>
<speed>0.1</speed>
<temp>0.00</temp>
<bpm>0</bpm>
<rpm>0.00</rpm>
</extensions>
</trkpt>
<trkpt lat="64.013832092" lon="-19.045726776">
<ele>623.562500</ele>
<time>2012-07-22T14:05:41Z</time>
<speed>0.530000</speed>
<extensions>
<speed>0.5</speed>
<temp>0.00</temp>
<bpm>0</bpm>
<rpm>0.00</rpm>
</extensions>
</trkpt>
<trkpt lat="64.013816833" lon="-19.045681000">
<ele>623.406250</ele>
<time>2012-07-22T14:05:46Z</time>
<speed>0.810000</speed>
<extensions>
<speed>0.8</speed>
<temp>0.00</temp>
<bpm>0</bpm>
<rpm>0.00</rpm>
</extensions>
</trkpt>
<trkpt lat="64.013816833" lon="-19.045673370">
<ele>623.625000</ele>
<time>2012-07-22T14:05:51Z</time>
<extensions>
<speed>0.0</speed>
<temp>0.00</temp>
<bpm>0</bpm>
<rpm>0.00</rpm>
</extensions>
</trkpt>
<trkpt lat="64.013816833" lon="-19.045673370">
<ele>623.500000</ele>
<time>2012-07-22T14:05:56Z</time>
<speed>0.070000</speed>
<extensions>
<speed>0.1</speed>
<temp>0.00</temp>
<bpm>0</bpm>
<rpm>0.00</rpm>
</extensions>
</trkpt>
<trkpt lat="64.013816833" lon="-19.045671463">
<ele>623.531250</ele>
<time>2012-07-22T14:06:01Z</time>
<speed>0.150000</speed>
<extensions>
<speed>0.2</speed>
<temp>0.00</temp>
<bpm>0</bpm>
<rpm>0.00</rpm>
</extensions>
</trkpt>
<trkpt lat="64.013832092" lon="-19.045513153">
<ele>622.187500</ele>
<time>2012-07-22T14:06:06Z</time>
<speed>3.150000</speed>
<extensions>
<speed>3.2</speed>
<temp>0.00</temp>
<bpm>0</bpm>
<rpm>0.00</rpm>
</extensions>
</trkpt>
<trkpt lat="64.013954163" lon="-19.045213699">
<ele>618.250000</ele>
<time>2012-07-22T14:06:11Z</time>
<speed>4.270000</speed>
<extensions>
<speed>4.3</speed>
<temp>0.00</temp>
<bpm>0</bpm>
<rpm>0.00</rpm>
</extensions>
</trkpt>
<trkpt lat="64.014106750" lon="-19.044925690">
<ele>614.593750</ele>
<time>2012-07-22T14:06:16Z</time>
<speed>4.210000</speed>
<extensions>
<speed>4.2</speed>
<temp>0.00</temp>
<bpm>0</bpm>
<rpm>0.00</rpm>
</extensions>
</trkpt>
<trkpt lat="64.014198303" lon="-19.044487000">
<ele>611.109375</ele>
<time>2012-07-22T14:06:21Z</time>
<speed>5.550000</speed>
<extensions>
<speed>5.5</speed>
<temp>0.00</temp>
<bpm>0</bpm>
<rpm>0.00</rpm>
</extensions>
</trkpt>
<trkpt lat="64.014167786" lon="-19.043897629">
<ele>607.156250</ele>
<time>2012-07-22T14:06:26Z</time>
<speed>8.820000</speed>
<extensions>
<speed>8.8</speed>
<temp>0.00</temp>
<bpm>0</bpm>
<rpm>0.00</rpm>
</extensions>
</trkpt>
<trkpt lat="64.013984680" lon="-19.043434143">
<ele>605.843750</ele>
<time>2012-07-22T14:06:31Z</time>
<speed>5.500000</speed>
<extensions>
<speed>5.5</speed>
<temp>0.00</temp>
<bpm>0</bpm>
<rpm>0.00</rpm>
</extensions>
</trkpt>
<trkpt lat="64.013786316" lon="-19.043170929">
<ele>604.234375</ele>
<time>2012-07-22T14:06:36Z</time>
<speed>7.210000</speed>
<extensions>
<speed>7.2</speed>
<temp>0.00</temp>
<bpm>0</bpm>
<rpm>0.00</rpm>
</extensions>
</trkpt>
<trkpt lat="64.013481140" lon="-19.042930603">
<ele>604.484375</ele>
<time>2012-07-22T14:06:41Z</time>
<speed>7.590000</speed>
<extensions>
<speed>7.6</speed>
<temp>0.00</temp>
<bpm>0</bpm>
<rpm>0.00</rpm>
</extensions>
</trkpt>
<trkpt lat="64.013244629" lon="-19.042690277">
<ele>606.953125</ele>
<time>2012-07-22T14:06:46Z</time>
<speed>3.750000</speed>
<extensions>
<speed>3.8</speed>
<temp>0.00</temp>
<bpm>0</bpm>
<rpm>0.00</rpm>
</extensions>
</trkpt>
<trkpt lat="64.013137817" lon="-19.042625427">
<ele>609.156250</ele>
<time>2012-07-22T14:06:51Z</time>
<speed>1.030000</speed>
<extensions>
<speed>1.0</speed>
<temp>0.00</temp>
<bpm>0</bpm>
<rpm>0.00</rpm>
</extensions>
</trkpt>
<trkpt lat="64.013114929" lon="-19.042596817">
<ele>609.515625</ele>
<time>2012-07-22T14:06:56Z</time>
<speed>0.220000</speed>
<extensions>
<speed>0.2</speed>
<temp>0.00</temp>
<bpm>0</bpm>
<rpm>0.00</rpm>
</extensions>
</trkpt>
<trkpt lat="64.013099670" lon="-19.042596817">
<ele>610.187500</ele>
<time>2012-07-22T14:07:01Z</time>
<speed>1.100000</speed>
<extensions>
<speed>1.1</speed>
<temp>0.00</temp>
<bpm>0</bpm>
<rpm>0.00</rpm>
</extensions>
</trkpt>
<trkpt lat="64.013069153" lon="-19.042581558">
<ele>610.859375</ele>
<time>2012-07-22T14:07:06Z</time>
<speed>0.770000</speed>
<extensions>
<speed>0.8</speed>
<temp>0.00</temp>
<bpm>0</bpm>
<rpm>0.00</rpm>
</extensions>
</trkpt>
<trkpt lat="64.013038635" lon="-19.042552948">
<ele>611.046875</ele>
<time>2012-07-22T14:07:11Z</time>
<speed>0.700000</speed>
<extensions>
<speed>0.7</speed>
<temp>0.00</temp>
<bpm>0</bpm>
<rpm>0.00</rpm>
</extensions>
</trkpt>
<trkpt lat="64.013008118" lon="-19.042531967">
<ele>610.796875</ele>
<time>2012-07-22T14:07:16Z</time>
<speed>0.710000</speed>
<extensions>
<speed>0.7</speed>
<temp>0.00</temp>
<bpm>0</bpm>
<rpm>0.00</rpm>
</extensions>
</trkpt>
<trkpt lat="64.012977600" lon="-19.042526245">
<ele>611.171875</ele>
<time>2012-07-22T14:07:21Z</time>
<speed>0.280000</speed>
<extensions>
<speed>0.3</speed>
<temp>0.00</temp>
<bpm>0</bpm>
<rpm>0.00</rpm>
</extensions>
</trkpt>
<trkpt lat="64.012962341" lon="-19.042526245">
<ele>611.484375</ele>
<time>2012-07-22T14:07:26Z</time>
<speed>0.600000</speed>
<extensions>
<speed>0.6</speed>
<temp>0.00</temp>
<bpm>0</bpm>
<rpm>0.00</rpm>
</extensions>
</trkpt>
<trkpt lat="64.012947083" lon="-19.042503357">
<ele>611.468750</ele>
<time>2012-07-22T14:07:31Z</time>
<speed>0.480000</speed>
<extensions>
<speed>0.5</speed>
<temp>0.00</temp>
<bpm>0</bpm>
<rpm>0.00</rpm>
</extensions>
</trkpt>
<trkpt lat="64.012916565" lon="-19.042488098">
<ele>611.906250</ele>
<time>2012-07-22T14:07:36Z</time>
<speed>0.580000</speed>
<extensions>
<speed>0.6</speed>
<temp>0.00</temp>
<bpm>0</bpm>
<rpm>0.00</rpm>
</extensions>
</trkpt>
<trkpt lat="64.012878418" lon="-19.042476654">
<ele>612.093750</ele>
<time>2012-07-22T14:07:41Z</time>
<speed>1.070000</speed>
<extensions>
<speed>1.1</speed>
<temp>0.00</temp>
<bpm>0</bpm>
<rpm>0.00</rpm>
</extensions>
</trkpt>
<trkpt lat="64.012825012" lon="-19.042467117">
<ele>611.921875</ele>
<time>2012-07-22T14:07:46Z</time>
<speed>1.080000</speed>
<extensions>
<speed>1.1</speed>
<temp>0.00</temp>
<bpm>0</bpm>
<rpm>0.00</rpm>
</extensions>
</trkpt>
<trkpt lat="64.012779236" lon="-19.042476654">
<ele>611.875000</ele>
<time>2012-07-22T14:07:51Z</time>
<speed>0.930000</speed>
<extensions>
<speed>0.9</speed>
<temp>0.00</temp>
<bpm>0</bpm>
<rpm>0.00</rpm>
</extensions>
</trkpt>
<trkpt lat="64.012748718" lon="-19.042480469">
<ele>612.828125</ele>
<time>2012-07-22T14:07:56Z</time>
<speed>0.780000</speed>
<extensions>
<speed>0.8</speed>
<temp>0.00</temp>
<bpm>0</bpm>
<rpm>0.00</rpm>
</extensions>
</trkpt>
<trkpt lat="64.012702942" lon="-19.042476654">
<ele>612.250000</ele>
<time>2012-07-22T14:08:01Z</time>
<speed>1.020000</speed>
<extensions>
<speed>1.0</speed>
<temp>0.00</temp>
<bpm>0</bpm>
<rpm>0.00</rpm>
</extensions>
</trkpt>
<trkpt lat="64.012657166" lon="-19.042465210">
<ele>612.734375</ele>
<time>2012-07-22T14:08:06Z</time>
<speed>1.080000</speed>
<extensions>
<speed>1.1</speed>
<temp>0.00</temp>
<bpm>0</bpm>
<rpm>0.00</rpm>
</extensions>
</trkpt>
<trkpt lat="64.012603760" lon="-19.042427063">
<ele>612.687500</ele>
<time>2012-07-22T14:08:11Z</time>
<speed>1.080000</speed>
<extensions>
<speed>1.1</speed>
<temp>0.00</temp>
<bpm>0</bpm>
<rpm>0.00</rpm>
</extensions>
</trkpt>
<trkpt lat="64.012550354" lon="-19.042373657">
<ele>611.796875</ele>
<time>2012-07-22T14:08:16Z</time>
<speed>1.230000</speed>
<extensions>
<speed>1.2</speed>
<temp>0.00</temp>
<bpm>0</bpm>
<rpm>0.00</rpm>
</extensions>
</trkpt>
<trkpt lat="64.012527466" lon="-19.042341232">
<ele>610.781250</ele>
<time>2012-07-22T14:08:21Z</time>
<speed>0.020000</speed>
<extensions>
<speed>0.0</speed>
<temp>0.00</temp>
<bpm>0</bpm>
<rpm>0.00</rpm>
</extensions>
</trkpt>
<trkpt lat="64.012519836" lon="-19.042324066">
<ele>610.468750</ele>
<time>2012-07-22T14:08:26Z</time>
<speed>0.200000</speed>
<extensions>
<speed>0.2</speed>
<temp>0.00</temp>
<bpm>0</bpm>
<rpm>0.00</rpm>
</extensions>
</trkpt>
<trkpt lat="64.012504578" lon="-19.042295456">
<ele>609.890625</ele>
<time>2012-07-22T14:08:31Z</time>
<speed>0.190000</speed>
<extensions>
<speed>0.2</speed>
<temp>0.00</temp>
<bpm>0</bpm>
<rpm>0.00</rpm>
</extensions>
</trkpt>
<trkpt lat="64.012481689" lon="-19.042222977">
<ele>608.921875</ele>
<time>2012-07-22T14:08:36Z</time>
<speed>1.290000</speed>
<extensions>
<speed>1.3</speed>
<temp>0.00</temp>
<bpm>0</bpm>
<rpm>0.00</rpm>
</extensions>
</trkpt>
<trkpt lat="64.012428284" lon="-19.042100906">
<ele>607.640625</ele>
<time>2012-07-22T14:08:41Z</time>
<speed>1.750000</speed>
<extensions>
<speed>1.8</speed>
<temp>0.00</temp>
<bpm>0</bpm>
<rpm>0.00</rpm>
</extensions>
</trkpt>
<trkpt lat="64.012367249" lon="-19.041957855">
<ele>605.453125</ele>
<time>2012-07-22T14:08:46Z</time>
<speed>1.170000</speed>
<extensions>
<speed>1.2</speed>
<temp>0.00</temp>
<bpm>0</bpm>
<rpm>0.00</rpm>
</extensions>
</trkpt>
<trkpt lat="64.012367249" lon="-19.041950226">
<ele>605.187500</ele>
<time>2012-07-22T14:08:51Z</time>
<extensions>
<speed>0.0</speed>
<temp>0.00</temp>
<bpm>0</bpm>
<rpm>0.00</rpm>
</extensions>
</trkpt>
<trkpt lat="64.012367249" lon="-19.041950226">
<ele>605.093750</ele>
<time>2012-07-22T14:08:56Z</time>
<speed>0.010000</speed>
<extensions>
<speed>0.0</speed>
<temp>0.00</temp>
<bpm>0</bpm>
<rpm>0.00</rpm>
</extensions>
</trkpt>
<trkpt lat="64.012367249" lon="-19.041950226">
<ele>605.140625</ele>
<time>2012-07-22T14:09:01Z</time>
<extensions>
<speed>0.0</speed>
<temp>0.00</temp>
<bpm>0</bpm>
<rpm>0.00</rpm>
</extensions>
</trkpt>
<trkpt lat="64.012367249" lon="-19.041950226">
<ele>605.140625</ele>
<time>2012-07-22T14:09:06Z</time>
<extensions>
<speed>0.0</speed>
<temp>0.00</temp>
<bpm>0</bpm>
<rpm>0.00</rpm>
</extensions>
</trkpt>
<trkpt lat="64.012367249" lon="-19.041950226">
<ele>605.125000</ele>
<time>2012-07-22T14:09:11Z</time>
<speed>0.010000</speed>
<extensions>
<speed>0.0</speed>
<temp>0.00</temp>
<bpm>0</bpm>
<rpm>0.00</rpm>
</extensions>
</trkpt>
<trkpt lat="64.012367249" lon="-19.041950226">
<ele>605.125000</ele>
<time>2012-07-22T14:09:16Z</time>
<extensions>
<speed>0.0</speed>
<temp>0.00</temp>
<bpm>0</bpm>
<rpm>0.00</rpm>
</extensions>
</trkpt>
<trkpt lat="64.012367249" lon="-19.041950226">
<ele>605.125000</ele>
<time>2012-07-22T14:09:21Z</time>
<speed>0.020000</speed>
<extensions>
<speed>0.0</speed>
<temp>0.00</temp>
<bpm>0</bpm>
<rpm>0.00</rpm>
</extensions>
</trkpt>
<trkpt lat="64.012367249" lon="-19.041950226">
<ele>605.125000</ele>
<time>2012-07-22T14:09:26Z</time>
<extensions>
<speed>0.0</speed>
<temp>0.00</temp>
<bpm>0</bpm>
<rpm>0.00</rpm>
</extensions>
</trkpt>
<trkpt lat="64.012367249" lon="-19.041950226">
<ele>605.125000</ele>
<time>2012-07-22T14:09:31Z</time>
<extensions>
<speed>0.0</speed>
<temp>0.00</temp>
<bpm>0</bpm>
<rpm>0.00</rpm>
</extensions>
</trkpt>
<trkpt lat="64.012367249" lon="-19.041950226">
<ele>605.125000</ele>
<time>2012-07-22T14:09:36Z</time>
<extensions>
<speed>0.0</speed>
<temp>0.00</temp>
<bpm>0</bpm>
<rpm>0.00</rpm>
</extensions>
</trkpt>
<trkpt lat="64.012367249" lon="-19.041950226">
<ele>605.125000</ele>
<time>2012-07-22T14:09:41Z</time>
<extensions>
<speed>0.0</speed>
<temp>0.00</temp>
<bpm>0</bpm>
<rpm>0.00</rpm>
</extensions>
</trkpt>
<trkpt lat="64.012367249" lon="-19.041952133">
<ele>605.125000</ele>
<time>2012-07-22T14:09:46Z</time>
<speed>0.010000</speed>
<extensions>
<speed>0.0</speed>
<temp>0.00</temp>
<bpm>0</bpm>
<rpm>0.00</rpm>
</extensions>
</trkpt>
<trkpt lat="64.012367249" lon="-19.041952133">
<ele>605.125000</ele>
<time>2012-07-22T14:09:51Z</time>
<speed>0.190000</speed>
<extensions>
<speed>0.2</speed>
<temp>0.00</temp>
<bpm>0</bpm>
<rpm>0.00</rpm>
</extensions>
</trkpt>
<trkpt lat="64.012306213" lon="-19.041810989">
<ele>605.093750</ele>
<time>2012-07-22T14:09:56Z</time>
<speed>4.130000</speed>
<extensions>
<speed>4.1</speed>
<temp>0.00</temp>
<bpm>0</bpm>
<rpm>0.00</rpm>
</extensions>
</trkpt>
<trkpt lat="64.012115479" lon="-19.041564941">
<ele>604.609375</ele>
<time>2012-07-22T14:10:01Z</time>
<speed>4.630000</speed>
<extensions>
<speed>4.6</speed>
<temp>0.00</temp>
<bpm>0</bpm>
<rpm>0.00</rpm>
</extensions>
</trkpt>
<trkpt lat="64.011917114" lon="-19.041372299">
<ele>605.328125</ele>
<time>2012-07-22T14:10:06Z</time>
<speed>4.730000</speed>
<extensions>
<speed>4.7</speed>
<temp>0.00</temp>
<bpm>0</bpm>
<rpm>0.00</rpm>
</extensions>
</trkpt>
<trkpt lat="64.011726379" lon="-19.041318893">
<ele>604.968750</ele>
<time>2012-07-22T14:10:11Z</time>
<speed>3.580000</speed>
<extensions>
<speed>3.6</speed>
<temp>0.00</temp>
<bpm>0</bpm>
<rpm>0.00</rpm>
</extensions>
</trkpt>
<trkpt lat="64.011581421" lon="-19.041332245">
<ele>604.875000</ele>
<time>2012-07-22T14:10:16Z</time>
<speed>3.190000</speed>
<extensions>
<speed>3.2</speed>
<temp>0.00</temp>
<bpm>0</bpm>
<rpm>0.00</rpm>
</extensions>
</trkpt>
<trkpt lat="64.011428833" lon="-19.041339874">
<ele>603.578125</ele>
<time>2012-07-22T14:10:21Z</time>
<speed>3.000000</speed>
<extensions>
<speed>3.0</speed>
<temp>0.00</temp>
<bpm>0</bpm>
<rpm>0.00</rpm>
</extensions>
</trkpt>
<trkpt lat="64.011283875" lon="-19.041362762">
<ele>602.812500</ele>
<time>2012-07-22T14:10:26Z</time>
<speed>3.120000</speed>
<extensions>
<speed>3.1</speed>
<temp>0.00</temp>
<bpm>0</bpm>
<rpm>0.00</rpm>
</extensions>
</trkpt>
<trkpt lat="64.011138916" lon="-19.041362762">
<ele>602.109375</ele>
<time>2012-07-22T14:10:31Z</time>
<speed>3.180000</speed>
<extensions>
<speed>3.2</speed>
<temp>0.00</temp>
<bpm>0</bpm>
<rpm>0.00</rpm>
</extensions>
</trkpt>
<trkpt lat="64.010993958" lon="-19.041345596">
<ele>601.406250</ele>
<time>2012-07-22T14:10:36Z</time>
<speed>3.350000</speed>
<extensions>
<speed>3.4</speed>
<temp>0.00</temp>
<bpm>0</bpm>
<rpm>0.00</rpm>
</extensions>
</trkpt>
<trkpt lat="64.010826111" lon="-19.041416168">
<ele>600.453125</ele>
<time>2012-07-22T14:10:41Z</time>
<speed>4.180000</speed>
<extensions>
<speed>4.2</speed>
<temp>0.00</temp>
<bpm>0</bpm>
<rpm>0.00</rpm>
</extensions>
</trkpt>
<trkpt lat="64.010643005" lon="-19.041513443">
<ele>599.906250</ele>
<time>2012-07-22T14:10:46Z</time>
<speed>3.680000</speed>
<extensions>
<speed>3.7</speed>
<temp>0.00</temp>
<bpm>0</bpm>
<rpm>0.00</rpm>
</extensions>
</trkpt>
<trkpt lat="64.010498047" lon="-19.041563034">
<ele>598.828125</ele>
<time>2012-07-22T14:10:51Z</time>
<speed>3.090000</speed>
<extensions>
<speed>3.1</speed>
<temp>0.00</temp>
<bpm>0</bpm>
<rpm>0.00</rpm>
</extensions>
</trkpt>
<trkpt lat="64.010368347" lon="-19.041652679">
<ele>598.359375</ele>
<time>2012-07-22T14:10:56Z</time>
<speed>2.830000</speed>
<extensions>
<speed>2.8</speed>
<temp>0.00</temp>
<bpm>0</bpm>
<rpm>0.00</rpm>
</extensions>
</trkpt>
<trkpt lat="64.010238647" lon="-19.041767120">
<ele>597.875000</ele>
<time>2012-07-22T14:11:01Z</time>
<speed>2.810000</speed>
<extensions>
<speed>2.8</speed>
<temp>0.00</temp>
<bpm>0</bpm>
<rpm>0.00</rpm>
</extensions>
</trkpt>
<trkpt lat="64.010093689" lon="-19.041923523">
<ele>594.281250</ele>
<time>2012-07-22T14:11:06Z</time>
<speed>3.740000</speed>
<extensions>
<speed>3.7</speed>
<temp>0.00</temp>
<bpm>0</bpm>
<rpm>0.00</rpm>
</extensions>
</trkpt>
<trkpt lat="64.009925842" lon="-19.042047501">
<ele>592.968750</ele>
<time>2012-07-22T14:11:11Z</time>
<speed>4.280000</speed>
<extensions>
<speed>4.3</speed>
<temp>0.00</temp>
<bpm>0</bpm>
<rpm>0.00</rpm>
</extensions>
</trkpt>
<trkpt lat="64.009735107" lon="-19.042047501">
<ele>592.718750</ele>
<time>2012-07-22T14:11:16Z</time>
<speed>3.920000</speed>
<extensions>
<speed>3.9</speed>
<temp>0.00</temp>
<bpm>0</bpm>
<rpm>0.00</rpm>
</extensions>
</trkpt>
<trkpt lat="64.009590149" lon="-19.042047501">
<ele>595.109375</ele>
<time>2012-07-22T14:11:21Z</time>
<speed>2.980000</speed>
<extensions>
<speed>3.0</speed>
<temp>0.00</temp>
<bpm>0</bpm>
<rpm>0.00</rpm>
</extensions>
</trkpt>
<trkpt lat="64.009460449" lon="-19.042011261">
<ele>597.421875</ele>
<time>2012-07-22T14:11:26Z</time>
<speed>3.360000</speed>
<extensions>
<speed>3.4</speed>
<temp>0.00</temp>
<bpm>0</bpm>
<rpm>0.00</rpm>
</extensions>
</trkpt>
<trkpt lat="64.009284973" lon="-19.041996002">
<ele>597.937500</ele>
<time>2012-07-22T14:11:31Z</time>
<speed>3.910000</speed>
<extensions>
<speed>3.9</speed>
<temp>0.00</temp>
<bpm>0</bpm>
<rpm>0.00</rpm>
</extensions>
</trkpt>
<trkpt lat="64.009117126" lon="-19.041957855">
<ele>597.531250</ele>
<time>2012-07-22T14:11:36Z</time>
<speed>3.580000</speed>
<extensions>
<speed>3.6</speed>
<temp>0.00</temp>
<bpm>0</bpm>
<rpm>0.00</rpm>
</extensions>
</trkpt>
<trkpt lat="64.008956909" lon="-19.042013168">
<ele>596.828125</ele>
<time>2012-07-22T14:11:41Z</time>
<speed>3.620000</speed>
<extensions>
<speed>3.6</speed>
<temp>0.00</temp>
<bpm>0</bpm>
<rpm>0.00</rpm>
</extensions>
</trkpt>
<trkpt lat="64.008796692" lon="-19.042097092">
<ele>596.046875</ele>
<time>2012-07-22T14:11:46Z</time>
<speed>3.970000</speed>
<extensions>
<speed>4.0</speed>
<temp>0.00</temp>
<bpm>0</bpm>
<rpm>0.00</rpm>
</extensions>
</trkpt>
<trkpt lat="64.008659363" lon="-19.042192459">
<ele>595.843750</ele>
<time>2012-07-22T14:11:51Z</time>
<speed>2.910000</speed>
<extensions>
<speed>2.9</speed>
<temp>0.00</temp>
<bpm>0</bpm>
<rpm>0.00</rpm>
</extensions>
</trkpt>
<trkpt lat="64.008506775" lon="-19.042190552">
<ele>595.812500</ele>
<time>2012-07-22T14:11:56Z</time>
<speed>3.640000</speed>
<extensions>
<speed>3.6</speed>
<temp>0.00</temp>
<bpm>0</bpm>
<rpm>0.00</rpm>
</extensions>
</trkpt>
<trkpt lat="64.008354187" lon="-19.042087555">
<ele>596.171875</ele>
<time>2012-07-22T14:12:01Z</time>
<speed>3.390000</speed>
<extensions>
<speed>3.4</speed>
<temp>0.00</temp>
<bpm>0</bpm>
<rpm>0.00</rpm>
</extensions>
</trkpt>
<trkpt lat="64.008201599" lon="-19.042005539">
<ele>596.000000</ele>
<time>2012-07-22T14:12:06Z</time>
<speed>3.650000</speed>
<extensions>
<speed>3.7</speed>
<temp>0.00</temp>
<bpm>0</bpm>
<rpm>0.00</rpm>
</extensions>
</trkpt>
<trkpt lat="64.008049011" lon="-19.041934967">
<ele>596.000000</ele>
<time>2012-07-22T14:12:11Z</time>
<speed>3.320000</speed>
<extensions>
<speed>3.3</speed>
<temp>0.00</temp>
<bpm>0</bpm>
<rpm>0.00</rpm>
</extensions>
</trkpt>
<trkpt lat="64.007904053" lon="-19.041902542">
<ele>596.953125</ele>
<time>2012-07-22T14:12:16Z</time>
<speed>3.540000</speed>
<extensions>
<speed>3.5</speed>
<temp>0.00</temp>
<bpm>0</bpm>
<rpm>0.00</rpm>
</extensions>
</trkpt>
<trkpt lat="64.007743835" lon="-19.041851044">
<ele>597.968750</ele>
<time>2012-07-22T14:12:21Z</time>
<speed>3.690000</speed>
<extensions>
<speed>3.7</speed>
<temp>0.00</temp>
<bpm>0</bpm>
<rpm>0.00</rpm>
</extensions>
</trkpt>
<trkpt lat="64.007583618" lon="-19.041765213">
<ele>598.828125</ele>
<time>2012-07-22T14:12:26Z</time>
<speed>3.680000</speed>
<extensions>
<speed>3.7</speed>
<temp>0.00</temp>
<bpm>0</bpm>
<rpm>0.00</rpm>
</extensions>
</trkpt>
<trkpt lat="64.007415771" lon="-19.041625977">
<ele>599.140625</ele>
<time>2012-07-22T14:12:31Z</time>
<speed>3.980000</speed>
<extensions>
<speed>4.0</speed>
<temp>0.00</temp>
<bpm>0</bpm>
<rpm>0.00</rpm>
</extensions>
</trkpt>
<trkpt lat="64.007255554" lon="-19.041450500">
<ele>599.390625</ele>
<time>2012-07-22T14:12:36Z</time>
<speed>3.600000</speed>
<extensions>
<speed>3.6</speed>
<temp>0.00</temp>
<bpm>0</bpm>
<rpm>0.00</rpm>
</extensions>
</trkpt>
<trkpt lat="64.007110596" lon="-19.041236877">
<ele>600.218750</ele>
<time>2012-07-22T14:12:41Z</time>
<speed>4.080000</speed>
<extensions>
<speed>4.1</speed>
<temp>0.00</temp>
<bpm>0</bpm>
<rpm>0.00</rpm>
</extensions>
</trkpt>
<trkpt lat="64.006950378" lon="-19.041019440">
<ele>600.140625</ele>
<time>2012-07-22T14:12:46Z</time>
<speed>4.140000</speed>
<extensions>
<speed>4.1</speed>
<temp>0.00</temp>
<bpm>0</bpm>
<rpm>0.00</rpm>
</extensions>
</trkpt>
<trkpt lat="64.006790161" lon="-19.040695190">
<ele>597.640625</ele>
<time>2012-07-22T14:12:51Z</time>
<speed>5.040000</speed>
<extensions>
<speed>5.0</speed>
<temp>0.00</temp>
<bpm>0</bpm>
<rpm>0.00</rpm>
</extensions>
</trkpt>
<trkpt lat="64.006668091" lon="-19.040306091">
<ele>596.406250</ele>
<time>2012-07-22T14:12:56Z</time>
<speed>4.440000</speed>
<extensions>
<speed>4.4</speed>
<temp>0.00</temp>
<bpm>0</bpm>
<rpm>0.00</rpm>
</extensions>
</trkpt>
<trkpt lat="64.006591797" lon="-19.039960861">
<ele>596.234375</ele>
<time>2012-07-22T14:13:01Z</time>
<speed>3.910000</speed>
<extensions>
<speed>3.9</speed>
<temp>0.00</temp>
<bpm>0</bpm>
<rpm>0.00</rpm>
</extensions>
</trkpt>
<trkpt lat="64.006484985" lon="-19.039638519">
<ele>595.421875</ele>
<time>2012-07-22T14:13:06Z</time>
<speed>4.190000</speed>
<extensions>
<speed>4.2</speed>
<temp>0.00</temp>
<bpm>0</bpm>
<rpm>0.00</rpm>
</extensions>
</trkpt>
<trkpt lat="64.006370544" lon="-19.039310455">
<ele>594.890625</ele>
<time>2012-07-22T14:13:11Z</time>
<speed>3.930000</speed>
<extensions>
<speed>3.9</speed>
<temp>0.00</temp>
<bpm>0</bpm>
<rpm>0.00</rpm>
</extensions>
</trkpt>
<trkpt lat="64.006271362" lon="-19.039022446">
<ele>595.984375</ele>
<time>2012-07-22T14:13:16Z</time>
<speed>3.580000</speed>
<extensions>
<speed>3.6</speed>
<temp>0.00</temp>
<bpm>0</bpm>
<rpm>0.00</rpm>
</extensions>
</trkpt>
<trkpt lat="64.006164551" lon="-19.038808823">
<ele>597.765625</ele>
<time>2012-07-22T14:13:21Z</time>
<speed>3.340000</speed>
<extensions>
<speed>3.3</speed>
<temp>0.00</temp>
<bpm>0</bpm>
<rpm>0.00</rpm>
</extensions>
</trkpt>
<trkpt lat="64.006057739" lon="-19.038475037">
<ele>596.812500</ele>
<time>2012-07-22T14:13:26Z</time>
<speed>4.330000</speed>
<extensions>
<speed>4.3</speed>
<temp>0.00</temp>
<bpm>0</bpm>
<rpm>0.00</rpm>
</extensions>
</trkpt>
<trkpt lat="64.005966187" lon="-19.038076401">
<ele>596.406250</ele>
<time>2012-07-22T14:13:31Z</time>
<speed>4.090000</speed>
<extensions>
<speed>4.1</speed>
<temp>0.00</temp>
<bpm>0</bpm>
<rpm>0.00</rpm>
</extensions>
</trkpt>
<trkpt lat="64.005889893" lon="-19.037691116">
<ele>596.734375</ele>
<time>2012-07-22T14:13:36Z</time>
<speed>4.350000</speed>
<extensions>
<speed>4.3</speed>
<temp>0.00</temp>
<bpm>0</bpm>
<rpm>0.00</rpm>
</extensions>
</trkpt>
<trkpt lat="64.005798340" lon="-19.037334442">
<ele>597.390625</ele>
<time>2012-07-22T14:13:41Z</time>
<speed>3.760000</speed>
<extensions>
<speed>3.8</speed>
<temp>0.00</temp>
<bpm>0</bpm>
<rpm>0.00</rpm>
</extensions>
</trkpt>
<trkpt lat="64.005706787" lon="-19.037025452">
<ele>598.734375</ele>
<time>2012-07-22T14:13:46Z</time>
<speed>3.880000</speed>
<extensions>
<speed>3.9</speed>
<temp>0.00</temp>
<bpm>0</bpm>
<rpm>0.00</rpm>
</extensions>
</trkpt>
<trkpt lat="64.005622864" lon="-19.036684036">
<ele>599.546875</ele>
<time>2012-07-22T14:13:51Z</time>
<speed>3.760000</speed>
<extensions>
<speed>3.8</speed>
<temp>0.00</temp>
<bpm>0</bpm>
<rpm>0.00</rpm>
</extensions>
</trkpt>
<trkpt lat="64.005470276" lon="-19.036478043">
<ele>598.843750</ele>
<time>2012-07-22T14:13:56Z</time>
<speed>3.890000</speed>
<extensions>
<speed>3.9</speed>
<temp>0.00</temp>
<bpm>0</bpm>
<rpm>0.00</rpm>
</extensions>
</trkpt>
<trkpt lat="64.005279541" lon="-19.036369324">
<ele>595.906250</ele>
<time>2012-07-22T14:14:01Z</time>
<speed>4.230000</speed>
<extensions>
<speed>4.2</speed>
<temp>0.00</temp>
<bpm>0</bpm>
<rpm>0.00</rpm>
</extensions>
</trkpt>
<trkpt lat="64.005058289" lon="-19.036275864">
<ele>592.234375</ele>
<time>2012-07-22T14:14:06Z</time>
<speed>4.960000</speed>
<extensions>
<speed>5.0</speed>
<temp>0.00</temp>
<bpm>0</bpm>
<rpm>0.00</rpm>
</extensions>
</trkpt>
<trkpt lat="64.004875183" lon="-19.036153793">
<ele>591.468750</ele>
<time>2012-07-22T14:14:11Z</time>
<speed>3.050000</speed>
<extensions>
<speed>3.0</speed>
<temp>0.00</temp>
<bpm>0</bpm>
<rpm>0.00</rpm>
</extensions>
</trkpt>
<trkpt lat="64.004821777" lon="-19.036167145">
<ele>590.250000</ele>
<time>2012-07-22T14:14:16Z</time>
<speed>0.110000</speed>
<extensions>
<speed>0.1</speed>
<temp>0.00</temp>
<bpm>0</bpm>
<rpm>0.00</rpm>
</extensions>
</trkpt>
<trkpt lat="64.004821777" lon="-19.036170959">
<ele>590.640625</ele>
<time>2012-07-22T14:14:21Z</time>
<speed>0.020000</speed>
<extensions>
<speed>0.0</speed>
<temp>0.00</temp>
<bpm>0</bpm>
<rpm>0.00</rpm>
</extensions>
</trkpt>
<trkpt lat="64.004821777" lon="-19.036170959">
<ele>590.640625</ele>
<time>2012-07-22T14:14:26Z</time>
<extensions>
<speed>0.0</speed>
<temp>0.00</temp>
<bpm>0</bpm>
<rpm>0.00</rpm>
</extensions>
</trkpt>
<trkpt lat="64.004821777" lon="-19.036170959">
<ele>590.578125</ele>
<time>2012-07-22T14:14:31Z</time>
<extensions>
<speed>0.0</speed>
<temp>0.00</temp>
<bpm>0</bpm>
<rpm>0.00</rpm>
</extensions>
</trkpt>
<trkpt lat="64.004821777" lon="-19.036170959">
<ele>590.531250</ele>
<time>2012-07-22T14:14:36Z</time>
<speed>0.250000</speed>
<extensions>
<speed>0.2</speed>
<temp>0.00</temp>
<bpm>0</bpm>
<rpm>0.00</rpm>
</extensions>
</trkpt>
<trkpt lat="64.004768372" lon="-19.036237717">
<ele>589.578125</ele>
<time>2012-07-22T14:14:41Z</time>
<speed>1.960000</speed>
<extensions>
<speed>2.0</speed>
<temp>0.00</temp>
<bpm>0</bpm>
<rpm>0.00</rpm>
</extensions>
</trkpt>
<trkpt lat="64.004707336" lon="-19.036321640">
<ele>589.015625</ele>
<time>2012-07-22T14:14:46Z</time>
<speed>1.620000</speed>
<extensions>
<speed>1.6</speed>
<temp>0.00</temp>
<bpm>0</bpm>
<rpm>0.00</rpm>
</extensions>
</trkpt>
<trkpt lat="64.004623413" lon="-19.036499023">
<ele>588.046875</ele>
<time>2012-07-22T14:14:51Z</time>
<speed>2.790000</speed>
<extensions>
<speed>2.8</speed>
<temp>0.00</temp>
<bpm>0</bpm>
<rpm>0.00</rpm>
</extensions>
</trkpt>
<trkpt lat="64.004531860" lon="-19.036729813">
<ele>586.859375</ele>
<time>2012-07-22T14:14:56Z</time>
<speed>3.080000</speed>
<extensions>
<speed>3.1</speed>
<temp>0.00</temp>
<bpm>0</bpm>
<rpm>0.00</rpm>
</extensions>
</trkpt>
<trkpt lat="64.004440308" lon="-19.036972046">
<ele>585.765625</ele>
<time>2012-07-22T14:15:01Z</time>
<speed>3.120000</speed>
<extensions>
<speed>3.1</speed>
<temp>0.00</temp>
<bpm>0</bpm>
<rpm>0.00</rpm>
</extensions>
</trkpt>
<trkpt lat="64.004348755" lon="-19.037242889">
<ele>586.109375</ele>
<time>2012-07-22T14:15:06Z</time>
<speed>3.830000</speed>
<extensions>
<speed>3.8</speed>
<temp>0.00</temp>
<bpm>0</bpm>
<rpm>0.00</rpm>
</extensions>
</trkpt>
<trkpt lat="64.004234314" lon="-19.037509918">
<ele>586.390625</ele>
<time>2012-07-22T14:15:11Z</time>
<speed>3.910000</speed>
<extensions>
<speed>3.9</speed>
<temp>0.00</temp>
<bpm>0</bpm>
<rpm>0.00</rpm>
</extensions>
</trkpt>
<trkpt lat="64.004127502" lon="-19.037773132">
<ele>586.437500</ele>
<time>2012-07-22T14:15:16Z</time>
<speed>3.490000</speed>
<extensions>
<speed>3.5</speed>
<temp>0.00</temp>
<bpm>0</bpm>
<rpm>0.00</rpm>
</extensions>
</trkpt>
<trkpt lat="64.004005432" lon="-19.038038254">
<ele>586.421875</ele>
<time>2012-07-22T14:15:21Z</time>
<speed>3.780000</speed>
<extensions>
<speed>3.8</speed>
<temp>0.00</temp>
<bpm>0</bpm>
<rpm>0.00</rpm>
</extensions>
</trkpt>
<trkpt lat="64.003883362" lon="-19.038309097">
<ele>586.843750</ele>
<time>2012-07-22T14:15:26Z</time>
<speed>3.760000</speed>
<extensions>
<speed>3.8</speed>
<temp>0.00</temp>
<bpm>0</bpm>
<rpm>0.00</rpm>
</extensions>
</trkpt>
<trkpt lat="64.003768921" lon="-19.038547516">
<ele>586.750000</ele>
<time>2012-07-22T14:15:31Z</time>
<speed>3.280000</speed>
<extensions>
<speed>3.3</speed>
<temp>0.00</temp>
<bpm>0</bpm>
<rpm>0.00</rpm>
</extensions>
</trkpt>
<trkpt lat="64.003662109" lon="-19.038759232">
<ele>586.703125</ele>
<time>2012-07-22T14:15:36Z</time>
<speed>3.230000</speed>
<extensions>
<speed>3.2</speed>
<temp>0.00</temp>
<bpm>0</bpm>
<rpm>0.00</rpm>
</extensions>
</trkpt>
<trkpt lat="64.003570557" lon="-19.038963318">
<ele>586.265625</ele>
<time>2012-07-22T14:15:41Z</time>
<speed>2.880000</speed>
<extensions>
<speed>2.9</speed>
<temp>0.00</temp>
<bpm>0</bpm>
<rpm>0.00</rpm>
</extensions>
</trkpt>
<trkpt lat="64.003479004" lon="-19.039182663">
<ele>585.750000</ele>
<time>2012-07-22T14:15:46Z</time>
<speed>2.840000</speed>
<extensions>
<speed>2.8</speed>
<temp>0.00</temp>
<bpm>0</bpm>
<rpm>0.00</rpm>
</extensions>
</trkpt>
<trkpt lat="64.003402710" lon="-19.039402008">
<ele>586.187500</ele>
<time>2012-07-22T14:15:51Z</time>
<speed>2.920000</speed>
<extensions>
<speed>2.9</speed>
<temp>0.00</temp>
<bpm>0</bpm>
<rpm>0.00</rpm>
</extensions>
</trkpt>
<trkpt lat="64.003318787" lon="-19.039651871">
<ele>585.984375</ele>
<time>2012-07-22T14:15:56Z</time>
<speed>3.360000</speed>
<extensions>
<speed>3.4</speed>
<temp>0.00</temp>
<bpm>0</bpm>
<rpm>0.00</rpm>
</extensions>
</trkpt>
<trkpt lat="64.003219604" lon="-19.039932251">
<ele>586.000000</ele>
<time>2012-07-22T14:16:01Z</time>
<speed>3.370000</speed>
<extensions>
<speed>3.4</speed>
<temp>0.00</temp>
<bpm>0</bpm>
<rpm>0.00</rpm>
</extensions>
</trkpt>
<trkpt lat="64.003120422" lon="-19.040218353">
<ele>586.312500</ele>
<time>2012-07-22T14:16:06Z</time>
<speed>3.630000</speed>
<extensions>
<speed>3.6</speed>
<temp>0.00</temp>
<bpm>0</bpm>
<rpm>0.00</rpm>
</extensions>
</trkpt>
<trkpt lat="64.003021240" lon="-19.040498734">
<ele>586.406250</ele>
<time>2012-07-22T14:16:11Z</time>
<speed>3.830000</speed>
<extensions>
<speed>3.8</speed>
<temp>0.00</temp>
<bpm>0</bpm>
<rpm>0.00</rpm>
</extensions>
</trkpt>
<trkpt lat="64.002914429" lon="-19.040761948">
<ele>586.515625</ele>
<time>2012-07-22T14:16:16Z</time>
<speed>3.540000</speed>
<extensions>
<speed>3.5</speed>
<temp>0.00</temp>
<bpm>0</bpm>
<rpm>0.00</rpm>
</extensions>
</trkpt>
<trkpt lat="64.002807617" lon="-19.041049957">
<ele>586.609375</ele>
<time>2012-07-22T14:16:21Z</time>
<speed>3.690000</speed>
<extensions>
<speed>3.7</speed>
<temp>0.00</temp>
<bpm>0</bpm>
<rpm>0.00</rpm>
</extensions>
</trkpt>
<trkpt lat="64.002700806" lon="-19.041341782">
<ele>586.625000</ele>
<time>2012-07-22T14:16:26Z</time>
<speed>3.710000</speed>
<extensions>
<speed>3.7</speed>
<temp>0.00</temp>
<bpm>0</bpm>
<rpm>0.00</rpm>
</extensions>
</trkpt>
<trkpt lat="64.002593994" lon="-19.041624069">
<ele>586.843750</ele>
<time>2012-07-22T14:16:31Z</time>
<speed>3.740000</speed>
<extensions>
<speed>3.7</speed>
<temp>0.00</temp>
<bpm>0</bpm>
<rpm>0.00</rpm>
</extensions>
</trkpt>
<trkpt lat="64.002494812" lon="-19.041915894">
<ele>587.921875</ele>
<time>2012-07-22T14:16:36Z</time>
<speed>3.610000</speed>
<extensions>
<speed>3.6</speed>
<temp>0.00</temp>
<bpm>0</bpm>
<rpm>0.00</rpm>
</extensions>
</trkpt>
<trkpt lat="64.002380371" lon="-19.042192459">
<ele>588.281250</ele>
<time>2012-07-22T14:16:41Z</time>
<speed>3.470000</speed>
<extensions>
<speed>3.5</speed>
<temp>0.00</temp>
<bpm>0</bpm>
<rpm>0.00</rpm>
</extensions>
</trkpt>
<trkpt lat="64.002296448" lon="-19.042505264">
<ele>588.000000</ele>
<time>2012-07-22T14:16:46Z</time>
<speed>3.770000</speed>
<extensions>
<speed>3.8</speed>
<temp>0.00</temp>
<bpm>0</bpm>
<rpm>0.00</rpm>
</extensions>
</trkpt>
<trkpt lat="64.002243042" lon="-19.042852402">
<ele>586.687500</ele>
<time>2012-07-22T14:16:51Z</time>
<speed>3.360000</speed>
<extensions>
<speed>3.4</speed>
<temp>0.00</temp>
<bpm>0</bpm>
<rpm>0.00</rpm>
</extensions>
</trkpt>
<trkpt lat="64.002235413" lon="-19.043146133">
<ele>585.843750</ele>
<time>2012-07-22T14:16:56Z</time>
<speed>1.930000</speed>
<extensions>
<speed>1.9</speed>
<temp>0.00</temp>
<bpm>0</bpm>
<rpm>0.00</rpm>
</extensions>
</trkpt>
<trkpt lat="64.002220154" lon="-19.043312073">
<ele>586.593750</ele>
<time>2012-07-22T14:17:01Z</time>
<speed>1.560000</speed>
<extensions>
<speed>1.6</speed>
<temp>0.00</temp>
<bpm>0</bpm>
<rpm>0.00</rpm>
</extensions>
</trkpt>
<trkpt lat="64.002204895" lon="-19.043493271">
<ele>587.031250</ele>
<time>2012-07-22T14:17:06Z</time>
<speed>1.990000</speed>
<extensions>
<speed>2.0</speed>
<temp>0.00</temp>
<bpm>0</bpm>
<rpm>0.00</rpm>
</extensions>
</trkpt>
<trkpt lat="64.002182007" lon="-19.043663025">
<ele>586.734375</ele>
<time>2012-07-22T14:17:11Z</time>
<speed>1.940000</speed>
<extensions>
<speed>1.9</speed>
<temp>0.00</temp>
<bpm>0</bpm>
<rpm>0.00</rpm>
</extensions>
</trkpt>
<trkpt lat="64.002174377" lon="-19.043836594">
<ele>587.843750</ele>
<time>2012-07-22T14:17:16Z</time>
<speed>1.790000</speed>
<extensions>
<speed>1.8</speed>
<temp>0.00</temp>
<bpm>0</bpm>
<rpm>0.00</rpm>
</extensions>
</trkpt>
<trkpt lat="64.002151489" lon="-19.044004440">
<ele>588.390625</ele>
<time>2012-07-22T14:17:21Z</time>
<speed>1.890000</speed>
<extensions>
<speed>1.9</speed>
<temp>0.00</temp>
<bpm>0</bpm>
<rpm>0.00</rpm>
</extensions>
</trkpt>
<trkpt lat="64.002128601" lon="-19.044155121">
<ele>589.031250</ele>
<time>2012-07-22T14:17:26Z</time>
<speed>1.490000</speed>
<extensions>
<speed>1.5</speed>
<temp>0.00</temp>
<bpm>0</bpm>
<rpm>0.00</rpm>
</extensions>
</trkpt>
<trkpt lat="64.002113342" lon="-19.044279099">
<ele>589.406250</ele>
<time>2012-07-22T14:17:31Z</time>
<speed>1.440000</speed>
<extensions>
<speed>1.4</speed>
<temp>0.00</temp>
<bpm>0</bpm>
<rpm>0.00</rpm>
</extensions>
</trkpt>
<trkpt lat="64.002090454" lon="-19.044424057">
<ele>589.718750</ele>
<time>2012-07-22T14:17:36Z</time>
<speed>1.490000</speed>
<extensions>
<speed>1.5</speed>
<temp>0.00</temp>
<bpm>0</bpm>
<rpm>0.00</rpm>
</extensions>
</trkpt>
<trkpt lat="64.002059937" lon="-19.044620514">
<ele>589.921875</ele>
<time>2012-07-22T14:17:41Z</time>
<speed>2.200000</speed>
<extensions>
<speed>2.2</speed>
<temp>0.00</temp>
<bpm>0</bpm>
<rpm>0.00</rpm>
</extensions>
</trkpt>
<trkpt lat="64.002029419" lon="-19.044809341">
<ele>590.781250</ele>
<time>2012-07-22T14:17:46Z</time>
<speed>1.680000</speed>
<extensions>
<speed>1.7</speed>
<temp>0.00</temp>
<bpm>0</bpm>
<rpm>0.00</rpm>
</extensions>
</trkpt>
<trkpt lat="64.002006531" lon="-19.044992447">
<ele>591.093750</ele>
<time>2012-07-22T14:17:51Z</time>
<speed>1.990000</speed>
<extensions>
<speed>2.0</speed>
<temp>0.00</temp>
<bpm>0</bpm>
<rpm>0.00</rpm>
</extensions>
</trkpt>
<trkpt lat="64.001968384" lon="-19.045221329">
<ele>591.125000</ele>
<time>2012-07-22T14:17:56Z</time>
<speed>2.580000</speed>
<extensions>
<speed>2.6</speed>
<temp>0.00</temp>
<bpm>0</bpm>
<rpm>0.00</rpm>
</extensions>
</trkpt>
<trkpt lat="64.001914978" lon="-19.045465469">
<ele>590.437500</ele>
<time>2012-07-22T14:18:01Z</time>
<speed>2.610000</speed>
<extensions>
<speed>2.6</speed>
<temp>0.00</temp>
<bpm>0</bpm>
<rpm>0.00</rpm>
</extensions>
</trkpt>
<trkpt lat="64.001892090" lon="-19.045747757">
<ele>591.671875</ele>
<time>2012-07-22T14:18:06Z</time>
<speed>2.860000</speed>
<extensions>
<speed>2.9</speed>
<temp>0.00</temp>
<bpm>0</bpm>
<rpm>0.00</rpm>
</extensions>
</trkpt>
<trkpt lat="64.001838684" lon="-19.046026230">
<ele>591.437500</ele>
<time>2012-07-22T14:18:11Z</time>
<speed>2.770000</speed>
<extensions>
<speed>2.8</speed>
<temp>0.00</temp>
<bpm>0</bpm>
<rpm>0.00</rpm>
</extensions>
</trkpt>
<trkpt lat="64.001785278" lon="-19.046285629">
<ele>591.515625</ele>
<time>2012-07-22T14:18:16Z</time>
<speed>2.710000</speed>
<extensions>
<speed>2.7</speed>
<temp>0.00</temp>
<bpm>0</bpm>
<rpm>0.00</rpm>
</extensions>
</trkpt>
<trkpt lat="64.001731873" lon="-19.046537399">
<ele>592.234375</ele>
<time>2012-07-22T14:18:21Z</time>
<speed>2.600000</speed>
<extensions>
<speed>2.6</speed>
<temp>0.00</temp>
<bpm>0</bpm>
<rpm>0.00</rpm>
</extensions>
</trkpt>
<trkpt lat="64.001701355" lon="-19.046730042">
<ele>592.640625</ele>
<time>2012-07-22T14:18:26Z</time>
<speed>1.400000</speed>
<extensions>
<speed>1.4</speed>
<temp>0.00</temp>
<bpm>0</bpm>
<rpm>0.00</rpm>
</extensions>
</trkpt>
<trkpt lat="64.001693726" lon="-19.046875000">
<ele>591.937500</ele>
<time>2012-07-22T14:18:31Z</time>
<speed>1.990000</speed>
<extensions>
<speed>2.0</speed>
<temp>0.00</temp>
<bpm>0</bpm>
<rpm>0.00</rpm>
</extensions>
</trkpt>
<trkpt lat="64.001655579" lon="-19.047060013">
<ele>592.437500</ele>
<time>2012-07-22T14:18:36Z</time>
<speed>2.170000</speed>
<extensions>
<speed>2.2</speed>
<temp>0.00</temp>
<bpm>0</bpm>
<rpm>0.00</rpm>
</extensions>
</trkpt>
<trkpt lat="64.001632690" lon="-19.047258377">
<ele>593.656250</ele>
<time>2012-07-22T14:18:41Z</time>
<speed>2.030000</speed>
<extensions>
<speed>2.0</speed>
<temp>0.00</temp>
<bpm>0</bpm>
<rpm>0.00</rpm>
</extensions>
</trkpt>
<trkpt lat="64.001609802" lon="-19.047483444">
<ele>595.609375</ele>
<time>2012-07-22T14:18:46Z</time>
<speed>2.500000</speed>
<extensions>
<speed>2.5</speed>
<temp>0.00</temp>
<bpm>0</bpm>
<rpm>0.00</rpm>
</extensions>
</trkpt>
<trkpt lat="64.001571655" lon="-19.047710419">
<ele>595.265625</ele>
<time>2012-07-22T14:18:51Z</time>
<speed>2.250000</speed>
<extensions>
<speed>2.3</speed>
<temp>0.00</temp>
<bpm>0</bpm>
<rpm>0.00</rpm>
</extensions>
</trkpt>
<trkpt lat="64.001533508" lon="-19.047946930">
<ele>594.656250</ele>
<time>2012-07-22T14:18:56Z</time>
<speed>2.500000</speed>
<extensions>
<speed>2.5</speed>
<temp>0.00</temp>
<bpm>0</bpm>
<rpm>0.00</rpm>
</extensions>
</trkpt>
<trkpt lat="64.001495361" lon="-19.048179626">
<ele>594.187500</ele>
<time>2012-07-22T14:19:01Z</time>
<speed>2.750000</speed>
<extensions>
<speed>2.7</speed>
<temp>0.00</temp>
<bpm>0</bpm>
<rpm>0.00</rpm>
</extensions>
</trkpt>
<trkpt lat="64.001449585" lon="-19.048406601">
<ele>596.062500</ele>
<time>2012-07-22T14:19:06Z</time>
<speed>2.660000</speed>
<extensions>
<speed>2.7</speed>
<temp>0.00</temp>
<bpm>0</bpm>
<rpm>0.00</rpm>
</extensions>
</trkpt>
<trkpt lat="64.001396179" lon="-19.048631668">
<ele>595.593750</ele>
<time>2012-07-22T14:19:11Z</time>
<speed>2.790000</speed>
<extensions>
<speed>2.8</speed>
<temp>0.00</temp>
<bpm>0</bpm>
<rpm>0.00</rpm>
</extensions>
</trkpt>
<trkpt lat="64.001342773" lon="-19.048879623">
<ele>595.828125</ele>
<time>2012-07-22T14:19:16Z</time>
<speed>3.110000</speed>
<extensions>
<speed>3.1</speed>
<temp>0.00</temp>
<bpm>0</bpm>
<rpm>0.00</rpm>
</extensions>
</trkpt>
<trkpt lat="64.001266479" lon="-19.049207687">
<ele>594.828125</ele>
<time>2012-07-22T14:19:21Z</time>
<speed>3.830000</speed>
<extensions>
<speed>3.8</speed>
<temp>0.00</temp>
<bpm>0</bpm>
<rpm>0.00</rpm>
</extensions>
</trkpt>
<trkpt lat="64.001182556" lon="-19.049474716">
<ele>593.375000</ele>
<time>2012-07-22T14:19:26Z</time>
<speed>2.850000</speed>
<extensions>
<speed>2.9</speed>
<temp>0.00</temp>
<bpm>0</bpm>
<rpm>0.00</rpm>
</extensions>
</trkpt>
<trkpt lat="64.001098633" lon="-19.049665451">
<ele>592.187500</ele>
<time>2012-07-22T14:19:31Z</time>
<speed>3.100000</speed>
<extensions>
<speed>3.1</speed>
<temp>0.00</temp>
<bpm>0</bpm>
<rpm>0.00</rpm>
</extensions>
</trkpt>
<trkpt lat="64.000976563" lon="-19.049823761">
<ele>589.078125</ele>
<time>2012-07-22T14:19:36Z</time>
<speed>3.050000</speed>
<extensions>
<speed>3.0</speed>
<temp>0.00</temp>
<bpm>0</bpm>
<rpm>0.00</rpm>
</extensions>
</trkpt>
<trkpt lat="64.000862122" lon="-19.049964905">
<ele>589.484375</ele>
<time>2012-07-22T14:19:41Z</time>
<speed>3.170000</speed>
<extensions>
<speed>3.2</speed>
<temp>0.00</temp>
<bpm>0</bpm>
<rpm>0.00</rpm>
</extensions>
</trkpt>
<trkpt lat="64.000747681" lon="-19.050142288">
<ele>590.015625</ele>
<time>2012-07-22T14:19:46Z</time>
<speed>3.350000</speed>
<extensions>
<speed>3.4</speed>
<temp>0.00</temp>
<bpm>0</bpm>
<rpm>0.00</rpm>
</extensions>
</trkpt>
<trkpt lat="64.000617981" lon="-19.050340652">
<ele>590.328125</ele>
<time>2012-07-22T14:19:51Z</time>
<speed>3.580000</speed>
<extensions>
<speed>3.6</speed>
<temp>0.00</temp>
<bpm>0</bpm>
<rpm>0.00</rpm>
</extensions>
</trkpt>
<trkpt lat="64.000488281" lon="-19.050500870">
<ele>590.546875</ele>
<time>2012-07-22T14:19:56Z</time>
<speed>3.170000</speed>
<extensions>
<speed>3.2</speed>
<temp>0.00</temp>
<bpm>0</bpm>
<rpm>0.00</rpm>
</extensions>
</trkpt>
<trkpt lat="64.000381470" lon="-19.050603867">
<ele>591.109375</ele>
<time>2012-07-22T14:20:01Z</time>
<speed>2.580000</speed>
<extensions>
<speed>2.6</speed>
<temp>0.00</temp>
<bpm>0</bpm>
<rpm>0.00</rpm>
</extensions>
</trkpt>
<trkpt lat="64.000251770" lon="-19.050699234">
<ele>590.734375</ele>
<time>2012-07-22T14:20:06Z</time>
<speed>3.110000</speed>
<extensions>
<speed>3.1</speed>
<temp>0.00</temp>
<bpm>0</bpm>
<rpm>0.00</rpm>
</extensions>
</trkpt>
<trkpt lat="64.000114441" lon="-19.050806046">
<ele>590.140625</ele>
<time>2012-07-22T14:20:11Z</time>
<speed>3.300000</speed>
<extensions>
<speed>3.3</speed>
<temp>0.00</temp>
<bpm>0</bpm>
<rpm>0.00</rpm>
</extensions>
</trkpt>
<trkpt lat="63.999973297" lon="-19.050891876">
<ele>589.593750</ele>
<time>2012-07-22T14:20:16Z</time>
<speed>3.190000</speed>
<extensions>
<speed>3.2</speed>
<temp>0.00</temp>
<bpm>0</bpm>
<rpm>0.00</rpm>
</extensions>
</trkpt>
<trkpt lat="63.999832153" lon="-19.050996780">
<ele>589.000000</ele>
<time>2012-07-22T14:20:21Z</time>
<speed>3.370000</speed>
<extensions>
<speed>3.4</speed>
<temp>0.00</temp>
<bpm>0</bpm>
<rpm>0.00</rpm>
</extensions>
</trkpt>
<trkpt lat="63.999702454" lon="-19.051095963">
<ele>588.609375</ele>
<time>2012-07-22T14:20:26Z</time>
<speed>2.730000</speed>
<extensions>
<speed>2.7</speed>
<temp>0.00</temp>
<bpm>0</bpm>
<rpm>0.00</rpm>
</extensions>
</trkpt>
<trkpt lat="63.999576569" lon="-19.051164627">
<ele>588.593750</ele>
<time>2012-07-22T14:20:31Z</time>
<speed>2.890000</speed>
<extensions>
<speed>2.9</speed>
<temp>0.00</temp>
<bpm>0</bpm>
<rpm>0.00</rpm>
</extensions>
</trkpt>
<trkpt lat="63.999454498" lon="-19.051231384">
<ele>589.671875</ele>
<time>2012-07-22T14:20:36Z</time>
<speed>2.750000</speed>
<extensions>
<speed>2.7</speed>
<temp>0.00</temp>
<bpm>0</bpm>
<rpm>0.00</rpm>
</extensions>
</trkpt>
<trkpt lat="63.999328613" lon="-19.051240921">
<ele>590.125000</ele>
<time>2012-07-22T14:20:41Z</time>
<speed>2.970000</speed>
<extensions>
<speed>3.0</speed>
<temp>0.00</temp>
<bpm>0</bpm>
<rpm>0.00</rpm>
</extensions>
</trkpt>
<trkpt lat="63.999168396" lon="-19.051200867">
<ele>590.437500</ele>
<time>2012-07-22T14:20:46Z</time>
<speed>3.980000</speed>
<extensions>
<speed>4.0</speed>
<temp>0.00</temp>
<bpm>0</bpm>
<rpm>0.00</rpm>
</extensions>
</trkpt>
<trkpt lat="63.999004364" lon="-19.051069260">
<ele>588.984375</ele>
<time>2012-07-22T14:20:51Z</time>
<speed>3.830000</speed>
<extensions>
<speed>3.8</speed>
<temp>0.00</temp>
<bpm>0</bpm>
<rpm>0.00</rpm>
</extensions>
</trkpt>
<trkpt lat="63.998817444" lon="-19.050958633">
<ele>589.031250</ele>
<time>2012-07-22T14:20:56Z</time>
<speed>4.090000</speed>
<extensions>
<speed>4.1</speed>
<temp>0.00</temp>
<bpm>0</bpm>
<rpm>0.00</rpm>
</extensions>
</trkpt>
<trkpt lat="63.998649597" lon="-19.051010132">
<ele>590.562500</ele>
<time>2012-07-22T14:21:01Z</time>
<speed>2.970000</speed>
<extensions>
<speed>3.0</speed>
<temp>0.00</temp>
<bpm>0</bpm>
<rpm>0.00</rpm>
</extensions>
</trkpt>
<trkpt lat="63.998527527" lon="-19.051099777">
<ele>588.609375</ele>
<time>2012-07-22T14:21:06Z</time>
<speed>2.640000</speed>
<extensions>
<speed>2.6</speed>
<temp>0.00</temp>
<bpm>0</bpm>
<rpm>0.00</rpm>
</extensions>
</trkpt>
<trkpt lat="63.998394012" lon="-19.051164627">
<ele>588.078125</ele>
<time>2012-07-22T14:21:11Z</time>
<speed>3.490000</speed>
<extensions>
<speed>3.5</speed>
<temp>0.00</temp>
<bpm>0</bpm>
<rpm>0.00</rpm>
</extensions>
</trkpt>
<trkpt lat="63.998226166" lon="-19.051345825">
<ele>588.062500</ele>
<time>2012-07-22T14:21:16Z</time>
<speed>4.110000</speed>
<extensions>
<speed>4.1</speed>
<temp>0.00</temp>
<bpm>0</bpm>
<rpm>0.00</rpm>
</extensions>
</trkpt>
<trkpt lat="63.998085022" lon="-19.051504135">
<ele>587.968750</ele>
<time>2012-07-22T14:21:21Z</time>
<speed>3.130000</speed>
<extensions>
<speed>3.1</speed>
<temp>0.00</temp>
<bpm>0</bpm>
<rpm>0.00</rpm>
</extensions>
</trkpt>
<trkpt lat="63.997989655" lon="-19.051612854">
<ele>587.828125</ele>
<time>2012-07-22T14:21:26Z</time>
<speed>1.510000</speed>
<extensions>
<speed>1.5</speed>
<temp>0.00</temp>
<bpm>0</bpm>
<rpm>0.00</rpm>
</extensions>
</trkpt>
<trkpt lat="63.997920990" lon="-19.051771164">
<ele>587.875000</ele>
<time>2012-07-22T14:21:31Z</time>
<speed>2.780000</speed>
<extensions>
<speed>2.8</speed>
<temp>0.00</temp>
<bpm>0</bpm>
<rpm>0.00</rpm>
</extensions>
</trkpt>
<trkpt lat="63.997852325" lon="-19.051939011">
<ele>589.078125</ele>
<time>2012-07-22T14:21:36Z</time>
<speed>2.110000</speed>
<extensions>
<speed>2.1</speed>
<temp>0.00</temp>
<bpm>0</bpm>
<rpm>0.00</rpm>
</extensions>
</trkpt>
<trkpt lat="63.997817993" lon="-19.052101135">
<ele>588.921875</ele>
<time>2012-07-22T14:21:41Z</time>
<speed>1.470000</speed>
<extensions>
<speed>1.5</speed>
<temp>0.00</temp>
<bpm>0</bpm>
<rpm>0.00</rpm>
</extensions>
</trkpt>
<trkpt lat="63.997795105" lon="-19.052263260">
<ele>588.046875</ele>
<time>2012-07-22T14:21:46Z</time>
<speed>1.750000</speed>
<extensions>
<speed>1.8</speed>
<temp>0.00</temp>
<bpm>0</bpm>
<rpm>0.00</rpm>
</extensions>
</trkpt>
<trkpt lat="63.997768402" lon="-19.052392960">
<ele>588.062500</ele>
<time>2012-07-22T14:21:51Z</time>
<speed>1.390000</speed>
<extensions>
<speed>1.4</speed>
<temp>0.00</temp>
<bpm>0</bpm>
<rpm>0.00</rpm>
</extensions>
</trkpt>
<trkpt lat="63.997734070" lon="-19.052528381">
<ele>587.843750</ele>
<time>2012-07-22T14:21:56Z</time>
<speed>1.960000</speed>
<extensions>
<speed>2.0</speed>
<temp>0.00</temp>
<bpm>0</bpm>
<rpm>0.00</rpm>
</extensions>
</trkpt>
<trkpt lat="63.997699738" lon="-19.052728653">
<ele>589.484375</ele>
<time>2012-07-22T14:22:01Z</time>
<speed>2.200000</speed>
<extensions>
<speed>2.2</speed>
<temp>0.00</temp>
<bpm>0</bpm>
<rpm>0.00</rpm>
</extensions>
</trkpt>
<trkpt lat="63.997673035" lon="-19.052925110">
<ele>591.531250</ele>
<time>2012-07-22T14:22:06Z</time>
<speed>2.050000</speed>
<extensions>
<speed>2.1</speed>
<temp>0.00</temp>
<bpm>0</bpm>
<rpm>0.00</rpm>
</extensions>
</trkpt>
<trkpt lat="63.997631073" lon="-19.053115845">
<ele>591.968750</ele>
<time>2012-07-22T14:22:11Z</time>
<speed>2.230000</speed>
<extensions>
<speed>2.2</speed>
<temp>0.00</temp>
<bpm>0</bpm>
<rpm>0.00</rpm>
</extensions>
</trkpt>
<trkpt lat="63.997566223" lon="-19.053312302">
<ele>591.671875</ele>
<time>2012-07-22T14:22:16Z</time>
<speed>2.780000</speed>
<extensions>
<speed>2.8</speed>
<temp>0.00</temp>
<bpm>0</bpm>
<rpm>0.00</rpm>
</extensions>
</trkpt>
<trkpt lat="63.997512817" lon="-19.053544998">
<ele>591.875000</ele>
<time>2012-07-22T14:22:21Z</time>
<speed>2.790000</speed>
<extensions>
<speed>2.8</speed>
<temp>0.00</temp>
<bpm>0</bpm>
<rpm>0.00</rpm>
</extensions>
</trkpt>
<trkpt lat="63.997463226" lon="-19.053781509">
<ele>592.328125</ele>
<time>2012-07-22T14:22:26Z</time>
<speed>2.500000</speed>
<extensions>
<speed>2.5</speed>
<temp>0.00</temp>
<bpm>0</bpm>
<rpm>0.00</rpm>
</extensions>
</trkpt>
<trkpt lat="63.997386932" lon="-19.054035187">
<ele>590.578125</ele>
<time>2012-07-22T14:22:31Z</time>
<speed>3.400000</speed>
<extensions>
<speed>3.4</speed>
<temp>0.00</temp>
<bpm>0</bpm>
<rpm>0.00</rpm>
</extensions>
</trkpt>
<trkpt lat="63.997329712" lon="-19.054304123">
<ele>589.703125</ele>
<time>2012-07-22T14:22:36Z</time>
<speed>3.050000</speed>
<extensions>
<speed>3.0</speed>
<temp>0.00</temp>
<bpm>0</bpm>
<rpm>0.00</rpm>
</extensions>
</trkpt>
<trkpt lat="63.997272491" lon="-19.054607391">
<ele>590.406250</ele>
<time>2012-07-22T14:22:41Z</time>
<speed>3.440000</speed>
<extensions>
<speed>3.4</speed>
<temp>0.00</temp>
<bpm>0</bpm>
<rpm>0.00</rpm>
</extensions>
</trkpt>
<trkpt lat="63.997215271" lon="-19.054927826">
<ele>590.125000</ele>
<time>2012-07-22T14:22:46Z</time>
<speed>3.430000</speed>
<extensions>
<speed>3.4</speed>
<temp>0.00</temp>
<bpm>0</bpm>
<rpm>0.00</rpm>
</extensions>
</trkpt>
<trkpt lat="63.997135162" lon="-19.055246353">
<ele>589.421875</ele>
<time>2012-07-22T14:22:51Z</time>
<speed>3.170000</speed>
<extensions>
<speed>3.2</speed>
<temp>0.00</temp>
<bpm>0</bpm>
<rpm>0.00</rpm>
</extensions>
</trkpt>
<trkpt lat="63.997058868" lon="-19.055580139">
<ele>588.796875</ele>
<time>2012-07-22T14:22:56Z</time>
<speed>3.480000</speed>
<extensions>
<speed>3.5</speed>
<temp>0.00</temp>
<bpm>0</bpm>
<rpm>0.00</rpm>
</extensions>
</trkpt>
<trkpt lat="63.996971130" lon="-19.055871964">
<ele>588.656250</ele>
<time>2012-07-22T14:23:01Z</time>
<speed>3.830000</speed>
<extensions>
<speed>3.8</speed>
<temp>0.00</temp>
<bpm>0</bpm>
<rpm>0.00</rpm>
</extensions>
</trkpt>
<trkpt lat="63.996868134" lon="-19.056198120">
<ele>587.296875</ele>
<time>2012-07-22T14:23:06Z</time>
<speed>4.160000</speed>
<extensions>
<speed>4.2</speed>
<temp>0.00</temp>
<bpm>0</bpm>
<rpm>0.00</rpm>
</extensions>
</trkpt>
<trkpt lat="63.996761322" lon="-19.056467056">
<ele>587.812500</ele>
<time>2012-07-22T14:23:11Z</time>
<speed>3.600000</speed>
<extensions>
<speed>3.6</speed>
<temp>0.00</temp>
<bpm>0</bpm>
<rpm>0.00</rpm>
</extensions>
</trkpt>
<trkpt lat="63.996662140" lon="-19.056755066">
<ele>587.000000</ele>
<time>2012-07-22T14:23:16Z</time>
<speed>3.800000</speed>
<extensions>
<speed>3.8</speed>
<temp>0.00</temp>
<bpm>0</bpm>
<rpm>0.00</rpm>
</extensions>
</trkpt>
<trkpt lat="63.996547699" lon="-19.057018280">
<ele>589.468750</ele>
<time>2012-07-22T14:23:21Z</time>
<speed>3.600000</speed>
<extensions>
<speed>3.6</speed>
<temp>0.00</temp>
<bpm>0</bpm>
<rpm>0.00</rpm>
</extensions>
</trkpt>
<trkpt lat="63.996433258" lon="-19.057315826">
<ele>589.875000</ele>
<time>2012-07-22T14:23:26Z</time>
<speed>3.900000</speed>
<extensions>
<speed>3.9</speed>
<temp>0.00</temp>
<bpm>0</bpm>
<rpm>0.00</rpm>
</extensions>
</trkpt>
<trkpt lat="63.996318817" lon="-19.057615280">
<ele>589.750000</ele>
<time>2012-07-22T14:23:31Z</time>
<speed>3.680000</speed>
<extensions>
<speed>3.7</speed>
<temp>0.00</temp>
<bpm>0</bpm>
<rpm>0.00</rpm>
</extensions>
</trkpt>
<trkpt lat="63.996200562" lon="-19.057891846">
<ele>590.281250</ele>
<time>2012-07-22T14:23:36Z</time>
<speed>3.190000</speed>
<extensions>
<speed>3.2</speed>
<temp>0.00</temp>
<bpm>0</bpm>
<rpm>0.00</rpm>
</extensions>
</trkpt>
<trkpt lat="63.996109009" lon="-19.058164597">
<ele>590.765625</ele>
<time>2012-07-22T14:23:41Z</time>
<speed>3.390000</speed>
<extensions>
<speed>3.4</speed>
<temp>0.00</temp>
<bpm>0</bpm>
<rpm>0.00</rpm>
</extensions>
</trkpt>
<trkpt lat="63.995998383" lon="-19.058414459">
<ele>591.390625</ele>
<time>2012-07-22T14:23:46Z</time>
<speed>3.520000</speed>
<extensions>
<speed>3.5</speed>
<temp>0.00</temp>
<bpm>0</bpm>
<rpm>0.00</rpm>
</extensions>
</trkpt>
<trkpt lat="63.995876312" lon="-19.058689117">
<ele>590.687500</ele>
<time>2012-07-22T14:23:51Z</time>
<speed>3.880000</speed>
<extensions>
<speed>3.9</speed>
<temp>0.00</temp>
<bpm>0</bpm>
<rpm>0.00</rpm>
</extensions>
</trkpt>
<trkpt lat="63.995750427" lon="-19.058946609">
<ele>590.453125</ele>
<time>2012-07-22T14:23:56Z</time>
<speed>3.750000</speed>
<extensions>
<speed>3.8</speed>
<temp>0.00</temp>
<bpm>0</bpm>
<rpm>0.00</rpm>
</extensions>
</trkpt>
<trkpt lat="63.995613098" lon="-19.059198380">
<ele>590.546875</ele>
<time>2012-07-22T14:24:01Z</time>
<speed>3.690000</speed>
<extensions>
<speed>3.7</speed>
<temp>0.00</temp>
<bpm>0</bpm>
<rpm>0.00</rpm>
</extensions>
</trkpt>
<trkpt lat="63.995460510" lon="-19.059410095">
<ele>589.640625</ele>
<time>2012-07-22T14:24:06Z</time>
<speed>3.600000</speed>
<extensions>
<speed>3.6</speed>
<temp>0.00</temp>
<bpm>0</bpm>
<rpm>0.00</rpm>
</extensions>
</trkpt>
<trkpt lat="63.995281219" lon="-19.059513092">
<ele>587.843750</ele>
<time>2012-07-22T14:24:11Z</time>
<speed>4.130000</speed>
<extensions>
<speed>4.1</speed>
<temp>0.00</temp>
<bpm>0</bpm>
<rpm>0.00</rpm>
</extensions>
</trkpt>
<trkpt lat="63.995098114" lon="-19.059604645">
<ele>588.703125</ele>
<time>2012-07-22T14:24:16Z</time>
<speed>3.780000</speed>
<extensions>
<speed>3.8</speed>
<temp>0.00</temp>
<bpm>0</bpm>
<rpm>0.00</rpm>
</extensions>
</trkpt>
<trkpt lat="63.994964600" lon="-19.059705734">
<ele>589.984375</ele>
<time>2012-07-22T14:24:21Z</time>
<speed>3.230000</speed>
<extensions>
<speed>3.2</speed>
<temp>0.00</temp>
<bpm>0</bpm>
<rpm>0.00</rpm>
</extensions>
</trkpt>
<trkpt lat="63.994819641" lon="-19.059761047">
<ele>590.734375</ele>
<time>2012-07-22T14:24:26Z</time>
<speed>3.440000</speed>
<extensions>
<speed>3.4</speed>
<temp>0.00</temp>
<bpm>0</bpm>
<rpm>0.00</rpm>
</extensions>
</trkpt>
<trkpt lat="63.994667053" lon="-19.059707642">
<ele>591.562500</ele>
<time>2012-07-22T14:24:31Z</time>
<speed>2.630000</speed>
<extensions>
<speed>2.6</speed>
<temp>0.00</temp>
<bpm>0</bpm>
<rpm>0.00</rpm>
</extensions>
</trkpt>
<trkpt lat="63.994575500" lon="-19.059745789">
<ele>592.750000</ele>
<time>2012-07-22T14:24:36Z</time>
<speed>2.110000</speed>
<extensions>
<speed>2.1</speed>
<temp>0.00</temp>
<bpm>0</bpm>
<rpm>0.00</rpm>
</extensions>
</trkpt>
<trkpt lat="63.994560242" lon="-19.059757233">
<ele>592.703125</ele>
<time>2012-07-22T14:24:41Z</time>
<speed>0.100000</speed>
<extensions>
<speed>0.1</speed>
<temp>0.00</temp>
<bpm>0</bpm>
<rpm>0.00</rpm>
</extensions>
</trkpt>
<trkpt lat="63.994571686" lon="-19.059770584">
<ele>592.750000</ele>
<time>2012-07-22T14:24:46Z</time>
<speed>0.010000</speed>
<extensions>
<speed>0.0</speed>
<temp>0.00</temp>
<bpm>0</bpm>
<rpm>0.00</rpm>
</extensions>
</trkpt>
<trkpt lat="63.994571686" lon="-19.059770584">
<ele>592.750000</ele>
<time>2012-07-22T14:24:51Z</time>
<extensions>
<speed>0.0</speed>
<temp>0.00</temp>
<bpm>0</bpm>
<rpm>0.00</rpm>
</extensions>
</trkpt>
<trkpt lat="63.994571686" lon="-19.059770584">
<ele>592.765625</ele>
<time>2012-07-22T14:24:56Z</time>
<extensions>
<speed>0.0</speed>
<temp>0.00</temp>
<bpm>0</bpm>
<rpm>0.00</rpm>
</extensions>
</trkpt>
<trkpt lat="63.994571686" lon="-19.059768677">
<ele>592.781250</ele>
<time>2012-07-22T14:25:01Z</time>
<speed>0.070000</speed>
<extensions>
<speed>0.1</speed>
<temp>0.00</temp>
<bpm>0</bpm>
<rpm>0.00</rpm>
</extensions>
</trkpt>
<trkpt lat="63.994560242" lon="-19.059801102">
<ele>592.890625</ele>
<time>2012-07-22T14:25:06Z</time>
<speed>0.700000</speed>
<extensions>
<speed>0.7</speed>
<temp>0.00</temp>
<bpm>0</bpm>
<rpm>0.00</rpm>
</extensions>
</trkpt>
<trkpt lat="63.994571686" lon="-19.059888840">
<ele>592.578125</ele>
<time>2012-07-22T14:25:11Z</time>
<speed>0.540000</speed>
<extensions>
<speed>0.5</speed>
<temp>0.00</temp>
<bpm>0</bpm>
<rpm>0.00</rpm>
</extensions>
</trkpt>
<trkpt lat="63.994583130" lon="-19.059942245">
<ele>592.828125</ele>
<time>2012-07-22T14:25:16Z</time>
<speed>0.490000</speed>
<extensions>
<speed>0.5</speed>
<temp>0.00</temp>
<bpm>0</bpm>
<rpm>0.00</rpm>
</extensions>
</trkpt>
<trkpt lat="63.994594574" lon="-19.059968948">
<ele>593.296875</ele>
<time>2012-07-22T14:25:21Z</time>
<speed>0.670000</speed>
<extensions>
<speed>0.7</speed>
<temp>0.00</temp>
<bpm>0</bpm>
<rpm>0.00</rpm>
</extensions>
</trkpt>
<trkpt lat="63.994621277" lon="-19.059993744">
<ele>593.390625</ele>
<time>2012-07-22T14:25:26Z</time>
<speed>0.550000</speed>
<extensions>
<speed>0.6</speed>
<temp>0.00</temp>
<bpm>0</bpm>
<rpm>0.00</rpm>
</extensions>
</trkpt>
<trkpt lat="63.994598389" lon="-19.060035706">
<ele>593.562500</ele>
<time>2012-07-22T14:25:31Z</time>
<speed>0.780000</speed>
<extensions>
<speed>0.8</speed>
<temp>0.00</temp>
<bpm>0</bpm>
<rpm>0.00</rpm>
</extensions>
</trkpt>
<trkpt lat="63.994571686" lon="-19.060081482">
<ele>592.875000</ele>
<time>2012-07-22T14:25:36Z</time>
<speed>0.190000</speed>
<extensions>
<speed>0.2</speed>
<temp>0.00</temp>
<bpm>0</bpm>
<rpm>0.00</rpm>
</extensions>
</trkpt>
<trkpt lat="63.994571686" lon="-19.060108185">
<ele>590.875000</ele>
<time>2012-07-22T14:25:41Z</time>
<speed>0.430000</speed>
<extensions>
<speed>0.4</speed>
<temp>0.00</temp>
<bpm>0</bpm>
<rpm>0.00</rpm>
</extensions>
</trkpt>
<trkpt lat="63.994594574" lon="-19.060157776">
<ele>592.453125</ele>
<time>2012-07-22T14:25:46Z</time>
<speed>1.080000</speed>
<extensions>
<speed>1.1</speed>
<temp>0.00</temp>
<bpm>0</bpm>
<rpm>0.00</rpm>
</extensions>
</trkpt>
<trkpt lat="63.994617462" lon="-19.060237885">
<ele>593.187500</ele>
<time>2012-07-22T14:25:51Z</time>
<speed>0.860000</speed>
<extensions>
<speed>0.9</speed>
<temp>0.00</temp>
<bpm>0</bpm>
<rpm>0.00</rpm>
</extensions>
</trkpt>
<trkpt lat="63.994625092" lon="-19.060291290">
<ele>593.484375</ele>
<time>2012-07-22T14:25:56Z</time>
<speed>0.430000</speed>
<extensions>
<speed>0.4</speed>
<temp>0.00</temp>
<bpm>0</bpm>
<rpm>0.00</rpm>
</extensions>
</trkpt>
<trkpt lat="63.994628906" lon="-19.060323715">
<ele>592.375000</ele>
<time>2012-07-22T14:26:01Z</time>
<speed>0.010000</speed>
<extensions>
<speed>0.0</speed>
<temp>0.00</temp>
<bpm>0</bpm>
<rpm>0.00</rpm>
</extensions>
</trkpt>
<trkpt lat="63.994628906" lon="-19.060321808">
<ele>592.343750</ele>
<time>2012-07-22T14:26:06Z</time>
<extensions>
<speed>0.0</speed>
<temp>0.00</temp>
<bpm>0</bpm>
<rpm>0.00</rpm>
</extensions>
</trkpt>
<trkpt lat="63.994628906" lon="-19.060323715">
<ele>592.296875</ele>
<time>2012-07-22T14:26:11Z</time>
<extensions>
<speed>0.0</speed>
<temp>0.00</temp>
<bpm>0</bpm>
<rpm>0.00</rpm>
</extensions>
</trkpt>
<trkpt lat="63.994628906" lon="-19.060323715">
<ele>592.281250</ele>
<time>2012-07-22T14:26:16Z</time>
<extensions>
<speed>0.0</speed>
<temp>0.00</temp>
<bpm>0</bpm>
<rpm>0.00</rpm>
</extensions>
</trkpt>
<trkpt lat="63.994628906" lon="-19.060323715">
<ele>592.265625</ele>
<time>2012-07-22T14:26:21Z</time>
<speed>0.110000</speed>
<extensions>
<speed>0.1</speed>
<temp>0.00</temp>
<bpm>0</bpm>
<rpm>0.00</rpm>
</extensions>
</trkpt>
<trkpt lat="63.994628906" lon="-19.060319901">
<ele>592.312500</ele>
<time>2012-07-22T14:26:26Z</time>
<extensions>
<speed>0.0</speed>
<temp>0.00</temp>
<bpm>0</bpm>
<rpm>0.00</rpm>
</extensions>
</trkpt>
<trkpt lat="63.994625092" lon="-19.060379028">
<ele>591.765625</ele>
<time>2012-07-22T14:26:31Z</time>
<speed>1.240000</speed>
<extensions>
<speed>1.2</speed>
<temp>0.00</temp>
<bpm>0</bpm>
<rpm>0.00</rpm>
</extensions>
</trkpt>
<trkpt lat="63.994640350" lon="-19.060459137">
<ele>592.218750</ele>
<time>2012-07-22T14:26:36Z</time>
<speed>0.800000</speed>
<extensions>
<speed>0.8</speed>
<temp>0.00</temp>
<bpm>0</bpm>
<rpm>0.00</rpm>
</extensions>
</trkpt>
<trkpt lat="63.994628906" lon="-19.060482025">
<ele>592.125000</ele>
<time>2012-07-22T14:26:41Z</time>
<speed>0.320000</speed>
<extensions>
<speed>0.3</speed>
<temp>0.00</temp>
<bpm>0</bpm>
<rpm>0.00</rpm>
</extensions>
</trkpt>
<trkpt lat="63.994628906" lon="-19.060537338">
<ele>591.875000</ele>
<time>2012-07-22T14:26:46Z</time>
<speed>1.570000</speed>
<extensions>
<speed>1.6</speed>
<temp>0.00</temp>
<bpm>0</bpm>
<rpm>0.00</rpm>
</extensions>
</trkpt>
<trkpt lat="63.994533539" lon="-19.060758591">
<ele>588.843750</ele>
<time>2012-07-22T14:26:51Z</time>
<speed>3.630000</speed>
<extensions>
<speed>3.6</speed>
<temp>0.00</temp>
<bpm>0</bpm>
<rpm>0.00</rpm>
</extensions>
</trkpt>
<trkpt lat="63.994434357" lon="-19.060916901">
<ele>587.671875</ele>
<time>2012-07-22T14:26:56Z</time>
<speed>0.170000</speed>
<extensions>
<speed>0.2</speed>
<temp>0.00</temp>
<bpm>0</bpm>
<rpm>0.00</rpm>
</extensions>
</trkpt>
<trkpt lat="63.994426727" lon="-19.060943604">
<ele>588.046875</ele>
<time>2012-07-22T14:27:01Z</time>
<speed>0.520000</speed>
<extensions>
<speed>0.5</speed>
<temp>0.00</temp>
<bpm>0</bpm>
<rpm>0.00</rpm>
</extensions>
</trkpt>
<trkpt lat="63.994430542" lon="-19.060943604">
<ele>588.312500</ele>
<time>2012-07-22T14:27:06Z</time>
<speed>0.500000</speed>
<extensions>
<speed>0.5</speed>
<temp>0.00</temp>
<bpm>0</bpm>
<rpm>0.00</rpm>
</extensions>
</trkpt>
<trkpt lat="63.994400024" lon="-19.060943604">
<ele>588.781250</ele>
<time>2012-07-22T14:27:11Z</time>
<speed>0.810000</speed>
<extensions>
<speed>0.8</speed>
<temp>0.00</temp>
<bpm>0</bpm>
<rpm>0.00</rpm>
</extensions>
</trkpt>
<trkpt lat="63.994392395" lon="-19.060935974">
<ele>588.765625</ele>
<time>2012-07-22T14:27:16Z</time>
<speed>0.130000</speed>
<extensions>
<speed>0.1</speed>
<temp>0.00</temp>
<bpm>0</bpm>
<rpm>0.00</rpm>
</extensions>
</trkpt>
<trkpt lat="63.994388580" lon="-19.060943604">
<ele>588.328125</ele>
<time>2012-07-22T14:27:21Z</time>
<speed>0.390000</speed>
<extensions>
<speed>0.4</speed>
<temp>0.00</temp>
<bpm>0</bpm>
<rpm>0.00</rpm>
</extensions>
</trkpt>
<trkpt lat="63.994346619" lon="-19.060911179">
<ele>587.718750</ele>
<time>2012-07-22T14:27:26Z</time>
<speed>0.850000</speed>
<extensions>
<speed>0.8</speed>
<temp>0.00</temp>
<bpm>0</bpm>
<rpm>0.00</rpm>
</extensions>
</trkpt>
<trkpt lat="63.994308472" lon="-19.060886383">
<ele>587.375000</ele>
<time>2012-07-22T14:27:31Z</time>
<speed>0.880000</speed>
<extensions>
<speed>0.9</speed>
<temp>0.00</temp>
<bpm>0</bpm>
<rpm>0.00</rpm>
</extensions>
</trkpt>
<trkpt lat="63.994285583" lon="-19.060886383">
<ele>587.359375</ele>
<time>2012-07-22T14:27:36Z</time>
<speed>0.100000</speed>
<extensions>
<speed>0.1</speed>
<temp>0.00</temp>
<bpm>0</bpm>
<rpm>0.00</rpm>
</extensions>
</trkpt>
<trkpt lat="63.994262695" lon="-19.060882568">
<ele>587.093750</ele>
<time>2012-07-22T14:27:41Z</time>
<speed>0.550000</speed>
<extensions>
<speed>0.6</speed>
<temp>0.00</temp>
<bpm>0</bpm>
<rpm>0.00</rpm>
</extensions>
</trkpt>
<trkpt lat="63.994216919" lon="-19.060894012">
<ele>586.218750</ele>
<time>2012-07-22T14:27:46Z</time>
<speed>0.510000</speed>
<extensions>
<speed>0.5</speed>
<temp>0.00</temp>
<bpm>0</bpm>
<rpm>0.00</rpm>
</extensions>
</trkpt>
<trkpt lat="63.994228363" lon="-19.060878754">
<ele>586.125000</ele>
<time>2012-07-22T14:27:51Z</time>
<speed>0.080000</speed>
<extensions>
<speed>0.1</speed>
<temp>0.00</temp>
<bpm>0</bpm>
<rpm>0.00</rpm>
</extensions>
</trkpt>
<trkpt lat="63.994148254" lon="-19.060832977">
<ele>586.625000</ele>
<time>2012-07-22T14:27:56Z</time>
<speed>1.820000</speed>
<extensions>
<speed>1.8</speed>
<temp>0.00</temp>
<bpm>0</bpm>
<rpm>0.00</rpm>
</extensions>
</trkpt>
<trkpt lat="63.994056702" lon="-19.060787201">
<ele>585.859375</ele>
<time>2012-07-22T14:28:01Z</time>
<speed>1.450000</speed>
<extensions>
<speed>1.4</speed>
<temp>0.00</temp>
<bpm>0</bpm>
<rpm>0.00</rpm>
</extensions>
</trkpt>
<trkpt lat="63.993972778" lon="-19.060766220">
<ele>585.625000</ele>
<time>2012-07-22T14:28:06Z</time>
<speed>1.620000</speed>
<extensions>
<speed>1.6</speed>
<temp>0.00</temp>
<bpm>0</bpm>
<rpm>0.00</rpm>
</extensions>
</trkpt>
<trkpt lat="63.993900299" lon="-19.060731888">
<ele>586.796875</ele>
<time>2012-07-22T14:28:11Z</time>
<speed>1.280000</speed>
<extensions>
<speed>1.3</speed>
<temp>0.00</temp>
<bpm>0</bpm>
<rpm>0.00</rpm>
</extensions>
</trkpt>
<trkpt lat="63.993850708" lon="-19.060686111">
<ele>586.609375</ele>
<time>2012-07-22T14:28:16Z</time>
<speed>0.020000</speed>
<extensions>
<speed>0.0</speed>
<temp>0.00</temp>
<bpm>0</bpm>
<rpm>0.00</rpm>
</extensions>
</trkpt>
<trkpt lat="63.993846893" lon="-19.060688019">
<ele>586.984375</ele>
<time>2012-07-22T14:28:21Z</time>
<extensions>
<speed>0.0</speed>
<temp>0.00</temp>
<bpm>0</bpm>
<rpm>0.00</rpm>
</extensions>
</trkpt>
<trkpt lat="63.993846893" lon="-19.060689926">
<ele>586.984375</ele>
<time>2012-07-22T14:28:26Z</time>
<extensions>
<speed>0.0</speed>
<temp>0.00</temp>
<bpm>0</bpm>
<rpm>0.00</rpm>
</extensions>
</trkpt>
<trkpt lat="63.993846893" lon="-19.060689926">
<ele>586.968750</ele>
<time>2012-07-22T14:28:31Z</time>
<speed>0.010000</speed>
<extensions>
<speed>0.0</speed>
<temp>0.00</temp>
<bpm>0</bpm>
<rpm>0.00</rpm>
</extensions>
</trkpt>
<trkpt lat="63.993846893" lon="-19.060689926">
<ele>586.968750</ele>
<time>2012-07-22T14:28:36Z</time>
<speed>0.010000</speed>
<extensions>
<speed>0.0</speed>
<temp>0.00</temp>
<bpm>0</bpm>
<rpm>0.00</rpm>
</extensions>
</trkpt>
<trkpt lat="63.993846893" lon="-19.060689926">
<ele>586.968750</ele>
<time>2012-07-22T14:28:41Z</time>
<extensions>
<speed>0.0</speed>
<temp>0.00</temp>
<bpm>0</bpm>
<rpm>0.00</rpm>
</extensions>
</trkpt>
<trkpt lat="63.993846893" lon="-19.060689926">
<ele>586.968750</ele>
<time>2012-07-22T14:28:46Z</time>
<speed>0.010000</speed>
<extensions>
<speed>0.0</speed>
<temp>0.00</temp>
<bpm>0</bpm>
<rpm>0.00</rpm>
</extensions>
</trkpt>
<trkpt lat="63.993846893" lon="-19.060689926">
<ele>586.984375</ele>
<time>2012-07-22T14:28:51Z</time>
<extensions>
<speed>0.0</speed>
<temp>0.00</temp>
<bpm>0</bpm>
<rpm>0.00</rpm>
</extensions>
</trkpt>
<trkpt lat="63.993846893" lon="-19.060689926">
<ele>587.000000</ele>
<time>2012-07-22T14:28:56Z</time>
<extensions>
<speed>0.0</speed>
<temp>0.00</temp>
<bpm>0</bpm>
<rpm>0.00</rpm>
</extensions>
</trkpt>
<trkpt lat="63.993846893" lon="-19.060689926">
<ele>587.031250</ele>
<time>2012-07-22T14:29:01Z</time>
<extensions>
<speed>0.0</speed>
<temp>0.00</temp>
<bpm>0</bpm>
<rpm>0.00</rpm>
</extensions>
</trkpt>
<trkpt lat="63.993846893" lon="-19.060689926">
<ele>587.046875</ele>
<time>2012-07-22T14:29:06Z</time>
<speed>0.010000</speed>
<extensions>
<speed>0.0</speed>
<temp>0.00</temp>
<bpm>0</bpm>
<rpm>0.00</rpm>
</extensions>
</trkpt>
<trkpt lat="63.993846893" lon="-19.060689926">
<ele>587.062500</ele>
<time>2012-07-22T14:29:11Z</time>
<extensions>
<speed>0.0</speed>
<temp>0.00</temp>
<bpm>0</bpm>
<rpm>0.00</rpm>
</extensions>
</trkpt>
<trkpt lat="63.993846893" lon="-19.060689926">
<ele>587.078125</ele>
<time>2012-07-22T14:29:16Z</time>
<extensions>
<speed>0.0</speed>
<temp>0.00</temp>
<bpm>0</bpm>
<rpm>0.00</rpm>
</extensions>
</trkpt>
<trkpt lat="63.993846893" lon="-19.060689926">
<ele>587.093750</ele>
<time>2012-07-22T14:29:21Z</time>
<extensions>
<speed>0.0</speed>
<temp>0.00</temp>
<bpm>0</bpm>
<rpm>0.00</rpm>
</extensions>
</trkpt>
<trkpt lat="63.993846893" lon="-19.060689926">
<ele>587.093750</ele>
<time>2012-07-22T14:29:26Z</time>
<speed>0.010000</speed>
<extensions>
<speed>0.0</speed>
<temp>0.00</temp>
<bpm>0</bpm>
<rpm>0.00</rpm>
</extensions>
</trkpt>
<trkpt lat="63.993846893" lon="-19.060689926">
<ele>587.093750</ele>
<time>2012-07-22T14:29:31Z</time>
<speed>0.140000</speed>
<extensions>
<speed>0.1</speed>
<temp>0.00</temp>
<bpm>0</bpm>
<rpm>0.00</rpm>
</extensions>
</trkpt>
<trkpt lat="63.993804932" lon="-19.060665131">
<ele>586.781250</ele>
<time>2012-07-22T14:29:36Z</time>
<speed>1.520000</speed>
<extensions>
<speed>1.5</speed>
<temp>0.00</temp>
<bpm>0</bpm>
<rpm>0.00</rpm>
</extensions>
</trkpt>
<trkpt lat="63.993755341" lon="-19.060630798">
<ele>584.968750</ele>
<time>2012-07-22T14:29:41Z</time>
<speed>0.320000</speed>
<extensions>
<speed>0.3</speed>
<temp>0.00</temp>
<bpm>0</bpm>
<rpm>0.00</rpm>
</extensions>
</trkpt>
<trkpt lat="63.993709564" lon="-19.060659409">
<ele>583.328125</ele>
<time>2012-07-22T14:29:46Z</time>
<speed>1.130000</speed>
<extensions>
<speed>1.1</speed>
<temp>0.00</temp>
<bpm>0</bpm>
<rpm>0.00</rpm>
</extensions>
</trkpt>
<trkpt lat="63.993686676" lon="-19.060668945">
<ele>583.546875</ele>
<time>2012-07-22T14:29:51Z</time>
<speed>0.810000</speed>
<extensions>
<speed>0.8</speed>
<temp>0.00</temp>
<bpm>0</bpm>
<rpm>0.00</rpm>
</extensions>
</trkpt>
<trkpt lat="63.993618011" lon="-19.060701370">
<ele>584.750000</ele>
<time>2012-07-22T14:29:56Z</time>
<speed>1.940000</speed>
<extensions>
<speed>1.9</speed>
<temp>0.00</temp>
<bpm>0</bpm>
<rpm>0.00</rpm>
</extensions>
</trkpt>
<trkpt lat="63.993530273" lon="-19.060777664">
<ele>585.406250</ele>
<time>2012-07-22T14:30:01Z</time>
<speed>2.080000</speed>
<extensions>
<speed>2.1</speed>
<temp>0.00</temp>
<bpm>0</bpm>
<rpm>0.00</rpm>
</extensions>
</trkpt>
<trkpt lat="63.993480682" lon="-19.060794830">
<ele>585.453125</ele>
<time>2012-07-22T14:30:06Z</time>
<speed>0.180000</speed>
<extensions>
<speed>0.2</speed>
<temp>0.00</temp>
<bpm>0</bpm>
<rpm>0.00</rpm>
</extensions>
</trkpt>
<trkpt lat="63.993457794" lon="-19.060760498">
<ele>585.750000</ele>
<time>2012-07-22T14:30:11Z</time>
<speed>1.180000</speed>
<extensions>
<speed>1.2</speed>
<temp>0.00</temp>
<bpm>0</bpm>
<rpm>0.00</rpm>
</extensions>
</trkpt>
<trkpt lat="63.993423462" lon="-19.060651779">
<ele>585.859375</ele>
<time>2012-07-22T14:30:16Z</time>
<speed>1.300000</speed>
<extensions>
<speed>1.3</speed>
<temp>0.00</temp>
<bpm>0</bpm>
<rpm>0.00</rpm>
</extensions>
</trkpt>
<trkpt lat="63.993381500" lon="-19.060598373">
<ele>585.156250</ele>
<time>2012-07-22T14:30:21Z</time>
<speed>1.290000</speed>
<extensions>
<speed>1.3</speed>
<temp>0.00</temp>
<bpm>0</bpm>
<rpm>0.00</rpm>
</extensions>
</trkpt>
<trkpt lat="63.993347168" lon="-19.060539246">
<ele>585.453125</ele>
<time>2012-07-22T14:30:26Z</time>
<speed>1.110000</speed>
<extensions>
<speed>1.1</speed>
<temp>0.00</temp>
<bpm>0</bpm>
<rpm>0.00</rpm>
</extensions>
</trkpt>
<trkpt lat="63.993312836" lon="-19.060503006">
<ele>586.156250</ele>
<time>2012-07-22T14:30:31Z</time>
<speed>1.020000</speed>
<extensions>
<speed>1.0</speed>
<temp>0.00</temp>
<bpm>0</bpm>
<rpm>0.00</rpm>
</extensions>
</trkpt>
<trkpt lat="63.993286133" lon="-19.060470581">
<ele>586.625000</ele>
<time>2012-07-22T14:30:36Z</time>
<speed>0.620000</speed>
<extensions>
<speed>0.6</speed>
<temp>0.00</temp>
<bpm>0</bpm>
<rpm>0.00</rpm>
</extensions>
</trkpt>
<trkpt lat="63.993236542" lon="-19.060419083">
<ele>587.328125</ele>
<time>2012-07-22T14:30:41Z</time>
<speed>0.650000</speed>
<extensions>
<speed>0.6</speed>
<temp>0.00</temp>
<bpm>0</bpm>
<rpm>0.00</rpm>
</extensions>
</trkpt>
<trkpt lat="63.993232727" lon="-19.060398102">
<ele>586.937500</ele>
<time>2012-07-22T14:30:46Z</time>
<speed>0.070000</speed>
<extensions>
<speed>0.1</speed>
<temp>0.00</temp>
<bpm>0</bpm>
<rpm>0.00</rpm>
</extensions>
</trkpt>
<trkpt lat="63.993194580" lon="-19.060302734">
<ele>586.875000</ele>
<time>2012-07-22T14:30:51Z</time>
<speed>2.730000</speed>
<extensions>
<speed>2.7</speed>
<temp>0.00</temp>
<bpm>0</bpm>
<rpm>0.00</rpm>
</extensions>
</trkpt>
<trkpt lat="63.993057251" lon="-19.060121536">
<ele>587.156250</ele>
<time>2012-07-22T14:30:56Z</time>
<speed>3.550000</speed>
<extensions>
<speed>3.5</speed>
<temp>0.00</temp>
<bpm>0</bpm>
<rpm>0.00</rpm>
</extensions>
</trkpt>
<trkpt lat="63.992885590" lon="-19.059957504">
<ele>587.046875</ele>
<time>2012-07-22T14:31:01Z</time>
<speed>4.360000</speed>
<extensions>
<speed>4.4</speed>
<temp>0.00</temp>
<bpm>0</bpm>
<rpm>0.00</rpm>
</extensions>
</trkpt>
<trkpt lat="63.992706299" lon="-19.059772491">
<ele>587.453125</ele>
<time>2012-07-22T14:31:06Z</time>
<speed>3.800000</speed>
<extensions>
<speed>3.8</speed>
<temp>0.00</temp>
<bpm>0</bpm>
<rpm>0.00</rpm>
</extensions>
</trkpt>
<trkpt lat="63.992553711" lon="-19.059637070">
<ele>587.421875</ele>
<time>2012-07-22T14:31:11Z</time>
<speed>3.260000</speed>
<extensions>
<speed>3.3</speed>
<temp>0.00</temp>
<bpm>0</bpm>
<rpm>0.00</rpm>
</extensions>
</trkpt>
<trkpt lat="63.992420197" lon="-19.059539795">
<ele>588.812500</ele>
<time>2012-07-22T14:31:16Z</time>
<speed>3.340000</speed>
<extensions>
<speed>3.3</speed>
<temp>0.00</temp>
<bpm>0</bpm>
<rpm>0.00</rpm>
</extensions>
</trkpt>
<trkpt lat="63.992282867" lon="-19.059450150">
<ele>590.609375</ele>
<time>2012-07-22T14:31:21Z</time>
<speed>3.790000</speed>
<extensions>
<speed>3.8</speed>
<temp>0.00</temp>
<bpm>0</bpm>
<rpm>0.00</rpm>
</extensions>
</trkpt>
<trkpt lat="63.992111206" lon="-19.059297562">
<ele>590.218750</ele>
<time>2012-07-22T14:31:26Z</time>
<speed>3.400000</speed>
<extensions>
<speed>3.4</speed>
<temp>0.00</temp>
<bpm>0</bpm>
<rpm>0.00</rpm>
</extensions>
</trkpt>
<trkpt lat="63.991970062" lon="-19.059253693">
<ele>590.046875</ele>
<time>2012-07-22T14:31:31Z</time>
<speed>3.610000</speed>
<extensions>
<speed>3.6</speed>
<temp>0.00</temp>
<bpm>0</bpm>
<rpm>0.00</rpm>
</extensions>
</trkpt>
<trkpt lat="63.991802216" lon="-19.059350967">
<ele>589.671875</ele>
<time>2012-07-22T14:31:36Z</time>
<speed>3.920000</speed>
<extensions>
<speed>3.9</speed>
<temp>0.00</temp>
<bpm>0</bpm>
<rpm>0.00</rpm>
</extensions>
</trkpt>
<trkpt lat="63.991645813" lon="-19.059524536">
<ele>589.453125</ele>
<time>2012-07-22T14:31:41Z</time>
<speed>3.950000</speed>
<extensions>
<speed>4.0</speed>
<temp>0.00</temp>
<bpm>0</bpm>
<rpm>0.00</rpm>
</extensions>
</trkpt>
<trkpt lat="63.991493225" lon="-19.059745789">
<ele>589.984375</ele>
<time>2012-07-22T14:31:46Z</time>
<speed>4.100000</speed>
<extensions>
<speed>4.1</speed>
<temp>0.00</temp>
<bpm>0</bpm>
<rpm>0.00</rpm>
</extensions>
</trkpt>
<trkpt lat="63.991336823" lon="-19.059942245">
<ele>590.015625</ele>
<time>2012-07-22T14:31:51Z</time>
<speed>3.680000</speed>
<extensions>
<speed>3.7</speed>
<temp>0.00</temp>
<bpm>0</bpm>
<rpm>0.00</rpm>
</extensions>
</trkpt>
<trkpt lat="63.991191864" lon="-19.060125351">
<ele>589.687500</ele>
<time>2012-07-22T14:31:56Z</time>
<speed>3.800000</speed>
<extensions>
<speed>3.8</speed>
<temp>0.00</temp>
<bpm>0</bpm>
<rpm>0.00</rpm>
</extensions>
</trkpt>
<trkpt lat="63.991054535" lon="-19.060276031">
<ele>589.093750</ele>
<time>2012-07-22T14:32:01Z</time>
<speed>3.070000</speed>
<extensions>
<speed>3.1</speed>
<temp>0.00</temp>
<bpm>0</bpm>
<rpm>0.00</rpm>
</extensions>
</trkpt>
<trkpt lat="63.990932465" lon="-19.060480118">
<ele>589.343750</ele>
<time>2012-07-22T14:32:06Z</time>
<speed>3.360000</speed>
<extensions>
<speed>3.4</speed>
<temp>0.00</temp>
<bpm>0</bpm>
<rpm>0.00</rpm>
</extensions>
</trkpt>
<trkpt lat="63.990806580" lon="-19.060411453">
<ele>590.593750</ele>
<time>2012-07-22T14:32:11Z</time>
<speed>3.290000</speed>
<extensions>
<speed>3.3</speed>
<temp>0.00</temp>
<bpm>0</bpm>
<rpm>0.00</rpm>
</extensions>
</trkpt>
<trkpt lat="63.990749359" lon="-19.060108185">
<ele>590.328125</ele>
<time>2012-07-22T14:32:16Z</time>
<speed>3.280000</speed>
<extensions>
<speed>3.3</speed>
<temp>0.00</temp>
<bpm>0</bpm>
<rpm>0.00</rpm>
</extensions>
</trkpt>
<trkpt lat="63.990650177" lon="-19.059894562">
<ele>590.546875</ele>
<time>2012-07-22T14:32:21Z</time>
<speed>2.680000</speed>
<extensions>
<speed>2.7</speed>
<temp>0.00</temp>
<bpm>0</bpm>
<rpm>0.00</rpm>
</extensions>
</trkpt>
<trkpt lat="63.990547180" lon="-19.060003281">
<ele>590.828125</ele>
<time>2012-07-22T14:32:26Z</time>
<speed>2.910000</speed>
<extensions>
<speed>2.9</speed>
<temp>0.00</temp>
<bpm>0</bpm>
<rpm>0.00</rpm>
</extensions>
</trkpt>
<trkpt lat="63.990459442" lon="-19.060209274">
<ele>590.937500</ele>
<time>2012-07-22T14:32:31Z</time>
<speed>2.550000</speed>
<extensions>
<speed>2.6</speed>
<temp>0.00</temp>
<bpm>0</bpm>
<rpm>0.00</rpm>
</extensions>
</trkpt>
<trkpt lat="63.990421295" lon="-19.060384750">
<ele>591.265625</ele>
<time>2012-07-22T14:32:36Z</time>
<speed>1.580000</speed>
<extensions>
<speed>1.6</speed>
<temp>0.00</temp>
<bpm>0</bpm>
<rpm>0.00</rpm>
</extensions>
</trkpt>
<trkpt lat="63.990375519" lon="-19.060422897">
<ele>591.562500</ele>
<time>2012-07-22T14:32:41Z</time>
<speed>0.260000</speed>
<extensions>
<speed>0.3</speed>
<temp>0.00</temp>
<bpm>0</bpm>
<rpm>0.00</rpm>
</extensions>
</trkpt>
<trkpt lat="63.990371704" lon="-19.060441971">
<ele>591.718750</ele>
<time>2012-07-22T14:32:46Z</time>
<speed>0.130000</speed>
<extensions>
<speed>0.1</speed>
<temp>0.00</temp>
<bpm>0</bpm>
<rpm>0.00</rpm>
</extensions>
</trkpt>
<trkpt lat="63.990364075" lon="-19.060438156">
<ele>591.765625</ele>
<time>2012-07-22T14:32:51Z</time>
<speed>0.070000</speed>
<extensions>
<speed>0.1</speed>
<temp>0.00</temp>
<bpm>0</bpm>
<rpm>0.00</rpm>
</extensions>
</trkpt>
<trkpt lat="63.990360260" lon="-19.060441971">
<ele>591.781250</ele>
<time>2012-07-22T14:32:56Z</time>
<speed>0.100000</speed>
<extensions>
<speed>0.1</speed>
<temp>0.00</temp>
<bpm>0</bpm>
<rpm>0.00</rpm>
</extensions>
</trkpt>
<trkpt lat="63.990360260" lon="-19.060438156">
<ele>591.796875</ele>
<time>2012-07-22T14:33:01Z</time>
<speed>0.050000</speed>
<extensions>
<speed>0.1</speed>
<temp>0.00</temp>
<bpm>0</bpm>
<rpm>0.00</rpm>
</extensions>
</trkpt>
<trkpt lat="63.990356445" lon="-19.060440063">
<ele>591.796875</ele>
<time>2012-07-22T14:33:06Z</time>
<speed>0.060000</speed>
<extensions>
<speed>0.1</speed>
<temp>0.00</temp>
<bpm>0</bpm>
<rpm>0.00</rpm>
</extensions>
</trkpt>
<trkpt lat="63.990352631" lon="-19.060441971">
<ele>591.812500</ele>
<time>2012-07-22T14:33:11Z</time>
<speed>0.010000</speed>
<extensions>
<speed>0.0</speed>
<temp>0.00</temp>
<bpm>0</bpm>
<rpm>0.00</rpm>
</extensions>
</trkpt>
<trkpt lat="63.990352631" lon="-19.060441971">
<ele>591.828125</ele>
<time>2012-07-22T14:33:16Z</time>
<speed>0.040000</speed>
<extensions>
<speed>0.0</speed>
<temp>0.00</temp>
<bpm>0</bpm>
<rpm>0.00</rpm>
</extensions>
</trkpt>
<trkpt lat="63.990348816" lon="-19.060445786">
<ele>591.843750</ele>
<time>2012-07-22T14:33:21Z</time>
<speed>0.150000</speed>
<extensions>
<speed>0.2</speed>
<temp>0.00</temp>
<bpm>0</bpm>
<rpm>0.00</rpm>
</extensions>
</trkpt>
<trkpt lat="63.990348816" lon="-19.060445786">
<ele>591.875000</ele>
<time>2012-07-22T14:33:26Z</time>
<speed>0.010000</speed>
<extensions>
<speed>0.0</speed>
<temp>0.00</temp>
<bpm>0</bpm>
<rpm>0.00</rpm>
</extensions>
</trkpt>
<trkpt lat="63.990345001" lon="-19.060449600">
<ele>591.875000</ele>
<time>2012-07-22T14:33:31Z</time>
<speed>0.090000</speed>
<extensions>
<speed>0.1</speed>
<temp>0.00</temp>
<bpm>0</bpm>
<rpm>0.00</rpm>
</extensions>
</trkpt>
<trkpt lat="63.990341187" lon="-19.060455322">
<ele>591.890625</ele>
<time>2012-07-22T14:33:36Z</time>
<speed>0.080000</speed>
<extensions>
<speed>0.1</speed>
<temp>0.00</temp>
<bpm>0</bpm>
<rpm>0.00</rpm>
</extensions>
</trkpt>
<trkpt lat="63.990337372" lon="-19.060455322">
<ele>591.906250</ele>
<time>2012-07-22T14:33:41Z</time>
<speed>0.060000</speed>
<extensions>
<speed>0.1</speed>
<temp>0.00</temp>
<bpm>0</bpm>
<rpm>0.00</rpm>
</extensions>
</trkpt>
<trkpt lat="63.990333557" lon="-19.060461044">
<ele>591.921875</ele>
<time>2012-07-22T14:33:46Z</time>
<speed>0.040000</speed>
<extensions>
<speed>0.0</speed>
<temp>0.00</temp>
<bpm>0</bpm>
<rpm>0.00</rpm>
</extensions>
</trkpt>
<trkpt lat="63.990333557" lon="-19.060459137">
<ele>591.953125</ele>
<time>2012-07-22T14:33:51Z</time>
<speed>0.050000</speed>
<extensions>
<speed>0.1</speed>
<temp>0.00</temp>
<bpm>0</bpm>
<rpm>0.00</rpm>
</extensions>
</trkpt>
<trkpt lat="63.990333557" lon="-19.060461044">
<ele>592.000000</ele>
<time>2012-07-22T14:33:56Z</time>
<speed>0.050000</speed>
<extensions>
<speed>0.1</speed>
<temp>0.00</temp>
<bpm>0</bpm>
<rpm>0.00</rpm>
</extensions>
</trkpt>
<trkpt lat="63.990333557" lon="-19.060457230">
<ele>592.031250</ele>
<time>2012-07-22T14:34:01Z</time>
<speed>0.040000</speed>
<extensions>
<speed>0.0</speed>
<temp>0.00</temp>
<bpm>0</bpm>
<rpm>0.00</rpm>
</extensions>
</trkpt>
<trkpt lat="63.990337372" lon="-19.060457230">
<ele>592.046875</ele>
<time>2012-07-22T14:34:06Z</time>
<speed>0.040000</speed>
<extensions>
<speed>0.0</speed>
<temp>0.00</temp>
<bpm>0</bpm>
<rpm>0.00</rpm>
</extensions>
</trkpt>
<trkpt lat="63.990337372" lon="-19.060459137">
<ele>592.078125</ele>
<time>2012-07-22T14:34:11Z</time>
<speed>0.080000</speed>
<extensions>
<speed>0.1</speed>
<temp>0.00</temp>
<bpm>0</bpm>
<rpm>0.00</rpm>
</extensions>
</trkpt>
<trkpt lat="63.990337372" lon="-19.060461044">
<ele>592.109375</ele>
<time>2012-07-22T14:34:16Z</time>
<speed>0.050000</speed>
<extensions>
<speed>0.1</speed>
<temp>0.00</temp>
<bpm>0</bpm>
<rpm>0.00</rpm>
</extensions>
</trkpt>
<trkpt lat="63.990333557" lon="-19.060461044">
<ele>592.140625</ele>
<time>2012-07-22T14:34:21Z</time>
<speed>0.080000</speed>
<extensions>
<speed>0.1</speed>
<temp>0.00</temp>
<bpm>0</bpm>
<rpm>0.00</rpm>
</extensions>
</trkpt>
<trkpt lat="63.990333557" lon="-19.060464859">
<ele>592.171875</ele>
<time>2012-07-22T14:34:26Z</time>
<speed>0.160000</speed>
<extensions>
<speed>0.2</speed>
<temp>0.00</temp>
<bpm>0</bpm>
<rpm>0.00</rpm>
</extensions>
</trkpt>
<trkpt lat="63.990333557" lon="-19.060474396">
<ele>592.187500</ele>
<time>2012-07-22T14:34:31Z</time>
<speed>0.020000</speed>
<extensions>
<speed>0.0</speed>
<temp>0.00</temp>
<bpm>0</bpm>
<rpm>0.00</rpm>
</extensions>
</trkpt>
<trkpt lat="63.990333557" lon="-19.060474396">
<ele>592.203125</ele>
<time>2012-07-22T14:34:36Z</time>
<speed>0.010000</speed>
<extensions>
<speed>0.0</speed>
<temp>0.00</temp>
<bpm>0</bpm>
<rpm>0.00</rpm>
</extensions>
</trkpt>
<trkpt lat="63.990333557" lon="-19.060474396">
<ele>592.234375</ele>
<time>2012-07-22T14:34:41Z</time>
<speed>0.040000</speed>
<extensions>
<speed>0.0</speed>
<temp>0.00</temp>
<bpm>0</bpm>
<rpm>0.00</rpm>
</extensions>
</trkpt>
<trkpt lat="63.990329742" lon="-19.060474396">
<ele>592.250000</ele>
<time>2012-07-22T14:34:46Z</time>
<speed>0.170000</speed>
<extensions>
<speed>0.2</speed>
<temp>0.00</temp>
<bpm>0</bpm>
<rpm>0.00</rpm>
</extensions>
</trkpt>
<trkpt lat="63.990329742" lon="-19.060476303">
<ele>592.265625</ele>
<time>2012-07-22T14:34:51Z</time>
<speed>0.060000</speed>
<extensions>
<speed>0.1</speed>
<temp>0.00</temp>
<bpm>0</bpm>
<rpm>0.00</rpm>
</extensions>
</trkpt>
<trkpt lat="63.990329742" lon="-19.060478210">
<ele>592.296875</ele>
<time>2012-07-22T14:34:56Z</time>
<speed>0.010000</speed>
<extensions>
<speed>0.0</speed>
<temp>0.00</temp>
<bpm>0</bpm>
<rpm>0.00</rpm>
</extensions>
</trkpt>
<trkpt lat="63.990325928" lon="-19.060480118">
<ele>592.328125</ele>
<time>2012-07-22T14:35:01Z</time>
<speed>0.020000</speed>
<extensions>
<speed>0.0</speed>
<temp>0.00</temp>
<bpm>0</bpm>
<rpm>0.00</rpm>
</extensions>
</trkpt>
<trkpt lat="63.990322113" lon="-19.060474396">
<ele>592.343750</ele>
<time>2012-07-22T14:35:06Z</time>
<speed>0.120000</speed>
<extensions>
<speed>0.1</speed>
<temp>0.00</temp>
<bpm>0</bpm>
<rpm>0.00</rpm>
</extensions>
</trkpt>
<trkpt lat="63.990322113" lon="-19.060468674">
<ele>592.343750</ele>
<time>2012-07-22T14:35:11Z</time>
<speed>0.030000</speed>
<extensions>
<speed>0.0</speed>
<temp>0.00</temp>
<bpm>0</bpm>
<rpm>0.00</rpm>
</extensions>
</trkpt>
<trkpt lat="63.990318298" lon="-19.060476303">
<ele>592.343750</ele>
<time>2012-07-22T14:35:16Z</time>
<speed>0.140000</speed>
<extensions>
<speed>0.1</speed>
<temp>0.00</temp>
<bpm>0</bpm>
<rpm>0.00</rpm>
</extensions>
</trkpt>
<trkpt lat="63.990318298" lon="-19.060483932">
<ele>592.375000</ele>
<time>2012-07-22T14:35:21Z</time>
<speed>0.080000</speed>
<extensions>
<speed>0.1</speed>
<temp>0.00</temp>
<bpm>0</bpm>
<rpm>0.00</rpm>
</extensions>
</trkpt>
<trkpt lat="63.990322113" lon="-19.060480118">
<ele>592.406250</ele>
<time>2012-07-22T14:35:26Z</time>
<speed>0.030000</speed>
<extensions>
<speed>0.0</speed>
<temp>0.00</temp>
<bpm>0</bpm>
<rpm>0.00</rpm>
</extensions>
</trkpt>
<trkpt lat="63.990322113" lon="-19.060478210">
<ele>592.421875</ele>
<time>2012-07-22T14:35:31Z</time>
<speed>0.020000</speed>
<extensions>
<speed>0.0</speed>
<temp>0.00</temp>
<bpm>0</bpm>
<rpm>0.00</rpm>
</extensions>
</trkpt>
<trkpt lat="63.990322113" lon="-19.060478210">
<ele>592.421875</ele>
<time>2012-07-22T14:35:36Z</time>
<speed>0.020000</speed>
<extensions>
<speed>0.0</speed>
<temp>0.00</temp>
<bpm>0</bpm>
<rpm>0.00</rpm>
</extensions>
</trkpt>
<trkpt lat="63.990322113" lon="-19.060474396">
<ele>592.421875</ele>
<time>2012-07-22T14:35:41Z</time>
<speed>0.010000</speed>
<extensions>
<speed>0.0</speed>
<temp>0.00</temp>
<bpm>0</bpm>
<rpm>0.00</rpm>
</extensions>
</trkpt>
<trkpt lat="63.990322113" lon="-19.060478210">
<ele>592.468750</ele>
<time>2012-07-22T14:35:46Z</time>
<speed>0.090000</speed>
<extensions>
<speed>0.1</speed>
<temp>0.00</temp>
<bpm>0</bpm>
<rpm>0.00</rpm>
</extensions>
</trkpt>
<trkpt lat="63.990322113" lon="-19.060482025">
<ele>592.515625</ele>
<time>2012-07-22T14:35:51Z</time>
<speed>0.040000</speed>
<extensions>
<speed>0.0</speed>
<temp>0.00</temp>
<bpm>0</bpm>
<rpm>0.00</rpm>
</extensions>
</trkpt>
<trkpt lat="63.990322113" lon="-19.060480118">
<ele>592.515625</ele>
<time>2012-07-22T14:35:56Z</time>
<speed>0.010000</speed>
<extensions>
<speed>0.0</speed>
<temp>0.00</temp>
<bpm>0</bpm>
<rpm>0.00</rpm>
</extensions>
</trkpt>
<trkpt lat="63.990322113" lon="-19.060480118">
<ele>592.546875</ele>
<time>2012-07-22T14:36:01Z</time>
<speed>0.010000</speed>
<extensions>
<speed>0.0</speed>
<temp>0.00</temp>
<bpm>0</bpm>
<rpm>0.00</rpm>
</extensions>
</trkpt>
<trkpt lat="63.990325928" lon="-19.060478210">
<ele>592.640625</ele>
<time>2012-07-22T14:36:06Z</time>
<speed>0.020000</speed>
<extensions>
<speed>0.0</speed>
<temp>0.00</temp>
<bpm>0</bpm>
<rpm>0.00</rpm>
</extensions>
</trkpt>
<trkpt lat="63.990325928" lon="-19.060478210">
<ele>592.843750</ele>
<time>2012-07-22T14:36:11Z</time>
<speed>0.010000</speed>
<extensions>
<speed>0.0</speed>
<temp>0.00</temp>
<bpm>0</bpm>
<rpm>0.00</rpm>
</extensions>
</trkpt>
<trkpt lat="63.990325928" lon="-19.060478210">
<ele>592.875000</ele>
<time>2012-07-22T14:36:16Z</time>
<extensions>
<speed>0.0</speed>
<temp>0.00</temp>
<bpm>0</bpm>
<rpm>0.00</rpm>
</extensions>
</trkpt>
<trkpt lat="63.990325928" lon="-19.060476303">
<ele>592.890625</ele>
<time>2012-07-22T14:36:21Z</time>
<extensions>
<speed>0.0</speed>
<temp>0.00</temp>
<bpm>0</bpm>
<rpm>0.00</rpm>
</extensions>
</trkpt>
<trkpt lat="63.990325928" lon="-19.060476303">
<ele>592.937500</ele>
<time>2012-07-22T14:36:26Z</time>
<extensions>
<speed>0.0</speed>
<temp>0.00</temp>
<bpm>0</bpm>
<rpm>0.00</rpm>
</extensions>
</trkpt>
<trkpt lat="63.990325928" lon="-19.060476303">
<ele>593.031250</ele>
<time>2012-07-22T14:36:31Z</time>
<speed>0.010000</speed>
<extensions>
<speed>0.0</speed>
<temp>0.00</temp>
<bpm>0</bpm>
<rpm>0.00</rpm>
</extensions>
</trkpt>
<trkpt lat="63.990325928" lon="-19.060476303">
<ele>593.078125</ele>
<time>2012-07-22T14:36:36Z</time>
<speed>0.010000</speed>
<extensions>
<speed>0.0</speed>
<temp>0.00</temp>
<bpm>0</bpm>
<rpm>0.00</rpm>
</extensions>
</trkpt>
<trkpt lat="63.990329742" lon="-19.060476303">
<ele>593.125000</ele>
<time>2012-07-22T14:36:41Z</time>
<speed>0.020000</speed>
<extensions>
<speed>0.0</speed>
<temp>0.00</temp>
<bpm>0</bpm>
<rpm>0.00</rpm>
</extensions>
</trkpt>
<trkpt lat="63.990329742" lon="-19.060474396">
<ele>593.156250</ele>
<time>2012-07-22T14:36:46Z</time>
<extensions>
<speed>0.0</speed>
<temp>0.00</temp>
<bpm>0</bpm>
<rpm>0.00</rpm>
</extensions>
</trkpt>
<trkpt lat="63.990329742" lon="-19.060474396">
<ele>593.203125</ele>
<time>2012-07-22T14:36:51Z</time>
<speed>0.010000</speed>
<extensions>
<speed>0.0</speed>
<temp>0.00</temp>
<bpm>0</bpm>
<rpm>0.00</rpm>
</extensions>
</trkpt>
<trkpt lat="63.990329742" lon="-19.060474396">
<ele>593.250000</ele>
<time>2012-07-22T14:36:56Z</time>
<speed>0.010000</speed>
<extensions>
<speed>0.0</speed>
<temp>0.00</temp>
<bpm>0</bpm>
<rpm>0.00</rpm>
</extensions>
</trkpt>
<trkpt lat="63.990329742" lon="-19.060474396">
<ele>593.281250</ele>
<time>2012-07-22T14:37:01Z</time>
<extensions>
<speed>0.0</speed>
<temp>0.00</temp>
<bpm>0</bpm>
<rpm>0.00</rpm>
</extensions>
</trkpt>
<trkpt lat="63.990329742" lon="-19.060474396">
<ele>593.312500</ele>
<time>2012-07-22T14:37:06Z</time>
<extensions>
<speed>0.0</speed>
<temp>0.00</temp>
<bpm>0</bpm>
<rpm>0.00</rpm>
</extensions>
</trkpt>
<trkpt lat="63.990329742" lon="-19.060472488">
<ele>593.328125</ele>
<time>2012-07-22T14:37:11Z</time>
<extensions>
<speed>0.0</speed>
<temp>0.00</temp>
<bpm>0</bpm>
<rpm>0.00</rpm>
</extensions>
</trkpt>
<trkpt lat="63.990329742" lon="-19.060472488">
<ele>593.359375</ele>
<time>2012-07-22T14:37:16Z</time>
<extensions>
<speed>0.0</speed>
<temp>0.00</temp>
<bpm>0</bpm>
<rpm>0.00</rpm>
</extensions>
</trkpt>
<trkpt lat="63.990329742" lon="-19.060472488">
<ele>593.375000</ele>
<time>2012-07-22T14:37:21Z</time>
<speed>0.020000</speed>
<extensions>
<speed>0.0</speed>
<temp>0.00</temp>
<bpm>0</bpm>
<rpm>0.00</rpm>
</extensions>
</trkpt>
<trkpt lat="63.990329742" lon="-19.060472488">
<ele>593.390625</ele>
<time>2012-07-22T14:37:26Z</time>
<extensions>
<speed>0.0</speed>
<temp>0.00</temp>
<bpm>0</bpm>
<rpm>0.00</rpm>
</extensions>
</trkpt>
<trkpt lat="63.990329742" lon="-19.060472488">
<ele>593.375000</ele>
<time>2012-07-22T14:37:31Z</time>
<speed>0.010000</speed>
<extensions>
<speed>0.0</speed>
<temp>0.00</temp>
<bpm>0</bpm>
<rpm>0.00</rpm>
</extensions>
</trkpt>
<trkpt lat="63.990329742" lon="-19.060472488">
<ele>593.359375</ele>
<time>2012-07-22T14:37:36Z</time>
<extensions>
<speed>0.0</speed>
<temp>0.00</temp>
<bpm>0</bpm>
<rpm>0.00</rpm>
</extensions>
</trkpt>
<trkpt lat="63.990329742" lon="-19.060470581">
<ele>593.375000</ele>
<time>2012-07-22T14:37:41Z</time>
<speed>0.010000</speed>
<extensions>
<speed>0.0</speed>
<temp>0.00</temp>
<bpm>0</bpm>
<rpm>0.00</rpm>
</extensions>
</trkpt>
<trkpt lat="63.990329742" lon="-19.060470581">
<ele>593.343750</ele>
<time>2012-07-22T14:37:46Z</time>
<extensions>
<speed>0.0</speed>
<temp>0.00</temp>
<bpm>0</bpm>
<rpm>0.00</rpm>
</extensions>
</trkpt>
<trkpt lat="63.990329742" lon="-19.060470581">
<ele>593.328125</ele>
<time>2012-07-22T14:37:51Z</time>
<extensions>
<speed>0.0</speed>
<temp>0.00</temp>
<bpm>0</bpm>
<rpm>0.00</rpm>
</extensions>
</trkpt>
<trkpt lat="63.990329742" lon="-19.060470581">
<ele>593.328125</ele>
<time>2012-07-22T14:37:56Z</time>
<extensions>
<speed>0.0</speed>
<temp>0.00</temp>
<bpm>0</bpm>
<rpm>0.00</rpm>
</extensions>
</trkpt>
<trkpt lat="63.990329742" lon="-19.060470581">
<ele>593.328125</ele>
<time>2012-07-22T14:38:01Z</time>
<speed>0.010000</speed>
<extensions>
<speed>0.0</speed>
<temp>0.00</temp>
<bpm>0</bpm>
<rpm>0.00</rpm>
</extensions>
</trkpt>
<trkpt lat="63.990329742" lon="-19.060470581">
<ele>593.359375</ele>
<time>2012-07-22T14:38:06Z</time>
<speed>0.010000</speed>
<extensions>
<speed>0.0</speed>
<temp>0.00</temp>
<bpm>0</bpm>
<rpm>0.00</rpm>
</extensions>
</trkpt>
<trkpt lat="63.990333557" lon="-19.060470581">
<ele>593.375000</ele>
<time>2012-07-22T14:38:11Z</time>
<extensions>
<speed>0.0</speed>
<temp>0.00</temp>
<bpm>0</bpm>
<rpm>0.00</rpm>
</extensions>
</trkpt>
<trkpt lat="63.990333557" lon="-19.060470581">
<ele>593.390625</ele>
<time>2012-07-22T14:38:16Z</time>
<extensions>
<speed>0.0</speed>
<temp>0.00</temp>
<bpm>0</bpm>
<rpm>0.00</rpm>
</extensions>
</trkpt>
<trkpt lat="63.990333557" lon="-19.060468674">
<ele>593.406250</ele>
<time>2012-07-22T14:38:21Z</time>
<extensions>
<speed>0.0</speed>
<temp>0.00</temp>
<bpm>0</bpm>
<rpm>0.00</rpm>
</extensions>
</trkpt>
<trkpt lat="63.990333557" lon="-19.060468674">
<ele>593.421875</ele>
<time>2012-07-22T14:38:26Z</time>
<speed>0.010000</speed>
<extensions>
<speed>0.0</speed>
<temp>0.00</temp>
<bpm>0</bpm>
<rpm>0.00</rpm>
</extensions>
</trkpt>
<trkpt lat="63.990333557" lon="-19.060468674">
<ele>593.437500</ele>
<time>2012-07-22T14:38:31Z</time>
<extensions>
<speed>0.0</speed>
<temp>0.00</temp>
<bpm>0</bpm>
<rpm>0.00</rpm>
</extensions>
</trkpt>
<trkpt lat="63.990333557" lon="-19.060468674">
<ele>593.421875</ele>
<time>2012-07-22T14:38:36Z</time>
<extensions>
<speed>0.0</speed>
<temp>0.00</temp>
<bpm>0</bpm>
<rpm>0.00</rpm>
</extensions>
</trkpt>
<trkpt lat="63.990333557" lon="-19.060468674">
<ele>593.453125</ele>
<time>2012-07-22T14:38:41Z</time>
<speed>0.010000</speed>
<extensions>
<speed>0.0</speed>
<temp>0.00</temp>
<bpm>0</bpm>
<rpm>0.00</rpm>
</extensions>
</trkpt>
<trkpt lat="63.990333557" lon="-19.060468674">
<ele>593.500000</ele>
<time>2012-07-22T14:38:46Z</time>
<speed>0.030000</speed>
<extensions>
<speed>0.0</speed>
<temp>0.00</temp>
<bpm>0</bpm>
<rpm>0.00</rpm>
</extensions>
</trkpt>
<trkpt lat="63.990333557" lon="-19.060468674">
<ele>593.531250</ele>
<time>2012-07-22T14:38:51Z</time>
<extensions>
<speed>0.0</speed>
<temp>0.00</temp>
<bpm>0</bpm>
<rpm>0.00</rpm>
</extensions>
</trkpt>
<trkpt lat="63.990333557" lon="-19.060468674">
<ele>593.546875</ele>
<time>2012-07-22T14:38:56Z</time>
<speed>0.010000</speed>
<extensions>
<speed>0.0</speed>
<temp>0.00</temp>
<bpm>0</bpm>
<rpm>0.00</rpm>
</extensions>
</trkpt>
<trkpt lat="63.990333557" lon="-19.060468674">
<ele>593.562500</ele>
<time>2012-07-22T14:39:01Z</time>
<extensions>
<speed>0.0</speed>
<temp>0.00</temp>
<bpm>0</bpm>
<rpm>0.00</rpm>
</extensions>
</trkpt>
<trkpt lat="63.990333557" lon="-19.060468674">
<ele>593.593750</ele>
<time>2012-07-22T14:39:06Z</time>
<extensions>
<speed>0.0</speed>
<temp>0.00</temp>
<bpm>0</bpm>
<rpm>0.00</rpm>
</extensions>
</trkpt>
<trkpt lat="63.990333557" lon="-19.060468674">
<ele>593.625000</ele>
<time>2012-07-22T14:39:11Z</time>
<extensions>
<speed>0.0</speed>
<temp>0.00</temp>
<bpm>0</bpm>
<rpm>0.00</rpm>
</extensions>
</trkpt>
<trkpt lat="63.990333557" lon="-19.060468674">
<ele>593.625000</ele>
<time>2012-07-22T14:39:16Z</time>
<extensions>
<speed>0.0</speed>
<temp>0.00</temp>
<bpm>0</bpm>
<rpm>0.00</rpm>
</extensions>
</trkpt>
<trkpt lat="63.990333557" lon="-19.060468674">
<ele>593.656250</ele>
<time>2012-07-22T14:39:21Z</time>
<extensions>
<speed>0.0</speed>
<temp>0.00</temp>
<bpm>0</bpm>
<rpm>0.00</rpm>
</extensions>
</trkpt>
<trkpt lat="63.990333557" lon="-19.060466766">
<ele>593.671875</ele>
<time>2012-07-22T14:39:26Z</time>
<extensions>
<speed>0.0</speed>
<temp>0.00</temp>
<bpm>0</bpm>
<rpm>0.00</rpm>
</extensions>
</trkpt>
<trkpt lat="63.990333557" lon="-19.060466766">
<ele>593.656250</ele>
<time>2012-07-22T14:39:31Z</time>
<extensions>
<speed>0.0</speed>
<temp>0.00</temp>
<bpm>0</bpm>
<rpm>0.00</rpm>
</extensions>
</trkpt>
<trkpt lat="63.990333557" lon="-19.060466766">
<ele>593.640625</ele>
<time>2012-07-22T14:39:36Z</time>
<speed>0.010000</speed>
<extensions>
<speed>0.0</speed>
<temp>0.00</temp>
<bpm>0</bpm>
<rpm>0.00</rpm>
</extensions>
</trkpt>
<trkpt lat="63.990337372" lon="-19.060466766">
<ele>593.656250</ele>
<time>2012-07-22T14:39:41Z</time>
<speed>0.010000</speed>
<extensions>
<speed>0.0</speed>
<temp>0.00</temp>
<bpm>0</bpm>
<rpm>0.00</rpm>
</extensions>
</trkpt>
<trkpt lat="63.990337372" lon="-19.060466766">
<ele>593.656250</ele>
<time>2012-07-22T14:39:46Z</time>
<speed>0.010000</speed>
<extensions>
<speed>0.0</speed>
<temp>0.00</temp>
<bpm>0</bpm>
<rpm>0.00</rpm>
</extensions>
</trkpt>
<trkpt lat="63.990337372" lon="-19.060466766">
<ele>593.640625</ele>
<time>2012-07-22T14:39:51Z</time>
<extensions>
<speed>0.0</speed>
<temp>0.00</temp>
<bpm>0</bpm>
<rpm>0.00</rpm>
</extensions>
</trkpt>
<trkpt lat="63.990337372" lon="-19.060466766">
<ele>593.640625</ele>
<time>2012-07-22T14:39:56Z</time>
<extensions>
<speed>0.0</speed>
<temp>0.00</temp>
<bpm>0</bpm>
<rpm>0.00</rpm>
</extensions>
</trkpt>
<trkpt lat="63.990337372" lon="-19.060466766">
<ele>593.640625</ele>
<time>2012-07-22T14:40:01Z</time>
<speed>0.010000</speed>
<extensions>
<speed>0.0</speed>
<temp>0.00</temp>
<bpm>0</bpm>
<rpm>0.00</rpm>
</extensions>
</trkpt>
<trkpt lat="63.990337372" lon="-19.060466766">
<ele>593.640625</ele>
<time>2012-07-22T14:40:06Z</time>
<speed>0.010000</speed>
<extensions>
<speed>0.0</speed>
<temp>0.00</temp>
<bpm>0</bpm>
<rpm>0.00</rpm>
</extensions>
</trkpt>
<trkpt lat="63.990337372" lon="-19.060464859">
<ele>593.656250</ele>
<time>2012-07-22T14:40:11Z</time>
<speed>0.010000</speed>
<extensions>
<speed>0.0</speed>
<temp>0.00</temp>
<bpm>0</bpm>
<rpm>0.00</rpm>
</extensions>
</trkpt>
<trkpt lat="63.990337372" lon="-19.060464859">
<ele>593.656250</ele>
<time>2012-07-22T14:40:16Z</time>
<extensions>
<speed>0.0</speed>
<temp>0.00</temp>
<bpm>0</bpm>
<rpm>0.00</rpm>
</extensions>
</trkpt>
<trkpt lat="63.990337372" lon="-19.060464859">
<ele>593.687500</ele>
<time>2012-07-22T14:40:21Z</time>
<speed>0.010000</speed>
<extensions>
<speed>0.0</speed>
<temp>0.00</temp>
<bpm>0</bpm>
<rpm>0.00</rpm>
</extensions>
</trkpt>
<trkpt lat="63.990337372" lon="-19.060464859">
<ele>593.734375</ele>
<time>2012-07-22T14:40:26Z</time>
<speed>0.010000</speed>
<extensions>
<speed>0.0</speed>
<temp>0.00</temp>
<bpm>0</bpm>
<rpm>0.00</rpm>
</extensions>
</trkpt>
<trkpt lat="63.990337372" lon="-19.060464859">
<ele>593.765625</ele>
<time>2012-07-22T14:40:31Z</time>
<extensions>
<speed>0.0</speed>
<temp>0.00</temp>
<bpm>0</bpm>
<rpm>0.00</rpm>
</extensions>
</trkpt>
<trkpt lat="63.990337372" lon="-19.060464859">
<ele>593.781250</ele>
<time>2012-07-22T14:40:36Z</time>
<speed>0.010000</speed>
<extensions>
<speed>0.0</speed>
<temp>0.00</temp>
<bpm>0</bpm>
<rpm>0.00</rpm>
</extensions>
</trkpt>
<trkpt lat="63.990337372" lon="-19.060464859">
<ele>593.828125</ele>
<time>2012-07-22T14:40:41Z</time>
<speed>0.010000</speed>
<extensions>
<speed>0.0</speed>
<temp>0.00</temp>
<bpm>0</bpm>
<rpm>0.00</rpm>
</extensions>
</trkpt>
<trkpt lat="63.990337372" lon="-19.060464859">
<ele>593.843750</ele>
<time>2012-07-22T14:40:46Z</time>
<speed>0.010000</speed>
<extensions>
<speed>0.0</speed>
<temp>0.00</temp>
<bpm>0</bpm>
<rpm>0.00</rpm>
</extensions>
</trkpt>
<trkpt lat="63.990337372" lon="-19.060464859">
<ele>593.875000</ele>
<time>2012-07-22T14:40:51Z</time>
<speed>0.010000</speed>
<extensions>
<speed>0.0</speed>
<temp>0.00</temp>
<bpm>0</bpm>
<rpm>0.00</rpm>
</extensions>
</trkpt>
<trkpt lat="63.990337372" lon="-19.060464859">
<ele>593.875000</ele>
<time>2012-07-22T14:40:56Z</time>
<speed>0.010000</speed>
<extensions>
<speed>0.0</speed>
<temp>0.00</temp>
<bpm>0</bpm>
<rpm>0.00</rpm>
</extensions>
</trkpt>
<trkpt lat="63.990337372" lon="-19.060464859">
<ele>593.890625</ele>
<time>2012-07-22T14:41:01Z</time>
<speed>0.030000</speed>
<extensions>
<speed>0.0</speed>
<temp>0.00</temp>
<bpm>0</bpm>
<rpm>0.00</rpm>
</extensions>
</trkpt>
<trkpt lat="63.990337372" lon="-19.060464859">
<ele>593.890625</ele>
<time>2012-07-22T14:41:06Z</time>
<speed>0.010000</speed>
<extensions>
<speed>0.0</speed>
<temp>0.00</temp>
<bpm>0</bpm>
<rpm>0.00</rpm>
</extensions>
</trkpt>
<trkpt lat="63.990337372" lon="-19.060464859">
<ele>593.906250</ele>
<time>2012-07-22T14:41:11Z</time>
<speed>0.010000</speed>
<extensions>
<speed>0.0</speed>
<temp>0.00</temp>
<bpm>0</bpm>
<rpm>0.00</rpm>
</extensions>
</trkpt>
<trkpt lat="63.990341187" lon="-19.060464859">
<ele>593.937500</ele>
<time>2012-07-22T14:41:16Z</time>
<extensions>
<speed>0.0</speed>
<temp>0.00</temp>
<bpm>0</bpm>
<rpm>0.00</rpm>
</extensions>
</trkpt>
<trkpt lat="63.990341187" lon="-19.060464859">
<ele>593.937500</ele>
<time>2012-07-22T14:41:21Z</time>
<extensions>
<speed>0.0</speed>
<temp>0.00</temp>
<bpm>0</bpm>
<rpm>0.00</rpm>
</extensions>
</trkpt>
<trkpt lat="63.990341187" lon="-19.060462952">
<ele>593.953125</ele>
<time>2012-07-22T14:41:26Z</time>
<speed>0.010000</speed>
<extensions>
<speed>0.0</speed>
<temp>0.00</temp>
<bpm>0</bpm>
<rpm>0.00</rpm>
</extensions>
</trkpt>
<trkpt lat="63.990341187" lon="-19.060462952">
<ele>593.953125</ele>
<time>2012-07-22T14:41:31Z</time>
<speed>0.010000</speed>
<extensions>
<speed>0.0</speed>
<temp>0.00</temp>
<bpm>0</bpm>
<rpm>0.00</rpm>
</extensions>
</trkpt>
<trkpt lat="63.990341187" lon="-19.060462952">
<ele>593.953125</ele>
<time>2012-07-22T14:41:36Z</time>
<speed>0.010000</speed>
<extensions>
<speed>0.0</speed>
<temp>0.00</temp>
<bpm>0</bpm>
<rpm>0.00</rpm>
</extensions>
</trkpt>
<trkpt lat="63.990341187" lon="-19.060461044">
<ele>593.953125</ele>
<time>2012-07-22T14:41:41Z</time>
<speed>0.010000</speed>
<extensions>
<speed>0.0</speed>
<temp>0.00</temp>
<bpm>0</bpm>
<rpm>0.00</rpm>
</extensions>
</trkpt>
<trkpt lat="63.990341187" lon="-19.060461044">
<ele>593.953125</ele>
<time>2012-07-22T14:41:46Z</time>
<extensions>
<speed>0.0</speed>
<temp>0.00</temp>
<bpm>0</bpm>
<rpm>0.00</rpm>
</extensions>
</trkpt>
<trkpt lat="63.990341187" lon="-19.060462952">
<ele>593.953125</ele>
<time>2012-07-22T14:41:51Z</time>
<speed>0.020000</speed>
<extensions>
<speed>0.0</speed>
<temp>0.00</temp>
<bpm>0</bpm>
<rpm>0.00</rpm>
</extensions>
</trkpt>
<trkpt lat="63.990341187" lon="-19.060461044">
<ele>593.937500</ele>
<time>2012-07-22T14:41:56Z</time>
<extensions>
<speed>0.0</speed>
<temp>0.00</temp>
<bpm>0</bpm>
<rpm>0.00</rpm>
</extensions>
</trkpt>
<trkpt lat="63.990341187" lon="-19.060461044">
<ele>593.937500</ele>
<time>2012-07-22T14:42:01Z</time>
<speed>0.020000</speed>
<extensions>
<speed>0.0</speed>
<temp>0.00</temp>
<bpm>0</bpm>
<rpm>0.00</rpm>
</extensions>
</trkpt>
<trkpt lat="63.990341187" lon="-19.060461044">
<ele>593.921875</ele>
<time>2012-07-22T14:42:06Z</time>
<speed>0.010000</speed>
<extensions>
<speed>0.0</speed>
<temp>0.00</temp>
<bpm>0</bpm>
<rpm>0.00</rpm>
</extensions>
</trkpt>
<trkpt lat="63.990341187" lon="-19.060461044">
<ele>593.890625</ele>
<time>2012-07-22T14:42:11Z</time>
<extensions>
<speed>0.0</speed>
<temp>0.00</temp>
<bpm>0</bpm>
<rpm>0.00</rpm>
</extensions>
</trkpt>
<trkpt lat="63.990341187" lon="-19.060461044">
<ele>593.859375</ele>
<time>2012-07-22T14:42:16Z</time>
<extensions>
<speed>0.0</speed>
<temp>0.00</temp>
<bpm>0</bpm>
<rpm>0.00</rpm>
</extensions>
</trkpt>
<trkpt lat="63.990341187" lon="-19.060459137">
<ele>593.859375</ele>
<time>2012-07-22T14:42:21Z</time>
<extensions>
<speed>0.0</speed>
<temp>0.00</temp>
<bpm>0</bpm>
<rpm>0.00</rpm>
</extensions>
</trkpt>
<trkpt lat="63.990341187" lon="-19.060459137">
<ele>593.875000</ele>
<time>2012-07-22T14:42:26Z</time>
<speed>0.010000</speed>
<extensions>
<speed>0.0</speed>
<temp>0.00</temp>
<bpm>0</bpm>
<rpm>0.00</rpm>
</extensions>
</trkpt>
<trkpt lat="63.990341187" lon="-19.060459137">
<ele>593.875000</ele>
<time>2012-07-22T14:42:31Z</time>
<speed>0.030000</speed>
<extensions>
<speed>0.0</speed>
<temp>0.00</temp>
<bpm>0</bpm>
<rpm>0.00</rpm>
</extensions>
</trkpt>
<trkpt lat="63.990341187" lon="-19.060459137">
<ele>593.890625</ele>
<time>2012-07-22T14:42:36Z</time>
<speed>0.010000</speed>
<extensions>
<speed>0.0</speed>
<temp>0.00</temp>
<bpm>0</bpm>
<rpm>0.00</rpm>
</extensions>
</trkpt>
<trkpt lat="63.990329742" lon="-19.060449600">
<ele>593.765625</ele>
<time>2012-07-22T14:42:41Z</time>
<speed>1.040000</speed>
<extensions>
<speed>1.0</speed>
<temp>0.00</temp>
<bpm>0</bpm>
<rpm>0.00</rpm>
</extensions>
</trkpt>
<trkpt lat="63.990268707" lon="-19.060379028">
<ele>593.828125</ele>
<time>2012-07-22T14:42:46Z</time>
<speed>0.970000</speed>
<extensions>
<speed>1.0</speed>
<temp>0.00</temp>
<bpm>0</bpm>
<rpm>0.00</rpm>
</extensions>
</trkpt>
<trkpt lat="63.990211487" lon="-19.060335159">
<ele>595.359375</ele>
<time>2012-07-22T14:42:51Z</time>
<speed>1.170000</speed>
<extensions>
<speed>1.2</speed>
<temp>0.00</temp>
<bpm>0</bpm>
<rpm>0.00</rpm>
</extensions>
</trkpt>
<trkpt lat="63.990169525" lon="-19.060325623">
<ele>599.250000</ele>
<time>2012-07-22T14:42:56Z</time>
<speed>0.630000</speed>
<extensions>
<speed>0.6</speed>
<temp>0.00</temp>
<bpm>0</bpm>
<rpm>0.00</rpm>
</extensions>
</trkpt>
<trkpt lat="63.990119934" lon="-19.060302734">
<ele>601.000000</ele>
<time>2012-07-22T14:43:01Z</time>
<speed>0.990000</speed>
<extensions>
<speed>1.0</speed>
<temp>0.00</temp>
<bpm>0</bpm>
<rpm>0.00</rpm>
</extensions>
</trkpt>
<trkpt lat="63.990066528" lon="-19.060268402">
<ele>600.984375</ele>
<time>2012-07-22T14:43:06Z</time>
<speed>1.020000</speed>
<extensions>
<speed>1.0</speed>
<temp>0.00</temp>
<bpm>0</bpm>
<rpm>0.00</rpm>
</extensions>
</trkpt>
<trkpt lat="63.990051270" lon="-19.060245514">
<ele>599.953125</ele>
<time>2012-07-22T14:43:11Z</time>
<speed>0.030000</speed>
<extensions>
<speed>0.0</speed>
<temp>0.00</temp>
<bpm>0</bpm>
<rpm>0.00</rpm>
</extensions>
</trkpt>
<trkpt lat="63.990039825" lon="-19.060226440">
<ele>598.890625</ele>
<time>2012-07-22T14:43:16Z</time>
<speed>0.010000</speed>
<extensions>
<speed>0.0</speed>
<temp>0.00</temp>
<bpm>0</bpm>
<rpm>0.00</rpm>
</extensions>
</trkpt>
<trkpt lat="63.990039825" lon="-19.060230255">
<ele>599.109375</ele>
<time>2012-07-22T14:43:21Z</time>
<speed>0.050000</speed>
<extensions>
<speed>0.1</speed>
<temp>0.00</temp>
<bpm>0</bpm>
<rpm>0.00</rpm>
</extensions>
</trkpt>
<trkpt lat="63.990024567" lon="-19.060222626">
<ele>598.640625</ele>
<time>2012-07-22T14:43:26Z</time>
<speed>0.690000</speed>
<extensions>
<speed>0.7</speed>
<temp>0.00</temp>
<bpm>0</bpm>
<rpm>0.00</rpm>
</extensions>
</trkpt>
<trkpt lat="63.989986420" lon="-19.060201645">
<ele>598.593750</ele>
<time>2012-07-22T14:43:31Z</time>
<speed>0.780000</speed>
<extensions>
<speed>0.8</speed>
<temp>0.00</temp>
<bpm>0</bpm>
<rpm>0.00</rpm>
</extensions>
</trkpt>
<trkpt lat="63.989948273" lon="-19.060195923">
<ele>599.046875</ele>
<time>2012-07-22T14:43:36Z</time>
<speed>0.710000</speed>
<extensions>
<speed>0.7</speed>
<temp>0.00</temp>
<bpm>0</bpm>
<rpm>0.00</rpm>
</extensions>
</trkpt>
<trkpt lat="63.989921570" lon="-19.060180664">
<ele>597.343750</ele>
<time>2012-07-22T14:43:41Z</time>
<speed>0.150000</speed>
<extensions>
<speed>0.2</speed>
<temp>0.00</temp>
<bpm>0</bpm>
<rpm>0.00</rpm>
</extensions>
</trkpt>
<trkpt lat="63.989913940" lon="-19.060174942">
<ele>597.281250</ele>
<time>2012-07-22T14:43:46Z</time>
<speed>0.780000</speed>
<extensions>
<speed>0.8</speed>
<temp>0.00</temp>
<bpm>0</bpm>
<rpm>0.00</rpm>
</extensions>
</trkpt>
<trkpt lat="63.989879608" lon="-19.060153961">
<ele>597.781250</ele>
<time>2012-07-22T14:43:51Z</time>
<speed>0.730000</speed>
<extensions>
<speed>0.7</speed>
<temp>0.00</temp>
<bpm>0</bpm>
<rpm>0.00</rpm>
</extensions>
</trkpt>
<trkpt lat="63.989841461" lon="-19.060138702">
<ele>597.390625</ele>
<time>2012-07-22T14:43:56Z</time>
<speed>1.140000</speed>
<extensions>
<speed>1.1</speed>
<temp>0.00</temp>
<bpm>0</bpm>
<rpm>0.00</rpm>
</extensions>
</trkpt>
<trkpt lat="63.989795685" lon="-19.060108185">
<ele>596.765625</ele>
<time>2012-07-22T14:44:01Z</time>
<speed>0.770000</speed>
<extensions>
<speed>0.8</speed>
<temp>0.00</temp>
<bpm>0</bpm>
<rpm>0.00</rpm>
</extensions>
</trkpt>
<trkpt lat="63.989753723" lon="-19.060083389">
<ele>596.156250</ele>
<time>2012-07-22T14:44:06Z</time>
<speed>0.930000</speed>
<extensions>
<speed>0.9</speed>
<temp>0.00</temp>
<bpm>0</bpm>
<rpm>0.00</rpm>
</extensions>
</trkpt>
<trkpt lat="63.989715576" lon="-19.060045242">
<ele>595.984375</ele>
<time>2012-07-22T14:44:11Z</time>
<speed>0.560000</speed>
<extensions>
<speed>0.6</speed>
<temp>0.00</temp>
<bpm>0</bpm>
<rpm>0.00</rpm>
</extensions>
</trkpt>
<trkpt lat="63.989692688" lon="-19.060052872">
<ele>596.265625</ele>
<time>2012-07-22T14:44:16Z</time>
<speed>0.800000</speed>
<extensions>
<speed>0.8</speed>
<temp>0.00</temp>
<bpm>0</bpm>
<rpm>0.00</rpm>
</extensions>
</trkpt>
<trkpt lat="63.989662170" lon="-19.060043335">
<ele>595.484375</ele>
<time>2012-07-22T14:44:21Z</time>
<speed>0.480000</speed>
<extensions>
<speed>0.5</speed>
<temp>0.00</temp>
<bpm>0</bpm>
<rpm>0.00</rpm>
</extensions>
</trkpt>
<trkpt lat="63.989624023" lon="-19.060018539">
<ele>595.000000</ele>
<time>2012-07-22T14:44:26Z</time>
<speed>0.970000</speed>
<extensions>
<speed>1.0</speed>
<temp>0.00</temp>
<bpm>0</bpm>
<rpm>0.00</rpm>
</extensions>
</trkpt>
<trkpt lat="63.989612579" lon="-19.060010910">
<ele>595.062500</ele>
<time>2012-07-22T14:44:31Z</time>
<extensions>
<speed>0.0</speed>
<temp>0.00</temp>
<bpm>0</bpm>
<rpm>0.00</rpm>
</extensions>
</trkpt>
<trkpt lat="63.989612579" lon="-19.060012817">
<ele>594.703125</ele>
<time>2012-07-22T14:44:36Z</time>
<extensions>
<speed>0.0</speed>
<temp>0.00</temp>
<bpm>0</bpm>
<rpm>0.00</rpm>
</extensions>
</trkpt>
<trkpt lat="63.989612579" lon="-19.060010910">
<ele>594.656250</ele>
<time>2012-07-22T14:44:41Z</time>
<speed>0.010000</speed>
<extensions>
<speed>0.0</speed>
<temp>0.00</temp>
<bpm>0</bpm>
<rpm>0.00</rpm>
</extensions>
</trkpt>
<trkpt lat="63.989612579" lon="-19.060009003">
<ele>594.515625</ele>
<time>2012-07-22T14:44:46Z</time>
<speed>0.350000</speed>
<extensions>
<speed>0.3</speed>
<temp>0.00</temp>
<bpm>0</bpm>
<rpm>0.00</rpm>
</extensions>
</trkpt>
<trkpt lat="63.989631653" lon="-19.060016632">
<ele>594.500000</ele>
<time>2012-07-22T14:44:51Z</time>
<speed>0.750000</speed>
<extensions>
<speed>0.8</speed>
<temp>0.00</temp>
<bpm>0</bpm>
<rpm>0.00</rpm>
</extensions>
</trkpt>
<trkpt lat="63.989665985" lon="-19.060041428">
<ele>594.250000</ele>
<time>2012-07-22T14:44:56Z</time>
<speed>0.550000</speed>
<extensions>
<speed>0.6</speed>
<temp>0.00</temp>
<bpm>0</bpm>
<rpm>0.00</rpm>
</extensions>
</trkpt>
<trkpt lat="63.989677429" lon="-19.060035706">
<ele>594.265625</ele>
<time>2012-07-22T14:45:01Z</time>
<speed>0.650000</speed>
<extensions>
<speed>0.6</speed>
<temp>0.00</temp>
<bpm>0</bpm>
<rpm>0.00</rpm>
</extensions>
</trkpt>
<trkpt lat="63.989692688" lon="-19.060037613">
<ele>593.859375</ele>
<time>2012-07-22T14:45:06Z</time>
<speed>0.480000</speed>
<extensions>
<speed>0.5</speed>
<temp>0.00</temp>
<bpm>0</bpm>
<rpm>0.00</rpm>
</extensions>
</trkpt>
<trkpt lat="63.989692688" lon="-19.060035706">
<ele>594.218750</ele>
<time>2012-07-22T14:45:11Z</time>
<extensions>
<speed>0.0</speed>
<temp>0.00</temp>
<bpm>0</bpm>
<rpm>0.00</rpm>
</extensions>
</trkpt>
<trkpt lat="63.989692688" lon="-19.060035706">
<ele>594.218750</ele>
<time>2012-07-22T14:45:16Z</time>
<speed>0.010000</speed>
<extensions>
<speed>0.0</speed>
<temp>0.00</temp>
<bpm>0</bpm>
<rpm>0.00</rpm>
</extensions>
</trkpt>
<trkpt lat="63.989696503" lon="-19.060035706">
<ele>594.218750</ele>
<time>2012-07-22T14:45:21Z</time>
<extensions>
<speed>0.0</speed>
<temp>0.00</temp>
<bpm>0</bpm>
<rpm>0.00</rpm>
</extensions>
</trkpt>
<trkpt lat="63.989696503" lon="-19.060035706">
<ele>594.234375</ele>
<time>2012-07-22T14:45:26Z</time>
<speed>0.030000</speed>
<extensions>
<speed>0.0</speed>
<temp>0.00</temp>
<bpm>0</bpm>
<rpm>0.00</rpm>
</extensions>
</trkpt>
<trkpt lat="63.989696503" lon="-19.060033798">
<ele>594.187500</ele>
<time>2012-07-22T14:45:31Z</time>
<speed>0.010000</speed>
<extensions>
<speed>0.0</speed>
<temp>0.00</temp>
<bpm>0</bpm>
<rpm>0.00</rpm>
</extensions>
</trkpt>
<trkpt lat="63.989696503" lon="-19.060028076">
<ele>593.921875</ele>
<time>2012-07-22T14:45:36Z</time>
<extensions>
<speed>0.0</speed>
<temp>0.00</temp>
<bpm>0</bpm>
<rpm>0.00</rpm>
</extensions>
</trkpt>
<trkpt lat="63.989696503" lon="-19.060028076">
<ele>593.921875</ele>
<time>2012-07-22T14:45:41Z</time>
<extensions>
<speed>0.0</speed>
<temp>0.00</temp>
<bpm>0</bpm>
<rpm>0.00</rpm>
</extensions>
</trkpt>
<trkpt lat="63.989696503" lon="-19.060028076">
<ele>593.921875</ele>
<time>2012-07-22T14:45:46Z</time>
<extensions>
<speed>0.0</speed>
<temp>0.00</temp>
<bpm>0</bpm>
<rpm>0.00</rpm>
</extensions>
</trkpt>
<trkpt lat="63.989696503" lon="-19.060028076">
<ele>593.921875</ele>
<time>2012-07-22T14:45:51Z</time>
<extensions>
<speed>0.0</speed>
<temp>0.00</temp>
<bpm>0</bpm>
<rpm>0.00</rpm>
</extensions>
</trkpt>
<trkpt lat="63.989696503" lon="-19.060028076">
<ele>593.921875</ele>
<time>2012-07-22T14:45:56Z</time>
<extensions>
<speed>0.0</speed>
<temp>0.00</temp>
<bpm>0</bpm>
<rpm>0.00</rpm>
</extensions>
</trkpt>
<trkpt lat="63.989696503" lon="-19.060028076">
<ele>593.921875</ele>
<time>2012-07-22T14:46:01Z</time>
<extensions>
<speed>0.0</speed>
<temp>0.00</temp>
<bpm>0</bpm>
<rpm>0.00</rpm>
</extensions>
</trkpt>
<trkpt lat="63.989696503" lon="-19.060028076">
<ele>593.906250</ele>
<time>2012-07-22T14:46:06Z</time>
<extensions>
<speed>0.0</speed>
<temp>0.00</temp>
<bpm>0</bpm>
<rpm>0.00</rpm>
</extensions>
</trkpt>
<trkpt lat="63.989696503" lon="-19.060028076">
<ele>593.906250</ele>
<time>2012-07-22T14:46:11Z</time>
<extensions>
<speed>0.0</speed>
<temp>0.00</temp>
<bpm>0</bpm>
<rpm>0.00</rpm>
</extensions>
</trkpt>
<trkpt lat="63.989696503" lon="-19.060028076">
<ele>593.906250</ele>
<time>2012-07-22T14:46:16Z</time>
<extensions>
<speed>0.0</speed>
<temp>0.00</temp>
<bpm>0</bpm>
<rpm>0.00</rpm>
</extensions>
</trkpt>
<trkpt lat="63.989696503" lon="-19.060028076">
<ele>593.890625</ele>
<time>2012-07-22T14:46:21Z</time>
<extensions>
<speed>0.0</speed>
<temp>0.00</temp>
<bpm>0</bpm>
<rpm>0.00</rpm>
</extensions>
</trkpt>
<trkpt lat="63.989696503" lon="-19.060028076">
<ele>593.890625</ele>
<time>2012-07-22T14:46:26Z</time>
<extensions>
<speed>0.0</speed>
<temp>0.00</temp>
<bpm>0</bpm>
<rpm>0.00</rpm>
</extensions>
</trkpt>
<trkpt lat="63.989696503" lon="-19.060028076">
<ele>593.890625</ele>
<time>2012-07-22T14:46:31Z</time>
<extensions>
<speed>0.0</speed>
<temp>0.00</temp>
<bpm>0</bpm>
<rpm>0.00</rpm>
</extensions>
</trkpt>
<trkpt lat="63.989696503" lon="-19.060028076">
<ele>593.890625</ele>
<time>2012-07-22T14:46:36Z</time>
<speed>0.010000</speed>
<extensions>
<speed>0.0</speed>
<temp>0.00</temp>
<bpm>0</bpm>
<rpm>0.00</rpm>
</extensions>
</trkpt>
<trkpt lat="63.989696503" lon="-19.060028076">
<ele>593.890625</ele>
<time>2012-07-22T14:46:41Z</time>
<extensions>
<speed>0.0</speed>
<temp>0.00</temp>
<bpm>0</bpm>
<rpm>0.00</rpm>
</extensions>
</trkpt>
<trkpt lat="63.989696503" lon="-19.060028076">
<ele>593.890625</ele>
<time>2012-07-22T14:46:46Z</time>
<speed>0.010000</speed>
<extensions>
<speed>0.0</speed>
<temp>0.00</temp>
<bpm>0</bpm>
<rpm>0.00</rpm>
</extensions>
</trkpt>
<trkpt lat="63.989696503" lon="-19.060028076">
<ele>593.890625</ele>
<time>2012-07-22T14:46:51Z</time>
<extensions>
<speed>0.0</speed>
<temp>0.00</temp>
<bpm>0</bpm>
<rpm>0.00</rpm>
</extensions>
</trkpt>
<trkpt lat="63.989696503" lon="-19.060028076">
<ele>593.890625</ele>
<time>2012-07-22T14:46:56Z</time>
<extensions>
<speed>0.0</speed>
<temp>0.00</temp>
<bpm>0</bpm>
<rpm>0.00</rpm>
</extensions>
</trkpt>
<trkpt lat="63.989696503" lon="-19.060028076">
<ele>593.890625</ele>
<time>2012-07-22T14:47:01Z</time>
<speed>0.120000</speed>
<extensions>
<speed>0.1</speed>
<temp>0.00</temp>
<bpm>0</bpm>
<rpm>0.00</rpm>
</extensions>
</trkpt>
<trkpt lat="63.989704132" lon="-19.060029984">
<ele>593.968750</ele>
<time>2012-07-22T14:47:06Z</time>
<speed>0.440000</speed>
<extensions>
<speed>0.4</speed>
<temp>0.00</temp>
<bpm>0</bpm>
<rpm>0.00</rpm>
</extensions>
</trkpt>
<trkpt lat="63.989730835" lon="-19.060037613">
<ele>593.890625</ele>
<time>2012-07-22T14:47:11Z</time>
<speed>0.760000</speed>
<extensions>
<speed>0.8</speed>
<temp>0.00</temp>
<bpm>0</bpm>
<rpm>0.00</rpm>
</extensions>
</trkpt>
<trkpt lat="63.989776611" lon="-19.060066223">
<ele>592.968750</ele>
<time>2012-07-22T14:47:16Z</time>
<speed>1.150000</speed>
<extensions>
<speed>1.1</speed>
<temp>0.00</temp>
<bpm>0</bpm>
<rpm>0.00</rpm>
</extensions>
</trkpt>
<trkpt lat="63.989830017" lon="-19.060119629">
<ele>592.125000</ele>
<time>2012-07-22T14:47:21Z</time>
<speed>0.900000</speed>
<extensions>
<speed>0.9</speed>
<temp>0.00</temp>
<bpm>0</bpm>
<rpm>0.00</rpm>
</extensions>
</trkpt>
<trkpt lat="63.989868164" lon="-19.060140610">
<ele>592.203125</ele>
<time>2012-07-22T14:47:26Z</time>
<speed>1.100000</speed>
<extensions>
<speed>1.1</speed>
<temp>0.00</temp>
<bpm>0</bpm>
<rpm>0.00</rpm>
</extensions>
</trkpt>
<trkpt lat="63.989887238" lon="-19.060144424">
<ele>591.875000</ele>
<time>2012-07-22T14:47:31Z</time>
<speed>0.310000</speed>
<extensions>
<speed>0.3</speed>
<temp>0.00</temp>
<bpm>0</bpm>
<rpm>0.00</rpm>
</extensions>
</trkpt>
<trkpt lat="63.989917755" lon="-19.060148239">
<ele>592.343750</ele>
<time>2012-07-22T14:47:36Z</time>
<speed>1.080000</speed>
<extensions>
<speed>1.1</speed>
<temp>0.00</temp>
<bpm>0</bpm>
<rpm>0.00</rpm>
</extensions>
</trkpt>
<trkpt lat="63.989967346" lon="-19.060194016">
<ele>592.125000</ele>
<time>2012-07-22T14:47:41Z</time>
<speed>1.050000</speed>
<extensions>
<speed>1.0</speed>
<temp>0.00</temp>
<bpm>0</bpm>
<rpm>0.00</rpm>
</extensions>
</trkpt>
<trkpt lat="63.989978790" lon="-19.060209274">
<ele>592.078125</ele>
<time>2012-07-22T14:47:46Z</time>
<speed>0.330000</speed>
<extensions>
<speed>0.3</speed>
<temp>0.00</temp>
<bpm>0</bpm>
<rpm>0.00</rpm>
</extensions>
</trkpt>
<trkpt lat="63.989982605" lon="-19.060207367">
<ele>592.109375</ele>
<time>2012-07-22T14:47:51Z</time>
<speed>0.050000</speed>
<extensions>
<speed>0.1</speed>
<temp>0.00</temp>
<bpm>0</bpm>
<rpm>0.00</rpm>
</extensions>
</trkpt>
<trkpt lat="63.989982605" lon="-19.060216904">
<ele>591.953125</ele>
<time>2012-07-22T14:47:56Z</time>
<speed>0.070000</speed>
<extensions>
<speed>0.1</speed>
<temp>0.00</temp>
<bpm>0</bpm>
<rpm>0.00</rpm>
</extensions>
</trkpt>
<trkpt lat="63.990001678" lon="-19.060241699">
<ele>592.109375</ele>
<time>2012-07-22T14:48:01Z</time>
<speed>0.150000</speed>
<extensions>
<speed>0.2</speed>
<temp>0.00</temp>
<bpm>0</bpm>
<rpm>0.00</rpm>
</extensions>
</trkpt>
<trkpt lat="63.990005493" lon="-19.060234070">
<ele>592.203125</ele>
<time>2012-07-22T14:48:06Z</time>
<speed>0.050000</speed>
<extensions>
<speed>0.1</speed>
<temp>0.00</temp>
<bpm>0</bpm>
<rpm>0.00</rpm>
</extensions>
</trkpt>
<trkpt lat="63.990009308" lon="-19.060237885">
<ele>592.234375</ele>
<time>2012-07-22T14:48:11Z</time>
<speed>0.010000</speed>
<extensions>
<speed>0.0</speed>
<temp>0.00</temp>
<bpm>0</bpm>
<rpm>0.00</rpm>
</extensions>
</trkpt>
<trkpt lat="63.990005493" lon="-19.060235977">
<ele>592.234375</ele>
<time>2012-07-22T14:48:16Z</time>
<speed>0.010000</speed>
<extensions>
<speed>0.0</speed>
<temp>0.00</temp>
<bpm>0</bpm>
<rpm>0.00</rpm>
</extensions>
</trkpt>
<trkpt lat="63.990005493" lon="-19.060235977">
<ele>592.234375</ele>
<time>2012-07-22T14:48:21Z</time>
<speed>0.010000</speed>
<extensions>
<speed>0.0</speed>
<temp>0.00</temp>
<bpm>0</bpm>
<rpm>0.00</rpm>
</extensions>
</trkpt>
<trkpt lat="63.990005493" lon="-19.060235977">
<ele>592.234375</ele>
<time>2012-07-22T14:48:26Z</time>
<extensions>
<speed>0.0</speed>
<temp>0.00</temp>
<bpm>0</bpm>
<rpm>0.00</rpm>
</extensions>
</trkpt>
<trkpt lat="63.990005493" lon="-19.060234070">
<ele>592.218750</ele>
<time>2012-07-22T14:48:31Z</time>
<extensions>
<speed>0.0</speed>
<temp>0.00</temp>
<bpm>0</bpm>
<rpm>0.00</rpm>
</extensions>
</trkpt>
<trkpt lat="63.990005493" lon="-19.060234070">
<ele>592.234375</ele>
<time>2012-07-22T14:48:36Z</time>
<speed>0.010000</speed>
<extensions>
<speed>0.0</speed>
<temp>0.00</temp>
<bpm>0</bpm>
<rpm>0.00</rpm>
</extensions>
</trkpt>
<trkpt lat="63.990005493" lon="-19.060234070">
<ele>592.234375</ele>
<time>2012-07-22T14:48:41Z</time>
<extensions>
<speed>0.0</speed>
<temp>0.00</temp>
<bpm>0</bpm>
<rpm>0.00</rpm>
</extensions>
</trkpt>
<trkpt lat="63.990005493" lon="-19.060234070">
<ele>592.203125</ele>
<time>2012-07-22T14:48:46Z</time>
<extensions>
<speed>0.0</speed>
<temp>0.00</temp>
<bpm>0</bpm>
<rpm>0.00</rpm>
</extensions>
</trkpt>
<trkpt lat="63.990005493" lon="-19.060234070">
<ele>592.203125</ele>
<time>2012-07-22T14:48:51Z</time>
<extensions>
<speed>0.0</speed>
<temp>0.00</temp>
<bpm>0</bpm>
<rpm>0.00</rpm>
</extensions>
</trkpt>
<trkpt lat="63.990005493" lon="-19.060234070">
<ele>592.234375</ele>
<time>2012-07-22T14:48:56Z</time>
<speed>0.010000</speed>
<extensions>
<speed>0.0</speed>
<temp>0.00</temp>
<bpm>0</bpm>
<rpm>0.00</rpm>
</extensions>
</trkpt>
<trkpt lat="63.990005493" lon="-19.060234070">
<ele>592.234375</ele>
<time>2012-07-22T14:49:01Z</time>
<extensions>
<speed>0.0</speed>
<temp>0.00</temp>
<bpm>0</bpm>
<rpm>0.00</rpm>
</extensions>
</trkpt>
<trkpt lat="63.990005493" lon="-19.060232162">
<ele>592.234375</ele>
<time>2012-07-22T14:49:06Z</time>
<extensions>
<speed>0.0</speed>
<temp>0.00</temp>
<bpm>0</bpm>
<rpm>0.00</rpm>
</extensions>
</trkpt>
<trkpt lat="63.990005493" lon="-19.060232162">
<ele>592.234375</ele>
<time>2012-07-22T14:49:11Z</time>
<extensions>
<speed>0.0</speed>
<temp>0.00</temp>
<bpm>0</bpm>
<rpm>0.00</rpm>
</extensions>
</trkpt>
<trkpt lat="63.990005493" lon="-19.060232162">
<ele>592.218750</ele>
<time>2012-07-22T14:49:16Z</time>
<speed>0.010000</speed>
<extensions>
<speed>0.0</speed>
<temp>0.00</temp>
<bpm>0</bpm>
<rpm>0.00</rpm>
</extensions>
</trkpt>
<trkpt lat="63.990005493" lon="-19.060232162">
<ele>592.250000</ele>
<time>2012-07-22T14:49:21Z</time>
<speed>0.010000</speed>
<extensions>
<speed>0.0</speed>
<temp>0.00</temp>
<bpm>0</bpm>
<rpm>0.00</rpm>
</extensions>
</trkpt>
<trkpt lat="63.990005493" lon="-19.060232162">
<ele>592.250000</ele>
<time>2012-07-22T14:49:26Z</time>
<speed>0.010000</speed>
<extensions>
<speed>0.0</speed>
<temp>0.00</temp>
<bpm>0</bpm>
<rpm>0.00</rpm>
</extensions>
</trkpt>
<trkpt lat="63.990005493" lon="-19.060232162">
<ele>592.250000</ele>
<time>2012-07-22T14:49:31Z</time>
<speed>0.010000</speed>
<extensions>
<speed>0.0</speed>
<temp>0.00</temp>
<bpm>0</bpm>
<rpm>0.00</rpm>
</extensions>
</trkpt>
<trkpt lat="63.990005493" lon="-19.060230255">
<ele>592.250000</ele>
<time>2012-07-22T14:49:36Z</time>
<speed>0.020000</speed>
<extensions>
<speed>0.0</speed>
<temp>0.00</temp>
<bpm>0</bpm>
<rpm>0.00</rpm>
</extensions>
</trkpt>
<trkpt lat="63.990005493" lon="-19.060230255">
<ele>592.234375</ele>
<time>2012-07-22T14:49:41Z</time>
<speed>0.020000</speed>
<extensions>
<speed>0.0</speed>
<temp>0.00</temp>
<bpm>0</bpm>
<rpm>0.00</rpm>
</extensions>
</trkpt>
<trkpt lat="63.990005493" lon="-19.060230255">
<ele>592.234375</ele>
<time>2012-07-22T14:49:46Z</time>
<extensions>
<speed>0.0</speed>
<temp>0.00</temp>
<bpm>0</bpm>
<rpm>0.00</rpm>
</extensions>
</trkpt>
<trkpt lat="63.990005493" lon="-19.060228348">
<ele>592.234375</ele>
<time>2012-07-22T14:49:51Z</time>
<extensions>
<speed>0.0</speed>
<temp>0.00</temp>
<bpm>0</bpm>
<rpm>0.00</rpm>
</extensions>
</trkpt>
<trkpt lat="63.990005493" lon="-19.060228348">
<ele>592.234375</ele>
<time>2012-07-22T14:49:56Z</time>
<speed>0.010000</speed>
<extensions>
<speed>0.0</speed>
<temp>0.00</temp>
<bpm>0</bpm>
<rpm>0.00</rpm>
</extensions>
</trkpt>
<trkpt lat="63.990001678" lon="-19.060228348">
<ele>592.218750</ele>
<time>2012-07-22T14:50:01Z</time>
<speed>0.010000</speed>
<extensions>
<speed>0.0</speed>
<temp>0.00</temp>
<bpm>0</bpm>
<rpm>0.00</rpm>
</extensions>
</trkpt>
<trkpt lat="63.990001678" lon="-19.060226440">
<ele>592.203125</ele>
<time>2012-07-22T14:50:06Z</time>
<speed>0.010000</speed>
<extensions>
<speed>0.0</speed>
<temp>0.00</temp>
<bpm>0</bpm>
<rpm>0.00</rpm>
</extensions>
</trkpt>
<trkpt lat="63.990001678" lon="-19.060226440">
<ele>592.218750</ele>
<time>2012-07-22T14:50:11Z</time>
<speed>0.020000</speed>
<extensions>
<speed>0.0</speed>
<temp>0.00</temp>
<bpm>0</bpm>
<rpm>0.00</rpm>
</extensions>
</trkpt>
<trkpt lat="63.990001678" lon="-19.060226440">
<ele>592.234375</ele>
<time>2012-07-22T14:50:16Z</time>
<speed>0.010000</speed>
<extensions>
<speed>0.0</speed>
<temp>0.00</temp>
<bpm>0</bpm>
<rpm>0.00</rpm>
</extensions>
</trkpt>
<trkpt lat="63.990001678" lon="-19.060226440">
<ele>592.234375</ele>
<time>2012-07-22T14:50:21Z</time>
<speed>0.020000</speed>
<extensions>
<speed>0.0</speed>
<temp>0.00</temp>
<bpm>0</bpm>
<rpm>0.00</rpm>
</extensions>
</trkpt>
<trkpt lat="63.990001678" lon="-19.060224533">
<ele>592.250000</ele>
<time>2012-07-22T14:50:26Z</time>
<speed>0.020000</speed>
<extensions>
<speed>0.0</speed>
<temp>0.00</temp>
<bpm>0</bpm>
<rpm>0.00</rpm>
</extensions>
</trkpt>
<trkpt lat="63.990001678" lon="-19.060224533">
<ele>592.250000</ele>
<time>2012-07-22T14:50:31Z</time>
<extensions>
<speed>0.0</speed>
<temp>0.00</temp>
<bpm>0</bpm>
<rpm>0.00</rpm>
</extensions>
</trkpt>
<trkpt lat="63.990001678" lon="-19.060224533">
<ele>592.250000</ele>
<time>2012-07-22T14:50:36Z</time>
<extensions>
<speed>0.0</speed>
<temp>0.00</temp>
<bpm>0</bpm>
<rpm>0.00</rpm>
</extensions>
</trkpt>
<trkpt lat="63.990001678" lon="-19.060224533">
<ele>592.265625</ele>
<time>2012-07-22T14:50:41Z</time>
<extensions>
<speed>0.0</speed>
<temp>0.00</temp>
<bpm>0</bpm>
<rpm>0.00</rpm>
</extensions>
</trkpt>
<trkpt lat="63.990001678" lon="-19.060224533">
<ele>592.281250</ele>
<time>2012-07-22T14:50:46Z</time>
<speed>0.020000</speed>
<extensions>
<speed>0.0</speed>
<temp>0.00</temp>
<bpm>0</bpm>
<rpm>0.00</rpm>
</extensions>
</trkpt>
<trkpt lat="63.990001678" lon="-19.060222626">
<ele>592.296875</ele>
<time>2012-07-22T14:50:51Z</time>
<speed>0.010000</speed>
<extensions>
<speed>0.0</speed>
<temp>0.00</temp>
<bpm>0</bpm>
<rpm>0.00</rpm>
</extensions>
</trkpt>
<trkpt lat="63.990001678" lon="-19.060222626">
<ele>592.312500</ele>
<time>2012-07-22T14:50:56Z</time>
<extensions>
<speed>0.0</speed>
<temp>0.00</temp>
<bpm>0</bpm>
<rpm>0.00</rpm>
</extensions>
</trkpt>
<trkpt lat="63.990001678" lon="-19.060222626">
<ele>592.312500</ele>
<time>2012-07-22T14:51:01Z</time>
<speed>0.020000</speed>
<extensions>
<speed>0.0</speed>
<temp>0.00</temp>
<bpm>0</bpm>
<rpm>0.00</rpm>
</extensions>
</trkpt>
<trkpt lat="63.990001678" lon="-19.060220718">
<ele>592.312500</ele>
<time>2012-07-22T14:51:06Z</time>
<speed>0.010000</speed>
<extensions>
<speed>0.0</speed>
<temp>0.00</temp>
<bpm>0</bpm>
<rpm>0.00</rpm>
</extensions>
</trkpt>
<trkpt lat="63.990001678" lon="-19.060220718">
<ele>592.328125</ele>
<time>2012-07-22T14:51:11Z</time>
<speed>0.010000</speed>
<extensions>
<speed>0.0</speed>
<temp>0.00</temp>
<bpm>0</bpm>
<rpm>0.00</rpm>
</extensions>
</trkpt>
<trkpt lat="63.990001678" lon="-19.060220718">
<ele>592.375000</ele>
<time>2012-07-22T14:51:16Z</time>
<speed>0.010000</speed>
<extensions>
<speed>0.0</speed>
<temp>0.00</temp>
<bpm>0</bpm>
<rpm>0.00</rpm>
</extensions>
</trkpt>
<trkpt lat="63.990001678" lon="-19.060220718">
<ele>592.390625</ele>
<time>2012-07-22T14:51:21Z</time>
<speed>0.010000</speed>
<extensions>
<speed>0.0</speed>
<temp>0.00</temp>
<bpm>0</bpm>
<rpm>0.00</rpm>
</extensions>
</trkpt>
<trkpt lat="63.990001678" lon="-19.060220718">
<ele>592.390625</ele>
<time>2012-07-22T14:51:26Z</time>
<extensions>
<speed>0.0</speed>
<temp>0.00</temp>
<bpm>0</bpm>
<rpm>0.00</rpm>
</extensions>
</trkpt>
<trkpt lat="63.990001678" lon="-19.060220718">
<ele>592.375000</ele>
<time>2012-07-22T14:51:31Z</time>
<extensions>
<speed>0.0</speed>
<temp>0.00</temp>
<bpm>0</bpm>
<rpm>0.00</rpm>
</extensions>
</trkpt>
<trkpt lat="63.990001678" lon="-19.060220718">
<ele>592.390625</ele>
<time>2012-07-22T14:51:36Z</time>
<extensions>
<speed>0.0</speed>
<temp>0.00</temp>
<bpm>0</bpm>
<rpm>0.00</rpm>
</extensions>
</trkpt>
<trkpt lat="63.990001678" lon="-19.060220718">
<ele>592.406250</ele>
<time>2012-07-22T14:51:41Z</time>
<speed>0.010000</speed>
<extensions>
<speed>0.0</speed>
<temp>0.00</temp>
<bpm>0</bpm>
<rpm>0.00</rpm>
</extensions>
</trkpt>
<trkpt lat="63.990001678" lon="-19.060218811">
<ele>592.406250</ele>
<time>2012-07-22T14:51:46Z</time>
<speed>0.010000</speed>
<extensions>
<speed>0.0</speed>
<temp>0.00</temp>
<bpm>0</bpm>
<rpm>0.00</rpm>
</extensions>
</trkpt>
<trkpt lat="63.990001678" lon="-19.060218811">
<ele>592.406250</ele>
<time>2012-07-22T14:51:51Z</time>
<extensions>
<speed>0.0</speed>
<temp>0.00</temp>
<bpm>0</bpm>
<rpm>0.00</rpm>
</extensions>
</trkpt>
<trkpt lat="63.990001678" lon="-19.060218811">
<ele>592.406250</ele>
<time>2012-07-22T14:51:56Z</time>
<extensions>
<speed>0.0</speed>
<temp>0.00</temp>
<bpm>0</bpm>
<rpm>0.00</rpm>
</extensions>
</trkpt>
<trkpt lat="63.990001678" lon="-19.060218811">
<ele>592.406250</ele>
<time>2012-07-22T14:52:01Z</time>
<extensions>
<speed>0.0</speed>
<temp>0.00</temp>
<bpm>0</bpm>
<rpm>0.00</rpm>
</extensions>
</trkpt>
<trkpt lat="63.990001678" lon="-19.060218811">
<ele>592.406250</ele>
<time>2012-07-22T14:52:06Z</time>
<speed>0.010000</speed>
<extensions>
<speed>0.0</speed>
<temp>0.00</temp>
<bpm>0</bpm>
<rpm>0.00</rpm>
</extensions>
</trkpt>
<trkpt lat="63.990001678" lon="-19.060218811">
<ele>592.375000</ele>
<time>2012-07-22T14:52:11Z</time>
<extensions>
<speed>0.0</speed>
<temp>0.00</temp>
<bpm>0</bpm>
<rpm>0.00</rpm>
</extensions>
</trkpt>
<trkpt lat="63.990001678" lon="-19.060218811">
<ele>592.390625</ele>
<time>2012-07-22T14:52:16Z</time>
<extensions>
<speed>0.0</speed>
<temp>0.00</temp>
<bpm>0</bpm>
<rpm>0.00</rpm>
</extensions>
</trkpt>
<trkpt lat="63.990001678" lon="-19.060216904">
<ele>592.390625</ele>
<time>2012-07-22T14:52:21Z</time>
<speed>0.010000</speed>
<extensions>
<speed>0.0</speed>
<temp>0.00</temp>
<bpm>0</bpm>
<rpm>0.00</rpm>
</extensions>
</trkpt>
<trkpt lat="63.990001678" lon="-19.060216904">
<ele>592.390625</ele>
<time>2012-07-22T14:52:26Z</time>
<extensions>
<speed>0.0</speed>
<temp>0.00</temp>
<bpm>0</bpm>
<rpm>0.00</rpm>
</extensions>
</trkpt>
<trkpt lat="63.990001678" lon="-19.060216904">
<ele>592.421875</ele>
<time>2012-07-22T14:52:31Z</time>
<extensions>
<speed>0.0</speed>
<temp>0.00</temp>
<bpm>0</bpm>
<rpm>0.00</rpm>
</extensions>
</trkpt>
<trkpt lat="63.990001678" lon="-19.060216904">
<ele>592.421875</ele>
<time>2012-07-22T14:52:36Z</time>
<extensions>
<speed>0.0</speed>
<temp>0.00</temp>
<bpm>0</bpm>
<rpm>0.00</rpm>
</extensions>
</trkpt>
<trkpt lat="63.990001678" lon="-19.060216904">
<ele>592.421875</ele>
<time>2012-07-22T14:52:41Z</time>
<speed>0.010000</speed>
<extensions>
<speed>0.0</speed>
<temp>0.00</temp>
<bpm>0</bpm>
<rpm>0.00</rpm>
</extensions>
</trkpt>
<trkpt lat="63.990001678" lon="-19.060216904">
<ele>592.421875</ele>
<time>2012-07-22T14:52:46Z</time>
<extensions>
<speed>0.0</speed>
<temp>0.00</temp>
<bpm>0</bpm>
<rpm>0.00</rpm>
</extensions>
</trkpt>
<trkpt lat="63.990001678" lon="-19.060216904">
<ele>592.437500</ele>
<time>2012-07-22T14:52:51Z</time>
<extensions>
<speed>0.0</speed>
<temp>0.00</temp>
<bpm>0</bpm>
<rpm>0.00</rpm>
</extensions>
</trkpt>
<trkpt lat="63.990001678" lon="-19.060216904">
<ele>592.421875</ele>
<time>2012-07-22T14:52:56Z</time>
<extensions>
<speed>0.0</speed>
<temp>0.00</temp>
<bpm>0</bpm>
<rpm>0.00</rpm>
</extensions>
</trkpt>
<trkpt lat="63.990001678" lon="-19.060216904">
<ele>592.437500</ele>
<time>2012-07-22T14:53:01Z</time>
<extensions>
<speed>0.0</speed>
<temp>0.00</temp>
<bpm>0</bpm>
<rpm>0.00</rpm>
</extensions>
</trkpt>
<trkpt lat="63.990001678" lon="-19.060216904">
<ele>592.437500</ele>
<time>2012-07-22T14:53:06Z</time>
<speed>0.010000</speed>
<extensions>
<speed>0.0</speed>
<temp>0.00</temp>
<bpm>0</bpm>
<rpm>0.00</rpm>
</extensions>
</trkpt>
<trkpt lat="63.990001678" lon="-19.060216904">
<ele>592.437500</ele>
<time>2012-07-22T14:53:11Z</time>
<extensions>
<speed>0.0</speed>
<temp>0.00</temp>
<bpm>0</bpm>
<rpm>0.00</rpm>
</extensions>
</trkpt>
<trkpt lat="63.990001678" lon="-19.060214996">
<ele>592.437500</ele>
<time>2012-07-22T14:53:16Z</time>
<extensions>
<speed>0.0</speed>
<temp>0.00</temp>
<bpm>0</bpm>
<rpm>0.00</rpm>
</extensions>
</trkpt>
<trkpt lat="63.990001678" lon="-19.060214996">
<ele>592.437500</ele>
<time>2012-07-22T14:53:21Z</time>
<speed>0.010000</speed>
<extensions>
<speed>0.0</speed>
<temp>0.00</temp>
<bpm>0</bpm>
<rpm>0.00</rpm>
</extensions>
</trkpt>
<trkpt lat="63.990001678" lon="-19.060214996">
<ele>592.453125</ele>
<time>2012-07-22T14:53:26Z</time>
<speed>0.010000</speed>
<extensions>
<speed>0.0</speed>
<temp>0.00</temp>
<bpm>0</bpm>
<rpm>0.00</rpm>
</extensions>
</trkpt>
<trkpt lat="63.990001678" lon="-19.060214996">
<ele>592.437500</ele>
<time>2012-07-22T14:53:31Z</time>
<extensions>
<speed>0.0</speed>
<temp>0.00</temp>
<bpm>0</bpm>
<rpm>0.00</rpm>
</extensions>
</trkpt>
<trkpt lat="63.990001678" lon="-19.060214996">
<ele>592.437500</ele>
<time>2012-07-22T14:53:36Z</time>
<speed>0.010000</speed>
<extensions>
<speed>0.0</speed>
<temp>0.00</temp>
<bpm>0</bpm>
<rpm>0.00</rpm>
</extensions>
</trkpt>
<trkpt lat="63.990001678" lon="-19.060214996">
<ele>592.437500</ele>
<time>2012-07-22T14:53:41Z</time>
<extensions>
<speed>0.0</speed>
<temp>0.00</temp>
<bpm>0</bpm>
<rpm>0.00</rpm>
</extensions>
</trkpt>
<trkpt lat="63.990001678" lon="-19.060214996">
<ele>592.437500</ele>
<time>2012-07-22T14:53:46Z</time>
<extensions>
<speed>0.0</speed>
<temp>0.00</temp>
<bpm>0</bpm>
<rpm>0.00</rpm>
</extensions>
</trkpt>
<trkpt lat="63.990001678" lon="-19.060214996">
<ele>592.437500</ele>
<time>2012-07-22T14:53:51Z</time>
<extensions>
<speed>0.0</speed>
<temp>0.00</temp>
<bpm>0</bpm>
<rpm>0.00</rpm>
</extensions>
</trkpt>
<trkpt lat="63.990001678" lon="-19.060214996">
<ele>592.421875</ele>
<time>2012-07-22T14:53:56Z</time>
<extensions>
<speed>0.0</speed>
<temp>0.00</temp>
<bpm>0</bpm>
<rpm>0.00</rpm>
</extensions>
</trkpt>
<trkpt lat="63.990001678" lon="-19.060214996">
<ele>592.421875</ele>
<time>2012-07-22T14:54:01Z</time>
<extensions>
<speed>0.0</speed>
<temp>0.00</temp>
<bpm>0</bpm>
<rpm>0.00</rpm>
</extensions>
</trkpt>
<trkpt lat="63.990001678" lon="-19.060214996">
<ele>592.406250</ele>
<time>2012-07-22T14:54:06Z</time>
<extensions>
<speed>0.0</speed>
<temp>0.00</temp>
<bpm>0</bpm>
<rpm>0.00</rpm>
</extensions>
</trkpt>
<trkpt lat="63.990001678" lon="-19.060213089">
<ele>592.406250</ele>
<time>2012-07-22T14:54:11Z</time>
<extensions>
<speed>0.0</speed>
<temp>0.00</temp>
<bpm>0</bpm>
<rpm>0.00</rpm>
</extensions>
</trkpt>
<trkpt lat="63.990001678" lon="-19.060213089">
<ele>592.421875</ele>
<time>2012-07-22T14:54:16Z</time>
<extensions>
<speed>0.0</speed>
<temp>0.00</temp>
<bpm>0</bpm>
<rpm>0.00</rpm>
</extensions>
</trkpt>
<trkpt lat="63.990001678" lon="-19.060213089">
<ele>592.421875</ele>
<time>2012-07-22T14:54:21Z</time>
<extensions>
<speed>0.0</speed>
<temp>0.00</temp>
<bpm>0</bpm>
<rpm>0.00</rpm>
</extensions>
</trkpt>
<trkpt lat="63.990001678" lon="-19.060213089">
<ele>592.421875</ele>
<time>2012-07-22T14:54:26Z</time>
<extensions>
<speed>0.0</speed>
<temp>0.00</temp>
<bpm>0</bpm>
<rpm>0.00</rpm>
</extensions>
</trkpt>
<trkpt lat="63.990001678" lon="-19.060213089">
<ele>592.437500</ele>
<time>2012-07-22T14:54:31Z</time>
<speed>0.010000</speed>
<extensions>
<speed>0.0</speed>
<temp>0.00</temp>
<bpm>0</bpm>
<rpm>0.00</rpm>
</extensions>
</trkpt>
<trkpt lat="63.990001678" lon="-19.060213089">
<ele>592.421875</ele>
<time>2012-07-22T14:54:36Z</time>
<extensions>
<speed>0.0</speed>
<temp>0.00</temp>
<bpm>0</bpm>
<rpm>0.00</rpm>
</extensions>
</trkpt>
<trkpt lat="63.990001678" lon="-19.060213089">
<ele>592.421875</ele>
<time>2012-07-22T14:54:41Z</time>
<extensions>
<speed>0.0</speed>
<temp>0.00</temp>
<bpm>0</bpm>
<rpm>0.00</rpm>
</extensions>
</trkpt>
<trkpt lat="63.990001678" lon="-19.060213089">
<ele>592.421875</ele>
<time>2012-07-22T14:54:46Z</time>
<extensions>
<speed>0.0</speed>
<temp>0.00</temp>
<bpm>0</bpm>
<rpm>0.00</rpm>
</extensions>
</trkpt>
<trkpt lat="63.990001678" lon="-19.060213089">
<ele>592.421875</ele>
<time>2012-07-22T14:54:51Z</time>
<speed>0.010000</speed>
<extensions>
<speed>0.0</speed>
<temp>0.00</temp>
<bpm>0</bpm>
<rpm>0.00</rpm>
</extensions>
</trkpt>
<trkpt lat="63.990001678" lon="-19.060213089">
<ele>592.406250</ele>
<time>2012-07-22T14:54:56Z</time>
<extensions>
<speed>0.0</speed>
<temp>0.00</temp>
<bpm>0</bpm>
<rpm>0.00</rpm>
</extensions>
</trkpt>
<trkpt lat="63.990001678" lon="-19.060213089">
<ele>592.406250</ele>
<time>2012-07-22T14:55:01Z</time>
<extensions>
<speed>0.0</speed>
<temp>0.00</temp>
<bpm>0</bpm>
<rpm>0.00</rpm>
</extensions>
</trkpt>
<trkpt lat="63.990001678" lon="-19.060211182">
<ele>592.406250</ele>
<time>2012-07-22T14:55:06Z</time>
<extensions>
<speed>0.0</speed>
<temp>0.00</temp>
<bpm>0</bpm>
<rpm>0.00</rpm>
</extensions>
</trkpt>
<trkpt lat="63.990001678" lon="-19.060211182">
<ele>592.421875</ele>
<time>2012-07-22T14:55:11Z</time>
<extensions>
<speed>0.0</speed>
<temp>0.00</temp>
<bpm>0</bpm>
<rpm>0.00</rpm>
</extensions>
</trkpt>
<trkpt lat="63.990001678" lon="-19.060211182">
<ele>592.421875</ele>
<time>2012-07-22T14:55:16Z</time>
<extensions>
<speed>0.0</speed>
<temp>0.00</temp>
<bpm>0</bpm>
<rpm>0.00</rpm>
</extensions>
</trkpt>
<trkpt lat="63.990001678" lon="-19.060211182">
<ele>592.421875</ele>
<time>2012-07-22T14:55:21Z</time>
<extensions>
<speed>0.0</speed>
<temp>0.00</temp>
<bpm>0</bpm>
<rpm>0.00</rpm>
</extensions>
</trkpt>
<trkpt lat="63.990001678" lon="-19.060211182">
<ele>592.406250</ele>
<time>2012-07-22T14:55:26Z</time>
<extensions>
<speed>0.0</speed>
<temp>0.00</temp>
<bpm>0</bpm>
<rpm>0.00</rpm>
</extensions>
</trkpt>
<trkpt lat="63.990001678" lon="-19.060211182">
<ele>592.406250</ele>
<time>2012-07-22T14:55:31Z</time>
<extensions>
<speed>0.0</speed>
<temp>0.00</temp>
<bpm>0</bpm>
<rpm>0.00</rpm>
</extensions>
</trkpt>
<trkpt lat="63.990001678" lon="-19.060211182">
<ele>592.406250</ele>
<time>2012-07-22T14:55:36Z</time>
<extensions>
<speed>0.0</speed>
<temp>0.00</temp>
<bpm>0</bpm>
<rpm>0.00</rpm>
</extensions>
</trkpt>
<trkpt lat="63.990001678" lon="-19.060211182">
<ele>592.406250</ele>
<time>2012-07-22T14:55:41Z</time>
<extensions>
<speed>0.0</speed>
<temp>0.00</temp>
<bpm>0</bpm>
<rpm>0.00</rpm>
</extensions>
</trkpt>
<trkpt lat="63.990001678" lon="-19.060209274">
<ele>592.390625</ele>
<time>2012-07-22T14:55:46Z</time>
<speed>0.010000</speed>
<extensions>
<speed>0.0</speed>
<temp>0.00</temp>
<bpm>0</bpm>
<rpm>0.00</rpm>
</extensions>
</trkpt>
<trkpt lat="63.990001678" lon="-19.060209274">
<ele>592.390625</ele>
<time>2012-07-22T14:55:51Z</time>
<extensions>
<speed>0.0</speed>
<temp>0.00</temp>
<bpm>0</bpm>
<rpm>0.00</rpm>
</extensions>
</trkpt>
<trkpt lat="63.990001678" lon="-19.060209274">
<ele>592.390625</ele>
<time>2012-07-22T14:55:56Z</time>
<extensions>
<speed>0.0</speed>
<temp>0.00</temp>
<bpm>0</bpm>
<rpm>0.00</rpm>
</extensions>
</trkpt>
<trkpt lat="63.990001678" lon="-19.060209274">
<ele>592.406250</ele>
<time>2012-07-22T14:56:01Z</time>
<extensions>
<speed>0.0</speed>
<temp>0.00</temp>
<bpm>0</bpm>
<rpm>0.00</rpm>
</extensions>
</trkpt>
<trkpt lat="63.990001678" lon="-19.060209274">
<ele>592.406250</ele>
<time>2012-07-22T14:56:06Z</time>
<extensions>
<speed>0.0</speed>
<temp>0.00</temp>
<bpm>0</bpm>
<rpm>0.00</rpm>
</extensions>
</trkpt>
<trkpt lat="63.990001678" lon="-19.060209274">
<ele>592.421875</ele>
<time>2012-07-22T14:56:11Z</time>
<extensions>
<speed>0.0</speed>
<temp>0.00</temp>
<bpm>0</bpm>
<rpm>0.00</rpm>
</extensions>
</trkpt>
<trkpt lat="63.990001678" lon="-19.060209274">
<ele>592.421875</ele>
<time>2012-07-22T14:56:16Z</time>
<speed>0.010000</speed>
<extensions>
<speed>0.0</speed>
<temp>0.00</temp>
<bpm>0</bpm>
<rpm>0.00</rpm>
</extensions>
</trkpt>
<trkpt lat="63.990001678" lon="-19.060209274">
<ele>592.421875</ele>
<time>2012-07-22T14:56:21Z</time>
<speed>0.010000</speed>
<extensions>
<speed>0.0</speed>
<temp>0.00</temp>
<bpm>0</bpm>
<rpm>0.00</rpm>
</extensions>
</trkpt>
<trkpt lat="63.990001678" lon="-19.060209274">
<ele>592.406250</ele>
<time>2012-07-22T14:56:26Z</time>
<extensions>
<speed>0.0</speed>
<temp>0.00</temp>
<bpm>0</bpm>
<rpm>0.00</rpm>
</extensions>
</trkpt>
<trkpt lat="63.990001678" lon="-19.060209274">
<ele>592.406250</ele>
<time>2012-07-22T14:56:31Z</time>
<extensions>
<speed>0.0</speed>
<temp>0.00</temp>
<bpm>0</bpm>
<rpm>0.00</rpm>
</extensions>
</trkpt>
<trkpt lat="63.990001678" lon="-19.060209274">
<ele>592.421875</ele>
<time>2012-07-22T14:56:36Z</time>
<extensions>
<speed>0.0</speed>
<temp>0.00</temp>
<bpm>0</bpm>
<rpm>0.00</rpm>
</extensions>
</trkpt>
<trkpt lat="63.990001678" lon="-19.060207367">
<ele>592.421875</ele>
<time>2012-07-22T14:56:41Z</time>
<speed>0.010000</speed>
<extensions>
<speed>0.0</speed>
<temp>0.00</temp>
<bpm>0</bpm>
<rpm>0.00</rpm>
</extensions>
</trkpt>
<trkpt lat="63.990001678" lon="-19.060207367">
<ele>592.421875</ele>
<time>2012-07-22T14:56:46Z</time>
<extensions>
<speed>0.0</speed>
<temp>0.00</temp>
<bpm>0</bpm>
<rpm>0.00</rpm>
</extensions>
</trkpt>
<trkpt lat="63.990001678" lon="-19.060207367">
<ele>592.421875</ele>
<time>2012-07-22T14:56:51Z</time>
<extensions>
<speed>0.0</speed>
<temp>0.00</temp>
<bpm>0</bpm>
<rpm>0.00</rpm>
</extensions>
</trkpt>
<trkpt lat="63.990001678" lon="-19.060207367">
<ele>592.437500</ele>
<time>2012-07-22T14:56:56Z</time>
<extensions>
<speed>0.0</speed>
<temp>0.00</temp>
<bpm>0</bpm>
<rpm>0.00</rpm>
</extensions>
</trkpt>
<trkpt lat="63.990001678" lon="-19.060207367">
<ele>592.437500</ele>
<time>2012-07-22T14:57:01Z</time>
<extensions>
<speed>0.0</speed>
<temp>0.00</temp>
<bpm>0</bpm>
<rpm>0.00</rpm>
</extensions>
</trkpt>
<trkpt lat="63.990001678" lon="-19.060207367">
<ele>592.437500</ele>
<time>2012-07-22T14:57:06Z</time>
<extensions>
<speed>0.0</speed>
<temp>0.00</temp>
<bpm>0</bpm>
<rpm>0.00</rpm>
</extensions>
</trkpt>
<trkpt lat="63.990001678" lon="-19.060207367">
<ele>592.437500</ele>
<time>2012-07-22T14:57:11Z</time>
<speed>0.010000</speed>
<extensions>
<speed>0.0</speed>
<temp>0.00</temp>
<bpm>0</bpm>
<rpm>0.00</rpm>
</extensions>
</trkpt>
<trkpt lat="63.990001678" lon="-19.060207367">
<ele>592.437500</ele>
<time>2012-07-22T14:57:16Z</time>
<speed>0.010000</speed>
<extensions>
<speed>0.0</speed>
<temp>0.00</temp>
<bpm>0</bpm>
<rpm>0.00</rpm>
</extensions>
</trkpt>
<trkpt lat="63.990001678" lon="-19.060207367">
<ele>592.437500</ele>
<time>2012-07-22T14:57:21Z</time>
<extensions>
<speed>0.0</speed>
<temp>0.00</temp>
<bpm>0</bpm>
<rpm>0.00</rpm>
</extensions>
</trkpt>
<trkpt lat="63.990001678" lon="-19.060207367">
<ele>592.453125</ele>
<time>2012-07-22T14:57:26Z</time>
<speed>0.010000</speed>
<extensions>
<speed>0.0</speed>
<temp>0.00</temp>
<bpm>0</bpm>
<rpm>0.00</rpm>
</extensions>
</trkpt>
<trkpt lat="63.990001678" lon="-19.060207367">
<ele>592.453125</ele>
<time>2012-07-22T14:57:31Z</time>
<speed>0.010000</speed>
<extensions>
<speed>0.0</speed>
<temp>0.00</temp>
<bpm>0</bpm>
<rpm>0.00</rpm>
</extensions>
</trkpt>
<trkpt lat="63.990001678" lon="-19.060207367">
<ele>592.437500</ele>
<time>2012-07-22T14:57:36Z</time>
<extensions>
<speed>0.0</speed>
<temp>0.00</temp>
<bpm>0</bpm>
<rpm>0.00</rpm>
</extensions>
</trkpt>
<trkpt lat="63.990001678" lon="-19.060205460">
<ele>592.437500</ele>
<time>2012-07-22T14:57:41Z</time>
<extensions>
<speed>0.0</speed>
<temp>0.00</temp>
<bpm>0</bpm>
<rpm>0.00</rpm>
</extensions>
</trkpt>
<trkpt lat="63.990001678" lon="-19.060205460">
<ele>592.437500</ele>
<time>2012-07-22T14:57:46Z</time>
<speed>0.010000</speed>
<extensions>
<speed>0.0</speed>
<temp>0.00</temp>
<bpm>0</bpm>
<rpm>0.00</rpm>
</extensions>
</trkpt>
<trkpt lat="63.990001678" lon="-19.060205460">
<ele>592.437500</ele>
<time>2012-07-22T14:57:51Z</time>
<speed>0.010000</speed>
<extensions>
<speed>0.0</speed>
<temp>0.00</temp>
<bpm>0</bpm>
<rpm>0.00</rpm>
</extensions>
</trkpt>
<trkpt lat="63.990001678" lon="-19.060205460">
<ele>592.437500</ele>
<time>2012-07-22T14:57:56Z</time>
<speed>0.010000</speed>
<extensions>
<speed>0.0</speed>
<temp>0.00</temp>
<bpm>0</bpm>
<rpm>0.00</rpm>
</extensions>
</trkpt>
<trkpt lat="63.990001678" lon="-19.060205460">
<ele>592.453125</ele>
<time>2012-07-22T14:58:01Z</time>
<extensions>
<speed>0.0</speed>
<temp>0.00</temp>
<bpm>0</bpm>
<rpm>0.00</rpm>
</extensions>
</trkpt>
<trkpt lat="63.990001678" lon="-19.060205460">
<ele>592.453125</ele>
<time>2012-07-22T14:58:06Z</time>
<extensions>
<speed>0.0</speed>
<temp>0.00</temp>
<bpm>0</bpm>
<rpm>0.00</rpm>
</extensions>
</trkpt>
<trkpt lat="63.990001678" lon="-19.060205460">
<ele>592.453125</ele>
<time>2012-07-22T14:58:11Z</time>
<speed>0.010000</speed>
<extensions>
<speed>0.0</speed>
<temp>0.00</temp>
<bpm>0</bpm>
<rpm>0.00</rpm>
</extensions>
</trkpt>
<trkpt lat="63.990001678" lon="-19.060205460">
<ele>592.468750</ele>
<time>2012-07-22T14:58:16Z</time>
<extensions>
<speed>0.0</speed>
<temp>0.00</temp>
<bpm>0</bpm>
<rpm>0.00</rpm>
</extensions>
</trkpt>
<trkpt lat="63.990001678" lon="-19.060205460">
<ele>592.468750</ele>
<time>2012-07-22T14:58:21Z</time>
<speed>0.020000</speed>
<extensions>
<speed>0.0</speed>
<temp>0.00</temp>
<bpm>0</bpm>
<rpm>0.00</rpm>
</extensions>
</trkpt>
<trkpt lat="63.990001678" lon="-19.060205460">
<ele>592.468750</ele>
<time>2012-07-22T14:58:26Z</time>
<extensions>
<speed>0.0</speed>
<temp>0.00</temp>
<bpm>0</bpm>
<rpm>0.00</rpm>
</extensions>
</trkpt>
<trkpt lat="63.990001678" lon="-19.060203552">
<ele>592.468750</ele>
<time>2012-07-22T14:58:31Z</time>
<extensions>
<speed>0.0</speed>
<temp>0.00</temp>
<bpm>0</bpm>
<rpm>0.00</rpm>
</extensions>
</trkpt>
<trkpt lat="63.990001678" lon="-19.060203552">
<ele>592.484375</ele>
<time>2012-07-22T14:58:36Z</time>
<extensions>
<speed>0.0</speed>
<temp>0.00</temp>
<bpm>0</bpm>
<rpm>0.00</rpm>
</extensions>
</trkpt>
<trkpt lat="63.990001678" lon="-19.060203552">
<ele>592.484375</ele>
<time>2012-07-22T14:58:41Z</time>
<extensions>
<speed>0.0</speed>
<temp>0.00</temp>
<bpm>0</bpm>
<rpm>0.00</rpm>
</extensions>
</trkpt>
<trkpt lat="63.990001678" lon="-19.060203552">
<ele>592.484375</ele>
<time>2012-07-22T14:58:46Z</time>
<extensions>
<speed>0.0</speed>
<temp>0.00</temp>
<bpm>0</bpm>
<rpm>0.00</rpm>
</extensions>
</trkpt>
<trkpt lat="63.990001678" lon="-19.060203552">
<ele>592.468750</ele>
<time>2012-07-22T14:58:51Z</time>
<speed>0.010000</speed>
<extensions>
<speed>0.0</speed>
<temp>0.00</temp>
<bpm>0</bpm>
<rpm>0.00</rpm>
</extensions>
</trkpt>
<trkpt lat="63.990001678" lon="-19.060203552">
<ele>592.484375</ele>
<time>2012-07-22T14:58:56Z</time>
<speed>0.010000</speed>
<extensions>
<speed>0.0</speed>
<temp>0.00</temp>
<bpm>0</bpm>
<rpm>0.00</rpm>
</extensions>
</trkpt>
<trkpt lat="63.990001678" lon="-19.060203552">
<ele>592.484375</ele>
<time>2012-07-22T14:59:01Z</time>
<speed>0.010000</speed>
<extensions>
<speed>0.0</speed>
<temp>0.00</temp>
<bpm>0</bpm>
<rpm>0.00</rpm>
</extensions>
</trkpt>
<trkpt lat="63.990001678" lon="-19.060203552">
<ele>592.484375</ele>
<time>2012-07-22T14:59:06Z</time>
<extensions>
<speed>0.0</speed>
<temp>0.00</temp>
<bpm>0</bpm>
<rpm>0.00</rpm>
</extensions>
</trkpt>
<trkpt lat="63.990001678" lon="-19.060201645">
<ele>592.484375</ele>
<time>2012-07-22T14:59:11Z</time>
<extensions>
<speed>0.0</speed>
<temp>0.00</temp>
<bpm>0</bpm>
<rpm>0.00</rpm>
</extensions>
</trkpt>
<trkpt lat="63.990001678" lon="-19.060201645">
<ele>592.484375</ele>
<time>2012-07-22T14:59:16Z</time>
<extensions>
<speed>0.0</speed>
<temp>0.00</temp>
<bpm>0</bpm>
<rpm>0.00</rpm>
</extensions>
</trkpt>
<trkpt lat="63.990001678" lon="-19.060201645">
<ele>592.484375</ele>
<time>2012-07-22T14:59:21Z</time>
<extensions>
<speed>0.0</speed>
<temp>0.00</temp>
<bpm>0</bpm>
<rpm>0.00</rpm>
</extensions>
</trkpt>
<trkpt lat="63.990001678" lon="-19.060201645">
<ele>592.484375</ele>
<time>2012-07-22T14:59:26Z</time>
<speed>0.010000</speed>
<extensions>
<speed>0.0</speed>
<temp>0.00</temp>
<bpm>0</bpm>
<rpm>0.00</rpm>
</extensions>
</trkpt>
<trkpt lat="63.990001678" lon="-19.060201645">
<ele>592.500000</ele>
<time>2012-07-22T14:59:31Z</time>
<extensions>
<speed>0.0</speed>
<temp>0.00</temp>
<bpm>0</bpm>
<rpm>0.00</rpm>
</extensions>
</trkpt>
<trkpt lat="63.990001678" lon="-19.060201645">
<ele>592.484375</ele>
<time>2012-07-22T14:59:36Z</time>
<extensions>
<speed>0.0</speed>
<temp>0.00</temp>
<bpm>0</bpm>
<rpm>0.00</rpm>
</extensions>
</trkpt>
<trkpt lat="63.990001678" lon="-19.060201645">
<ele>592.500000</ele>
<time>2012-07-22T14:59:41Z</time>
<extensions>
<speed>0.0</speed>
<temp>0.00</temp>
<bpm>0</bpm>
<rpm>0.00</rpm>
</extensions>
</trkpt>
<trkpt lat="63.990001678" lon="-19.060201645">
<ele>592.500000</ele>
<time>2012-07-22T14:59:46Z</time>
<speed>0.010000</speed>
<extensions>
<speed>0.0</speed>
<temp>0.00</temp>
<bpm>0</bpm>
<rpm>0.00</rpm>
</extensions>
</trkpt>
<trkpt lat="63.990001678" lon="-19.060201645">
<ele>592.500000</ele>
<time>2012-07-22T14:59:51Z</time>
<speed>0.010000</speed>
<extensions>
<speed>0.0</speed>
<temp>0.00</temp>
<bpm>0</bpm>
<rpm>0.00</rpm>
</extensions>
</trkpt>
<trkpt lat="63.990001678" lon="-19.060199738">
<ele>592.500000</ele>
<time>2012-07-22T14:59:56Z</time>
<speed>0.010000</speed>
<extensions>
<speed>0.0</speed>
<temp>0.00</temp>
<bpm>0</bpm>
<rpm>0.00</rpm>
</extensions>
</trkpt>
<trkpt lat="63.990001678" lon="-19.060199738">
<ele>592.500000</ele>
<time>2012-07-22T15:00:01Z</time>
<speed>0.010000</speed>
<extensions>
<speed>0.0</speed>
<temp>0.00</temp>
<bpm>0</bpm>
<rpm>0.00</rpm>
</extensions>
</trkpt>
<trkpt lat="63.990001678" lon="-19.060199738">
<ele>592.500000</ele>
<time>2012-07-22T15:00:06Z</time>
<extensions>
<speed>0.0</speed>
<temp>0.00</temp>
<bpm>0</bpm>
<rpm>0.00</rpm>
</extensions>
</trkpt>
<trkpt lat="63.990001678" lon="-19.060199738">
<ele>592.500000</ele>
<time>2012-07-22T15:00:11Z</time>
<speed>0.010000</speed>
<extensions>
<speed>0.0</speed>
<temp>0.00</temp>
<bpm>0</bpm>
<rpm>0.00</rpm>
</extensions>
</trkpt>
<trkpt lat="63.990001678" lon="-19.060199738">
<ele>592.515625</ele>
<time>2012-07-22T15:00:16Z</time>
<speed>0.010000</speed>
<extensions>
<speed>0.0</speed>
<temp>0.00</temp>
<bpm>0</bpm>
<rpm>0.00</rpm>
</extensions>
</trkpt>
<trkpt lat="63.990001678" lon="-19.060199738">
<ele>592.515625</ele>
<time>2012-07-22T15:00:21Z</time>
<extensions>
<speed>0.0</speed>
<temp>0.00</temp>
<bpm>0</bpm>
<rpm>0.00</rpm>
</extensions>
</trkpt>
<trkpt lat="63.990001678" lon="-19.060199738">
<ele>592.500000</ele>
<time>2012-07-22T15:00:26Z</time>
<extensions>
<speed>0.0</speed>
<temp>0.00</temp>
<bpm>0</bpm>
<rpm>0.00</rpm>
</extensions>
</trkpt>
<trkpt lat="63.990001678" lon="-19.060199738">
<ele>592.515625</ele>
<time>2012-07-22T15:00:31Z</time>
<extensions>
<speed>0.0</speed>
<temp>0.00</temp>
<bpm>0</bpm>
<rpm>0.00</rpm>
</extensions>
</trkpt>
<trkpt lat="63.990001678" lon="-19.060197830">
<ele>592.515625</ele>
<time>2012-07-22T15:00:36Z</time>
<extensions>
<speed>0.0</speed>
<temp>0.00</temp>
<bpm>0</bpm>
<rpm>0.00</rpm>
</extensions>
</trkpt>
<trkpt lat="63.990001678" lon="-19.060197830">
<ele>592.515625</ele>
<time>2012-07-22T15:00:41Z</time>
<extensions>
<speed>0.0</speed>
<temp>0.00</temp>
<bpm>0</bpm>
<rpm>0.00</rpm>
</extensions>
</trkpt>
<trkpt lat="63.990001678" lon="-19.060197830">
<ele>592.515625</ele>
<time>2012-07-22T15:00:46Z</time>
<extensions>
<speed>0.0</speed>
<temp>0.00</temp>
<bpm>0</bpm>
<rpm>0.00</rpm>
</extensions>
</trkpt>
<trkpt lat="63.990001678" lon="-19.060197830">
<ele>592.531250</ele>
<time>2012-07-22T15:00:51Z</time>
<extensions>
<speed>0.0</speed>
<temp>0.00</temp>
<bpm>0</bpm>
<rpm>0.00</rpm>
</extensions>
</trkpt>
<trkpt lat="63.990001678" lon="-19.060197830">
<ele>592.515625</ele>
<time>2012-07-22T15:00:56Z</time>
<extensions>
<speed>0.0</speed>
<temp>0.00</temp>
<bpm>0</bpm>
<rpm>0.00</rpm>
</extensions>
</trkpt>
<trkpt lat="63.990001678" lon="-19.060197830">
<ele>592.515625</ele>
<time>2012-07-22T15:01:01Z</time>
<extensions>
<speed>0.0</speed>
<temp>0.00</temp>
<bpm>0</bpm>
<rpm>0.00</rpm>
</extensions>
</trkpt>
<trkpt lat="63.990001678" lon="-19.060197830">
<ele>592.515625</ele>
<time>2012-07-22T15:01:06Z</time>
<extensions>
<speed>0.0</speed>
<temp>0.00</temp>
<bpm>0</bpm>
<rpm>0.00</rpm>
</extensions>
</trkpt>
<trkpt lat="63.990001678" lon="-19.060197830">
<ele>592.515625</ele>
<time>2012-07-22T15:01:11Z</time>
<extensions>
<speed>0.0</speed>
<temp>0.00</temp>
<bpm>0</bpm>
<rpm>0.00</rpm>
</extensions>
</trkpt>
<trkpt lat="63.990001678" lon="-19.060197830">
<ele>592.515625</ele>
<time>2012-07-22T15:01:16Z</time>
<speed>0.020000</speed>
<extensions>
<speed>0.0</speed>
<temp>0.00</temp>
<bpm>0</bpm>
<rpm>0.00</rpm>
</extensions>
</trkpt>
<trkpt lat="63.990001678" lon="-19.060195923">
<ele>592.515625</ele>
<time>2012-07-22T15:01:21Z</time>
<speed>0.010000</speed>
<extensions>
<speed>0.0</speed>
<temp>0.00</temp>
<bpm>0</bpm>
<rpm>0.00</rpm>
</extensions>
</trkpt>
<trkpt lat="63.990001678" lon="-19.060195923">
<ele>592.515625</ele>
<time>2012-07-22T15:01:26Z</time>
<speed>0.020000</speed>
<extensions>
<speed>0.0</speed>
<temp>0.00</temp>
<bpm>0</bpm>
<rpm>0.00</rpm>
</extensions>
</trkpt>
<trkpt lat="63.990001678" lon="-19.060195923">
<ele>592.515625</ele>
<time>2012-07-22T15:01:31Z</time>
<extensions>
<speed>0.0</speed>
<temp>0.00</temp>
<bpm>0</bpm>
<rpm>0.00</rpm>
</extensions>
</trkpt>
<trkpt lat="63.990001678" lon="-19.060195923">
<ele>592.500000</ele>
<time>2012-07-22T15:01:36Z</time>
<speed>0.010000</speed>
<extensions>
<speed>0.0</speed>
<temp>0.00</temp>
<bpm>0</bpm>
<rpm>0.00</rpm>
</extensions>
</trkpt>
<trkpt lat="63.990001678" lon="-19.060195923">
<ele>592.500000</ele>
<time>2012-07-22T15:01:41Z</time>
<speed>0.010000</speed>
<extensions>
<speed>0.0</speed>
<temp>0.00</temp>
<bpm>0</bpm>
<rpm>0.00</rpm>
</extensions>
</trkpt>
<trkpt lat="63.990001678" lon="-19.060195923">
<ele>592.484375</ele>
<time>2012-07-22T15:01:46Z</time>
<extensions>
<speed>0.0</speed>
<temp>0.00</temp>
<bpm>0</bpm>
<rpm>0.00</rpm>
</extensions>
</trkpt>
<trkpt lat="63.990001678" lon="-19.060194016">
<ele>592.468750</ele>
<time>2012-07-22T15:01:51Z</time>
<speed>0.010000</speed>
<extensions>
<speed>0.0</speed>
<temp>0.00</temp>
<bpm>0</bpm>
<rpm>0.00</rpm>
</extensions>
</trkpt>
<trkpt lat="63.989997864" lon="-19.060194016">
<ele>592.468750</ele>
<time>2012-07-22T15:01:56Z</time>
<extensions>
<speed>0.0</speed>
<temp>0.00</temp>
<bpm>0</bpm>
<rpm>0.00</rpm>
</extensions>
</trkpt>
<trkpt lat="63.989997864" lon="-19.060194016">
<ele>592.468750</ele>
<time>2012-07-22T15:02:01Z</time>
<extensions>
<speed>0.0</speed>
<temp>0.00</temp>
<bpm>0</bpm>
<rpm>0.00</rpm>
</extensions>
</trkpt>
<trkpt lat="63.989997864" lon="-19.060194016">
<ele>592.468750</ele>
<time>2012-07-22T15:02:06Z</time>
<extensions>
<speed>0.0</speed>
<temp>0.00</temp>
<bpm>0</bpm>
<rpm>0.00</rpm>
</extensions>
</trkpt>
<trkpt lat="63.989997864" lon="-19.060194016">
<ele>592.468750</ele>
<time>2012-07-22T15:02:11Z</time>
<speed>0.010000</speed>
<extensions>
<speed>0.0</speed>
<temp>0.00</temp>
<bpm>0</bpm>
<rpm>0.00</rpm>
</extensions>
</trkpt>
<trkpt lat="63.989997864" lon="-19.060194016">
<ele>592.468750</ele>
<time>2012-07-22T15:02:16Z</time>
<extensions>
<speed>0.0</speed>
<temp>0.00</temp>
<bpm>0</bpm>
<rpm>0.00</rpm>
</extensions>
</trkpt>
<trkpt lat="63.989997864" lon="-19.060194016">
<ele>592.484375</ele>
<time>2012-07-22T15:02:21Z</time>
<speed>0.010000</speed>
<extensions>
<speed>0.0</speed>
<temp>0.00</temp>
<bpm>0</bpm>
<rpm>0.00</rpm>
</extensions>
</trkpt>
<trkpt lat="63.989997864" lon="-19.060194016">
<ele>592.484375</ele>
<time>2012-07-22T15:02:26Z</time>
<extensions>
<speed>0.0</speed>
<temp>0.00</temp>
<bpm>0</bpm>
<rpm>0.00</rpm>
</extensions>
</trkpt>
<trkpt lat="63.989997864" lon="-19.060194016">
<ele>592.484375</ele>
<time>2012-07-22T15:02:31Z</time>
<extensions>
<speed>0.0</speed>
<temp>0.00</temp>
<bpm>0</bpm>
<rpm>0.00</rpm>
</extensions>
</trkpt>
<trkpt lat="63.989997864" lon="-19.060194016">
<ele>592.484375</ele>
<time>2012-07-22T15:02:36Z</time>
<speed>0.010000</speed>
<extensions>
<speed>0.0</speed>
<temp>0.00</temp>
<bpm>0</bpm>
<rpm>0.00</rpm>
</extensions>
</trkpt>
<trkpt lat="63.989997864" lon="-19.060194016">
<ele>592.468750</ele>
<time>2012-07-22T15:02:41Z</time>
<extensions>
<speed>0.0</speed>
<temp>0.00</temp>
<bpm>0</bpm>
<rpm>0.00</rpm>
</extensions>
</trkpt>
<trkpt lat="63.989997864" lon="-19.060194016">
<ele>592.484375</ele>
<time>2012-07-22T15:02:46Z</time>
<extensions>
<speed>0.0</speed>
<temp>0.00</temp>
<bpm>0</bpm>
<rpm>0.00</rpm>
</extensions>
</trkpt>
<trkpt lat="63.989997864" lon="-19.060194016">
<ele>592.468750</ele>
<time>2012-07-22T15:02:51Z</time>
<speed>0.010000</speed>
<extensions>
<speed>0.0</speed>
<temp>0.00</temp>
<bpm>0</bpm>
<rpm>0.00</rpm>
</extensions>
</trkpt>
<trkpt lat="63.989997864" lon="-19.060192108">
<ele>592.453125</ele>
<time>2012-07-22T15:02:56Z</time>
<speed>0.010000</speed>
<extensions>
<speed>0.0</speed>
<temp>0.00</temp>
<bpm>0</bpm>
<rpm>0.00</rpm>
</extensions>
</trkpt>
<trkpt lat="63.989997864" lon="-19.060192108">
<ele>592.468750</ele>
<time>2012-07-22T15:03:01Z</time>
<extensions>
<speed>0.0</speed>
<temp>0.00</temp>
<bpm>0</bpm>
<rpm>0.00</rpm>
</extensions>
</trkpt>
<trkpt lat="63.989997864" lon="-19.060192108">
<ele>592.453125</ele>
<time>2012-07-22T15:03:06Z</time>
<speed>0.010000</speed>
<extensions>
<speed>0.0</speed>
<temp>0.00</temp>
<bpm>0</bpm>
<rpm>0.00</rpm>
</extensions>
</trkpt>
<trkpt lat="63.989997864" lon="-19.060192108">
<ele>592.453125</ele>
<time>2012-07-22T15:03:11Z</time>
<extensions>
<speed>0.0</speed>
<temp>0.00</temp>
<bpm>0</bpm>
<rpm>0.00</rpm>
</extensions>
</trkpt>
<trkpt lat="63.989997864" lon="-19.060192108">
<ele>592.437500</ele>
<time>2012-07-22T15:03:16Z</time>
<extensions>
<speed>0.0</speed>
<temp>0.00</temp>
<bpm>0</bpm>
<rpm>0.00</rpm>
</extensions>
</trkpt>
<trkpt lat="63.989997864" lon="-19.060192108">
<ele>592.437500</ele>
<time>2012-07-22T15:03:21Z</time>
<speed>0.010000</speed>
<extensions>
<speed>0.0</speed>
<temp>0.00</temp>
<bpm>0</bpm>
<rpm>0.00</rpm>
</extensions>
</trkpt>
<trkpt lat="63.989997864" lon="-19.060190201">
<ele>592.437500</ele>
<time>2012-07-22T15:03:26Z</time>
<speed>0.010000</speed>
<extensions>
<speed>0.0</speed>
<temp>0.00</temp>
<bpm>0</bpm>
<rpm>0.00</rpm>
</extensions>
</trkpt>
<trkpt lat="63.989997864" lon="-19.060190201">
<ele>592.421875</ele>
<time>2012-07-22T15:03:31Z</time>
<speed>0.010000</speed>
<extensions>
<speed>0.0</speed>
<temp>0.00</temp>
<bpm>0</bpm>
<rpm>0.00</rpm>
</extensions>
</trkpt>
<trkpt lat="63.989997864" lon="-19.060190201">
<ele>592.406250</ele>
<time>2012-07-22T15:03:36Z</time>
<speed>0.010000</speed>
<extensions>
<speed>0.0</speed>
<temp>0.00</temp>
<bpm>0</bpm>
<rpm>0.00</rpm>
</extensions>
</trkpt>
<trkpt lat="63.989997864" lon="-19.060190201">
<ele>592.406250</ele>
<time>2012-07-22T15:03:41Z</time>
<speed>0.010000</speed>
<extensions>
<speed>0.0</speed>
<temp>0.00</temp>
<bpm>0</bpm>
<rpm>0.00</rpm>
</extensions>
</trkpt>
<trkpt lat="63.989997864" lon="-19.060188293">
<ele>592.375000</ele>
<time>2012-07-22T15:03:46Z</time>
<speed>0.010000</speed>
<extensions>
<speed>0.0</speed>
<temp>0.00</temp>
<bpm>0</bpm>
<rpm>0.00</rpm>
</extensions>
</trkpt>
<trkpt lat="63.989997864" lon="-19.060188293">
<ele>592.375000</ele>
<time>2012-07-22T15:03:51Z</time>
<speed>0.010000</speed>
<extensions>
<speed>0.0</speed>
<temp>0.00</temp>
<bpm>0</bpm>
<rpm>0.00</rpm>
</extensions>
</trkpt>
<trkpt lat="63.989997864" lon="-19.060188293">
<ele>592.359375</ele>
<time>2012-07-22T15:03:56Z</time>
<extensions>
<speed>0.0</speed>
<temp>0.00</temp>
<bpm>0</bpm>
<rpm>0.00</rpm>
</extensions>
</trkpt>
<trkpt lat="63.989997864" lon="-19.060188293">
<ele>592.359375</ele>
<time>2012-07-22T15:04:01Z</time>
<speed>0.010000</speed>
<extensions>
<speed>0.0</speed>
<temp>0.00</temp>
<bpm>0</bpm>
<rpm>0.00</rpm>
</extensions>
</trkpt>
<trkpt lat="63.989997864" lon="-19.060188293">
<ele>592.359375</ele>
<time>2012-07-22T15:04:06Z</time>
<speed>0.010000</speed>
<extensions>
<speed>0.0</speed>
<temp>0.00</temp>
<bpm>0</bpm>
<rpm>0.00</rpm>
</extensions>
</trkpt>
<trkpt lat="63.989997864" lon="-19.060188293">
<ele>592.343750</ele>
<time>2012-07-22T15:04:11Z</time>
<extensions>
<speed>0.0</speed>
<temp>0.00</temp>
<bpm>0</bpm>
<rpm>0.00</rpm>
</extensions>
</trkpt>
<trkpt lat="63.989997864" lon="-19.060188293">
<ele>592.343750</ele>
<time>2012-07-22T15:04:16Z</time>
<extensions>
<speed>0.0</speed>
<temp>0.00</temp>
<bpm>0</bpm>
<rpm>0.00</rpm>
</extensions>
</trkpt>
<trkpt lat="63.989997864" lon="-19.060186386">
<ele>592.343750</ele>
<time>2012-07-22T15:04:21Z</time>
<speed>0.010000</speed>
<extensions>
<speed>0.0</speed>
<temp>0.00</temp>
<bpm>0</bpm>
<rpm>0.00</rpm>
</extensions>
</trkpt>
<trkpt lat="63.989997864" lon="-19.060186386">
<ele>592.359375</ele>
<time>2012-07-22T15:04:26Z</time>
<extensions>
<speed>0.0</speed>
<temp>0.00</temp>
<bpm>0</bpm>
<rpm>0.00</rpm>
</extensions>
</trkpt>
<trkpt lat="63.989997864" lon="-19.060186386">
<ele>592.359375</ele>
<time>2012-07-22T15:04:31Z</time>
<speed>0.010000</speed>
<extensions>
<speed>0.0</speed>
<temp>0.00</temp>
<bpm>0</bpm>
<rpm>0.00</rpm>
</extensions>
</trkpt>
<trkpt lat="63.989997864" lon="-19.060186386">
<ele>592.359375</ele>
<time>2012-07-22T15:04:36Z</time>
<extensions>
<speed>0.0</speed>
<temp>0.00</temp>
<bpm>0</bpm>
<rpm>0.00</rpm>
</extensions>
</trkpt>
<trkpt lat="63.989997864" lon="-19.060186386">
<ele>592.343750</ele>
<time>2012-07-22T15:04:41Z</time>
<speed>0.010000</speed>
<extensions>
<speed>0.0</speed>
<temp>0.00</temp>
<bpm>0</bpm>
<rpm>0.00</rpm>
</extensions>
</trkpt>
<trkpt lat="63.989997864" lon="-19.060186386">
<ele>592.328125</ele>
<time>2012-07-22T15:04:46Z</time>
<extensions>
<speed>0.0</speed>
<temp>0.00</temp>
<bpm>0</bpm>
<rpm>0.00</rpm>
</extensions>
</trkpt>
<trkpt lat="63.989997864" lon="-19.060184479">
<ele>592.328125</ele>
<time>2012-07-22T15:04:51Z</time>
<extensions>
<speed>0.0</speed>
<temp>0.00</temp>
<bpm>0</bpm>
<rpm>0.00</rpm>
</extensions>
</trkpt>
<trkpt lat="63.989997864" lon="-19.060184479">
<ele>592.312500</ele>
<time>2012-07-22T15:04:56Z</time>
<extensions>
<speed>0.0</speed>
<temp>0.00</temp>
<bpm>0</bpm>
<rpm>0.00</rpm>
</extensions>
</trkpt>
<trkpt lat="63.989997864" lon="-19.060184479">
<ele>592.296875</ele>
<time>2012-07-22T15:05:01Z</time>
<speed>0.010000</speed>
<extensions>
<speed>0.0</speed>
<temp>0.00</temp>
<bpm>0</bpm>
<rpm>0.00</rpm>
</extensions>
</trkpt>
<trkpt lat="63.989997864" lon="-19.060184479">
<ele>592.296875</ele>
<time>2012-07-22T15:05:06Z</time>
<speed>0.010000</speed>
<extensions>
<speed>0.0</speed>
<temp>0.00</temp>
<bpm>0</bpm>
<rpm>0.00</rpm>
</extensions>
</trkpt>
<trkpt lat="63.989997864" lon="-19.060184479">
<ele>592.296875</ele>
<time>2012-07-22T15:05:11Z</time>
<extensions>
<speed>0.0</speed>
<temp>0.00</temp>
<bpm>0</bpm>
<rpm>0.00</rpm>
</extensions>
</trkpt>
<trkpt lat="63.989997864" lon="-19.060182571">
<ele>592.296875</ele>
<time>2012-07-22T15:05:16Z</time>
<extensions>
<speed>0.0</speed>
<temp>0.00</temp>
<bpm>0</bpm>
<rpm>0.00</rpm>
</extensions>
</trkpt>
<trkpt lat="63.989997864" lon="-19.060182571">
<ele>592.281250</ele>
<time>2012-07-22T15:05:21Z</time>
<extensions>
<speed>0.0</speed>
<temp>0.00</temp>
<bpm>0</bpm>
<rpm>0.00</rpm>
</extensions>
</trkpt>
<trkpt lat="63.989997864" lon="-19.060182571">
<ele>592.265625</ele>
<time>2012-07-22T15:05:26Z</time>
<extensions>
<speed>0.0</speed>
<temp>0.00</temp>
<bpm>0</bpm>
<rpm>0.00</rpm>
</extensions>
</trkpt>
<trkpt lat="63.989997864" lon="-19.060182571">
<ele>592.281250</ele>
<time>2012-07-22T15:05:31Z</time>
<extensions>
<speed>0.0</speed>
<temp>0.00</temp>
<bpm>0</bpm>
<rpm>0.00</rpm>
</extensions>
</trkpt>
<trkpt lat="63.989997864" lon="-19.060182571">
<ele>592.281250</ele>
<time>2012-07-22T15:05:36Z</time>
<extensions>
<speed>0.0</speed>
<temp>0.00</temp>
<bpm>0</bpm>
<rpm>0.00</rpm>
</extensions>
</trkpt>
<trkpt lat="63.989997864" lon="-19.060182571">
<ele>592.281250</ele>
<time>2012-07-22T15:05:41Z</time>
<extensions>
<speed>0.0</speed>
<temp>0.00</temp>
<bpm>0</bpm>
<rpm>0.00</rpm>
</extensions>
</trkpt>
<trkpt lat="63.989997864" lon="-19.060180664">
<ele>592.265625</ele>
<time>2012-07-22T15:05:46Z</time>
<extensions>
<speed>0.0</speed>
<temp>0.00</temp>
<bpm>0</bpm>
<rpm>0.00</rpm>
</extensions>
</trkpt>
<trkpt lat="63.989997864" lon="-19.060180664">
<ele>592.250000</ele>
<time>2012-07-22T15:05:51Z</time>
<extensions>
<speed>0.0</speed>
<temp>0.00</temp>
<bpm>0</bpm>
<rpm>0.00</rpm>
</extensions>
</trkpt>
<trkpt lat="63.989997864" lon="-19.060180664">
<ele>592.250000</ele>
<time>2012-07-22T15:05:56Z</time>
<extensions>
<speed>0.0</speed>
<temp>0.00</temp>
<bpm>0</bpm>
<rpm>0.00</rpm>
</extensions>
</trkpt>
<trkpt lat="63.989997864" lon="-19.060180664">
<ele>592.234375</ele>
<time>2012-07-22T15:06:01Z</time>
<speed>0.010000</speed>
<extensions>
<speed>0.0</speed>
<temp>0.00</temp>
<bpm>0</bpm>
<rpm>0.00</rpm>
</extensions>
</trkpt>
<trkpt lat="63.989997864" lon="-19.060180664">
<ele>592.234375</ele>
<time>2012-07-22T15:06:06Z</time>
<speed>0.010000</speed>
<extensions>
<speed>0.0</speed>
<temp>0.00</temp>
<bpm>0</bpm>
<rpm>0.00</rpm>
</extensions>
</trkpt>
<trkpt lat="63.989997864" lon="-19.060178757">
<ele>592.203125</ele>
<time>2012-07-22T15:06:11Z</time>
<speed>0.010000</speed>
<extensions>
<speed>0.0</speed>
<temp>0.00</temp>
<bpm>0</bpm>
<rpm>0.00</rpm>
</extensions>
</trkpt>
<trkpt lat="63.989997864" lon="-19.060178757">
<ele>592.203125</ele>
<time>2012-07-22T15:06:16Z</time>
<extensions>
<speed>0.0</speed>
<temp>0.00</temp>
<bpm>0</bpm>
<rpm>0.00</rpm>
</extensions>
</trkpt>
<trkpt lat="63.989997864" lon="-19.060178757">
<ele>592.187500</ele>
<time>2012-07-22T15:06:21Z</time>
<speed>0.010000</speed>
<extensions>
<speed>0.0</speed>
<temp>0.00</temp>
<bpm>0</bpm>
<rpm>0.00</rpm>
</extensions>
</trkpt>
<trkpt lat="63.989997864" lon="-19.060178757">
<ele>592.187500</ele>
<time>2012-07-22T15:06:26Z</time>
<extensions>
<speed>0.0</speed>
<temp>0.00</temp>
<bpm>0</bpm>
<rpm>0.00</rpm>
</extensions>
</trkpt>
<trkpt lat="63.989997864" lon="-19.060178757">
<ele>592.187500</ele>
<time>2012-07-22T15:06:31Z</time>
<speed>0.010000</speed>
<extensions>
<speed>0.0</speed>
<temp>0.00</temp>
<bpm>0</bpm>
<rpm>0.00</rpm>
</extensions>
</trkpt>
<trkpt lat="63.989997864" lon="-19.060178757">
<ele>592.187500</ele>
<time>2012-07-22T15:06:36Z</time>
<extensions>
<speed>0.0</speed>
<temp>0.00</temp>
<bpm>0</bpm>
<rpm>0.00</rpm>
</extensions>
</trkpt>
<trkpt lat="63.989997864" lon="-19.060178757">
<ele>592.187500</ele>
<time>2012-07-22T15:06:41Z</time>
<extensions>
<speed>0.0</speed>
<temp>0.00</temp>
<bpm>0</bpm>
<rpm>0.00</rpm>
</extensions>
</trkpt>
<trkpt lat="63.989997864" lon="-19.060178757">
<ele>592.203125</ele>
<time>2012-07-22T15:06:46Z</time>
<extensions>
<speed>0.0</speed>
<temp>0.00</temp>
<bpm>0</bpm>
<rpm>0.00</rpm>
</extensions>
</trkpt>
<trkpt lat="63.989994049" lon="-19.060176849">
<ele>592.203125</ele>
<time>2012-07-22T15:06:51Z</time>
<extensions>
<speed>0.0</speed>
<temp>0.00</temp>
<bpm>0</bpm>
<rpm>0.00</rpm>
</extensions>
</trkpt>
<trkpt lat="63.989994049" lon="-19.060176849">
<ele>592.203125</ele>
<time>2012-07-22T15:06:56Z</time>
<speed>0.010000</speed>
<extensions>
<speed>0.0</speed>
<temp>0.00</temp>
<bpm>0</bpm>
<rpm>0.00</rpm>
</extensions>
</trkpt>
<trkpt lat="63.989994049" lon="-19.060176849">
<ele>592.203125</ele>
<time>2012-07-22T15:07:01Z</time>
<extensions>
<speed>0.0</speed>
<temp>0.00</temp>
<bpm>0</bpm>
<rpm>0.00</rpm>
</extensions>
</trkpt>
<trkpt lat="63.989994049" lon="-19.060176849">
<ele>592.171875</ele>
<time>2012-07-22T15:07:06Z</time>
<extensions>
<speed>0.0</speed>
<temp>0.00</temp>
<bpm>0</bpm>
<rpm>0.00</rpm>
</extensions>
</trkpt>
<trkpt lat="63.989994049" lon="-19.060174942">
<ele>592.140625</ele>
<time>2012-07-22T15:07:11Z</time>
<extensions>
<speed>0.0</speed>
<temp>0.00</temp>
<bpm>0</bpm>
<rpm>0.00</rpm>
</extensions>
</trkpt>
<trkpt lat="63.989994049" lon="-19.060174942">
<ele>592.125000</ele>
<time>2012-07-22T15:07:16Z</time>
<speed>0.010000</speed>
<extensions>
<speed>0.0</speed>
<temp>0.00</temp>
<bpm>0</bpm>
<rpm>0.00</rpm>
</extensions>
</trkpt>
<trkpt lat="63.989994049" lon="-19.060174942">
<ele>592.125000</ele>
<time>2012-07-22T15:07:21Z</time>
<extensions>
<speed>0.0</speed>
<temp>0.00</temp>
<bpm>0</bpm>
<rpm>0.00</rpm>
</extensions>
</trkpt>
<trkpt lat="63.989994049" lon="-19.060174942">
<ele>592.125000</ele>
<time>2012-07-22T15:07:26Z</time>
<speed>0.010000</speed>
<extensions>
<speed>0.0</speed>
<temp>0.00</temp>
<bpm>0</bpm>
<rpm>0.00</rpm>
</extensions>
</trkpt>
<trkpt lat="63.989994049" lon="-19.060174942">
<ele>592.125000</ele>
<time>2012-07-22T15:07:31Z</time>
<extensions>
<speed>0.0</speed>
<temp>0.00</temp>
<bpm>0</bpm>
<rpm>0.00</rpm>
</extensions>
</trkpt>
<trkpt lat="63.989994049" lon="-19.060174942">
<ele>592.125000</ele>
<time>2012-07-22T15:07:36Z</time>
<extensions>
<speed>0.0</speed>
<temp>0.00</temp>
<bpm>0</bpm>
<rpm>0.00</rpm>
</extensions>
</trkpt>
<trkpt lat="63.989994049" lon="-19.060174942">
<ele>592.125000</ele>
<time>2012-07-22T15:07:41Z</time>
<speed>0.020000</speed>
<extensions>
<speed>0.0</speed>
<temp>0.00</temp>
<bpm>0</bpm>
<rpm>0.00</rpm>
</extensions>
</trkpt>
<trkpt lat="63.989994049" lon="-19.060173035">
<ele>592.125000</ele>
<time>2012-07-22T15:07:46Z</time>
<extensions>
<speed>0.0</speed>
<temp>0.00</temp>
<bpm>0</bpm>
<rpm>0.00</rpm>
</extensions>
</trkpt>
<trkpt lat="63.989994049" lon="-19.060173035">
<ele>592.093750</ele>
<time>2012-07-22T15:07:51Z</time>
<extensions>
<speed>0.0</speed>
<temp>0.00</temp>
<bpm>0</bpm>
<rpm>0.00</rpm>
</extensions>
</trkpt>
<trkpt lat="63.989994049" lon="-19.060173035">
<ele>592.078125</ele>
<time>2012-07-22T15:07:56Z</time>
<extensions>
<speed>0.0</speed>
<temp>0.00</temp>
<bpm>0</bpm>
<rpm>0.00</rpm>
</extensions>
</trkpt>
<trkpt lat="63.989994049" lon="-19.060171127">
<ele>592.062500</ele>
<time>2012-07-22T15:08:01Z</time>
<speed>0.010000</speed>
<extensions>
<speed>0.0</speed>
<temp>0.00</temp>
<bpm>0</bpm>
<rpm>0.00</rpm>
</extensions>
</trkpt>
<trkpt lat="63.989994049" lon="-19.060171127">
<ele>592.062500</ele>
<time>2012-07-22T15:08:06Z</time>
<extensions>
<speed>0.0</speed>
<temp>0.00</temp>
<bpm>0</bpm>
<rpm>0.00</rpm>
</extensions>
</trkpt>
<trkpt lat="63.989994049" lon="-19.060171127">
<ele>592.078125</ele>
<time>2012-07-22T15:08:11Z</time>
<extensions>
<speed>0.0</speed>
<temp>0.00</temp>
<bpm>0</bpm>
<rpm>0.00</rpm>
</extensions>
</trkpt>
<trkpt lat="63.989994049" lon="-19.060171127">
<ele>592.078125</ele>
<time>2012-07-22T15:08:16Z</time>
<extensions>
<speed>0.0</speed>
<temp>0.00</temp>
<bpm>0</bpm>
<rpm>0.00</rpm>
</extensions>
</trkpt>
<trkpt lat="63.989994049" lon="-19.060171127">
<ele>592.062500</ele>
<time>2012-07-22T15:08:21Z</time>
<speed>0.010000</speed>
<extensions>
<speed>0.0</speed>
<temp>0.00</temp>
<bpm>0</bpm>
<rpm>0.00</rpm>
</extensions>
</trkpt>
<trkpt lat="63.989994049" lon="-19.060171127">
<ele>592.062500</ele>
<time>2012-07-22T15:08:26Z</time>
<extensions>
<speed>0.0</speed>
<temp>0.00</temp>
<bpm>0</bpm>
<rpm>0.00</rpm>
</extensions>
</trkpt>
<trkpt lat="63.989994049" lon="-19.060171127">
<ele>592.078125</ele>
<time>2012-07-22T15:08:31Z</time>
<speed>0.020000</speed>
<extensions>
<speed>0.0</speed>
<temp>0.00</temp>
<bpm>0</bpm>
<rpm>0.00</rpm>
</extensions>
</trkpt>
<trkpt lat="63.989994049" lon="-19.060171127">
<ele>592.093750</ele>
<time>2012-07-22T15:08:36Z</time>
<extensions>
<speed>0.0</speed>
<temp>0.00</temp>
<bpm>0</bpm>
<rpm>0.00</rpm>
</extensions>
</trkpt>
<trkpt lat="63.989994049" lon="-19.060173035">
<ele>592.078125</ele>
<time>2012-07-22T15:08:41Z</time>
<speed>0.010000</speed>
<extensions>
<speed>0.0</speed>
<temp>0.00</temp>
<bpm>0</bpm>
<rpm>0.00</rpm>
</extensions>
</trkpt>
<trkpt lat="63.989994049" lon="-19.060173035">
<ele>592.078125</ele>
<time>2012-07-22T15:08:46Z</time>
<speed>0.020000</speed>
<extensions>
<speed>0.0</speed>
<temp>0.00</temp>
<bpm>0</bpm>
<rpm>0.00</rpm>
</extensions>
</trkpt>
<trkpt lat="63.989994049" lon="-19.060173035">
<ele>592.078125</ele>
<time>2012-07-22T15:08:51Z</time>
<extensions>
<speed>0.0</speed>
<temp>0.00</temp>
<bpm>0</bpm>
<rpm>0.00</rpm>
</extensions>
</trkpt>
<trkpt lat="63.989994049" lon="-19.060173035">
<ele>592.078125</ele>
<time>2012-07-22T15:08:56Z</time>
<extensions>
<speed>0.0</speed>
<temp>0.00</temp>
<bpm>0</bpm>
<rpm>0.00</rpm>
</extensions>
</trkpt>
<trkpt lat="63.989994049" lon="-19.060173035">
<ele>592.078125</ele>
<time>2012-07-22T15:09:01Z</time>
<speed>0.020000</speed>
<extensions>
<speed>0.0</speed>
<temp>0.00</temp>
<bpm>0</bpm>
<rpm>0.00</rpm>
</extensions>
</trkpt>
<trkpt lat="63.989994049" lon="-19.060173035">
<ele>592.093750</ele>
<time>2012-07-22T15:09:06Z</time>
<speed>0.010000</speed>
<extensions>
<speed>0.0</speed>
<temp>0.00</temp>
<bpm>0</bpm>
<rpm>0.00</rpm>
</extensions>
</trkpt>
<trkpt lat="63.989994049" lon="-19.060173035">
<ele>592.093750</ele>
<time>2012-07-22T15:09:11Z</time>
<extensions>
<speed>0.0</speed>
<temp>0.00</temp>
<bpm>0</bpm>
<rpm>0.00</rpm>
</extensions>
</trkpt>
<trkpt lat="63.989994049" lon="-19.060173035">
<ele>592.093750</ele>
<time>2012-07-22T15:09:16Z</time>
<extensions>
<speed>0.0</speed>
<temp>0.00</temp>
<bpm>0</bpm>
<rpm>0.00</rpm>
</extensions>
</trkpt>
<trkpt lat="63.989994049" lon="-19.060173035">
<ele>592.093750</ele>
<time>2012-07-22T15:09:21Z</time>
<extensions>
<speed>0.0</speed>
<temp>0.00</temp>
<bpm>0</bpm>
<rpm>0.00</rpm>
</extensions>
</trkpt>
<trkpt lat="63.989994049" lon="-19.060173035">
<ele>592.093750</ele>
<time>2012-07-22T15:09:26Z</time>
<speed>0.010000</speed>
<extensions>
<speed>0.0</speed>
<temp>0.00</temp>
<bpm>0</bpm>
<rpm>0.00</rpm>
</extensions>
</trkpt>
<trkpt lat="63.989994049" lon="-19.060173035">
<ele>592.109375</ele>
<time>2012-07-22T15:09:31Z</time>
<extensions>
<speed>0.0</speed>
<temp>0.00</temp>
<bpm>0</bpm>
<rpm>0.00</rpm>
</extensions>
</trkpt>
<trkpt lat="63.989994049" lon="-19.060173035">
<ele>592.109375</ele>
<time>2012-07-22T15:09:36Z</time>
<speed>0.010000</speed>
<extensions>
<speed>0.0</speed>
<temp>0.00</temp>
<bpm>0</bpm>
<rpm>0.00</rpm>
</extensions>
</trkpt>
<trkpt lat="63.989994049" lon="-19.060174942">
<ele>592.093750</ele>
<time>2012-07-22T15:09:41Z</time>
<speed>0.010000</speed>
<extensions>
<speed>0.0</speed>
<temp>0.00</temp>
<bpm>0</bpm>
<rpm>0.00</rpm>
</extensions>
</trkpt>
<trkpt lat="63.989994049" lon="-19.060174942">
<ele>592.093750</ele>
<time>2012-07-22T15:09:46Z</time>
<speed>0.010000</speed>
<extensions>
<speed>0.0</speed>
<temp>0.00</temp>
<bpm>0</bpm>
<rpm>0.00</rpm>
</extensions>
</trkpt>
<trkpt lat="63.989994049" lon="-19.060174942">
<ele>592.078125</ele>
<time>2012-07-22T15:09:51Z</time>
<extensions>
<speed>0.0</speed>
<temp>0.00</temp>
<bpm>0</bpm>
<rpm>0.00</rpm>
</extensions>
</trkpt>
<trkpt lat="63.989994049" lon="-19.060174942">
<ele>592.062500</ele>
<time>2012-07-22T15:09:56Z</time>
<extensions>
<speed>0.0</speed>
<temp>0.00</temp>
<bpm>0</bpm>
<rpm>0.00</rpm>
</extensions>
</trkpt>
<trkpt lat="63.989994049" lon="-19.060174942">
<ele>592.062500</ele>
<time>2012-07-22T15:10:01Z</time>
<speed>0.170000</speed>
<extensions>
<speed>0.2</speed>
<temp>0.00</temp>
<bpm>0</bpm>
<rpm>0.00</rpm>
</extensions>
</trkpt>
<trkpt lat="63.989994049" lon="-19.060176849">
<ele>592.031250</ele>
<time>2012-07-22T15:10:06Z</time>
<speed>0.020000</speed>
<extensions>
<speed>0.0</speed>
<temp>0.00</temp>
<bpm>0</bpm>
<rpm>0.00</rpm>
</extensions>
</trkpt>
<trkpt lat="63.989994049" lon="-19.060176849">
<ele>592.015625</ele>
<time>2012-07-22T15:10:11Z</time>
<speed>0.160000</speed>
<extensions>
<speed>0.2</speed>
<temp>0.00</temp>
<bpm>0</bpm>
<rpm>0.00</rpm>
</extensions>
</trkpt>
<trkpt lat="63.989994049" lon="-19.060222626">
<ele>592.015625</ele>
<time>2012-07-22T15:10:16Z</time>
<speed>0.630000</speed>
<extensions>
<speed>0.6</speed>
<temp>0.00</temp>
<bpm>0</bpm>
<rpm>0.00</rpm>
</extensions>
</trkpt>
<trkpt lat="63.990013123" lon="-19.060298920">
<ele>592.687500</ele>
<time>2012-07-22T15:10:21Z</time>
<speed>0.590000</speed>
<extensions>
<speed>0.6</speed>
<temp>0.00</temp>
<bpm>0</bpm>
<rpm>0.00</rpm>
</extensions>
</trkpt>
<trkpt lat="63.990013123" lon="-19.060335159">
<ele>591.625000</ele>
<time>2012-07-22T15:10:26Z</time>
<speed>0.020000</speed>
<extensions>
<speed>0.0</speed>
<temp>0.00</temp>
<bpm>0</bpm>
<rpm>0.00</rpm>
</extensions>
</trkpt>
<trkpt lat="63.990013123" lon="-19.060335159">
<ele>591.609375</ele>
<time>2012-07-22T15:10:31Z</time>
<speed>0.020000</speed>
<extensions>
<speed>0.0</speed>
<temp>0.00</temp>
<bpm>0</bpm>
<rpm>0.00</rpm>
</extensions>
</trkpt>
<trkpt lat="63.990013123" lon="-19.060333252">
<ele>591.687500</ele>
<time>2012-07-22T15:10:36Z</time>
<speed>0.010000</speed>
<extensions>
<speed>0.0</speed>
<temp>0.00</temp>
<bpm>0</bpm>
<rpm>0.00</rpm>
</extensions>
</trkpt>
<trkpt lat="63.990013123" lon="-19.060333252">
<ele>591.671875</ele>
<time>2012-07-22T15:10:41Z</time>
<extensions>
<speed>0.0</speed>
<temp>0.00</temp>
<bpm>0</bpm>
<rpm>0.00</rpm>
</extensions>
</trkpt>
<trkpt lat="63.990013123" lon="-19.060333252">
<ele>591.687500</ele>
<time>2012-07-22T15:10:46Z</time>
<speed>0.010000</speed>
<extensions>
<speed>0.0</speed>
<temp>0.00</temp>
<bpm>0</bpm>
<rpm>0.00</rpm>
</extensions>
</trkpt>
<trkpt lat="63.990013123" lon="-19.060333252">
<ele>591.687500</ele>
<time>2012-07-22T15:10:51Z</time>
<extensions>
<speed>0.0</speed>
<temp>0.00</temp>
<bpm>0</bpm>
<rpm>0.00</rpm>
</extensions>
</trkpt>
<trkpt lat="63.990013123" lon="-19.060333252">
<ele>591.671875</ele>
<time>2012-07-22T15:10:56Z</time>
<extensions>
<speed>0.0</speed>
<temp>0.00</temp>
<bpm>0</bpm>
<rpm>0.00</rpm>
</extensions>
</trkpt>
<trkpt lat="63.990013123" lon="-19.060333252">
<ele>591.671875</ele>
<time>2012-07-22T15:11:01Z</time>
<extensions>
<speed>0.0</speed>
<temp>0.00</temp>
<bpm>0</bpm>
<rpm>0.00</rpm>
</extensions>
</trkpt>
<trkpt lat="63.990013123" lon="-19.060333252">
<ele>591.687500</ele>
<time>2012-07-22T15:11:06Z</time>
<extensions>
<speed>0.0</speed>
<temp>0.00</temp>
<bpm>0</bpm>
<rpm>0.00</rpm>
</extensions>
</trkpt>
<trkpt lat="63.990013123" lon="-19.060333252">
<ele>591.687500</ele>
<time>2012-07-22T15:11:11Z</time>
<speed>0.020000</speed>
<extensions>
<speed>0.0</speed>
<temp>0.00</temp>
<bpm>0</bpm>
<rpm>0.00</rpm>
</extensions>
</trkpt>
<trkpt lat="63.990013123" lon="-19.060333252">
<ele>591.734375</ele>
<time>2012-07-22T15:11:16Z</time>
<extensions>
<speed>0.0</speed>
<temp>0.00</temp>
<bpm>0</bpm>
<rpm>0.00</rpm>
</extensions>
</trkpt>
<trkpt lat="63.990013123" lon="-19.060333252">
<ele>591.750000</ele>
<time>2012-07-22T15:11:21Z</time>
<extensions>
<speed>0.0</speed>
<temp>0.00</temp>
<bpm>0</bpm>
<rpm>0.00</rpm>
</extensions>
</trkpt>
<trkpt lat="63.990013123" lon="-19.060333252">
<ele>591.750000</ele>
<time>2012-07-22T15:11:26Z</time>
<extensions>
<speed>0.0</speed>
<temp>0.00</temp>
<bpm>0</bpm>
<rpm>0.00</rpm>
</extensions>
</trkpt>
<trkpt lat="63.990013123" lon="-19.060333252">
<ele>591.750000</ele>
<time>2012-07-22T15:11:31Z</time>
<speed>0.010000</speed>
<extensions>
<speed>0.0</speed>
<temp>0.00</temp>
<bpm>0</bpm>
<rpm>0.00</rpm>
</extensions>
</trkpt>
<trkpt lat="63.990013123" lon="-19.060333252">
<ele>591.750000</ele>
<time>2012-07-22T15:11:36Z</time>
<extensions>
<speed>0.0</speed>
<temp>0.00</temp>
<bpm>0</bpm>
<rpm>0.00</rpm>
</extensions>
</trkpt>
<trkpt lat="63.990013123" lon="-19.060333252">
<ele>591.750000</ele>
<time>2012-07-22T15:11:41Z</time>
<speed>0.010000</speed>
<extensions>
<speed>0.0</speed>
<temp>0.00</temp>
<bpm>0</bpm>
<rpm>0.00</rpm>
</extensions>
</trkpt>
<trkpt lat="63.990013123" lon="-19.060333252">
<ele>591.750000</ele>
<time>2012-07-22T15:11:46Z</time>
<extensions>
<speed>0.0</speed>
<temp>0.00</temp>
<bpm>0</bpm>
<rpm>0.00</rpm>
</extensions>
</trkpt>
<trkpt lat="63.990013123" lon="-19.060333252">
<ele>591.750000</ele>
<time>2012-07-22T15:11:51Z</time>
<extensions>
<speed>0.0</speed>
<temp>0.00</temp>
<bpm>0</bpm>
<rpm>0.00</rpm>
</extensions>
</trkpt>
<trkpt lat="63.990013123" lon="-19.060333252">
<ele>591.734375</ele>
<time>2012-07-22T15:11:56Z</time>
<extensions>
<speed>0.0</speed>
<temp>0.00</temp>
<bpm>0</bpm>
<rpm>0.00</rpm>
</extensions>
</trkpt>
<trkpt lat="63.990013123" lon="-19.060333252">
<ele>591.734375</ele>
<time>2012-07-22T15:12:01Z</time>
<speed>0.010000</speed>
<extensions>
<speed>0.0</speed>
<temp>0.00</temp>
<bpm>0</bpm>
<rpm>0.00</rpm>
</extensions>
</trkpt>
<trkpt lat="63.990013123" lon="-19.060333252">
<ele>591.703125</ele>
<time>2012-07-22T15:12:06Z</time>
<extensions>
<speed>0.0</speed>
<temp>0.00</temp>
<bpm>0</bpm>
<rpm>0.00</rpm>
</extensions>
</trkpt>
<trkpt lat="63.990013123" lon="-19.060333252">
<ele>591.687500</ele>
<time>2012-07-22T15:12:11Z</time>
<extensions>
<speed>0.0</speed>
<temp>0.00</temp>
<bpm>0</bpm>
<rpm>0.00</rpm>
</extensions>
</trkpt>
<trkpt lat="63.990013123" lon="-19.060333252">
<ele>591.656250</ele>
<time>2012-07-22T15:12:16Z</time>
<extensions>
<speed>0.0</speed>
<temp>0.00</temp>
<bpm>0</bpm>
<rpm>0.00</rpm>
</extensions>
</trkpt>
<trkpt lat="63.990013123" lon="-19.060333252">
<ele>591.640625</ele>
<time>2012-07-22T15:12:21Z</time>
<speed>0.020000</speed>
<extensions>
<speed>0.0</speed>
<temp>0.00</temp>
<bpm>0</bpm>
<rpm>0.00</rpm>
</extensions>
</trkpt>
<trkpt lat="63.990013123" lon="-19.060331345">
<ele>591.640625</ele>
<time>2012-07-22T15:12:26Z</time>
<extensions>
<speed>0.0</speed>
<temp>0.00</temp>
<bpm>0</bpm>
<rpm>0.00</rpm>
</extensions>
</trkpt>
<trkpt lat="63.990013123" lon="-19.060331345">
<ele>591.625000</ele>
<time>2012-07-22T15:12:31Z</time>
<extensions>
<speed>0.0</speed>
<temp>0.00</temp>
<bpm>0</bpm>
<rpm>0.00</rpm>
</extensions>
</trkpt>
<trkpt lat="63.990013123" lon="-19.060331345">
<ele>591.609375</ele>
<time>2012-07-22T15:12:36Z</time>
<extensions>
<speed>0.0</speed>
<temp>0.00</temp>
<bpm>0</bpm>
<rpm>0.00</rpm>
</extensions>
</trkpt>
<trkpt lat="63.990013123" lon="-19.060331345">
<ele>591.609375</ele>
<time>2012-07-22T15:12:41Z</time>
<extensions>
<speed>0.0</speed>
<temp>0.00</temp>
<bpm>0</bpm>
<rpm>0.00</rpm>
</extensions>
</trkpt>
<trkpt lat="63.990013123" lon="-19.060331345">
<ele>591.609375</ele>
<time>2012-07-22T15:12:46Z</time>
<extensions>
<speed>0.0</speed>
<temp>0.00</temp>
<bpm>0</bpm>
<rpm>0.00</rpm>
</extensions>
</trkpt>
<trkpt lat="63.990013123" lon="-19.060331345">
<ele>591.625000</ele>
<time>2012-07-22T15:12:51Z</time>
<extensions>
<speed>0.0</speed>
<temp>0.00</temp>
<bpm>0</bpm>
<rpm>0.00</rpm>
</extensions>
</trkpt>
<trkpt lat="63.990013123" lon="-19.060331345">
<ele>591.640625</ele>
<time>2012-07-22T15:12:56Z</time>
<speed>0.010000</speed>
<extensions>
<speed>0.0</speed>
<temp>0.00</temp>
<bpm>0</bpm>
<rpm>0.00</rpm>
</extensions>
</trkpt>
<trkpt lat="63.990013123" lon="-19.060331345">
<ele>591.640625</ele>
<time>2012-07-22T15:13:01Z</time>
<extensions>
<speed>0.0</speed>
<temp>0.00</temp>
<bpm>0</bpm>
<rpm>0.00</rpm>
</extensions>
</trkpt>
<trkpt lat="63.990013123" lon="-19.060331345">
<ele>591.625000</ele>
<time>2012-07-22T15:13:06Z</time>
<speed>0.030000</speed>
<extensions>
<speed>0.0</speed>
<temp>0.00</temp>
<bpm>0</bpm>
<rpm>0.00</rpm>
</extensions>
</trkpt>
<trkpt lat="63.990013123" lon="-19.060331345">
<ele>591.609375</ele>
<time>2012-07-22T15:13:11Z</time>
<extensions>
<speed>0.0</speed>
<temp>0.00</temp>
<bpm>0</bpm>
<rpm>0.00</rpm>
</extensions>
</trkpt>
<trkpt lat="63.990013123" lon="-19.060331345">
<ele>591.609375</ele>
<time>2012-07-22T15:13:16Z</time>
<speed>0.010000</speed>
<extensions>
<speed>0.0</speed>
<temp>0.00</temp>
<bpm>0</bpm>
<rpm>0.00</rpm>
</extensions>
</trkpt>
<trkpt lat="63.990013123" lon="-19.060331345">
<ele>591.625000</ele>
<time>2012-07-22T15:13:21Z</time>
<speed>0.010000</speed>
<extensions>
<speed>0.0</speed>
<temp>0.00</temp>
<bpm>0</bpm>
<rpm>0.00</rpm>
</extensions>
</trkpt>
<trkpt lat="63.990016937" lon="-19.060333252">
<ele>591.578125</ele>
<time>2012-07-22T15:13:26Z</time>
<speed>0.070000</speed>
<extensions>
<speed>0.1</speed>
<temp>0.00</temp>
<bpm>0</bpm>
<rpm>0.00</rpm>
</extensions>
</trkpt>
<trkpt lat="63.990032196" lon="-19.060342789">
<ele>591.546875</ele>
<time>2012-07-22T15:13:31Z</time>
<speed>0.100000</speed>
<extensions>
<speed>0.1</speed>
<temp>0.00</temp>
<bpm>0</bpm>
<rpm>0.00</rpm>
</extensions>
</trkpt>
<trkpt lat="63.990036011" lon="-19.060342789">
<ele>591.531250</ele>
<time>2012-07-22T15:13:36Z</time>
<speed>0.090000</speed>
<extensions>
<speed>0.1</speed>
<temp>0.00</temp>
<bpm>0</bpm>
<rpm>0.00</rpm>
</extensions>
</trkpt>
<trkpt lat="63.990039825" lon="-19.060342789">
<ele>591.531250</ele>
<time>2012-07-22T15:13:41Z</time>
<speed>0.100000</speed>
<extensions>
<speed>0.1</speed>
<temp>0.00</temp>
<bpm>0</bpm>
<rpm>0.00</rpm>
</extensions>
</trkpt>
<trkpt lat="63.990039825" lon="-19.060348511">
<ele>591.734375</ele>
<time>2012-07-22T15:13:46Z</time>
<speed>0.030000</speed>
<extensions>
<speed>0.0</speed>
<temp>0.00</temp>
<bpm>0</bpm>
<rpm>0.00</rpm>
</extensions>
</trkpt>
<trkpt lat="63.990039825" lon="-19.060348511">
<ele>591.781250</ele>
<time>2012-07-22T15:13:51Z</time>
<speed>0.010000</speed>
<extensions>
<speed>0.0</speed>
<temp>0.00</temp>
<bpm>0</bpm>
<rpm>0.00</rpm>
</extensions>
</trkpt>
<trkpt lat="63.990039825" lon="-19.060348511">
<ele>591.765625</ele>
<time>2012-07-22T15:13:56Z</time>
<extensions>
<speed>0.0</speed>
<temp>0.00</temp>
<bpm>0</bpm>
<rpm>0.00</rpm>
</extensions>
</trkpt>
<trkpt lat="63.990039825" lon="-19.060348511">
<ele>591.750000</ele>
<time>2012-07-22T15:14:01Z</time>
<extensions>
<speed>0.0</speed>
<temp>0.00</temp>
<bpm>0</bpm>
<rpm>0.00</rpm>
</extensions>
</trkpt>
<trkpt lat="63.990039825" lon="-19.060348511">
<ele>591.734375</ele>
<time>2012-07-22T15:14:06Z</time>
<speed>0.010000</speed>
<extensions>
<speed>0.0</speed>
<temp>0.00</temp>
<bpm>0</bpm>
<rpm>0.00</rpm>
</extensions>
</trkpt>
<trkpt lat="63.990039825" lon="-19.060346603">
<ele>591.734375</ele>
<time>2012-07-22T15:14:11Z</time>
<speed>0.040000</speed>
<extensions>
<speed>0.0</speed>
<temp>0.00</temp>
<bpm>0</bpm>
<rpm>0.00</rpm>
</extensions>
</trkpt>
<trkpt lat="63.990036011" lon="-19.060344696">
<ele>591.703125</ele>
<time>2012-07-22T15:14:16Z</time>
<extensions>
<speed>0.0</speed>
<temp>0.00</temp>
<bpm>0</bpm>
<rpm>0.00</rpm>
</extensions>
</trkpt>
<trkpt lat="63.990036011" lon="-19.060344696">
<ele>591.656250</ele>
<time>2012-07-22T15:14:21Z</time>
<extensions>
<speed>0.0</speed>
<temp>0.00</temp>
<bpm>0</bpm>
<rpm>0.00</rpm>
</extensions>
</trkpt>
<trkpt lat="63.990036011" lon="-19.060344696">
<ele>591.640625</ele>
<time>2012-07-22T15:14:26Z</time>
<extensions>
<speed>0.0</speed>
<temp>0.00</temp>
<bpm>0</bpm>
<rpm>0.00</rpm>
</extensions>
</trkpt>
<trkpt lat="63.990036011" lon="-19.060344696">
<ele>591.640625</ele>
<time>2012-07-22T15:14:31Z</time>
<extensions>
<speed>0.0</speed>
<temp>0.00</temp>
<bpm>0</bpm>
<rpm>0.00</rpm>
</extensions>
</trkpt>
<trkpt lat="63.990036011" lon="-19.060344696">
<ele>591.640625</ele>
<time>2012-07-22T15:14:36Z</time>
<extensions>
<speed>0.0</speed>
<temp>0.00</temp>
<bpm>0</bpm>
<rpm>0.00</rpm>
</extensions>
</trkpt>
<trkpt lat="63.990036011" lon="-19.060344696">
<ele>591.640625</ele>
<time>2012-07-22T15:14:41Z</time>
<extensions>
<speed>0.0</speed>
<temp>0.00</temp>
<bpm>0</bpm>
<rpm>0.00</rpm>
</extensions>
</trkpt>
<trkpt lat="63.990036011" lon="-19.060344696">
<ele>591.609375</ele>
<time>2012-07-22T15:14:46Z</time>
<extensions>
<speed>0.0</speed>
<temp>0.00</temp>
<bpm>0</bpm>
<rpm>0.00</rpm>
</extensions>
</trkpt>
<trkpt lat="63.990036011" lon="-19.060344696">
<ele>591.578125</ele>
<time>2012-07-22T15:14:51Z</time>
<extensions>
<speed>0.0</speed>
<temp>0.00</temp>
<bpm>0</bpm>
<rpm>0.00</rpm>
</extensions>
</trkpt>
<trkpt lat="63.990036011" lon="-19.060344696">
<ele>591.578125</ele>
<time>2012-07-22T15:14:56Z</time>
<extensions>
<speed>0.0</speed>
<temp>0.00</temp>
<bpm>0</bpm>
<rpm>0.00</rpm>
</extensions>
</trkpt>
<trkpt lat="63.990036011" lon="-19.060344696">
<ele>591.593750</ele>
<time>2012-07-22T15:15:01Z</time>
<extensions>
<speed>0.0</speed>
<temp>0.00</temp>
<bpm>0</bpm>
<rpm>0.00</rpm>
</extensions>
</trkpt>
<trkpt lat="63.990036011" lon="-19.060344696">
<ele>591.578125</ele>
<time>2012-07-22T15:15:06Z</time>
<speed>0.010000</speed>
<extensions>
<speed>0.0</speed>
<temp>0.00</temp>
<bpm>0</bpm>
<rpm>0.00</rpm>
</extensions>
</trkpt>
<trkpt lat="63.990036011" lon="-19.060344696">
<ele>591.562500</ele>
<time>2012-07-22T15:15:11Z</time>
<extensions>
<speed>0.0</speed>
<temp>0.00</temp>
<bpm>0</bpm>
<rpm>0.00</rpm>
</extensions>
</trkpt>
<trkpt lat="63.990036011" lon="-19.060342789">
<ele>591.531250</ele>
<time>2012-07-22T15:15:16Z</time>
<extensions>
<speed>0.0</speed>
<temp>0.00</temp>
<bpm>0</bpm>
<rpm>0.00</rpm>
</extensions>
</trkpt>
<trkpt lat="63.990036011" lon="-19.060342789">
<ele>591.515625</ele>
<time>2012-07-22T15:15:21Z</time>
<extensions>
<speed>0.0</speed>
<temp>0.00</temp>
<bpm>0</bpm>
<rpm>0.00</rpm>
</extensions>
</trkpt>
<trkpt lat="63.990036011" lon="-19.060342789">
<ele>591.515625</ele>
<time>2012-07-22T15:15:26Z</time>
<extensions>
<speed>0.0</speed>
<temp>0.00</temp>
<bpm>0</bpm>
<rpm>0.00</rpm>
</extensions>
</trkpt>
<trkpt lat="63.990036011" lon="-19.060342789">
<ele>591.531250</ele>
<time>2012-07-22T15:15:31Z</time>
<extensions>
<speed>0.0</speed>
<temp>0.00</temp>
<bpm>0</bpm>
<rpm>0.00</rpm>
</extensions>
</trkpt>
<trkpt lat="63.990036011" lon="-19.060342789">
<ele>591.546875</ele>
<time>2012-07-22T15:15:36Z</time>
<extensions>
<speed>0.0</speed>
<temp>0.00</temp>
<bpm>0</bpm>
<rpm>0.00</rpm>
</extensions>
</trkpt>
<trkpt lat="63.990036011" lon="-19.060342789">
<ele>591.546875</ele>
<time>2012-07-22T15:15:41Z</time>
<extensions>
<speed>0.0</speed>
<temp>0.00</temp>
<bpm>0</bpm>
<rpm>0.00</rpm>
</extensions>
</trkpt>
<trkpt lat="63.990036011" lon="-19.060342789">
<ele>591.562500</ele>
<time>2012-07-22T15:15:46Z</time>
<extensions>
<speed>0.0</speed>
<temp>0.00</temp>
<bpm>0</bpm>
<rpm>0.00</rpm>
</extensions>
</trkpt>
<trkpt lat="63.990036011" lon="-19.060342789">
<ele>591.578125</ele>
<time>2012-07-22T15:15:51Z</time>
<extensions>
<speed>0.0</speed>
<temp>0.00</temp>
<bpm>0</bpm>
<rpm>0.00</rpm>
</extensions>
</trkpt>
<trkpt lat="63.990036011" lon="-19.060344696">
<ele>591.578125</ele>
<time>2012-07-22T15:15:56Z</time>
<extensions>
<speed>0.0</speed>
<temp>0.00</temp>
<bpm>0</bpm>
<rpm>0.00</rpm>
</extensions>
</trkpt>
<trkpt lat="63.990036011" lon="-19.060344696">
<ele>591.578125</ele>
<time>2012-07-22T15:16:01Z</time>
<extensions>
<speed>0.0</speed>
<temp>0.00</temp>
<bpm>0</bpm>
<rpm>0.00</rpm>
</extensions>
</trkpt>
<trkpt lat="63.990036011" lon="-19.060344696">
<ele>591.593750</ele>
<time>2012-07-22T15:16:06Z</time>
<extensions>
<speed>0.0</speed>
<temp>0.00</temp>
<bpm>0</bpm>
<rpm>0.00</rpm>
</extensions>
</trkpt>
<trkpt lat="63.990032196" lon="-19.060342789">
<ele>591.593750</ele>
<time>2012-07-22T15:16:11Z</time>
<extensions>
<speed>0.0</speed>
<temp>0.00</temp>
<bpm>0</bpm>
<rpm>0.00</rpm>
</extensions>
</trkpt>
<trkpt lat="63.990032196" lon="-19.060342789">
<ele>591.609375</ele>
<time>2012-07-22T15:16:16Z</time>
<extensions>
<speed>0.0</speed>
<temp>0.00</temp>
<bpm>0</bpm>
<rpm>0.00</rpm>
</extensions>
</trkpt>
<trkpt lat="63.990032196" lon="-19.060342789">
<ele>591.609375</ele>
<time>2012-07-22T15:16:21Z</time>
<extensions>
<speed>0.0</speed>
<temp>0.00</temp>
<bpm>0</bpm>
<rpm>0.00</rpm>
</extensions>
</trkpt>
<trkpt lat="63.990032196" lon="-19.060344696">
<ele>591.609375</ele>
<time>2012-07-22T15:16:26Z</time>
<extensions>
<speed>0.0</speed>
<temp>0.00</temp>
<bpm>0</bpm>
<rpm>0.00</rpm>
</extensions>
</trkpt>
<trkpt lat="63.990032196" lon="-19.060342789">
<ele>591.593750</ele>
<time>2012-07-22T15:16:31Z</time>
<extensions>
<speed>0.0</speed>
<temp>0.00</temp>
<bpm>0</bpm>
<rpm>0.00</rpm>
</extensions>
</trkpt>
<trkpt lat="63.990032196" lon="-19.060342789">
<ele>591.593750</ele>
<time>2012-07-22T15:16:36Z</time>
<extensions>
<speed>0.0</speed>
<temp>0.00</temp>
<bpm>0</bpm>
<rpm>0.00</rpm>
</extensions>
</trkpt>
<trkpt lat="63.990032196" lon="-19.060342789">
<ele>591.593750</ele>
<time>2012-07-22T15:16:41Z</time>
<extensions>
<speed>0.0</speed>
<temp>0.00</temp>
<bpm>0</bpm>
<rpm>0.00</rpm>
</extensions>
</trkpt>
<trkpt lat="63.990032196" lon="-19.060342789">
<ele>591.609375</ele>
<time>2012-07-22T15:16:46Z</time>
<extensions>
<speed>0.0</speed>
<temp>0.00</temp>
<bpm>0</bpm>
<rpm>0.00</rpm>
</extensions>
</trkpt>
<trkpt lat="63.990032196" lon="-19.060342789">
<ele>591.625000</ele>
<time>2012-07-22T15:16:51Z</time>
<extensions>
<speed>0.0</speed>
<temp>0.00</temp>
<bpm>0</bpm>
<rpm>0.00</rpm>
</extensions>
</trkpt>
<trkpt lat="63.990032196" lon="-19.060342789">
<ele>591.640625</ele>
<time>2012-07-22T15:16:56Z</time>
<extensions>
<speed>0.0</speed>
<temp>0.00</temp>
<bpm>0</bpm>
<rpm>0.00</rpm>
</extensions>
</trkpt>
<trkpt lat="63.990032196" lon="-19.060342789">
<ele>591.640625</ele>
<time>2012-07-22T15:17:01Z</time>
<speed>0.040000</speed>
<extensions>
<speed>0.0</speed>
<temp>0.00</temp>
<bpm>0</bpm>
<rpm>0.00</rpm>
</extensions>
</trkpt>
<trkpt lat="63.990032196" lon="-19.060342789">
<ele>591.625000</ele>
<time>2012-07-22T15:17:06Z</time>
<speed>0.020000</speed>
<extensions>
<speed>0.0</speed>
<temp>0.00</temp>
<bpm>0</bpm>
<rpm>0.00</rpm>
</extensions>
</trkpt>
</trkseg>
</trk>
</gpx>